<?xml version='1.0' encoding='UTF-8'?><gpx version="1.1" creator="JPX - https://github.com/jenetics/jpx" xmlns="http://www.topografix.com/GPX/1/1"><trk><trkseg><trkpt lat="43.482735148905" lon="13.318615272112682"><ele>232.0</ele><time>2026-04-26T07:00:57.001Z</time></trkpt><trkpt lat="43.48264464330447" lon="13.31858536127408"><ele>232.0</ele><time>2026-04-26T07:00:58.001Z</time></trkpt><trkpt lat="43.48255643981501" lon="13.31855157926076"><ele>232.0</ele><time>2026-04-26T07:00:59.001Z</time></trkpt><trkpt lat="43.48245017267428" lon="13.318485636692722"><ele>232.0</ele><time>2026-04-26T07:01:00.001Z</time></trkpt><trkpt lat="43.4823379667544" lon="13.318446766575663"><ele>232.0</ele><time>2026-04-26T07:01:01.001Z</time></trkpt><trkpt lat="43.48223658671721" lon="13.318421184023721"><ele>232.0</ele><time>2026-04-26T07:01:02Z</time></trkpt><trkpt lat="43.482157190586946" lon="13.318399602206409"><ele>232.0</ele><time>2026-04-26T07:01:03Z</time></trkpt><trkpt lat="43.482092434276744" lon="13.318398352896796"><ele>232.0</ele><time>2026-04-26T07:01:04Z</time></trkpt><trkpt lat="43.482032213714284" lon="13.318245659965914"><ele>232.0</ele><time>2026-04-26T07:01:05Z</time></trkpt><trkpt lat="43.48196320236756" lon="13.31811869642519"><ele>232.0</ele><time>2026-04-26T07:01:06Z</time></trkpt><trkpt lat="43.48188226834044" lon="13.31796467105797"><ele>230.0</ele><time>2026-04-26T07:01:07Z</time></trkpt><trkpt lat="43.48180134637732" lon="13.317806984294657"><ele>228.0</ele><time>2026-04-26T07:01:08Z</time></trkpt><trkpt lat="43.48172285830917" lon="13.317646921006281"><ele>226.0</ele><time>2026-04-26T07:01:09Z</time></trkpt><trkpt lat="43.481647818120926" lon="13.3174906843041"><ele>224.0</ele><time>2026-04-26T07:01:10Z</time></trkpt><trkpt lat="43.481581526898914" lon="13.317352431441307"><ele>224.0</ele><time>2026-04-26T07:01:11Z</time></trkpt><trkpt lat="43.48150417444373" lon="13.317236799365784"><ele>224.0</ele><time>2026-04-26T07:01:12Z</time></trkpt><trkpt lat="43.481439044786306" lon="13.317130457397026"><ele>224.0</ele><time>2026-04-26T07:01:13Z</time></trkpt><trkpt lat="43.48135658308028" lon="13.317043122091837"><ele>224.0</ele><time>2026-04-26T07:01:14Z</time></trkpt><trkpt lat="43.48122439945029" lon="13.317022703977308"><ele>216.66666666666669</ele><time>2026-04-26T07:01:15Z</time></trkpt><trkpt lat="43.48107895792615" lon="13.317016269835719"><ele>209.33333333333331</ele><time>2026-04-26T07:01:16Z</time></trkpt><trkpt lat="43.480919382363844" lon="13.317043404052223"><ele>202.0</ele><time>2026-04-26T07:01:17Z</time></trkpt><trkpt lat="43.48075615088725" lon="13.317043011724179"><ele>202.0</ele><time>2026-04-26T07:01:17.999Z</time></trkpt><trkpt lat="43.480589562867955" lon="13.317062485426627"><ele>202.0</ele><time>2026-04-26T07:01:18.999Z</time></trkpt><trkpt lat="43.48042428730201" lon="13.317104539492659"><ele>202.0</ele><time>2026-04-26T07:01:19.999Z</time></trkpt><trkpt lat="43.480255944232866" lon="13.317128588768924"><ele>202.66666666666666</ele><time>2026-04-26T07:01:20.999Z</time></trkpt><trkpt lat="43.48008914895478" lon="13.317182577347744"><ele>203.33333333333331</ele><time>2026-04-26T07:01:21.999Z</time></trkpt><trkpt lat="43.47992741327259" lon="13.31723699625035"><ele>204.0</ele><time>2026-04-26T07:01:22.999Z</time></trkpt><trkpt lat="43.479759972828234" lon="13.317300132669502"><ele>200.33333333333331</ele><time>2026-04-26T07:01:23.999Z</time></trkpt><trkpt lat="43.47958850441696" lon="13.317381747507696"><ele>196.66666666666666</ele><time>2026-04-26T07:01:24.999Z</time></trkpt><trkpt lat="43.47941650756903" lon="13.317470937053946"><ele>193.0</ele><time>2026-04-26T07:01:25.999Z</time></trkpt><trkpt lat="43.479252040094934" lon="13.317551225296945"><ele>193.0</ele><time>2026-04-26T07:01:26.999Z</time></trkpt><trkpt lat="43.47908242523866" lon="13.31764497451645"><ele>193.0</ele><time>2026-04-26T07:01:27.999Z</time></trkpt><trkpt lat="43.47893017962309" lon="13.317764292224108"><ele>193.0</ele><time>2026-04-26T07:01:28.999Z</time></trkpt><trkpt lat="43.47877314518308" lon="13.317889582939465"><ele>192.33333333333331</ele><time>2026-04-26T07:01:29.999Z</time></trkpt><trkpt lat="43.4786214374478" lon="13.318013099898328"><ele>191.66666666666666</ele><time>2026-04-26T07:01:30.999Z</time></trkpt><trkpt lat="43.47847536994797" lon="13.318139741844886"><ele>191.0</ele><time>2026-04-26T07:01:31.999Z</time></trkpt><trkpt lat="43.478328297566875" lon="13.318254287307191"><ele>191.0</ele><time>2026-04-26T07:01:32.999Z</time></trkpt><trkpt lat="43.478171080575734" lon="13.318335187028069"><ele>191.0</ele><time>2026-04-26T07:01:33.999Z</time></trkpt><trkpt lat="43.478007774158826" lon="13.31840781138026"><ele>191.0</ele><time>2026-04-26T07:01:34.999Z</time></trkpt><trkpt lat="43.47785056823405" lon="13.318447283803552"><ele>189.25</ele><time>2026-04-26T07:01:35.999Z</time></trkpt><trkpt lat="43.47769596209465" lon="13.318486208479722"><ele>187.5</ele><time>2026-04-26T07:01:36.999Z</time></trkpt><trkpt lat="43.47754652001797" lon="13.318516008013892"><ele>185.75</ele><time>2026-04-26T07:01:37.999Z</time></trkpt><trkpt lat="43.477418435241944" lon="13.318524953391774"><ele>184.0</ele><time>2026-04-26T07:01:38.999Z</time></trkpt><trkpt lat="43.47729584535546" lon="13.318482449394175"><ele>184.0</ele><time>2026-04-26T07:01:39.999Z</time></trkpt><trkpt lat="43.47718599720337" lon="13.318395464010035"><ele>184.0</ele><time>2026-04-26T07:01:40.999Z</time></trkpt><trkpt lat="43.47708814064635" lon="13.318272976766087"><ele>184.0</ele><time>2026-04-26T07:01:41.999Z</time></trkpt><trkpt lat="43.47696864278119" lon="13.31818332124616"><ele>184.0</ele><time>2026-04-26T07:01:42.999Z</time></trkpt><trkpt lat="43.47683083689267" lon="13.318129677985885"><ele>182.33333333333334</ele><time>2026-04-26T07:01:43.999Z</time></trkpt><trkpt lat="43.476672804461685" lon="13.318102899094821"><ele>180.66666666666666</ele><time>2026-04-26T07:01:44.999Z</time></trkpt><trkpt lat="43.47650206887678" lon="13.318118004350843"><ele>179.0</ele><time>2026-04-26T07:01:45.999Z</time></trkpt><trkpt lat="43.4763271463746" lon="13.31816078671695"><ele>176.0</ele><time>2026-04-26T07:01:46.999Z</time></trkpt><trkpt lat="43.47615702267465" lon="13.318243441384373"><ele>173.0</ele><time>2026-04-26T07:01:47.999Z</time></trkpt><trkpt lat="43.476010596458934" lon="13.31838780512083"><ele>170.0</ele><time>2026-04-26T07:01:48.998Z</time></trkpt><trkpt lat="43.47585268198989" lon="13.318517429376604"><ele>170.0</ele><time>2026-04-26T07:01:49.998Z</time></trkpt><trkpt lat="43.47570899775529" lon="13.318660109126439"><ele>170.0</ele><time>2026-04-26T07:01:50.998Z</time></trkpt><trkpt lat="43.475567687923906" lon="13.318781965204003"><ele>170.0</ele><time>2026-04-26T07:01:51.998Z</time></trkpt><trkpt lat="43.47540687654683" lon="13.318821287260091"><ele>168.33333333333331</ele><time>2026-04-26T07:01:52.998Z</time></trkpt><trkpt lat="43.4752513769847" lon="13.31888148972348"><ele>166.66666666666666</ele><time>2026-04-26T07:01:53.998Z</time></trkpt><trkpt lat="43.475086911397526" lon="13.318860975762128"><ele>165.0</ele><time>2026-04-26T07:01:54.998Z</time></trkpt><trkpt lat="43.47491745315035" lon="13.318857714433282"><ele>165.0</ele><time>2026-04-26T07:01:55.998Z</time></trkpt><trkpt lat="43.47474402774634" lon="13.318858852460249"><ele>165.0</ele><time>2026-04-26T07:01:56.998Z</time></trkpt><trkpt lat="43.47457553862994" lon="13.318796945438425"><ele>165.0</ele><time>2026-04-26T07:01:57.998Z</time></trkpt><trkpt lat="43.47441011457341" lon="13.318734942106977"><ele>162.0</ele><time>2026-04-26T07:01:58.998Z</time></trkpt><trkpt lat="43.47423968523477" lon="13.318683749226002"><ele>159.0</ele><time>2026-04-26T07:01:59.998Z</time></trkpt><trkpt lat="43.4740736866991" lon="13.318608945831418"><ele>156.0</ele><time>2026-04-26T07:02:00.998Z</time></trkpt><trkpt lat="43.4739083536659" lon="13.318533313001211"><ele>154.0</ele><time>2026-04-26T07:02:01.998Z</time></trkpt><trkpt lat="43.47374468559585" lon="13.3184564842"><ele>152.0</ele><time>2026-04-26T07:02:02.998Z</time></trkpt><trkpt lat="43.47358750924801" lon="13.318362430953862"><ele>150.0</ele><time>2026-04-26T07:02:03.998Z</time></trkpt><trkpt lat="43.47342985305232" lon="13.318288342692709"><ele>150.0</ele><time>2026-04-26T07:02:04.998Z</time></trkpt><trkpt lat="43.47328595298345" lon="13.318220718912544"><ele>150.0</ele><time>2026-04-26T07:02:05.998Z</time></trkpt><trkpt lat="43.473150135985016" lon="13.318156895313615"><ele>150.0</ele><time>2026-04-26T07:02:06.998Z</time></trkpt><trkpt lat="43.47302220499373" lon="13.318096321214655"><ele>150.0</ele><time>2026-04-26T07:02:07.998Z</time></trkpt><trkpt lat="43.47290638143299" lon="13.318040517938426"><ele>148.0</ele><time>2026-04-26T07:02:08.998Z</time></trkpt><trkpt lat="43.472801860963294" lon="13.317988251455178"><ele>146.0</ele><time>2026-04-26T07:02:09.998Z</time></trkpt><trkpt lat="43.472707156846525" lon="13.317939376558403"><ele>144.0</ele><time>2026-04-26T07:02:10.998Z</time></trkpt><trkpt lat="43.472616197139715" lon="13.317891664047217"><ele>142.0</ele><time>2026-04-26T07:02:11.998Z</time></trkpt><trkpt lat="43.47253230595036" lon="13.317844289989953"><ele>140.0</ele><time>2026-04-26T07:02:12.998Z</time></trkpt><trkpt lat="43.47246330637971" lon="13.317812683719053"><ele>140.0</ele><time>2026-04-26T07:02:13.998Z</time></trkpt><trkpt lat="43.472376734312725" lon="13.317737632893818"><ele>140.0</ele><time>2026-04-26T07:02:15.998Z</time></trkpt><trkpt lat="43.47228045233273" lon="13.317643020311348"><ele>140.0</ele><time>2026-04-26T07:02:17.998Z</time></trkpt><trkpt lat="43.47219371725374" lon="13.317563664172507"><ele>140.0</ele><time>2026-04-26T07:02:18.998Z</time></trkpt><trkpt lat="43.47211438465582" lon="13.31746412596345"><ele>140.0</ele><time>2026-04-26T07:02:19.998Z</time></trkpt><trkpt lat="43.47200900711537" lon="13.317384000242532"><ele>140.0</ele><time>2026-04-26T07:02:20.998Z</time></trkpt><trkpt lat="43.471927408858114" lon="13.317245314778091"><ele>140.0</ele><time>2026-04-26T07:02:21.998Z</time></trkpt><trkpt lat="43.471827699197426" lon="13.317121133708264"><ele>140.0</ele><time>2026-04-26T07:02:22.998Z</time></trkpt><trkpt lat="43.47176886775607" lon="13.316942424903186"><ele>140.0</ele><time>2026-04-26T07:02:23.998Z</time></trkpt><trkpt lat="43.47171027711574" lon="13.31675953856424"><ele>140.66666666666666</ele><time>2026-04-26T07:02:24.998Z</time></trkpt><trkpt lat="43.47168094062872" lon="13.316570332845044"><ele>141.33333333333334</ele><time>2026-04-26T07:02:25.998Z</time></trkpt><trkpt lat="43.47163897907157" lon="13.316361826367965"><ele>142.0</ele><time>2026-04-26T07:02:26.998Z</time></trkpt><trkpt lat="43.47162018136602" lon="13.316142026051391"><ele>142.0</ele><time>2026-04-26T07:02:27.998Z</time></trkpt><trkpt lat="43.47158136781518" lon="13.315934773229138"><ele>142.0</ele><time>2026-04-26T07:02:28.998Z</time></trkpt><trkpt lat="43.47153562973762" lon="13.3157613590705"><ele>142.0</ele><time>2026-04-26T07:02:29.998Z</time></trkpt><trkpt lat="43.471474692498724" lon="13.315608497726934"><ele>142.0</ele><time>2026-04-26T07:02:30.997Z</time></trkpt><trkpt lat="43.47141131915287" lon="13.315473777850087"><ele>142.0</ele><time>2026-04-26T07:02:31.997Z</time></trkpt><trkpt lat="43.471347989877806" lon="13.31536842845805"><ele>142.0</ele><time>2026-04-26T07:02:32.997Z</time></trkpt><trkpt lat="43.47130891712864" lon="13.315268662695255"><ele>142.0</ele><time>2026-04-26T07:02:33.997Z</time></trkpt><trkpt lat="43.47126317719822" lon="13.31519583226186"><ele>142.0</ele><time>2026-04-26T07:02:34.997Z</time></trkpt><trkpt lat="43.47119307057302" lon="13.315108292307443"><ele>142.0</ele><time>2026-04-26T07:02:36.997Z</time></trkpt><trkpt lat="43.47116507695118" lon="13.315026663121206"><ele>142.0</ele><time>2026-04-26T07:02:38.997Z</time></trkpt><trkpt lat="43.47112605577297" lon="13.314956607003857"><ele>141.4</ele><time>2026-04-26T07:02:42.999Z</time></trkpt><trkpt lat="43.47108539627992" lon="13.314883609493572"><ele>140.79999999999998</ele><time>2026-04-26T07:02:44.999Z</time></trkpt><trkpt lat="43.47102366744893" lon="13.314793158105315"><ele>140.2</ele><time>2026-04-26T07:02:46.999Z</time></trkpt><trkpt lat="43.47100268066472" lon="13.314658954721992"><ele>139.6</ele><time>2026-04-26T07:02:49.999Z</time></trkpt><trkpt lat="43.47097961431996" lon="13.31454917569042"><ele>139.0</ele><time>2026-04-26T07:02:51.999Z</time></trkpt><trkpt lat="43.47089015511723" lon="13.314453102071516"><ele>138.83333333333334</ele><time>2026-04-26T07:02:53.999Z</time></trkpt><trkpt lat="43.470824287514525" lon="13.314413169892056"><ele>138.66666666666669</ele><time>2026-04-26T07:02:55Z</time></trkpt><trkpt lat="43.47076028857106" lon="13.314356360551963"><ele>138.5</ele><time>2026-04-26T07:02:56Z</time></trkpt><trkpt lat="43.47070142481543" lon="13.314283008494478"><ele>138.33333333333334</ele><time>2026-04-26T07:02:57Z</time></trkpt><trkpt lat="43.470637275077166" lon="13.314182751507346"><ele>138.16666666666666</ele><time>2026-04-26T07:02:58Z</time></trkpt><trkpt lat="43.470565223485565" lon="13.314061590524927"><ele>138.0</ele><time>2026-04-26T07:02:59Z</time></trkpt><trkpt lat="43.470485048650396" lon="13.313918138316792"><ele>138.66666666666666</ele><time>2026-04-26T07:03:00Z</time></trkpt><trkpt lat="43.470419832254564" lon="13.313728673243336"><ele>139.33333333333331</ele><time>2026-04-26T07:03:01Z</time></trkpt><trkpt lat="43.47031270573876" lon="13.313544435848959"><ele>140.0</ele><time>2026-04-26T07:03:02Z</time></trkpt><trkpt lat="43.47020059014443" lon="13.313352354521463"><ele>140.0</ele><time>2026-04-26T07:03:03Z</time></trkpt><trkpt lat="43.470092782965445" lon="13.313165454093127"><ele>140.0</ele><time>2026-04-26T07:03:04Z</time></trkpt><trkpt lat="43.46997847075935" lon="13.312964174743378"><ele>140.0</ele><time>2026-04-26T07:03:05Z</time></trkpt><trkpt lat="43.46983609876008" lon="13.312772133088334"><ele>140.33333333333331</ele><time>2026-04-26T07:03:05.999Z</time></trkpt><trkpt lat="43.4697157891055" lon="13.312535500932938"><ele>140.66666666666666</ele><time>2026-04-26T07:03:06.999Z</time></trkpt><trkpt lat="43.46960160207674" lon="13.312303047843805"><ele>141.0</ele><time>2026-04-26T07:03:07.999Z</time></trkpt><trkpt lat="43.46949205388922" lon="13.31208442570061"><ele>141.0</ele><time>2026-04-26T07:03:08.999Z</time></trkpt><trkpt lat="43.46941566195938" lon="13.311860348224917"><ele>141.0</ele><time>2026-04-26T07:03:09.999Z</time></trkpt><trkpt lat="43.469322261411115" lon="13.31166785610835"><ele>141.0</ele><time>2026-04-26T07:03:10.999Z</time></trkpt><trkpt lat="43.4692344985139" lon="13.311486801624143"><ele>141.25</ele><time>2026-04-26T07:03:11.999Z</time></trkpt><trkpt lat="43.46915467125523" lon="13.311322195824907"><ele>141.5</ele><time>2026-04-26T07:03:12.999Z</time></trkpt><trkpt lat="43.4690818939586" lon="13.311172127368845"><ele>141.75</ele><time>2026-04-26T07:03:13.999Z</time></trkpt><trkpt lat="43.46902277705671" lon="13.311050574626437"><ele>142.0</ele><time>2026-04-26T07:03:14.999Z</time></trkpt><trkpt lat="43.46896638455364" lon="13.310935749587356"><ele>142.0</ele><time>2026-04-26T07:03:15.999Z</time></trkpt><trkpt lat="43.46889926144458" lon="13.310839617727249"><ele>142.0</ele><time>2026-04-26T07:03:16.999Z</time></trkpt><trkpt lat="43.46885450758712" lon="13.310734035516056"><ele>142.0</ele><time>2026-04-26T07:03:17.999Z</time></trkpt><trkpt lat="43.46881318664448" lon="13.310633161129907"><ele>142.0</ele><time>2026-04-26T07:03:18.999Z</time></trkpt><trkpt lat="43.468765324187714" lon="13.310541447651067"><ele>142.0</ele><time>2026-04-26T07:03:19.999Z</time></trkpt><trkpt lat="43.468721438831494" lon="13.310452727562675"><ele>142.0</ele><time>2026-04-26T07:03:20.999Z</time></trkpt><trkpt lat="43.46867373226026" lon="13.310343310039935"><ele>141.83333333333334</ele><time>2026-04-26T07:03:21.999Z</time></trkpt><trkpt lat="43.468628226460964" lon="13.310235998189563"><ele>141.66666666666669</ele><time>2026-04-26T07:03:22.999Z</time></trkpt><trkpt lat="43.46859652099532" lon="13.31010550918997"><ele>141.5</ele><time>2026-04-26T07:03:23.999Z</time></trkpt><trkpt lat="43.468563598001715" lon="13.310008908435703"><ele>141.33333333333334</ele><time>2026-04-26T07:03:24.999Z</time></trkpt><trkpt lat="43.46852569056359" lon="13.309897274806849"><ele>141.16666666666666</ele><time>2026-04-26T07:03:25.999Z</time></trkpt><trkpt lat="43.46849860768436" lon="13.30978493462844"><ele>141.0</ele><time>2026-04-26T07:03:26.999Z</time></trkpt><trkpt lat="43.468461692393426" lon="13.30966868292699"><ele>141.0</ele><time>2026-04-26T07:03:27.999Z</time></trkpt><trkpt lat="43.468426809096066" lon="13.30951461921731"><ele>141.0</ele><time>2026-04-26T07:03:28.999Z</time></trkpt><trkpt lat="43.46839704169591" lon="13.309397588400014"><ele>141.0</ele><time>2026-04-26T07:03:29.999Z</time></trkpt><trkpt lat="43.46836659941964" lon="13.309271181465322"><ele>141.0</ele><time>2026-04-26T07:03:30.999Z</time></trkpt><trkpt lat="43.468337503988174" lon="13.30915049583221"><ele>141.0</ele><time>2026-04-26T07:03:31.999Z</time></trkpt><trkpt lat="43.46830485473616" lon="13.309011212683103"><ele>141.75</ele><time>2026-04-26T07:03:32.999Z</time></trkpt><trkpt lat="43.46826581766259" lon="13.308835742975495"><ele>142.5</ele><time>2026-04-26T07:03:33.999Z</time></trkpt><trkpt lat="43.46822458673414" lon="13.308630888910251"><ele>143.25</ele><time>2026-04-26T07:03:34.999Z</time></trkpt><trkpt lat="43.46819343944053" lon="13.308455407986962"><ele>144.0</ele><time>2026-04-26T07:03:35.999Z</time></trkpt><trkpt lat="43.46816915659613" lon="13.308311479819881"><ele>144.0</ele><time>2026-04-26T07:03:36.999Z</time></trkpt><trkpt lat="43.46814266717774" lon="13.308187777150664"><ele>144.0</ele><time>2026-04-26T07:03:37.999Z</time></trkpt><trkpt lat="43.46812512160569" lon="13.30807213594225"><ele>144.0</ele><time>2026-04-26T07:03:38.999Z</time></trkpt><trkpt lat="43.46810556239839" lon="13.307960482898498"><ele>144.0</ele><time>2026-04-26T07:03:39.999Z</time></trkpt><trkpt lat="43.46808936560002" lon="13.307852110639812"><ele>144.0</ele><time>2026-04-26T07:03:40.999Z</time></trkpt><trkpt lat="43.4680625243376" lon="13.307693189136625"><ele>145.33333333333334</ele><time>2026-04-26T07:03:41.999Z</time></trkpt><trkpt lat="43.46803114840394" lon="13.307487170451964"><ele>146.66666666666669</ele><time>2026-04-26T07:03:42.999Z</time></trkpt><trkpt lat="43.468001312640936" lon="13.30725921462484"><ele>148.0</ele><time>2026-04-26T07:03:43.999Z</time></trkpt><trkpt lat="43.46797540707851" lon="13.307007199965538"><ele>147.66666666666669</ele><time>2026-04-26T07:03:44.999Z</time></trkpt><trkpt lat="43.46794421995538" lon="13.306755879655338"><ele>147.33333333333334</ele><time>2026-04-26T07:03:45.999Z</time></trkpt><trkpt lat="43.46791296305196" lon="13.306490478554531"><ele>147.0</ele><time>2026-04-26T07:03:46.999Z</time></trkpt><trkpt lat="43.46788418447701" lon="13.306215708551584"><ele>147.0</ele><time>2026-04-26T07:03:47.999Z</time></trkpt><trkpt lat="43.46786146239481" lon="13.305951946579441"><ele>147.0</ele><time>2026-04-26T07:03:48.999Z</time></trkpt><trkpt lat="43.4678454377296" lon="13.305677158895291"><ele>147.0</ele><time>2026-04-26T07:03:49.999Z</time></trkpt><trkpt lat="43.46782132632957" lon="13.30542374060189"><ele>146.66666666666666</ele><time>2026-04-26T07:03:50.999Z</time></trkpt><trkpt lat="43.46780830983333" lon="13.305173176928548"><ele>146.33333333333331</ele><time>2026-04-26T07:03:51.999Z</time></trkpt><trkpt lat="43.46780923069568" lon="13.304928253843492"><ele>146.0</ele><time>2026-04-26T07:03:52.999Z</time></trkpt><trkpt lat="43.4678214488085" lon="13.304673897522374"><ele>145.66666666666666</ele><time>2026-04-26T07:03:53.999Z</time></trkpt><trkpt lat="43.467838659165544" lon="13.304414742969682"><ele>145.33333333333334</ele><time>2026-04-26T07:03:54.999Z</time></trkpt><trkpt lat="43.46784649395573" lon="13.304162941752896"><ele>145.0</ele><time>2026-04-26T07:03:55.999Z</time></trkpt><trkpt lat="43.46783310890042" lon="13.303918101251144"><ele>145.33333333333334</ele><time>2026-04-26T07:03:56.999Z</time></trkpt><trkpt lat="43.46780060174965" lon="13.303691286883671"><ele>145.66666666666666</ele><time>2026-04-26T07:03:57.999Z</time></trkpt><trkpt lat="43.46775664937352" lon="13.303481522102183"><ele>146.0</ele><time>2026-04-26T07:03:58.999Z</time></trkpt><trkpt lat="43.46770017685345" lon="13.303295467185904"><ele>146.0</ele><time>2026-04-26T07:03:59.999Z</time></trkpt><trkpt lat="43.46763221644316" lon="13.30313051758631"><ele>146.0</ele><time>2026-04-26T07:04:00.999Z</time></trkpt><trkpt lat="43.46756486654416" lon="13.302971523844551"><ele>146.0</ele><time>2026-04-26T07:04:01.998Z</time></trkpt><trkpt lat="43.467507785605406" lon="13.30281846703869"><ele>146.0</ele><time>2026-04-26T07:04:02.998Z</time></trkpt><trkpt lat="43.46746956444059" lon="13.30268191665496"><ele>146.33333333333331</ele><time>2026-04-26T07:04:03.998Z</time></trkpt><trkpt lat="43.467459690433344" lon="13.30257254647021"><ele>146.66666666666666</ele><time>2026-04-26T07:04:04.998Z</time></trkpt><trkpt lat="43.46747065722118" lon="13.302476628607781"><ele>147.0</ele><time>2026-04-26T07:04:05.998Z</time></trkpt><trkpt lat="43.4675125688306" lon="13.302381605506104"><ele>147.33333333333334</ele><time>2026-04-26T07:04:06.998Z</time></trkpt><trkpt lat="43.46755717317435" lon="13.302278629878407"><ele>147.66666666666669</ele><time>2026-04-26T07:04:07.998Z</time></trkpt><trkpt lat="43.46756185085983" lon="13.302170199949972"><ele>148.0</ele><time>2026-04-26T07:04:08.998Z</time></trkpt><trkpt lat="43.46752261137431" lon="13.302064341361438"><ele>148.25</ele><time>2026-04-26T07:04:09.998Z</time></trkpt><trkpt lat="43.467452479563036" lon="13.301970919659695"><ele>148.5</ele><time>2026-04-26T07:04:10.998Z</time></trkpt><trkpt lat="43.46735561697357" lon="13.301924640711873"><ele>148.75</ele><time>2026-04-26T07:04:11.998Z</time></trkpt><trkpt lat="43.46730588671956" lon="13.30175195440611"><ele>149.0</ele><time>2026-04-26T07:04:12.998Z</time></trkpt><trkpt lat="43.46725387132407" lon="13.30158110452545"><ele>149.33333333333331</ele><time>2026-04-26T07:04:13.998Z</time></trkpt><trkpt lat="43.467227580725286" lon="13.301373449090981"><ele>149.66666666666666</ele><time>2026-04-26T07:04:14.998Z</time></trkpt><trkpt lat="43.46717254437182" lon="13.301168133171622"><ele>150.0</ele><time>2026-04-26T07:04:15.998Z</time></trkpt><trkpt lat="43.46713459771191" lon="13.300954800922918"><ele>150.0</ele><time>2026-04-26T07:04:16.998Z</time></trkpt><trkpt lat="43.467092099114666" lon="13.300717346910433"><ele>150.0</ele><time>2026-04-26T07:04:17.998Z</time></trkpt><trkpt lat="43.46704447966617" lon="13.300460299045097"><ele>150.0</ele><time>2026-04-26T07:04:18.998Z</time></trkpt><trkpt lat="43.466987498784874" lon="13.300196063517065"><ele>150.0</ele><time>2026-04-26T07:04:19.998Z</time></trkpt><trkpt lat="43.46694413599496" lon="13.29993908718571"><ele>150.0</ele><time>2026-04-26T07:04:20.998Z</time></trkpt><trkpt lat="43.4668836623251" lon="13.299678953752423"><ele>150.0</ele><time>2026-04-26T07:04:21.998Z</time></trkpt><trkpt lat="43.46681637884168" lon="13.299416321454625"><ele>149.33333333333334</ele><time>2026-04-26T07:04:22.998Z</time></trkpt><trkpt lat="43.4667515212102" lon="13.29914656078624"><ele>148.66666666666669</ele><time>2026-04-26T07:04:23.998Z</time></trkpt><trkpt lat="43.4666891764568" lon="13.298873343820995"><ele>148.0</ele><time>2026-04-26T07:04:24.998Z</time></trkpt><trkpt lat="43.466626022491894" lon="13.298592388363566"><ele>148.0</ele><time>2026-04-26T07:04:25.998Z</time></trkpt><trkpt lat="43.46655105787058" lon="13.298313739242126"><ele>148.0</ele><time>2026-04-26T07:04:26.998Z</time></trkpt><trkpt lat="43.46645851338768" lon="13.298039276964339"><ele>148.0</ele><time>2026-04-26T07:04:27.998Z</time></trkpt><trkpt lat="43.46635076401811" lon="13.297760114865763"><ele>146.5</ele><time>2026-04-26T07:04:28.998Z</time></trkpt><trkpt lat="43.46623655297423" lon="13.29748192205491"><ele>145.0</ele><time>2026-04-26T07:04:29.998Z</time></trkpt><trkpt lat="43.4661261942643" lon="13.297219843658034"><ele>145.0</ele><time>2026-04-26T07:04:30.998Z</time></trkpt><trkpt lat="43.46604156643418" lon="13.29694721362587"><ele>145.0</ele><time>2026-04-26T07:04:31.998Z</time></trkpt><trkpt lat="43.46592980395051" lon="13.29669978406799"><ele>145.0</ele><time>2026-04-26T07:04:32.998Z</time></trkpt><trkpt lat="43.465835630149385" lon="13.296445301354305"><ele>145.0</ele><time>2026-04-26T07:04:33.998Z</time></trkpt><trkpt lat="43.4657430384452" lon="13.296193411109446"><ele>145.0</ele><time>2026-04-26T07:04:34.998Z</time></trkpt><trkpt lat="43.46565617866026" lon="13.295945980766659"><ele>145.0</ele><time>2026-04-26T07:04:35.998Z</time></trkpt><trkpt lat="43.465578612592736" lon="13.29568989690737"><ele>144.66666666666669</ele><time>2026-04-26T07:04:36.998Z</time></trkpt><trkpt lat="43.46550881670618" lon="13.295431579077459"><ele>144.33333333333334</ele><time>2026-04-26T07:04:37.998Z</time></trkpt><trkpt lat="43.46545960019457" lon="13.2951643394105"><ele>144.0</ele><time>2026-04-26T07:04:38.998Z</time></trkpt><trkpt lat="43.4654168003404" lon="13.294897440142579"><ele>143.66666666666666</ele><time>2026-04-26T07:04:39.998Z</time></trkpt><trkpt lat="43.46539754586046" lon="13.29462534711085"><ele>143.33333333333331</ele><time>2026-04-26T07:04:40.998Z</time></trkpt><trkpt lat="43.46535240806461" lon="13.294355852168724"><ele>143.0</ele><time>2026-04-26T07:04:41.998Z</time></trkpt><trkpt lat="43.465326832760304" lon="13.294080031498341"><ele>143.33333333333331</ele><time>2026-04-26T07:04:42.998Z</time></trkpt><trkpt lat="43.46530096973252" lon="13.293820683405908"><ele>143.66666666666666</ele><time>2026-04-26T07:04:43.998Z</time></trkpt><trkpt lat="43.4652712459726" lon="13.293588447007274"><ele>144.0</ele><time>2026-04-26T07:04:44.998Z</time></trkpt><trkpt lat="43.465246806910216" lon="13.293371739609878"><ele>144.0</ele><time>2026-04-26T07:04:45.998Z</time></trkpt><trkpt lat="43.4652264034806" lon="13.29317171934467"><ele>144.0</ele><time>2026-04-26T07:04:46.998Z</time></trkpt><trkpt lat="43.465207836461545" lon="13.29298050576422"><ele>144.0</ele><time>2026-04-26T07:04:47.998Z</time></trkpt><trkpt lat="43.46518916945864" lon="13.29279608029924"><ele>144.0</ele><time>2026-04-26T07:04:48.999Z</time></trkpt><trkpt lat="43.4651608891657" lon="13.292617085464396"><ele>143.33333333333334</ele><time>2026-04-26T07:04:49.999Z</time></trkpt><trkpt lat="43.46512024211387" lon="13.292436894247153"><ele>142.66666666666669</ele><time>2026-04-26T07:04:50.999Z</time></trkpt><trkpt lat="43.465056936450914" lon="13.292250889287955"><ele>142.0</ele><time>2026-04-26T07:04:51.999Z</time></trkpt><trkpt lat="43.46495992208974" lon="13.292066227852105"><ele>142.0</ele><time>2026-04-26T07:04:52.999Z</time></trkpt><trkpt lat="43.46485994434903" lon="13.291910321015983"><ele>142.0</ele><time>2026-04-26T07:04:53.999Z</time></trkpt><trkpt lat="43.46474061069555" lon="13.291745249848791"><ele>142.0</ele><time>2026-04-26T07:04:54.999Z</time></trkpt><trkpt lat="43.464648960737485" lon="13.291546647884577"><ele>143.33333333333334</ele><time>2026-04-26T07:04:56Z</time></trkpt><trkpt lat="43.46455118971932" lon="13.291355498387317"><ele>144.66666666666666</ele><time>2026-04-26T07:04:56.999Z</time></trkpt><trkpt lat="43.464461207008036" lon="13.291158095285374"><ele>146.0</ele><time>2026-04-26T07:04:58Z</time></trkpt><trkpt lat="43.464373375235944" lon="13.290949277675438"><ele>146.0</ele><time>2026-04-26T07:04:59Z</time></trkpt><trkpt lat="43.464286019508506" lon="13.290731937159308"><ele>146.0</ele><time>2026-04-26T07:05:00Z</time></trkpt><trkpt lat="43.46420144480472" lon="13.290518149853261"><ele>146.0</ele><time>2026-04-26T07:05:01Z</time></trkpt><trkpt lat="43.464109022980644" lon="13.29032455165905"><ele>147.33333333333331</ele><time>2026-04-26T07:05:02Z</time></trkpt><trkpt lat="43.4640555976348" lon="13.29009595828124"><ele>148.66666666666666</ele><time>2026-04-26T07:05:03Z</time></trkpt><trkpt lat="43.4640015483333" lon="13.289871885441364"><ele>150.0</ele><time>2026-04-26T07:05:04Z</time></trkpt><trkpt lat="43.46394990536402" lon="13.289637691012294"><ele>150.33333333333334</ele><time>2026-04-26T07:05:05Z</time></trkpt><trkpt lat="43.4638968496248" lon="13.289396870348046"><ele>150.66666666666669</ele><time>2026-04-26T07:05:06Z</time></trkpt><trkpt lat="43.46382560371091" lon="13.289154431370221"><ele>151.0</ele><time>2026-04-26T07:05:07Z</time></trkpt><trkpt lat="43.46377244392319" lon="13.288902394295537"><ele>149.66666666666669</ele><time>2026-04-26T07:05:08Z</time></trkpt><trkpt lat="43.46370069257127" lon="13.288654849878455"><ele>148.33333333333334</ele><time>2026-04-26T07:05:09Z</time></trkpt><trkpt lat="43.463619266070985" lon="13.288406679776088"><ele>147.0</ele><time>2026-04-26T07:05:10Z</time></trkpt><trkpt lat="43.46353297516599" lon="13.288155004097627"><ele>147.66666666666666</ele><time>2026-04-26T07:05:11Z</time></trkpt><trkpt lat="43.463464632042104" lon="13.287897688846991"><ele>148.33333333333331</ele><time>2026-04-26T07:05:12Z</time></trkpt><trkpt lat="43.463391070006374" lon="13.287640318209597"><ele>149.0</ele><time>2026-04-26T07:05:12.999Z</time></trkpt><trkpt lat="43.46332040964789" lon="13.28739060204112"><ele>150.66666666666666</ele><time>2026-04-26T07:05:13.999Z</time></trkpt><trkpt lat="43.463274278870166" lon="13.287131105842388"><ele>152.33333333333334</ele><time>2026-04-26T07:05:14.999Z</time></trkpt><trkpt lat="43.463250478875416" lon="13.28686179468892"><ele>154.0</ele><time>2026-04-26T07:05:15.999Z</time></trkpt><trkpt lat="43.46323409579371" lon="13.286588932227849"><ele>155.0</ele><time>2026-04-26T07:05:16.999Z</time></trkpt><trkpt lat="43.46325324533754" lon="13.28631906338118"><ele>156.0</ele><time>2026-04-26T07:05:17.999Z</time></trkpt><trkpt lat="43.46325052795868" lon="13.286046223281378"><ele>157.0</ele><time>2026-04-26T07:05:18.999Z</time></trkpt><trkpt lat="43.46327145647026" lon="13.285775374822254"><ele>156.0</ele><time>2026-04-26T07:05:19.999Z</time></trkpt><trkpt lat="43.46328304130074" lon="13.28549619420031"><ele>155.0</ele><time>2026-04-26T07:05:20.999Z</time></trkpt><trkpt lat="43.46329365517411" lon="13.285223412776604"><ele>154.0</ele><time>2026-04-26T07:05:21.999Z</time></trkpt><trkpt lat="43.46330728468892" lon="13.28494847825268"><ele>153.33333333333334</ele><time>2026-04-26T07:05:22.999Z</time></trkpt><trkpt lat="43.46332134707274" lon="13.284674336425027"><ele>152.66666666666666</ele><time>2026-04-26T07:05:23.999Z</time></trkpt><trkpt lat="43.46334070269689" lon="13.284402475189893"><ele>152.0</ele><time>2026-04-26T07:05:24.999Z</time></trkpt><trkpt lat="43.463358922036655" lon="13.28412952406364"><ele>152.0</ele><time>2026-04-26T07:05:25.999Z</time></trkpt><trkpt lat="43.46337389086757" lon="13.283863716531734"><ele>152.0</ele><time>2026-04-26T07:05:26.999Z</time></trkpt><trkpt lat="43.46339650759759" lon="13.283599538825476"><ele>152.0</ele><time>2026-04-26T07:05:27.999Z</time></trkpt><trkpt lat="43.46343264733231" lon="13.283333564346625"><ele>151.66666666666666</ele><time>2026-04-26T07:05:28.999Z</time></trkpt><trkpt lat="43.46346114323791" lon="13.283077092078457"><ele>151.33333333333334</ele><time>2026-04-26T07:05:29.999Z</time></trkpt><trkpt lat="43.46350113351621" lon="13.282820009263792"><ele>151.0</ele><time>2026-04-26T07:05:30.999Z</time></trkpt><trkpt lat="43.463544177561936" lon="13.282568882685577"><ele>151.0</ele><time>2026-04-26T07:05:31.999Z</time></trkpt><trkpt lat="43.463581331241606" lon="13.28231716178304"><ele>151.0</ele><time>2026-04-26T07:05:32.999Z</time></trkpt><trkpt lat="43.46361268910944" lon="13.282067590946415"><ele>151.0</ele><time>2026-04-26T07:05:33.999Z</time></trkpt><trkpt lat="43.463631061627595" lon="13.281837174570102"><ele>151.66666666666669</ele><time>2026-04-26T07:05:34.999Z</time></trkpt><trkpt lat="43.46364281814066" lon="13.281622209017716"><ele>152.33333333333334</ele><time>2026-04-26T07:05:35.999Z</time></trkpt><trkpt lat="43.46362980824137" lon="13.2814147685937"><ele>153.0</ele><time>2026-04-26T07:05:36.999Z</time></trkpt><trkpt lat="43.463586799510765" lon="13.281204290364418"><ele>155.0</ele><time>2026-04-26T07:05:37.999Z</time></trkpt><trkpt lat="43.46351944535695" lon="13.28099296123031"><ele>157.0</ele><time>2026-04-26T07:05:38.999Z</time></trkpt><trkpt lat="43.46346305740875" lon="13.280773823827042"><ele>159.0</ele><time>2026-04-26T07:05:39.999Z</time></trkpt><trkpt lat="43.46339519758158" lon="13.28056190030998"><ele>160.25</ele><time>2026-04-26T07:05:40.999Z</time></trkpt><trkpt lat="43.46334547304319" lon="13.28036014394367"><ele>161.5</ele><time>2026-04-26T07:05:41.999Z</time></trkpt><trkpt lat="43.46330389065862" lon="13.280175218394536"><ele>162.75</ele><time>2026-04-26T07:05:42.999Z</time></trkpt><trkpt lat="43.46324339598465" lon="13.280012212224623"><ele>164.0</ele><time>2026-04-26T07:05:43.999Z</time></trkpt><trkpt lat="43.46316824469557" lon="13.279859652489604"><ele>162.75</ele><time>2026-04-26T07:05:44.999Z</time></trkpt><trkpt lat="43.46307486143782" lon="13.27971145628881"><ele>161.5</ele><time>2026-04-26T07:05:45.999Z</time></trkpt><trkpt lat="43.4629853545216" lon="13.279559524159538"><ele>160.25</ele><time>2026-04-26T07:05:46.999Z</time></trkpt><trkpt lat="43.462901703273964" lon="13.27939436171798"><ele>159.0</ele><time>2026-04-26T07:05:47.999Z</time></trkpt><trkpt lat="43.46282926692957" lon="13.279240327813007"><ele>159.0</ele><time>2026-04-26T07:05:48.999Z</time></trkpt><trkpt lat="43.462752680448745" lon="13.279079055580766"><ele>159.0</ele><time>2026-04-26T07:05:49.999Z</time></trkpt><trkpt lat="43.46268845503646" lon="13.27891042354815"><ele>159.0</ele><time>2026-04-26T07:05:50.999Z</time></trkpt><trkpt lat="43.462632232302695" lon="13.278732349272994"><ele>159.0</ele><time>2026-04-26T07:05:51.999Z</time></trkpt><trkpt lat="43.462566945154194" lon="13.27856339348548"><ele>160.6</ele><time>2026-04-26T07:05:52.999Z</time></trkpt><trkpt lat="43.462503011492956" lon="13.278396427600645"><ele>162.2</ele><time>2026-04-26T07:05:53.999Z</time></trkpt><trkpt lat="43.462451384624906" lon="13.278253662786325"><ele>163.79999999999998</ele><time>2026-04-26T07:05:54.999Z</time></trkpt><trkpt lat="43.462402302954715" lon="13.278141343234346"><ele>165.4</ele><time>2026-04-26T07:05:55.999Z</time></trkpt><trkpt lat="43.462353870573565" lon="13.278052987571646"><ele>167.0</ele><time>2026-04-26T07:05:56.999Z</time></trkpt><trkpt lat="43.46229880620808" lon="13.277992641718676"><ele>167.2</ele><time>2026-04-26T07:05:57.999Z</time></trkpt><trkpt lat="43.462240625848416" lon="13.277950148864837"><ele>167.39999999999998</ele><time>2026-04-26T07:05:58.999Z</time></trkpt><trkpt lat="43.46214745165105" lon="13.277971221364991"><ele>167.60000000000002</ele><time>2026-04-26T07:05:59.999Z</time></trkpt><trkpt lat="43.46205851433414" lon="13.278042086592597"><ele>167.8</ele><time>2026-04-26T07:06:00.999Z</time></trkpt><trkpt lat="43.461992906247715" lon="13.278198866976464"><ele>168.0</ele><time>2026-04-26T07:06:01.999Z</time></trkpt><trkpt lat="43.461920864746524" lon="13.278317675839068"><ele>163.75</ele><time>2026-04-26T07:06:02.999Z</time></trkpt><trkpt lat="43.461840407744766" lon="13.278435636750073"><ele>159.5</ele><time>2026-04-26T07:06:03.999Z</time></trkpt><trkpt lat="43.461751548348566" lon="13.278549634208668"><ele>155.25</ele><time>2026-04-26T07:06:04.999Z</time></trkpt><trkpt lat="43.461650352954734" lon="13.278637301873404"><ele>151.0</ele><time>2026-04-26T07:06:05.999Z</time></trkpt><trkpt lat="43.4615323244993" lon="13.278703385123665"><ele>151.0</ele><time>2026-04-26T07:06:06.999Z</time></trkpt><trkpt lat="43.461406618049736" lon="13.278698659427528"><ele>151.0</ele><time>2026-04-26T07:06:07.999Z</time></trkpt><trkpt lat="43.461283589469645" lon="13.278666641016493"><ele>151.0</ele><time>2026-04-26T07:06:08.999Z</time></trkpt><trkpt lat="43.46113708133125" lon="13.27862011103014"><ele>151.0</ele><time>2026-04-26T07:06:09.999Z</time></trkpt><trkpt lat="43.46098479051154" lon="13.278581287334575"><ele>150.0</ele><time>2026-04-26T07:06:10.998Z</time></trkpt><trkpt lat="43.46083667509038" lon="13.278512022891197"><ele>149.0</ele><time>2026-04-26T07:06:11.998Z</time></trkpt><trkpt lat="43.46070728874727" lon="13.278402954963612"><ele>148.0</ele><time>2026-04-26T07:06:12.998Z</time></trkpt><trkpt lat="43.46059709687106" lon="13.278261955251999"><ele>149.33333333333334</ele><time>2026-04-26T07:06:13.998Z</time></trkpt><trkpt lat="43.46050000749857" lon="13.278075835863648"><ele>150.66666666666666</ele><time>2026-04-26T07:06:14.998Z</time></trkpt><trkpt lat="43.460389274387204" lon="13.277878163712389"><ele>152.0</ele><time>2026-04-26T07:06:15.998Z</time></trkpt><trkpt lat="43.4602858034288" lon="13.277655520717573"><ele>152.33333333333331</ele><time>2026-04-26T07:06:16.998Z</time></trkpt><trkpt lat="43.46017601417031" lon="13.277431815425254"><ele>152.66666666666666</ele><time>2026-04-26T07:06:17.998Z</time></trkpt><trkpt lat="43.460054806130586" lon="13.27718295212536"><ele>153.0</ele><time>2026-04-26T07:06:18.998Z</time></trkpt><trkpt lat="43.459923927301524" lon="13.276925852637424"><ele>153.66666666666666</ele><time>2026-04-26T07:06:19.998Z</time></trkpt><trkpt lat="43.45979107812555" lon="13.276675922639027"><ele>154.33333333333331</ele><time>2026-04-26T07:06:20.998Z</time></trkpt><trkpt lat="43.4596667514509" lon="13.276422435758532"><ele>155.0</ele><time>2026-04-26T07:06:21.998Z</time></trkpt><trkpt lat="43.459559569563744" lon="13.276160200509635"><ele>155.0</ele><time>2026-04-26T07:06:22.998Z</time></trkpt><trkpt lat="43.45948786526827" lon="13.27589273288392"><ele>155.0</ele><time>2026-04-26T07:06:23.998Z</time></trkpt><trkpt lat="43.459405793870616" lon="13.275615862470529"><ele>155.0</ele><time>2026-04-26T07:06:24.998Z</time></trkpt><trkpt lat="43.45931998095346" lon="13.27533057082584"><ele>155.66666666666666</ele><time>2026-04-26T07:06:25.998Z</time></trkpt><trkpt lat="43.4592563302198" lon="13.275044092923931"><ele>156.33333333333334</ele><time>2026-04-26T07:06:26.998Z</time></trkpt><trkpt lat="43.459230524481285" lon="13.274779615843515"><ele>157.0</ele><time>2026-04-26T07:06:27.998Z</time></trkpt><trkpt lat="43.45921574757618" lon="13.274519293234864"><ele>157.33333333333334</ele><time>2026-04-26T07:06:28.998Z</time></trkpt><trkpt lat="43.45922447009018" lon="13.274250763750159"><ele>157.66666666666666</ele><time>2026-04-26T07:06:29.998Z</time></trkpt><trkpt lat="43.459233817598616" lon="13.273973003795236"><ele>158.0</ele><time>2026-04-26T07:06:30.998Z</time></trkpt><trkpt lat="43.45927312278249" lon="13.273689369156099"><ele>159.33333333333331</ele><time>2026-04-26T07:06:31.998Z</time></trkpt><trkpt lat="43.45933739218422" lon="13.273415693709318"><ele>160.66666666666666</ele><time>2026-04-26T07:06:32.998Z</time></trkpt><trkpt lat="43.459375043598975" lon="13.273128663821439"><ele>162.0</ele><time>2026-04-26T07:06:33.998Z</time></trkpt><trkpt lat="43.45943526522701" lon="13.272845282563459"><ele>162.33333333333334</ele><time>2026-04-26T07:06:34.998Z</time></trkpt><trkpt lat="43.45948842007491" lon="13.272557687243287"><ele>162.66666666666669</ele><time>2026-04-26T07:06:35.998Z</time></trkpt><trkpt lat="43.45953593964654" lon="13.272266360612667"><ele>163.0</ele><time>2026-04-26T07:06:36.998Z</time></trkpt><trkpt lat="43.45957264727705" lon="13.271987914813021"><ele>163.33333333333334</ele><time>2026-04-26T07:06:37.998Z</time></trkpt><trkpt lat="43.45959905929857" lon="13.271714638849181"><ele>163.66666666666666</ele><time>2026-04-26T07:06:38.998Z</time></trkpt><trkpt lat="43.45961913965384" lon="13.271445255510999"><ele>164.0</ele><time>2026-04-26T07:06:39.998Z</time></trkpt><trkpt lat="43.45961963237681" lon="13.271183793957084"><ele>164.0</ele><time>2026-04-26T07:06:40.998Z</time></trkpt><trkpt lat="43.45960969244001" lon="13.270940376246074"><ele>164.0</ele><time>2026-04-26T07:06:41.998Z</time></trkpt><trkpt lat="43.459603829507515" lon="13.27070670288631"><ele>164.0</ele><time>2026-04-26T07:06:42.998Z</time></trkpt><trkpt lat="43.45958120311558" lon="13.270488032970848"><ele>164.0</ele><time>2026-04-26T07:06:43.998Z</time></trkpt><trkpt lat="43.4595567543251" lon="13.270277946002945"><ele>164.0</ele><time>2026-04-26T07:06:44.998Z</time></trkpt><trkpt lat="43.4595487144548" lon="13.270071557278142"><ele>164.0</ele><time>2026-04-26T07:06:45.998Z</time></trkpt><trkpt lat="43.45952055496614" lon="13.26987339397247"><ele>165.33333333333331</ele><time>2026-04-26T07:06:46.998Z</time></trkpt><trkpt lat="43.45947882188216" lon="13.269670847149554"><ele>166.66666666666666</ele><time>2026-04-26T07:06:47.998Z</time></trkpt><trkpt lat="43.45940896765202" lon="13.269497055069419"><ele>168.0</ele><time>2026-04-26T07:06:48.998Z</time></trkpt><trkpt lat="43.459312794910296" lon="13.26933235022156"><ele>168.0</ele><time>2026-04-26T07:06:49.998Z</time></trkpt><trkpt lat="43.45920270075537" lon="13.269155665988954"><ele>168.0</ele><time>2026-04-26T07:06:50.998Z</time></trkpt><trkpt lat="43.45907144371611" lon="13.26901147758524"><ele>168.0</ele><time>2026-04-26T07:06:51.998Z</time></trkpt><trkpt lat="43.458936525592115" lon="13.268862839077602"><ele>167.66666666666666</ele><time>2026-04-26T07:06:52.998Z</time></trkpt><trkpt lat="43.45877902021597" lon="13.268708869394379"><ele>167.33333333333331</ele><time>2026-04-26T07:06:53.998Z</time></trkpt><trkpt lat="43.45861700937645" lon="13.268546820193885"><ele>167.0</ele><time>2026-04-26T07:06:54.999Z</time></trkpt><trkpt lat="43.4584539034815" lon="13.268377040898484"><ele>167.0</ele><time>2026-04-26T07:06:55.999Z</time></trkpt><trkpt lat="43.45829121769569" lon="13.268204280519914"><ele>167.0</ele><time>2026-04-26T07:06:56.999Z</time></trkpt><trkpt lat="43.45813519836528" lon="13.268036784476728"><ele>167.0</ele><time>2026-04-26T07:06:57.999Z</time></trkpt><trkpt lat="43.4579800930977" lon="13.267871275542904"><ele>167.33333333333331</ele><time>2026-04-26T07:06:58.999Z</time></trkpt><trkpt lat="43.45782708991455" lon="13.267703987664069"><ele>167.66666666666666</ele><time>2026-04-26T07:06:59.999Z</time></trkpt><trkpt lat="43.45767567140447" lon="13.267537355771568"><ele>168.0</ele><time>2026-04-26T07:07:00.999Z</time></trkpt><trkpt lat="43.4575295948405" lon="13.267367661259668"><ele>167.66666666666666</ele><time>2026-04-26T07:07:01.999Z</time></trkpt><trkpt lat="43.45740093980139" lon="13.26717489631228"><ele>167.33333333333331</ele><time>2026-04-26T07:07:02.999Z</time></trkpt><trkpt lat="43.45725048658292" lon="13.267011262921645"><ele>167.0</ele><time>2026-04-26T07:07:03.999Z</time></trkpt><trkpt lat="43.45711762003939" lon="13.266830204689741"><ele>167.0</ele><time>2026-04-26T07:07:04.999Z</time></trkpt><trkpt lat="43.45698487946884" lon="13.266651243056385"><ele>167.0</ele><time>2026-04-26T07:07:05.999Z</time></trkpt><trkpt lat="43.456846859171876" lon="13.266479114367952"><ele>167.0</ele><time>2026-04-26T07:07:06.999Z</time></trkpt><trkpt lat="43.456711777914975" lon="13.26630876007745"><ele>168.0</ele><time>2026-04-26T07:07:07.999Z</time></trkpt><trkpt lat="43.45657536476426" lon="13.266136767171806"><ele>169.0</ele><time>2026-04-26T07:07:08.999Z</time></trkpt><trkpt lat="43.456452680153305" lon="13.265947736691844"><ele>170.0</ele><time>2026-04-26T07:07:09.999Z</time></trkpt><trkpt lat="43.45631867939128" lon="13.26577435707664"><ele>169.66666666666666</ele><time>2026-04-26T07:07:10.999Z</time></trkpt><trkpt lat="43.45617583454682" lon="13.265609859600454"><ele>169.33333333333334</ele><time>2026-04-26T07:07:11.999Z</time></trkpt><trkpt lat="43.4560444442071" lon="13.265425536052073"><ele>169.0</ele><time>2026-04-26T07:07:12.999Z</time></trkpt><trkpt lat="43.45590788099565" lon="13.265244071831672"><ele>169.0</ele><time>2026-04-26T07:07:13.999Z</time></trkpt><trkpt lat="43.455762719705476" lon="13.265072916663513"><ele>169.0</ele><time>2026-04-26T07:07:14.999Z</time></trkpt><trkpt lat="43.45561573443868" lon="13.264895002229736"><ele>169.0</ele><time>2026-04-26T07:07:15.999Z</time></trkpt><trkpt lat="43.45548063580455" lon="13.264709896165021"><ele>169.66666666666669</ele><time>2026-04-26T07:07:16.999Z</time></trkpt><trkpt lat="43.4553442935491" lon="13.264521053313281"><ele>170.33333333333334</ele><time>2026-04-26T07:07:17.999Z</time></trkpt><trkpt lat="43.455205953371475" lon="13.264329640944217"><ele>171.0</ele><time>2026-04-26T07:07:18.999Z</time></trkpt><trkpt lat="43.45507462938005" lon="13.264136152156015"><ele>172.0</ele><time>2026-04-26T07:07:19.999Z</time></trkpt><trkpt lat="43.45494927195316" lon="13.263941054408363"><ele>173.0</ele><time>2026-04-26T07:07:20.999Z</time></trkpt><trkpt lat="43.45481987197579" lon="13.263747229027793"><ele>174.0</ele><time>2026-04-26T07:07:21.999Z</time></trkpt><trkpt lat="43.454693155354725" lon="13.263553596609967"><ele>174.0</ele><time>2026-04-26T07:07:22.999Z</time></trkpt><trkpt lat="43.454566763932064" lon="13.263359355885342"><ele>174.0</ele><time>2026-04-26T07:07:23.999Z</time></trkpt><trkpt lat="43.45444037648469" lon="13.263168476559974"><ele>174.0</ele><time>2026-04-26T07:07:24.999Z</time></trkpt><trkpt lat="43.454309035512495" lon="13.262985890473653"><ele>174.0</ele><time>2026-04-26T07:07:25.999Z</time></trkpt><trkpt lat="43.45418089817814" lon="13.262798379863677"><ele>174.0</ele><time>2026-04-26T07:07:26.999Z</time></trkpt><trkpt lat="43.454067098512624" lon="13.262594110903134"><ele>174.0</ele><time>2026-04-26T07:07:27.999Z</time></trkpt><trkpt lat="43.45394229912802" lon="13.262405390729258"><ele>174.66666666666666</ele><time>2026-04-26T07:07:28.999Z</time></trkpt><trkpt lat="43.453818059828286" lon="13.262217089156144"><ele>175.33333333333331</ele><time>2026-04-26T07:07:29.999Z</time></trkpt><trkpt lat="43.45369449881525" lon="13.262031531209978"><ele>176.0</ele><time>2026-04-26T07:07:30.999Z</time></trkpt><trkpt lat="43.45356053218912" lon="13.261862814626681"><ele>177.0</ele><time>2026-04-26T07:07:31.999Z</time></trkpt><trkpt lat="43.45343677826786" lon="13.261675986384006"><ele>178.0</ele><time>2026-04-26T07:07:32.999Z</time></trkpt><trkpt lat="43.45332277314973" lon="13.261478351734636"><ele>179.0</ele><time>2026-04-26T07:07:33.999Z</time></trkpt><trkpt lat="43.45320097069956" lon="13.261297092744584"><ele>179.0</ele><time>2026-04-26T07:07:34.999Z</time></trkpt><trkpt lat="43.45308277061036" lon="13.261121194589576"><ele>179.0</ele><time>2026-04-26T07:07:35.999Z</time></trkpt><trkpt lat="43.45296654053979" lon="13.260936653196348"><ele>179.0</ele><time>2026-04-26T07:07:36.999Z</time></trkpt><trkpt lat="43.45285039746365" lon="13.26075002954785"><ele>179.66666666666666</ele><time>2026-04-26T07:07:37.999Z</time></trkpt><trkpt lat="43.45276633568067" lon="13.260535023163198"><ele>180.33333333333334</ele><time>2026-04-26T07:07:38.999Z</time></trkpt><trkpt lat="43.452685928805664" lon="13.260321468877068"><ele>181.0</ele><time>2026-04-26T07:07:39.999Z</time></trkpt><trkpt lat="43.45261417252438" lon="13.26009798386632"><ele>181.0</ele><time>2026-04-26T07:07:40.999Z</time></trkpt><trkpt lat="43.45254384332874" lon="13.259870969428775"><ele>181.0</ele><time>2026-04-26T07:07:41.999Z</time></trkpt><trkpt lat="43.452472279637554" lon="13.259648163381602"><ele>181.0</ele><time>2026-04-26T07:07:42.999Z</time></trkpt><trkpt lat="43.45239647517314" lon="13.259426105224149"><ele>181.66666666666669</ele><time>2026-04-26T07:07:43.999Z</time></trkpt><trkpt lat="43.45232204260152" lon="13.259206347666385"><ele>182.33333333333334</ele><time>2026-04-26T07:07:44.999Z</time></trkpt><trkpt lat="43.452251510592085" lon="13.258988550588612"><ele>183.0</ele><time>2026-04-26T07:07:45.999Z</time></trkpt><trkpt lat="43.45218489698868" lon="13.25877059435888"><ele>183.0</ele><time>2026-04-26T07:07:46.999Z</time></trkpt><trkpt lat="43.45211238775764" lon="13.258559341192898"><ele>183.0</ele><time>2026-04-26T07:07:47.999Z</time></trkpt><trkpt lat="43.45203369980111" lon="13.258352050393258"><ele>183.0</ele><time>2026-04-26T07:07:48.999Z</time></trkpt><trkpt lat="43.45197967856007" lon="13.258134362499478"><ele>184.66666666666666</ele><time>2026-04-26T07:07:49.999Z</time></trkpt><trkpt lat="43.45190949427844" lon="13.257925770770205"><ele>186.33333333333331</ele><time>2026-04-26T07:07:50.999Z</time></trkpt><trkpt lat="43.45182451364597" lon="13.257726057987396"><ele>188.0</ele><time>2026-04-26T07:07:51.999Z</time></trkpt><trkpt lat="43.45177283661025" lon="13.257513277006792"><ele>188.0</ele><time>2026-04-26T07:07:52.999Z</time></trkpt><trkpt lat="43.45168898246002" lon="13.257314837183355"><ele>188.0</ele><time>2026-04-26T07:07:53.999Z</time></trkpt><trkpt lat="43.451616538455994" lon="13.257113591408283"><ele>188.0</ele><time>2026-04-26T07:07:54.999Z</time></trkpt><trkpt lat="43.45152801054054" lon="13.25694794409467"><ele>188.0</ele><time>2026-04-26T07:07:55.999Z</time></trkpt><trkpt lat="43.451433145618864" lon="13.256806429491583"><ele>188.0</ele><time>2026-04-26T07:07:56.999Z</time></trkpt><trkpt lat="43.45132096718747" lon="13.256685466323452"><ele>188.0</ele><time>2026-04-26T07:07:57.999Z</time></trkpt><trkpt lat="43.45118520863363" lon="13.256598277314486"><ele>188.0</ele><time>2026-04-26T07:07:58.999Z</time></trkpt><trkpt lat="43.45105075080949" lon="13.256494227660067"><ele>190.66666666666666</ele><time>2026-04-26T07:07:59.999Z</time></trkpt><trkpt lat="43.45091017729459" lon="13.256399057653635"><ele>193.33333333333331</ele><time>2026-04-26T07:08:00.999Z</time></trkpt><trkpt lat="43.45076746113965" lon="13.256302437051671"><ele>196.0</ele><time>2026-04-26T07:08:01.999Z</time></trkpt><trkpt lat="43.45062711607057" lon="13.256209426676259"><ele>196.0</ele><time>2026-04-26T07:08:02.999Z</time></trkpt><trkpt lat="43.45048472590719" lon="13.256132543688866"><ele>196.0</ele><time>2026-04-26T07:08:03.999Z</time></trkpt><trkpt lat="43.45034161906143" lon="13.256039270134359"><ele>196.0</ele><time>2026-04-26T07:08:04.999Z</time></trkpt><trkpt lat="43.45020120197044" lon="13.255950981645597"><ele>197.0</ele><time>2026-04-26T07:08:05.999Z</time></trkpt><trkpt lat="43.450080185546206" lon="13.255845449197489"><ele>198.0</ele><time>2026-04-26T07:08:06.999Z</time></trkpt><trkpt lat="43.44995473873627" lon="13.25575983357419"><ele>199.0</ele><time>2026-04-26T07:08:07.999Z</time></trkpt><trkpt lat="43.4498337850769" lon="13.255678792105169"><ele>200.0</ele><time>2026-04-26T07:08:08.999Z</time></trkpt><trkpt lat="43.4497150439702" lon="13.255599426191365"><ele>197.5</ele><time>2026-04-26T07:08:09.999Z</time></trkpt><trkpt lat="43.44960138041314" lon="13.25552410928722"><ele>195.0</ele><time>2026-04-26T07:08:10.999Z</time></trkpt><trkpt lat="43.449489176671385" lon="13.255449759700593"><ele>192.5</ele><time>2026-04-26T07:08:11.999Z</time></trkpt><trkpt lat="43.449378242259854" lon="13.25537625120731"><ele>190.0</ele><time>2026-04-26T07:08:12.999Z</time></trkpt><trkpt lat="43.44926504299173" lon="13.255302322572895"><ele>190.0</ele><time>2026-04-26T07:08:13.999Z</time></trkpt><trkpt lat="43.44914746292449" lon="13.255248745019923"><ele>190.0</ele><time>2026-04-26T07:08:14.999Z</time></trkpt><trkpt lat="43.44903780520735" lon="13.255177703629913"><ele>190.0</ele><time>2026-04-26T07:08:15.999Z</time></trkpt><trkpt lat="43.448937378725155" lon="13.255090811992867"><ele>190.0</ele><time>2026-04-26T07:08:16.999Z</time></trkpt><trkpt lat="43.44882838021426" lon="13.255044458418864"><ele>189.25</ele><time>2026-04-26T07:08:17.999Z</time></trkpt><trkpt lat="43.44872003477272" lon="13.254974341328397"><ele>188.5</ele><time>2026-04-26T07:08:18.999Z</time></trkpt><trkpt lat="43.44861372369338" lon="13.25490246801893"><ele>187.75</ele><time>2026-04-26T07:08:19.999Z</time></trkpt><trkpt lat="43.4485064887864" lon="13.254833354837848"><ele>187.0</ele><time>2026-04-26T07:08:20.999Z</time></trkpt><trkpt lat="43.44839430077505" lon="13.254755612265312"><ele>187.0</ele><time>2026-04-26T07:08:21.999Z</time></trkpt><trkpt lat="43.4482896696528" lon="13.25468432715347"><ele>187.0</ele><time>2026-04-26T07:08:22.998Z</time></trkpt><trkpt lat="43.44818010577778" lon="13.254613087078473"><ele>187.0</ele><time>2026-04-26T07:08:23.998Z</time></trkpt><trkpt lat="43.448072430733106" lon="13.25454002458988"><ele>187.0</ele><time>2026-04-26T07:08:24.998Z</time></trkpt><trkpt lat="43.447964080239174" lon="13.254468646703833"><ele>184.75</ele><time>2026-04-26T07:08:25.998Z</time></trkpt><trkpt lat="43.447854427553494" lon="13.254400590622167"><ele>182.5</ele><time>2026-04-26T07:08:26.998Z</time></trkpt><trkpt lat="43.44774868630101" lon="13.254328361641985"><ele>180.25</ele><time>2026-04-26T07:08:27.998Z</time></trkpt><trkpt lat="43.447641865044766" lon="13.254257358772223"><ele>178.0</ele><time>2026-04-26T07:08:28.998Z</time></trkpt><trkpt lat="43.4475372641671" lon="13.254177432094242"><ele>178.0</ele><time>2026-04-26T07:08:29.998Z</time></trkpt><trkpt lat="43.4474342286658" lon="13.25409350518841"><ele>178.0</ele><time>2026-04-26T07:08:30.998Z</time></trkpt><trkpt lat="43.44733611035513" lon="13.253998113207464"><ele>178.0</ele><time>2026-04-26T07:08:31.998Z</time></trkpt><trkpt lat="43.44725017992878" lon="13.253881792349768"><ele>178.0</ele><time>2026-04-26T07:08:32.998Z</time></trkpt><trkpt lat="43.44717974111359" lon="13.2537554834903"><ele>176.0</ele><time>2026-04-26T07:08:33.998Z</time></trkpt><trkpt lat="43.447116857767305" lon="13.253624270247833"><ele>174.0</ele><time>2026-04-26T07:08:34.998Z</time></trkpt><trkpt lat="43.447049305489784" lon="13.253494407545103"><ele>172.0</ele><time>2026-04-26T07:08:35.998Z</time></trkpt><trkpt lat="43.4469739564066" lon="13.253371204485932"><ele>170.0</ele><time>2026-04-26T07:08:36.998Z</time></trkpt><trkpt lat="43.4469081779305" lon="13.253255337059182"><ele>170.0</ele><time>2026-04-26T07:08:37.998Z</time></trkpt><trkpt lat="43.44684099824513" lon="13.25314002907145"><ele>170.0</ele><time>2026-04-26T07:08:38.998Z</time></trkpt><trkpt lat="43.44677654732989" lon="13.253038782909814"><ele>170.0</ele><time>2026-04-26T07:08:39.998Z</time></trkpt><trkpt lat="43.44671874433632" lon="13.252953339897756"><ele>170.0</ele><time>2026-04-26T07:08:40.998Z</time></trkpt><trkpt lat="43.44665695189699" lon="13.25288990648968"><ele>170.0</ele><time>2026-04-26T07:08:41.998Z</time></trkpt><trkpt lat="43.44658407246938" lon="13.252845324137398"><ele>170.0</ele><time>2026-04-26T07:08:42.998Z</time></trkpt><trkpt lat="43.44649649778656" lon="13.252818853228248"><ele>170.0</ele><time>2026-04-26T07:08:43.998Z</time></trkpt><trkpt lat="43.44639693809446" lon="13.252810142671706"><ele>170.0</ele><time>2026-04-26T07:08:44.998Z</time></trkpt><trkpt lat="43.44628814254486" lon="13.252839288575718"><ele>170.0</ele><time>2026-04-26T07:08:45.998Z</time></trkpt><trkpt lat="43.44618239609553" lon="13.25290217031774"><ele>170.0</ele><time>2026-04-26T07:08:46.998Z</time></trkpt><trkpt lat="43.44609262276979" lon="13.253010044326071"><ele>170.0</ele><time>2026-04-26T07:08:47.998Z</time></trkpt><trkpt lat="43.44600279660912" lon="13.253126672571325"><ele>168.75</ele><time>2026-04-26T07:08:48.998Z</time></trkpt><trkpt lat="43.445892079598444" lon="13.253183847662179"><ele>167.5</ele><time>2026-04-26T07:08:49.998Z</time></trkpt><trkpt lat="43.445760988296314" lon="13.25323348573303"><ele>166.25</ele><time>2026-04-26T07:08:50.998Z</time></trkpt><trkpt lat="43.44562372359366" lon="13.253269523054946"><ele>165.0</ele><time>2026-04-26T07:08:51.998Z</time></trkpt><trkpt lat="43.44548710889836" lon="13.2532548510426"><ele>165.33333333333334</ele><time>2026-04-26T07:08:52.998Z</time></trkpt><trkpt lat="43.44535904433043" lon="13.253174295309137"><ele>165.66666666666669</ele><time>2026-04-26T07:08:53.998Z</time></trkpt><trkpt lat="43.445219010501646" lon="13.25309212040954"><ele>166.0</ele><time>2026-04-26T07:08:54.998Z</time></trkpt><trkpt lat="43.44506058180022" lon="13.253007187467672"><ele>168.0</ele><time>2026-04-26T07:08:55.998Z</time></trkpt><trkpt lat="43.44491195425366" lon="13.25288077886546"><ele>170.0</ele><time>2026-04-26T07:08:56.998Z</time></trkpt><trkpt lat="43.444758998121515" lon="13.252752032650571"><ele>172.0</ele><time>2026-04-26T07:08:57.998Z</time></trkpt><trkpt lat="43.44460905286849" lon="13.25259294441534"><ele>173.66666666666669</ele><time>2026-04-26T07:08:58.998Z</time></trkpt><trkpt lat="43.44446161779848" lon="13.252417150095702"><ele>175.33333333333334</ele><time>2026-04-26T07:08:59.998Z</time></trkpt><trkpt lat="43.44431215148633" lon="13.252222116109538"><ele>177.0</ele><time>2026-04-26T07:09:01Z</time></trkpt><trkpt lat="43.4441499926924" lon="13.25202580277953"><ele>180.33333333333334</ele><time>2026-04-26T07:09:02Z</time></trkpt><trkpt lat="43.444009068156355" lon="13.251822055719975"><ele>183.66666666666669</ele><time>2026-04-26T07:09:03Z</time></trkpt><trkpt lat="43.44386115108163" lon="13.251639997734335"><ele>187.0</ele><time>2026-04-26T07:09:04Z</time></trkpt><trkpt lat="43.4436903831763" lon="13.251454439599506"><ele>188.33333333333334</ele><time>2026-04-26T07:09:05Z</time></trkpt><trkpt lat="43.443531114247264" lon="13.25125849299215"><ele>189.66666666666666</ele><time>2026-04-26T07:09:06Z</time></trkpt><trkpt lat="43.443371931619" lon="13.251055601345806"><ele>191.0</ele><time>2026-04-26T07:09:07Z</time></trkpt><trkpt lat="43.44321355806381" lon="13.250856583051497"><ele>191.0</ele><time>2026-04-26T07:09:08Z</time></trkpt><trkpt lat="43.443046552538014" lon="13.250656988605192"><ele>191.0</ele><time>2026-04-26T07:09:09Z</time></trkpt><trkpt lat="43.44288178356115" lon="13.250456996875068"><ele>191.0</ele><time>2026-04-26T07:09:10Z</time></trkpt><trkpt lat="43.44271867154414" lon="13.250257334844076"><ele>192.66666666666666</ele><time>2026-04-26T07:09:11Z</time></trkpt><trkpt lat="43.442554079332" lon="13.250064450241897"><ele>194.33333333333331</ele><time>2026-04-26T07:09:12Z</time></trkpt><trkpt lat="43.442392131821464" lon="13.249875391157486"><ele>196.0</ele><time>2026-04-26T07:09:13Z</time></trkpt><trkpt lat="43.442238484106326" lon="13.249661046010827"><ele>196.0</ele><time>2026-04-26T07:09:14Z</time></trkpt><trkpt lat="43.442078233086214" lon="13.249484316265999"><ele>196.0</ele><time>2026-04-26T07:09:15Z</time></trkpt><trkpt lat="43.441927286057755" lon="13.249291007047358"><ele>196.0</ele><time>2026-04-26T07:09:16Z</time></trkpt><trkpt lat="43.44177993045102" lon="13.249095442724574"><ele>199.0</ele><time>2026-04-26T07:09:17Z</time></trkpt><trkpt lat="43.44163862543588" lon="13.248898799788059"><ele>202.0</ele><time>2026-04-26T07:09:18Z</time></trkpt><trkpt lat="43.44150279903976" lon="13.248709320769803"><ele>205.0</ele><time>2026-04-26T07:09:19Z</time></trkpt><trkpt lat="43.441370203238435" lon="13.248520477716752"><ele>204.0</ele><time>2026-04-26T07:09:20Z</time></trkpt><trkpt lat="43.4412456309003" lon="13.24832445707059"><ele>203.0</ele><time>2026-04-26T07:09:21Z</time></trkpt><trkpt lat="43.44112233586996" lon="13.24813364414491"><ele>202.0</ele><time>2026-04-26T07:09:22Z</time></trkpt><trkpt lat="43.44100537306831" lon="13.24793473749742"><ele>202.0</ele><time>2026-04-26T07:09:23Z</time></trkpt><trkpt lat="43.44089147520997" lon="13.247738860556955"><ele>202.0</ele><time>2026-04-26T07:09:24Z</time></trkpt><trkpt lat="43.44077674590342" lon="13.247545764574353"><ele>202.0</ele><time>2026-04-26T07:09:25Z</time></trkpt><trkpt lat="43.44068070013469" lon="13.247334980294314"><ele>201.66666666666666</ele><time>2026-04-26T07:09:26Z</time></trkpt><trkpt lat="43.44057444149386" lon="13.247132634208091"><ele>201.33333333333331</ele><time>2026-04-26T07:09:27Z</time></trkpt><trkpt lat="43.44045948318508" lon="13.246945054912173"><ele>201.0</ele><time>2026-04-26T07:09:28Z</time></trkpt><trkpt lat="43.44035388978689" lon="13.246742922779735"><ele>199.66666666666669</ele><time>2026-04-26T07:09:29Z</time></trkpt><trkpt lat="43.440249030695355" lon="13.24654234587301"><ele>198.33333333333334</ele><time>2026-04-26T07:09:30Z</time></trkpt><trkpt lat="43.440147328199316" lon="13.246332981419961"><ele>197.0</ele><time>2026-04-26T07:09:31Z</time></trkpt><trkpt lat="43.44003962045677" lon="13.246131611428652"><ele>197.0</ele><time>2026-04-26T07:09:32Z</time></trkpt><trkpt lat="43.43994051257558" lon="13.245953604054833"><ele>197.0</ele><time>2026-04-26T07:09:33Z</time></trkpt><trkpt lat="43.4398473107477" lon="13.245778962591354"><ele>197.0</ele><time>2026-04-26T07:09:34Z</time></trkpt><trkpt lat="43.43977074615268" lon="13.245593382480546"><ele>197.0</ele><time>2026-04-26T07:09:35Z</time></trkpt><trkpt lat="43.439683242825986" lon="13.245425215169227"><ele>197.0</ele><time>2026-04-26T07:09:36Z</time></trkpt><trkpt lat="43.43959784692174" lon="13.245262025341072"><ele>197.0</ele><time>2026-04-26T07:09:36.999Z</time></trkpt><trkpt lat="43.43951806268581" lon="13.24511259853099"><ele>197.0</ele><time>2026-04-26T07:09:37.999Z</time></trkpt><trkpt lat="43.43943374295959" lon="13.244954676912801"><ele>197.0</ele><time>2026-04-26T07:09:38.999Z</time></trkpt><trkpt lat="43.43936342975204" lon="13.244835044242537"><ele>197.0</ele><time>2026-04-26T07:09:39.999Z</time></trkpt><trkpt lat="43.43930165857212" lon="13.244708282844561"><ele>197.0</ele><time>2026-04-26T07:09:40.999Z</time></trkpt><trkpt lat="43.4392485072861" lon="13.244600763940447"><ele>197.0</ele><time>2026-04-26T07:09:41.999Z</time></trkpt><trkpt lat="43.439182367495505" lon="13.244495817115851"><ele>197.0</ele><time>2026-04-26T07:09:42.999Z</time></trkpt><trkpt lat="43.43911524446275" lon="13.244373926490882"><ele>198.25</ele><time>2026-04-26T07:09:43.999Z</time></trkpt><trkpt lat="43.43904802728143" lon="13.244242796292184"><ele>199.5</ele><time>2026-04-26T07:09:44.999Z</time></trkpt><trkpt lat="43.43896942822" lon="13.244101677063064"><ele>200.75</ele><time>2026-04-26T07:09:45.999Z</time></trkpt><trkpt lat="43.43888705719897" lon="13.24396858608773"><ele>202.0</ele><time>2026-04-26T07:09:46.999Z</time></trkpt><trkpt lat="43.43877511077496" lon="13.243845135138837"><ele>203.25</ele><time>2026-04-26T07:09:47.999Z</time></trkpt><trkpt lat="43.43866735468269" lon="13.243705981503185"><ele>204.5</ele><time>2026-04-26T07:09:48.999Z</time></trkpt><trkpt lat="43.43856609892965" lon="13.243587193370757"><ele>205.75</ele><time>2026-04-26T07:09:49.999Z</time></trkpt><trkpt lat="43.43847147618687" lon="13.243489538770126"><ele>207.0</ele><time>2026-04-26T07:09:50.999Z</time></trkpt><trkpt lat="43.43838645314188" lon="13.24337997687068"><ele>207.0</ele><time>2026-04-26T07:09:51.999Z</time></trkpt><trkpt lat="43.43830787886218" lon="13.243301668567366"><ele>207.0</ele><time>2026-04-26T07:09:52.999Z</time></trkpt><trkpt lat="43.43821824262791" lon="13.243181937418976"><ele>207.0</ele><time>2026-04-26T07:09:53.999Z</time></trkpt><trkpt lat="43.438135882466234" lon="13.243054144845711"><ele>207.0</ele><time>2026-04-26T07:09:54.999Z</time></trkpt><trkpt lat="43.43804922039596" lon="13.242924023818539"><ele>206.75</ele><time>2026-04-26T07:09:55.999Z</time></trkpt><trkpt lat="43.43796991285844" lon="13.242782484477374"><ele>206.5</ele><time>2026-04-26T07:09:56.999Z</time></trkpt><trkpt lat="43.43787287534922" lon="13.242644101084991"><ele>206.25</ele><time>2026-04-26T07:09:57.999Z</time></trkpt><trkpt lat="43.437779034034186" lon="13.24248177413491"><ele>206.0</ele><time>2026-04-26T07:09:58.999Z</time></trkpt><trkpt lat="43.43767805179778" lon="13.242306301308936"><ele>206.0</ele><time>2026-04-26T07:09:59.999Z</time></trkpt><trkpt lat="43.4375755160875" lon="13.242111023699493"><ele>206.0</ele><time>2026-04-26T07:10:00.999Z</time></trkpt><trkpt lat="43.43746467570947" lon="13.24186037366717"><ele>206.0</ele><time>2026-04-26T07:10:01.999Z</time></trkpt><trkpt lat="43.43734121553137" lon="13.241644268516726"><ele>206.0</ele><time>2026-04-26T07:10:02.999Z</time></trkpt><trkpt lat="43.437214426341384" lon="13.241417860279617"><ele>206.0</ele><time>2026-04-26T07:10:03.999Z</time></trkpt><trkpt lat="43.43708663518121" lon="13.24122285612897"><ele>206.0</ele><time>2026-04-26T07:10:04.999Z</time></trkpt><trkpt lat="43.43695587980466" lon="13.24099994465637"><ele>206.0</ele><time>2026-04-26T07:10:05.999Z</time></trkpt><trkpt lat="43.436819038349796" lon="13.240763486844756"><ele>206.0</ele><time>2026-04-26T07:10:06.999Z</time></trkpt><trkpt lat="43.43668850358872" lon="13.240526275443258"><ele>206.0</ele><time>2026-04-26T07:10:07.999Z</time></trkpt><trkpt lat="43.43656956105474" lon="13.24028314557815"><ele>206.66666666666669</ele><time>2026-04-26T07:10:08.999Z</time></trkpt><trkpt lat="43.43643536935553" lon="13.240045348219816"><ele>207.33333333333331</ele><time>2026-04-26T07:10:09.999Z</time></trkpt><trkpt lat="43.43630211080106" lon="13.23980078842153"><ele>208.0</ele><time>2026-04-26T07:10:10.999Z</time></trkpt><trkpt lat="43.436168379476385" lon="13.239544323482892"><ele>208.5</ele><time>2026-04-26T07:10:11.999Z</time></trkpt><trkpt lat="43.436036200197215" lon="13.239273553629236"><ele>209.0</ele><time>2026-04-26T07:10:12.999Z</time></trkpt><trkpt lat="43.435897481523476" lon="13.239019607954546"><ele>211.33333333333334</ele><time>2026-04-26T07:10:13.999Z</time></trkpt><trkpt lat="43.4357720915123" lon="13.238766887339953"><ele>213.66666666666669</ele><time>2026-04-26T07:10:14.999Z</time></trkpt><trkpt lat="43.43564989747925" lon="13.238515270437368"><ele>216.0</ele><time>2026-04-26T07:10:15.999Z</time></trkpt><trkpt lat="43.43554275258311" lon="13.23826286148578"><ele>214.0</ele><time>2026-04-26T07:10:16.999Z</time></trkpt><trkpt lat="43.435424648817566" lon="13.238013969822841"><ele>212.0</ele><time>2026-04-26T07:10:17.999Z</time></trkpt><trkpt lat="43.43531373844781" lon="13.237790044328403"><ele>210.0</ele><time>2026-04-26T07:10:18.999Z</time></trkpt><trkpt lat="43.43520731843336" lon="13.23758175406434"><ele>210.0</ele><time>2026-04-26T07:10:19.999Z</time></trkpt><trkpt lat="43.435116882023735" lon="13.2373815453183"><ele>210.0</ele><time>2026-04-26T07:10:20.999Z</time></trkpt><trkpt lat="43.43505715000232" lon="13.237193322425284"><ele>210.0</ele><time>2026-04-26T07:10:21.999Z</time></trkpt><trkpt lat="43.434955081315366" lon="13.237043995991947"><ele>209.5</ele><time>2026-04-26T07:10:22.999Z</time></trkpt><trkpt lat="43.43485868967753" lon="13.236902019279457"><ele>209.0</ele><time>2026-04-26T07:10:23.999Z</time></trkpt><trkpt lat="43.43474646568166" lon="13.236774107238514"><ele>208.5</ele><time>2026-04-26T07:10:24.999Z</time></trkpt><trkpt lat="43.434611775682974" lon="13.236660961119762"><ele>208.0</ele><time>2026-04-26T07:10:25.999Z</time></trkpt><trkpt lat="43.434472862000995" lon="13.236568067315362"><ele>208.0</ele><time>2026-04-26T07:10:26.999Z</time></trkpt><trkpt lat="43.434320744763234" lon="13.236501669657715"><ele>208.0</ele><time>2026-04-26T07:10:27.999Z</time></trkpt><trkpt lat="43.43416428589813" lon="13.236451860376416"><ele>208.0</ele><time>2026-04-26T07:10:28.999Z</time></trkpt><trkpt lat="43.43400971915653" lon="13.236399101764924"><ele>206.5</ele><time>2026-04-26T07:10:29.999Z</time></trkpt><trkpt lat="43.43386435530645" lon="13.23631581289251"><ele>205.0</ele><time>2026-04-26T07:10:30.999Z</time></trkpt><trkpt lat="43.433724854087835" lon="13.236254251932838"><ele>203.5</ele><time>2026-04-26T07:10:31.999Z</time></trkpt><trkpt lat="43.43359935743656" lon="13.236181223857736"><ele>202.0</ele><time>2026-04-26T07:10:32.999Z</time></trkpt><trkpt lat="43.43350009887109" lon="13.236074843401926"><ele>202.0</ele><time>2026-04-26T07:10:33.999Z</time></trkpt><trkpt lat="43.43341820596568" lon="13.23595039025573"><ele>202.0</ele><time>2026-04-26T07:10:34.999Z</time></trkpt><trkpt lat="43.43335558171238" lon="13.235803665794588"><ele>202.0</ele><time>2026-04-26T07:10:35.999Z</time></trkpt><trkpt lat="43.43332268539699" lon="13.235618323382052"><ele>202.0</ele><time>2026-04-26T07:10:36.999Z</time></trkpt><trkpt lat="43.43330159147254" lon="13.235407770404995"><ele>201.0</ele><time>2026-04-26T07:10:37.998Z</time></trkpt><trkpt lat="43.43329235017302" lon="13.235186318873255"><ele>200.0</ele><time>2026-04-26T07:10:38.998Z</time></trkpt><trkpt lat="43.43325845005201" lon="13.234977096082378"><ele>199.0</ele><time>2026-04-26T07:10:39.998Z</time></trkpt><trkpt lat="43.433245509269206" lon="13.23476972885138"><ele>197.33333333333331</ele><time>2026-04-26T07:10:40.998Z</time></trkpt><trkpt lat="43.43322768586134" lon="13.234557796134759"><ele>195.66666666666669</ele><time>2026-04-26T07:10:41.998Z</time></trkpt><trkpt lat="43.43320761126277" lon="13.234350757524851"><ele>194.0</ele><time>2026-04-26T07:10:42.998Z</time></trkpt><trkpt lat="43.43320533910442" lon="13.234132550041036"><ele>194.0</ele><time>2026-04-26T07:10:43.998Z</time></trkpt><trkpt lat="43.4331885649009" lon="13.233917127549065"><ele>194.0</ele><time>2026-04-26T07:10:44.998Z</time></trkpt><trkpt lat="43.43315777506311" lon="13.233709682055542"><ele>194.0</ele><time>2026-04-26T07:10:45.998Z</time></trkpt><trkpt lat="43.43314637823878" lon="13.233497845979544"><ele>194.0</ele><time>2026-04-26T07:10:46.998Z</time></trkpt><trkpt lat="43.433145630988946" lon="13.233296283371466"><ele>194.0</ele><time>2026-04-26T07:10:47.998Z</time></trkpt><trkpt lat="43.43313474387027" lon="13.233116834252042"><ele>194.0</ele><time>2026-04-26T07:10:48.998Z</time></trkpt><trkpt lat="43.43312185296281" lon="13.232961258012018"><ele>194.0</ele><time>2026-04-26T07:10:49.998Z</time></trkpt><trkpt lat="43.43311203703885" lon="13.232797876155075"><ele>193.75</ele><time>2026-04-26T07:10:50.998Z</time></trkpt><trkpt lat="43.43308693427807" lon="13.232653569278952"><ele>193.5</ele><time>2026-04-26T07:10:51.998Z</time></trkpt><trkpt lat="43.43303429550778" lon="13.232528560027609"><ele>193.25</ele><time>2026-04-26T07:10:52.998Z</time></trkpt><trkpt lat="43.432940912938804" lon="13.232422613299732"><ele>193.0</ele><time>2026-04-26T07:10:53.998Z</time></trkpt><trkpt lat="43.43282712730548" lon="13.232321443851864"><ele>191.0</ele><time>2026-04-26T07:10:54.998Z</time></trkpt><trkpt lat="43.43268597218428" lon="13.232242177809303"><ele>189.0</ele><time>2026-04-26T07:10:55.998Z</time></trkpt><trkpt lat="43.43252350407589" lon="13.23216927383445"><ele>187.0</ele><time>2026-04-26T07:10:56.998Z</time></trkpt><trkpt lat="43.432347846618896" lon="13.232099258116968"><ele>187.0</ele><time>2026-04-26T07:10:57.998Z</time></trkpt><trkpt lat="43.43217807575412" lon="13.232014723271034"><ele>187.0</ele><time>2026-04-26T07:10:58.998Z</time></trkpt><trkpt lat="43.432005630392595" lon="13.23194471490635"><ele>187.0</ele><time>2026-04-26T07:10:59.998Z</time></trkpt><trkpt lat="43.43182673448994" lon="13.231874794928233"><ele>187.33333333333334</ele><time>2026-04-26T07:11:00.998Z</time></trkpt><trkpt lat="43.43164713090959" lon="13.231829713990756"><ele>187.66666666666666</ele><time>2026-04-26T07:11:01.998Z</time></trkpt><trkpt lat="43.43145957652925" lon="13.231741480772161"><ele>188.0</ele><time>2026-04-26T07:11:02.998Z</time></trkpt><trkpt lat="43.43126931201795" lon="13.231679397247738"><ele>188.0</ele><time>2026-04-26T07:11:03.998Z</time></trkpt><trkpt lat="43.43107058441298" lon="13.231635693238859"><ele>188.0</ele><time>2026-04-26T07:11:04.998Z</time></trkpt><trkpt lat="43.43086268632099" lon="13.23158301080941"><ele>188.0</ele><time>2026-04-26T07:11:05.998Z</time></trkpt><trkpt lat="43.43063810146653" lon="13.23154561346864"><ele>188.5</ele><time>2026-04-26T07:11:07Z</time></trkpt><trkpt lat="43.43040173911095" lon="13.231518137050587"><ele>189.0</ele><time>2026-04-26T07:11:08Z</time></trkpt><trkpt lat="43.430152353512845" lon="13.231462852609877"><ele>189.0</ele><time>2026-04-26T07:11:09Z</time></trkpt><trkpt lat="43.42989460110964" lon="13.231462015275833"><ele>189.0</ele><time>2026-04-26T07:11:10Z</time></trkpt><trkpt lat="43.429622137917924" lon="13.231430382787254"><ele>190.0</ele><time>2026-04-26T07:11:11Z</time></trkpt><trkpt lat="43.429342620498005" lon="13.231426089500077"><ele>191.0</ele><time>2026-04-26T07:11:12Z</time></trkpt><trkpt lat="43.42907045122612" lon="13.231427058077138"><ele>191.5</ele><time>2026-04-26T07:11:13Z</time></trkpt><trkpt lat="43.42879083144337" lon="13.23142922911778"><ele>192.0</ele><time>2026-04-26T07:11:14Z</time></trkpt><trkpt lat="43.42852396536565" lon="13.231453784947194"><ele>192.0</ele><time>2026-04-26T07:11:15Z</time></trkpt><trkpt lat="43.428238728755716" lon="13.231459294684704"><ele>192.0</ele><time>2026-04-26T07:11:16Z</time></trkpt><trkpt lat="43.42795870720446" lon="13.23145634757931"><ele>190.0</ele><time>2026-04-26T07:11:17Z</time></trkpt><trkpt lat="43.427675097727914" lon="13.231452843695633"><ele>188.0</ele><time>2026-04-26T07:11:18Z</time></trkpt><trkpt lat="43.42739359392573" lon="13.231450418005156"><ele>189.5</ele><time>2026-04-26T07:11:19Z</time></trkpt><trkpt lat="43.42711237777759" lon="13.23145546948483"><ele>191.0</ele><time>2026-04-26T07:11:20Z</time></trkpt><trkpt lat="43.426832242232614" lon="13.231457622892702"><ele>191.0</ele><time>2026-04-26T07:11:21Z</time></trkpt><trkpt lat="43.42654890355554" lon="13.231456377178203"><ele>191.0</ele><time>2026-04-26T07:11:22Z</time></trkpt><trkpt lat="43.42627721036534" lon="13.231448171604091"><ele>193.5</ele><time>2026-04-26T07:11:23Z</time></trkpt><trkpt lat="43.425999544460225" lon="13.231441462679626"><ele>196.0</ele><time>2026-04-26T07:11:24Z</time></trkpt><trkpt lat="43.42572517523112" lon="13.23142415642776"><ele>199.0</ele><time>2026-04-26T07:11:25Z</time></trkpt><trkpt lat="43.42544408993731" lon="13.231400242333612"><ele>202.0</ele><time>2026-04-26T07:11:26Z</time></trkpt><trkpt lat="43.42516465250706" lon="13.231369329359037"><ele>202.0</ele><time>2026-04-26T07:11:27Z</time></trkpt><trkpt lat="43.42489556014944" lon="13.2313442438333"><ele>202.0</ele><time>2026-04-26T07:11:28Z</time></trkpt><trkpt lat="43.42463011018791" lon="13.231329926007222"><ele>203.5</ele><time>2026-04-26T07:11:29Z</time></trkpt><trkpt lat="43.42439574373013" lon="13.231315208293877"><ele>205.0</ele><time>2026-04-26T07:11:30Z</time></trkpt><trkpt lat="43.42416396421388" lon="13.231297859037012"><ele>205.0</ele><time>2026-04-26T07:11:31Z</time></trkpt><trkpt lat="43.42393933881538" lon="13.23126708638971"><ele>205.0</ele><time>2026-04-26T07:11:32Z</time></trkpt><trkpt lat="43.423721166655454" lon="13.231221488962214"><ele>205.0</ele><time>2026-04-26T07:11:33Z</time></trkpt><trkpt lat="43.42350786025446" lon="13.231163864782697"><ele>207.66666666666666</ele><time>2026-04-26T07:11:34Z</time></trkpt><trkpt lat="43.42330553963818" lon="13.231061065209524"><ele>210.33333333333331</ele><time>2026-04-26T07:11:35Z</time></trkpt><trkpt lat="43.423109857415305" lon="13.230963780883767"><ele>213.0</ele><time>2026-04-26T07:11:36Z</time></trkpt><trkpt lat="43.42292354235569" lon="13.23084548695772"><ele>215.66666666666669</ele><time>2026-04-26T07:11:37Z</time></trkpt><trkpt lat="43.42274301527714" lon="13.230717003435867"><ele>218.33333333333334</ele><time>2026-04-26T07:11:38Z</time></trkpt><trkpt lat="43.42256571807214" lon="13.230581705629122"><ele>221.0</ele><time>2026-04-26T07:11:39Z</time></trkpt><trkpt lat="43.42239778718348" lon="13.230444200743944"><ele>221.33333333333334</ele><time>2026-04-26T07:11:40Z</time></trkpt><trkpt lat="43.4222420565719" lon="13.230289629670997"><ele>221.66666666666669</ele><time>2026-04-26T07:11:41Z</time></trkpt><trkpt lat="43.422090587154905" lon="13.230120323774207"><ele>222.0</ele><time>2026-04-26T07:11:42Z</time></trkpt><trkpt lat="43.42194526011281" lon="13.229939099641028"><ele>223.0</ele><time>2026-04-26T07:11:43Z</time></trkpt><trkpt lat="43.4218106004527" lon="13.229749929203017"><ele>224.0</ele><time>2026-04-26T07:11:43.999Z</time></trkpt><trkpt lat="43.421671194918076" lon="13.229563881143301"><ele>225.0</ele><time>2026-04-26T07:11:44.999Z</time></trkpt><trkpt lat="43.421556776192396" lon="13.229348252788869"><ele>225.0</ele><time>2026-04-26T07:11:45.999Z</time></trkpt><trkpt lat="43.421444142143066" lon="13.229135224833689"><ele>225.0</ele><time>2026-04-26T07:11:46.999Z</time></trkpt><trkpt lat="43.42134850078698" lon="13.228911192586216"><ele>225.0</ele><time>2026-04-26T07:11:47.999Z</time></trkpt><trkpt lat="43.421253004157975" lon="13.22867747715167"><ele>226.66666666666669</ele><time>2026-04-26T07:11:48.999Z</time></trkpt><trkpt lat="43.42116130760085" lon="13.228449980311538"><ele>228.33333333333334</ele><time>2026-04-26T07:11:49.999Z</time></trkpt><trkpt lat="43.421078719982226" lon="13.228221303681977"><ele>230.0</ele><time>2026-04-26T07:11:50.999Z</time></trkpt><trkpt lat="43.4209973526706" lon="13.22798726879295"><ele>230.0</ele><time>2026-04-26T07:11:51.999Z</time></trkpt><trkpt lat="43.420922191313956" lon="13.227758021186743"><ele>230.0</ele><time>2026-04-26T07:11:52.999Z</time></trkpt><trkpt lat="43.420853268301585" lon="13.227502028674387"><ele>230.0</ele><time>2026-04-26T07:11:53.999Z</time></trkpt><trkpt lat="43.42078859554407" lon="13.227307613379335"><ele>229.5</ele><time>2026-04-26T07:11:54.999Z</time></trkpt><trkpt lat="43.4206832050591" lon="13.227172526575298"><ele>229.0</ele><time>2026-04-26T07:11:55.999Z</time></trkpt><trkpt lat="43.42059914096107" lon="13.227011366724152"><ele>228.5</ele><time>2026-04-26T07:11:56.999Z</time></trkpt><trkpt lat="43.4205084013094" lon="13.226860082506278"><ele>228.0</ele><time>2026-04-26T07:11:57.999Z</time></trkpt><trkpt lat="43.42039408453338" lon="13.226694135240141"><ele>229.0</ele><time>2026-04-26T07:11:58.999Z</time></trkpt><trkpt lat="43.42029000958491" lon="13.22656561061089"><ele>230.0</ele><time>2026-04-26T07:11:59.999Z</time></trkpt><trkpt lat="43.420175225657864" lon="13.226430883870021"><ele>231.0</ele><time>2026-04-26T07:12:00.999Z</time></trkpt><trkpt lat="43.42003526812387" lon="13.226310663295566"><ele>231.0</ele><time>2026-04-26T07:12:01.999Z</time></trkpt><trkpt lat="43.419923739771534" lon="13.226161737990969"><ele>231.0</ele><time>2026-04-26T07:12:02.999Z</time></trkpt><trkpt lat="43.41979631634064" lon="13.226018230859536"><ele>231.0</ele><time>2026-04-26T07:12:03.999Z</time></trkpt><trkpt lat="43.41967570395946" lon="13.225891177599289"><ele>231.33333333333331</ele><time>2026-04-26T07:12:04.999Z</time></trkpt><trkpt lat="43.41953015756215" lon="13.22576217500722"><ele>231.66666666666666</ele><time>2026-04-26T07:12:05.999Z</time></trkpt><trkpt lat="43.41940372976142" lon="13.2256267178243"><ele>232.0</ele><time>2026-04-26T07:12:06.999Z</time></trkpt><trkpt lat="43.4192849906045" lon="13.225494645239493"><ele>232.0</ele><time>2026-04-26T07:12:07.999Z</time></trkpt><trkpt lat="43.419169460670275" lon="13.225361991392266"><ele>232.0</ele><time>2026-04-26T07:12:08.999Z</time></trkpt><trkpt lat="43.41906644220393" lon="13.22523904305741"><ele>232.0</ele><time>2026-04-26T07:12:09.999Z</time></trkpt><trkpt lat="43.41896494433659" lon="13.225093177137145"><ele>232.0</ele><time>2026-04-26T07:12:10.999Z</time></trkpt><trkpt lat="43.418876170921564" lon="13.224935172906914"><ele>233.75</ele><time>2026-04-26T07:12:11.999Z</time></trkpt><trkpt lat="43.41879237317962" lon="13.22477117762899"><ele>235.5</ele><time>2026-04-26T07:12:12.999Z</time></trkpt><trkpt lat="43.41870997799574" lon="13.224605935227446"><ele>237.25</ele><time>2026-04-26T07:12:13.999Z</time></trkpt><trkpt lat="43.41863382655226" lon="13.22442599825042"><ele>239.0</ele><time>2026-04-26T07:12:14.999Z</time></trkpt><trkpt lat="43.41857257899172" lon="13.22422568202171"><ele>239.0</ele><time>2026-04-26T07:12:15.999Z</time></trkpt><trkpt lat="43.41848217684856" lon="13.224065071861256"><ele>239.0</ele><time>2026-04-26T07:12:16.999Z</time></trkpt><trkpt lat="43.41840673625901" lon="13.223879150805349"><ele>239.0</ele><time>2026-04-26T07:12:17.999Z</time></trkpt><trkpt lat="43.41832913921899" lon="13.22369313923179"><ele>238.33333333333334</ele><time>2026-04-26T07:12:18.999Z</time></trkpt><trkpt lat="43.41824927350265" lon="13.223497874290496"><ele>237.66666666666669</ele><time>2026-04-26T07:12:19.999Z</time></trkpt><trkpt lat="43.41817217054993" lon="13.223304894757625"><ele>237.0</ele><time>2026-04-26T07:12:20.999Z</time></trkpt><trkpt lat="43.41809339485956" lon="13.223110418193139"><ele>236.33333333333331</ele><time>2026-04-26T07:12:21.999Z</time></trkpt><trkpt lat="43.41801219828347" lon="13.222918532896541"><ele>235.66666666666666</ele><time>2026-04-26T07:12:22.999Z</time></trkpt><trkpt lat="43.41793236500722" lon="13.222722795674152"><ele>235.0</ele><time>2026-04-26T07:12:23.999Z</time></trkpt><trkpt lat="43.41785604967084" lon="13.222529736605866"><ele>235.66666666666666</ele><time>2026-04-26T07:12:24.999Z</time></trkpt><trkpt lat="43.417770478116324" lon="13.22234014225404"><ele>236.33333333333331</ele><time>2026-04-26T07:12:25.999Z</time></trkpt><trkpt lat="43.41769528845899" lon="13.22214453266031"><ele>237.0</ele><time>2026-04-26T07:12:26.999Z</time></trkpt><trkpt lat="43.41762097328986" lon="13.221941186926877"><ele>237.0</ele><time>2026-04-26T07:12:27.999Z</time></trkpt><trkpt lat="43.41754540904282" lon="13.221744725709462"><ele>237.0</ele><time>2026-04-26T07:12:28.999Z</time></trkpt><trkpt lat="43.41746566975178" lon="13.2215483995644"><ele>237.0</ele><time>2026-04-26T07:12:29.999Z</time></trkpt><trkpt lat="43.41738185036692" lon="13.221352998738954"><ele>236.33333333333331</ele><time>2026-04-26T07:12:30.999Z</time></trkpt><trkpt lat="43.417297396569246" lon="13.221153373872289"><ele>235.66666666666666</ele><time>2026-04-26T07:12:31.999Z</time></trkpt><trkpt lat="43.4172137153516" lon="13.220950166241053"><ele>235.0</ele><time>2026-04-26T07:12:32.999Z</time></trkpt><trkpt lat="43.417134529213556" lon="13.220751735795872"><ele>235.66666666666666</ele><time>2026-04-26T07:12:33.999Z</time></trkpt><trkpt lat="43.41705881223272" lon="13.220546737426954"><ele>236.33333333333331</ele><time>2026-04-26T07:12:34.999Z</time></trkpt><trkpt lat="43.416978838991284" lon="13.220335328889178"><ele>237.0</ele><time>2026-04-26T07:12:35.999Z</time></trkpt><trkpt lat="43.41689781814637" lon="13.220126835077751"><ele>237.0</ele><time>2026-04-26T07:12:36.999Z</time></trkpt><trkpt lat="43.416812517569" lon="13.219919861374938"><ele>237.0</ele><time>2026-04-26T07:12:37.999Z</time></trkpt><trkpt lat="43.416733781311535" lon="13.21971968704242"><ele>237.0</ele><time>2026-04-26T07:12:38.999Z</time></trkpt><trkpt lat="43.41664840728996" lon="13.219514100349759"><ele>236.66666666666669</ele><time>2026-04-26T07:12:39.999Z</time></trkpt><trkpt lat="43.416570624981986" lon="13.219306272694357"><ele>236.33333333333334</ele><time>2026-04-26T07:12:40.999Z</time></trkpt><trkpt lat="43.41650278723742" lon="13.219095302743883"><ele>236.0</ele><time>2026-04-26T07:12:41.999Z</time></trkpt><trkpt lat="43.416446852642466" lon="13.218875300173686"><ele>235.66666666666669</ele><time>2026-04-26T07:12:42.999Z</time></trkpt><trkpt lat="43.41640596999204" lon="13.218648021538963"><ele>235.33333333333331</ele><time>2026-04-26T07:12:43.999Z</time></trkpt><trkpt lat="43.41636932815278" lon="13.21841843215503"><ele>235.0</ele><time>2026-04-26T07:12:44.999Z</time></trkpt><trkpt lat="43.41634890888649" lon="13.218192164718985"><ele>235.33333333333331</ele><time>2026-04-26T07:12:45.998Z</time></trkpt><trkpt lat="43.41633062611717" lon="13.21796304122773"><ele>235.66666666666669</ele><time>2026-04-26T07:12:46.998Z</time></trkpt><trkpt lat="43.41631165284206" lon="13.217727066618284"><ele>236.0</ele><time>2026-04-26T07:12:47.998Z</time></trkpt><trkpt lat="43.41628902778459" lon="13.217499050010247"><ele>236.66666666666669</ele><time>2026-04-26T07:12:48.998Z</time></trkpt><trkpt lat="43.41626236448677" lon="13.217274687286107"><ele>237.33333333333331</ele><time>2026-04-26T07:12:49.998Z</time></trkpt><trkpt lat="43.41624490232583" lon="13.217062988767522"><ele>238.0</ele><time>2026-04-26T07:12:50.998Z</time></trkpt><trkpt lat="43.416227786407326" lon="13.216854445208833"><ele>238.0</ele><time>2026-04-26T07:12:51.998Z</time></trkpt><trkpt lat="43.41621569524715" lon="13.216665304412444"><ele>238.0</ele><time>2026-04-26T07:12:52.998Z</time></trkpt><trkpt lat="43.41619876216588" lon="13.216491823745281"><ele>238.0</ele><time>2026-04-26T07:12:53.998Z</time></trkpt><trkpt lat="43.416178088544086" lon="13.216329205316324"><ele>238.0</ele><time>2026-04-26T07:12:54.998Z</time></trkpt><trkpt lat="43.416161887056205" lon="13.216183613844006"><ele>237.75</ele><time>2026-04-26T07:12:55.998Z</time></trkpt><trkpt lat="43.41615390691424" lon="13.216032961689352"><ele>237.5</ele><time>2026-04-26T07:12:56.998Z</time></trkpt><trkpt lat="43.416147180708116" lon="13.215900534218646"><ele>237.25</ele><time>2026-04-26T07:12:57.998Z</time></trkpt><trkpt lat="43.41616044785047" lon="13.215769127953054"><ele>237.0</ele><time>2026-04-26T07:12:58.998Z</time></trkpt><trkpt lat="43.411497051264256" lon="13.211867199998839"><ele>237.75</ele><time>2026-04-26T07:13:41Z</time></trkpt><trkpt lat="43.411402105780525" lon="13.211749286167214"><ele>238.5</ele><time>2026-04-26T07:13:42Z</time></trkpt><trkpt lat="43.4112673746722" lon="13.211666676143805"><ele>239.25</ele><time>2026-04-26T07:13:43Z</time></trkpt><trkpt lat="43.41111008768587" lon="13.211611545429012"><ele>240.0</ele><time>2026-04-26T07:13:44Z</time></trkpt><trkpt lat="43.41087214622356" lon="13.211597775326895"><ele>240.0</ele><time>2026-04-26T07:13:45Z</time></trkpt><trkpt lat="43.410674255377266" lon="13.211584046837501"><ele>240.0</ele><time>2026-04-26T07:13:46Z</time></trkpt><trkpt lat="43.4104692807471" lon="13.211571275128614"><ele>240.0</ele><time>2026-04-26T07:13:47Z</time></trkpt><trkpt lat="43.41026251884672" lon="13.21155145482368"><ele>239.33333333333331</ele><time>2026-04-26T07:13:48Z</time></trkpt><trkpt lat="43.410065442262436" lon="13.211544318539636"><ele>238.66666666666666</ele><time>2026-04-26T07:13:49Z</time></trkpt><trkpt lat="43.409890026137724" lon="13.211530006628413"><ele>238.0</ele><time>2026-04-26T07:13:50Z</time></trkpt><trkpt lat="43.40970199675265" lon="13.21147626306898"><ele>234.0</ele><time>2026-04-26T07:13:51Z</time></trkpt><trkpt lat="43.40954906939312" lon="13.211437123852068"><ele>230.0</ele><time>2026-04-26T07:13:52Z</time></trkpt><trkpt lat="43.409418110838836" lon="13.211341602396622"><ele>226.0</ele><time>2026-04-26T07:13:52.999Z</time></trkpt><trkpt lat="43.409300019900094" lon="13.21121489447661"><ele>226.0</ele><time>2026-04-26T07:13:53.999Z</time></trkpt><trkpt lat="43.40920201398534" lon="13.211038620299174"><ele>226.0</ele><time>2026-04-26T07:13:54.999Z</time></trkpt><trkpt lat="43.40908802251031" lon="13.210834233181593"><ele>226.0</ele><time>2026-04-26T07:13:55.999Z</time></trkpt><trkpt lat="43.40895454378136" lon="13.210616491754886"><ele>228.0</ele><time>2026-04-26T07:13:56.999Z</time></trkpt><trkpt lat="43.408789418103034" lon="13.210423784751276"><ele>230.0</ele><time>2026-04-26T07:13:57.999Z</time></trkpt><trkpt lat="43.408633497074035" lon="13.210237797005627"><ele>232.0</ele><time>2026-04-26T07:13:58.999Z</time></trkpt><trkpt lat="43.40838034038247" lon="13.209953237095789"><ele>232.0</ele><time>2026-04-26T07:14:00.999Z</time></trkpt><trkpt lat="43.40824802438366" lon="13.209853323947108"><ele>232.0</ele><time>2026-04-26T07:14:01.999Z</time></trkpt><trkpt lat="43.40807629774127" lon="13.209782674293528"><ele>232.0</ele><time>2026-04-26T07:14:02.999Z</time></trkpt><trkpt lat="43.407889410305835" lon="13.209749120048766"><ele>232.0</ele><time>2026-04-26T07:14:03.999Z</time></trkpt><trkpt lat="43.40770498481418" lon="13.209725847689256"><ele>232.0</ele><time>2026-04-26T07:14:04.999Z</time></trkpt><trkpt lat="43.40755537806283" lon="13.20967045706586"><ele>232.0</ele><time>2026-04-26T07:14:05.999Z</time></trkpt><trkpt lat="43.4074087403455" lon="13.20961063371282"><ele>232.0</ele><time>2026-04-26T07:14:06.999Z</time></trkpt><trkpt lat="43.40731341290553" lon="13.209465462230362"><ele>232.0</ele><time>2026-04-26T07:14:07.999Z</time></trkpt><trkpt lat="43.407244381214596" lon="13.209311740538157"><ele>232.0</ele><time>2026-04-26T07:14:08.999Z</time></trkpt><trkpt lat="43.407170755057095" lon="13.209134729293107"><ele>232.0</ele><time>2026-04-26T07:14:09.999Z</time></trkpt><trkpt lat="43.40709693368001" lon="13.208953797153454"><ele>236.66666666666666</ele><time>2026-04-26T07:14:10.999Z</time></trkpt><trkpt lat="43.407008323516564" lon="13.208736209465023"><ele>241.33333333333331</ele><time>2026-04-26T07:14:11.999Z</time></trkpt><trkpt lat="43.406905879270994" lon="13.20851572948611"><ele>246.0</ele><time>2026-04-26T07:14:12.999Z</time></trkpt><trkpt lat="43.40678543472232" lon="13.208316877178971"><ele>242.66666666666669</ele><time>2026-04-26T07:14:13.999Z</time></trkpt><trkpt lat="43.406642007952854" lon="13.208129168278797"><ele>239.33333333333334</ele><time>2026-04-26T07:14:14.999Z</time></trkpt><trkpt lat="43.406490793233345" lon="13.207940469809477"><ele>236.0</ele><time>2026-04-26T07:14:15.999Z</time></trkpt><trkpt lat="43.406347148265176" lon="13.207754435074254"><ele>244.66666666666669</ele><time>2026-04-26T07:14:16.999Z</time></trkpt><trkpt lat="43.406211304573816" lon="13.207552992065843"><ele>253.33333333333331</ele><time>2026-04-26T07:14:17.999Z</time></trkpt><trkpt lat="43.40608970960647" lon="13.207329220285034"><ele>262.0</ele><time>2026-04-26T07:14:18.999Z</time></trkpt><trkpt lat="43.4059727232451" lon="13.207093554968006"><ele>262.0</ele><time>2026-04-26T07:14:19.999Z</time></trkpt><trkpt lat="43.40573621803576" lon="13.20660275853564"><ele>262.0</ele><time>2026-04-26T07:14:21.999Z</time></trkpt><trkpt lat="43.40560402292429" lon="13.206364192154185"><ele>260.66666666666663</ele><time>2026-04-26T07:14:22.999Z</time></trkpt><trkpt lat="43.40549602091978" lon="13.20612760293935"><ele>259.3333333333333</ele><time>2026-04-26T07:14:23.999Z</time></trkpt><trkpt lat="43.4053863143387" lon="13.20591356562299"><ele>258.0</ele><time>2026-04-26T07:14:24.999Z</time></trkpt><trkpt lat="43.40529436568119" lon="13.205720633246758"><ele>262.0</ele><time>2026-04-26T07:14:25.999Z</time></trkpt><trkpt lat="43.40520143073662" lon="13.205540779300756"><ele>266.0</ele><time>2026-04-26T07:14:26.999Z</time></trkpt><trkpt lat="43.405114734385464" lon="13.205366431432669"><ele>270.0</ele><time>2026-04-26T07:14:27.999Z</time></trkpt><trkpt lat="43.405045722373174" lon="13.205201445938568"><ele>270.0</ele><time>2026-04-26T07:14:28.999Z</time></trkpt><trkpt lat="43.404968836313884" lon="13.205086019071002"><ele>270.0</ele><time>2026-04-26T07:14:29.999Z</time></trkpt><trkpt lat="43.404856262679004" lon="13.20497110856319"><ele>270.0</ele><time>2026-04-26T07:14:30.999Z</time></trkpt><trkpt lat="43.40472486638512" lon="13.20486124809458"><ele>270.0</ele><time>2026-04-26T07:14:31.999Z</time></trkpt><trkpt lat="43.404579817511916" lon="13.20476272626477"><ele>269.75</ele><time>2026-04-26T07:14:32.999Z</time></trkpt><trkpt lat="43.40445644656382" lon="13.204680355589849"><ele>269.5</ele><time>2026-04-26T07:14:33.999Z</time></trkpt><trkpt lat="43.40434706523735" lon="13.204604861689868"><ele>269.25</ele><time>2026-04-26T07:14:34.999Z</time></trkpt><trkpt lat="43.404241832918785" lon="13.204564408180772"><ele>269.0</ele><time>2026-04-26T07:14:35.999Z</time></trkpt><trkpt lat="43.404145069960954" lon="13.204561619853365"><ele>269.0</ele><time>2026-04-26T07:14:36.999Z</time></trkpt><trkpt lat="43.404053800783025" lon="13.204612108774883"><ele>269.0</ele><time>2026-04-26T07:14:37.999Z</time></trkpt><trkpt lat="43.40396868396605" lon="13.204713273962632"><ele>269.0</ele><time>2026-04-26T07:14:38.999Z</time></trkpt><trkpt lat="43.40388951544692" lon="13.2048623180444"><ele>269.0</ele><time>2026-04-26T07:14:39.999Z</time></trkpt><trkpt lat="43.403806810419034" lon="13.20502958362723"><ele>272.0</ele><time>2026-04-26T07:14:40.999Z</time></trkpt><trkpt lat="43.40359879755716" lon="13.205236926695187"><ele>275.0</ele><time>2026-04-26T07:14:42.999Z</time></trkpt><trkpt lat="43.40348229984998" lon="13.205254175076075"><ele>278.0</ele><time>2026-04-26T07:14:43.999Z</time></trkpt><trkpt lat="43.40336368396393" lon="13.205225673434281"><ele>278.0</ele><time>2026-04-26T07:14:44.999Z</time></trkpt><trkpt lat="43.4032297277364" lon="13.20518533313174"><ele>278.0</ele><time>2026-04-26T07:14:45.999Z</time></trkpt><trkpt lat="43.403097688352645" lon="13.20514070323911"><ele>278.0</ele><time>2026-04-26T07:14:46.999Z</time></trkpt><trkpt lat="43.40295946570201" lon="13.205093749181204"><ele>278.0</ele><time>2026-04-26T07:14:47.999Z</time></trkpt><trkpt lat="43.4028186537959" lon="13.205057891823099"><ele>278.0</ele><time>2026-04-26T07:14:48.999Z</time></trkpt><trkpt lat="43.40267910666058" lon="13.20501532811584"><ele>278.0</ele><time>2026-04-26T07:14:49.999Z</time></trkpt><trkpt lat="43.40254140179068" lon="13.204965714344645"><ele>278.0</ele><time>2026-04-26T07:14:50.999Z</time></trkpt><trkpt lat="43.402408777761984" lon="13.204897901682163"><ele>278.0</ele><time>2026-04-26T07:14:51.999Z</time></trkpt><trkpt lat="43.402299541579495" lon="13.204778666434496"><ele>278.0</ele><time>2026-04-26T07:14:52.999Z</time></trkpt><trkpt lat="43.402195886367736" lon="13.204652173031414"><ele>278.0</ele><time>2026-04-26T07:14:53.999Z</time></trkpt><trkpt lat="43.40209465689186" lon="13.204518091274167"><ele>278.0</ele><time>2026-04-26T07:14:54.999Z</time></trkpt><trkpt lat="43.40199792762508" lon="13.20438227689189"><ele>278.0</ele><time>2026-04-26T07:14:55.998Z</time></trkpt><trkpt lat="43.40187727345007" lon="13.204245232428221"><ele>279.25</ele><time>2026-04-26T07:14:56.998Z</time></trkpt><trkpt lat="43.40176866369168" lon="13.204106359577855"><ele>280.5</ele><time>2026-04-26T07:14:57.998Z</time></trkpt><trkpt lat="43.40167172110671" lon="13.203980558367578"><ele>281.75</ele><time>2026-04-26T07:14:58.998Z</time></trkpt><trkpt lat="43.40158996670689" lon="13.203856520171323"><ele>283.0</ele><time>2026-04-26T07:14:59.998Z</time></trkpt><trkpt lat="43.40153685128728" lon="13.203723906243383"><ele>283.0</ele><time>2026-04-26T07:15:00.998Z</time></trkpt><trkpt lat="43.401527535043435" lon="13.203580347829394"><ele>283.0</ele><time>2026-04-26T07:15:01.998Z</time></trkpt><trkpt lat="43.40145587113474" lon="13.203343222896033"><ele>283.0</ele><time>2026-04-26T07:15:03.998Z</time></trkpt><trkpt lat="43.401410403212104" lon="13.203211771369409"><ele>283.0</ele><time>2026-04-26T07:15:04.998Z</time></trkpt><trkpt lat="43.40137983551176" lon="13.203086137182362"><ele>282.6</ele><time>2026-04-26T07:15:05.998Z</time></trkpt><trkpt lat="43.40133197764249" lon="13.202968901890364"><ele>282.20000000000005</ele><time>2026-04-26T07:15:06.998Z</time></trkpt><trkpt lat="43.401267555450765" lon="13.202868266969972"><ele>281.8</ele><time>2026-04-26T07:15:07.998Z</time></trkpt><trkpt lat="43.401182780612835" lon="13.202785541172585"><ele>281.40000000000003</ele><time>2026-04-26T07:15:08.998Z</time></trkpt><trkpt lat="43.40108989957504" lon="13.202713696983633"><ele>281.0</ele><time>2026-04-26T07:15:09.998Z</time></trkpt><trkpt lat="43.40099206171281" lon="13.202614112753341"><ele>281.0</ele><time>2026-04-26T07:15:10.998Z</time></trkpt><trkpt lat="43.40089124119566" lon="13.2025210021802"><ele>281.0</ele><time>2026-04-26T07:15:11.998Z</time></trkpt><trkpt lat="43.40081259570852" lon="13.202412040523459"><ele>281.0</ele><time>2026-04-26T07:15:12.998Z</time></trkpt><trkpt lat="43.400745490050525" lon="13.202297674002592"><ele>281.0</ele><time>2026-04-26T07:15:13.998Z</time></trkpt><trkpt lat="43.400670888235915" lon="13.202183712786939"><ele>281.2</ele><time>2026-04-26T07:15:14.998Z</time></trkpt><trkpt lat="43.4006145941031" lon="13.202069979664984"><ele>281.40000000000003</ele><time>2026-04-26T07:15:15.998Z</time></trkpt><trkpt lat="43.40056825319333" lon="13.201958652869992"><ele>281.6</ele><time>2026-04-26T07:15:16.998Z</time></trkpt><trkpt lat="43.4005164893322" lon="13.201849973982041"><ele>281.8</ele><time>2026-04-26T07:15:17.998Z</time></trkpt><trkpt lat="43.40046405603426" lon="13.201729470700393"><ele>282.0</ele><time>2026-04-26T07:15:19Z</time></trkpt><trkpt lat="43.4003991897346" lon="13.201622638974241"><ele>282.0</ele><time>2026-04-26T07:15:20Z</time></trkpt><trkpt lat="43.40033008765212" lon="13.201538980428413"><ele>282.0</ele><time>2026-04-26T07:15:21Z</time></trkpt><trkpt lat="43.400288988628795" lon="13.201444590524359"><ele>282.0</ele><time>2026-04-26T07:15:22Z</time></trkpt><trkpt lat="43.40027929898479" lon="13.20134404311236"><ele>282.0</ele><time>2026-04-26T07:15:23Z</time></trkpt><trkpt lat="43.40056865533932" lon="13.200093255274295"><ele>280.5</ele><time>2026-04-26T07:16:50.998Z</time></trkpt><trkpt lat="43.4004801257135" lon="13.200090708008245"><ele>279.0</ele><time>2026-04-26T07:16:51.998Z</time></trkpt><trkpt lat="43.40040612741228" lon="13.200088578848998"><ele>277.5</ele><time>2026-04-26T07:16:52.998Z</time></trkpt><trkpt lat="43.40032382095026" lon="13.200077334424602"><ele>276.0</ele><time>2026-04-26T07:16:53.998Z</time></trkpt><trkpt lat="43.400234885797566" lon="13.200049189064073"><ele>274.5</ele><time>2026-04-26T07:16:54.998Z</time></trkpt><trkpt lat="43.40013577912805" lon="13.200015400605839"><ele>273.0</ele><time>2026-04-26T07:16:55.998Z</time></trkpt><trkpt lat="43.40003515441739" lon="13.199977627232936"><ele>273.0</ele><time>2026-04-26T07:16:56.998Z</time></trkpt><trkpt lat="43.399930982214556" lon="13.199953505626642"><ele>273.0</ele><time>2026-04-26T07:16:57.998Z</time></trkpt><trkpt lat="43.399835252687986" lon="13.199917387605417"><ele>273.0</ele><time>2026-04-26T07:16:58.998Z</time></trkpt><trkpt lat="43.399706669460635" lon="13.199862707143648"><ele>273.0</ele><time>2026-04-26T07:16:59.998Z</time></trkpt><trkpt lat="43.399617195758836" lon="13.199828867248767"><ele>273.0</ele><time>2026-04-26T07:17:00.998Z</time></trkpt><trkpt lat="43.39953934167852" lon="13.19979589203422"><ele>273.75</ele><time>2026-04-26T07:17:01.998Z</time></trkpt><trkpt lat="43.39942479721648" lon="13.199764540004953"><ele>274.5</ele><time>2026-04-26T07:17:02.998Z</time></trkpt><trkpt lat="43.39931140641396" lon="13.199752077211391"><ele>275.25</ele><time>2026-04-26T07:17:03.998Z</time></trkpt><trkpt lat="43.39920030383306" lon="13.199768175751565"><ele>276.0</ele><time>2026-04-26T07:17:04.998Z</time></trkpt><trkpt lat="43.39908683993697" lon="13.1997873412047"><ele>276.0</ele><time>2026-04-26T07:17:05.998Z</time></trkpt><trkpt lat="43.3989733050027" lon="13.199803664202992"><ele>276.0</ele><time>2026-04-26T07:17:06.998Z</time></trkpt><trkpt lat="43.398856098901135" lon="13.1998149878245"><ele>276.0</ele><time>2026-04-26T07:17:07.998Z</time></trkpt><trkpt lat="43.398749469090255" lon="13.199825737110883"><ele>276.0</ele><time>2026-04-26T07:17:08.998Z</time></trkpt><trkpt lat="43.398645100575195" lon="13.199834126978296"><ele>276.0</ele><time>2026-04-26T07:17:09.998Z</time></trkpt><trkpt lat="43.39854515520071" lon="13.199841150976347"><ele>277.0</ele><time>2026-04-26T07:17:10.998Z</time></trkpt><trkpt lat="43.39843161973611" lon="13.19983008865262"><ele>278.0</ele><time>2026-04-26T07:17:11.998Z</time></trkpt><trkpt lat="43.398332485040285" lon="13.199855755552317"><ele>279.0</ele><time>2026-04-26T07:17:12.998Z</time></trkpt><trkpt lat="43.39823290172635" lon="13.199863169184429"><ele>280.0</ele><time>2026-04-26T07:17:13.998Z</time></trkpt><trkpt lat="43.39814611440308" lon="13.19985328880809"><ele>281.0</ele><time>2026-04-26T07:17:14.998Z</time></trkpt><trkpt lat="43.39806701332063" lon="13.199860292917787"><ele>282.0</ele><time>2026-04-26T07:17:15.998Z</time></trkpt><trkpt lat="43.397988576902" lon="13.19988748002803"><ele>283.0</ele><time>2026-04-26T07:17:16.998Z</time></trkpt><trkpt lat="43.39792099877342" lon="13.199894631665412"><ele>284.0</ele><time>2026-04-26T07:17:17.998Z</time></trkpt><trkpt lat="43.39782746581185" lon="13.19990492142889"><ele>285.0</ele><time>2026-04-26T07:17:19.998Z</time></trkpt><trkpt lat="43.39775488179597" lon="13.199890516985386"><ele>286.0</ele><time>2026-04-26T07:17:21.998Z</time></trkpt><trkpt lat="43.397679145022416" lon="13.199908426759473"><ele>287.0</ele><time>2026-04-26T07:17:23.998Z</time></trkpt><trkpt lat="43.3976006826714" lon="13.200010374664748"><ele>287.0</ele><time>2026-04-26T07:17:25.999Z</time></trkpt><trkpt lat="43.39748265428734" lon="13.200084845972816"><ele>287.0</ele><time>2026-04-26T07:17:27.999Z</time></trkpt><trkpt lat="43.397413478948366" lon="13.200076818998875"><ele>287.0</ele><time>2026-04-26T07:17:28.999Z</time></trkpt><trkpt lat="43.3973475258077" lon="13.200025883066113"><ele>287.0</ele><time>2026-04-26T07:17:29.999Z</time></trkpt><trkpt lat="43.39727982277843" lon="13.199981579564563"><ele>287.0</ele><time>2026-04-26T07:17:30.999Z</time></trkpt><trkpt lat="43.397168009412475" lon="13.199975759014107"><ele>287.5</ele><time>2026-04-26T07:17:32.999Z</time></trkpt><trkpt lat="43.39704469641586" lon="13.200006112097178"><ele>288.0</ele><time>2026-04-26T07:17:35Z</time></trkpt><trkpt lat="43.39696669130576" lon="13.200015518391556"><ele>288.5</ele><time>2026-04-26T07:17:36Z</time></trkpt><trkpt lat="43.3968903133391" lon="13.20005420049681"><ele>289.0</ele><time>2026-04-26T07:17:37Z</time></trkpt><trkpt lat="43.39682300099998" lon="13.20006191012791"><ele>289.5</ele><time>2026-04-26T07:17:38Z</time></trkpt><trkpt lat="43.396738206009424" lon="13.2000551370982"><ele>290.0</ele><time>2026-04-26T07:17:39Z</time></trkpt><trkpt lat="43.39666363220894" lon="13.200047471691526"><ele>290.0</ele><time>2026-04-26T07:18:03.999Z</time></trkpt><trkpt lat="43.39677157953486" lon="13.200066660305534"><ele>290.0</ele><time>2026-04-26T07:18:21.999Z</time></trkpt><trkpt lat="43.396869848060916" lon="13.200060846463353"><ele>290.0</ele><time>2026-04-26T07:18:23.999Z</time></trkpt><trkpt lat="43.39694771945727" lon="13.200037691786145"><ele>290.0</ele><time>2026-04-26T07:18:24.999Z</time></trkpt><trkpt lat="43.39701074806371" lon="13.200017932681636"><ele>290.0</ele><time>2026-04-26T07:18:25.999Z</time></trkpt><trkpt lat="43.39711019568877" lon="13.199958801035875"><ele>289.5</ele><time>2026-04-26T07:18:27.999Z</time></trkpt><trkpt lat="43.39719610589967" lon="13.199934422808385"><ele>289.0</ele><time>2026-04-26T07:18:28.999Z</time></trkpt><trkpt lat="43.397270065173494" lon="13.200034382349944"><ele>288.5</ele><time>2026-04-26T07:18:29.999Z</time></trkpt><trkpt lat="43.397368484355304" lon="13.200094932692712"><ele>288.0</ele><time>2026-04-26T07:18:31.999Z</time></trkpt><trkpt lat="43.39743289865236" lon="13.200119611016165"><ele>287.5</ele><time>2026-04-26T07:18:32.999Z</time></trkpt><trkpt lat="43.39750017762748" lon="13.200137575249563"><ele>287.0</ele><time>2026-04-26T07:18:33.999Z</time></trkpt><trkpt lat="43.397578870673385" lon="13.200122234469669"><ele>287.0</ele><time>2026-04-26T07:18:34.999Z</time></trkpt><trkpt lat="43.397612720211875" lon="13.200009818316085"><ele>287.0</ele><time>2026-04-26T07:18:35.999Z</time></trkpt><trkpt lat="43.39768517907263" lon="13.199957409753482"><ele>287.0</ele><time>2026-04-26T07:18:37.999Z</time></trkpt><trkpt lat="43.39759777705706" lon="13.199822024619488"><ele>287.0</ele><time>2026-04-26T07:18:44.999Z</time></trkpt><trkpt lat="43.39751159205085" lon="13.199774264970735"><ele>287.0</ele><time>2026-04-26T07:18:46.999Z</time></trkpt><trkpt lat="43.39743437417618" lon="13.199718088206533"><ele>287.1666666666667</ele><time>2026-04-26T07:18:49.999Z</time></trkpt><trkpt lat="43.397426400235595" lon="13.199593767380524"><ele>287.33333333333337</ele><time>2026-04-26T07:18:52.999Z</time></trkpt><trkpt lat="43.3974327794581" lon="13.199503952997718"><ele>287.5</ele><time>2026-04-26T07:18:54.999Z</time></trkpt><trkpt lat="43.39744409266333" lon="13.199396237885523"><ele>287.6666666666667</ele><time>2026-04-26T07:18:56.999Z</time></trkpt><trkpt lat="43.39746641839128" lon="13.199291572106578"><ele>287.8333333333333</ele><time>2026-04-26T07:18:58.999Z</time></trkpt><trkpt lat="43.397501812742" lon="13.199162814254782"><ele>288.0</ele><time>2026-04-26T07:19:00.999Z</time></trkpt><trkpt lat="43.397540475269174" lon="13.199031766642484"><ele>290.6</ele><time>2026-04-26T07:19:02.999Z</time></trkpt><trkpt lat="43.39758239872216" lon="13.198898997102486"><ele>293.20000000000005</ele><time>2026-04-26T07:19:04.999Z</time></trkpt><trkpt lat="43.39761671421594" lon="13.198759795492704"><ele>295.8</ele><time>2026-04-26T07:19:06.999Z</time></trkpt><trkpt lat="43.397658891427135" lon="13.19862572849476"><ele>298.40000000000003</ele><time>2026-04-26T07:19:08.999Z</time></trkpt><trkpt lat="43.39772799788614" lon="13.198500406470966"><ele>301.0</ele><time>2026-04-26T07:19:10.999Z</time></trkpt><trkpt lat="43.397781052782726" lon="13.198381309533405"><ele>301.0</ele><time>2026-04-26T07:19:12.999Z</time></trkpt><trkpt lat="43.39783053392769" lon="13.198298756382876"><ele>301.0</ele><time>2026-04-26T07:19:14.998Z</time></trkpt><trkpt lat="43.39789748755733" lon="13.198219955792357"><ele>301.0</ele><time>2026-04-26T07:19:16.998Z</time></trkpt><trkpt lat="43.39798769648558" lon="13.198165062024312"><ele>301.0</ele><time>2026-04-26T07:19:19.998Z</time></trkpt><trkpt lat="43.398070875129996" lon="13.198112425221023"><ele>301.0</ele><time>2026-04-26T07:19:21.998Z</time></trkpt><trkpt lat="43.39814964896933" lon="13.198075460937947"><ele>301.0</ele><time>2026-04-26T07:19:23.998Z</time></trkpt><trkpt lat="43.39820399960022" lon="13.19800432870256"><ele>303.66666666666663</ele><time>2026-04-26T07:19:25.998Z</time></trkpt><trkpt lat="43.39819227387958" lon="13.19791688507533"><ele>306.3333333333333</ele><time>2026-04-26T07:19:26.998Z</time></trkpt><trkpt lat="43.39810966284779" lon="13.19786746958522"><ele>309.0</ele><time>2026-04-26T07:19:27.998Z</time></trkpt><trkpt lat="43.397999704088804" lon="13.197871046136605"><ele>311.6666666666667</ele><time>2026-04-26T07:19:29.998Z</time></trkpt><trkpt lat="43.39794076822063" lon="13.197832641388318"><ele>314.33333333333337</ele><time>2026-04-26T07:19:31Z</time></trkpt><trkpt lat="43.39787177951147" lon="13.197834514290827"><ele>317.0</ele><time>2026-04-26T07:19:32Z</time></trkpt><trkpt lat="43.39776517287706" lon="13.197808310301191"><ele>317.6</ele><time>2026-04-26T07:19:34Z</time></trkpt><trkpt lat="43.39765486052671" lon="13.197753817270442"><ele>318.2</ele><time>2026-04-26T07:19:36Z</time></trkpt><trkpt lat="43.39759382721985" lon="13.197732167978225"><ele>318.8</ele><time>2026-04-26T07:19:37Z</time></trkpt><trkpt lat="43.39748160388694" lon="13.197689806843092"><ele>319.4</ele><time>2026-04-26T07:19:39Z</time></trkpt><trkpt lat="43.3973676309711" lon="13.197645302633061"><ele>320.0</ele><time>2026-04-26T07:19:41Z</time></trkpt><trkpt lat="43.397297157569575" lon="13.19761850142064"><ele>320.0</ele><time>2026-04-26T07:19:42Z</time></trkpt><trkpt lat="43.397229961977054" lon="13.197593452748052"><ele>320.0</ele><time>2026-04-26T07:19:43Z</time></trkpt><trkpt lat="43.39711617391621" lon="13.197553129567044"><ele>320.0</ele><time>2026-04-26T07:19:45Z</time></trkpt><trkpt lat="43.39704394714437" lon="13.197551597791174"><ele>320.0</ele><time>2026-04-26T07:19:46Z</time></trkpt><trkpt lat="43.39698596005057" lon="13.19751030491398"><ele>320.0</ele><time>2026-04-26T07:19:47Z</time></trkpt><trkpt lat="43.39684834350179" lon="13.19746644908042"><ele>320.33333333333337</ele><time>2026-04-26T07:19:49Z</time></trkpt><trkpt lat="43.3967762147445" lon="13.197466780129758"><ele>320.6666666666667</ele><time>2026-04-26T07:19:50Z</time></trkpt><trkpt lat="43.39671028191953" lon="13.197432527185896"><ele>321.0</ele><time>2026-04-26T07:19:51Z</time></trkpt><trkpt lat="43.39663740670985" lon="13.197418895396407"><ele>321.3333333333333</ele><time>2026-04-26T07:19:52Z</time></trkpt><trkpt lat="43.39657447610201" lon="13.197379172677008"><ele>321.66666666666663</ele><time>2026-04-26T07:19:53Z</time></trkpt><trkpt lat="43.396457611817134" lon="13.197354754103534"><ele>322.0</ele><time>2026-04-26T07:19:55Z</time></trkpt><trkpt lat="43.396385141959314" lon="13.197334795655605"><ele>322.5</ele><time>2026-04-26T07:19:56Z</time></trkpt><trkpt lat="43.3962717964082" lon="13.197299639567374"><ele>323.0</ele><time>2026-04-26T07:19:58Z</time></trkpt><trkpt lat="43.39618448150478" lon="13.197265768972956"><ele>323.5</ele><time>2026-04-26T07:20:00Z</time></trkpt><trkpt lat="43.396106457481054" lon="13.197239972636854"><ele>324.0</ele><time>2026-04-26T07:20:27.999Z</time></trkpt><trkpt lat="43.396031026637196" lon="13.197267550541628"><ele>324.5</ele><time>2026-04-26T07:20:29.999Z</time></trkpt><trkpt lat="43.39610844108909" lon="13.197243776545568"><ele>325.0</ele><time>2026-04-26T07:20:41.999Z</time></trkpt><trkpt lat="43.396176791007335" lon="13.197245382963171"><ele>325.0</ele><time>2026-04-26T07:20:43.999Z</time></trkpt><trkpt lat="43.39626180116897" lon="13.197270423213727"><ele>325.0</ele><time>2026-04-26T07:20:46.999Z</time></trkpt><trkpt lat="43.39632228000085" lon="13.197298236002753"><ele>325.0</ele><time>2026-04-26T07:20:48.999Z</time></trkpt><trkpt lat="43.39647485859504" lon="13.19706178647506"><ele>325.0</ele><time>2026-04-26T07:20:50.999Z</time></trkpt><trkpt lat="43.396572881188575" lon="13.19703345287669"><ele>325.0</ele><time>2026-04-26T07:20:53.999Z</time></trkpt><trkpt lat="43.39664894056449" lon="13.19700536348168"><ele>325.0</ele><time>2026-04-26T07:20:55.999Z</time></trkpt><trkpt lat="43.396728699606356" lon="13.196964710685643"><ele>325.0</ele><time>2026-04-26T07:20:57.999Z</time></trkpt><trkpt lat="43.39680298709417" lon="13.196963105837849"><ele>325.0</ele><time>2026-04-26T07:20:59.999Z</time></trkpt><trkpt lat="43.39686848475" lon="13.196948183540414"><ele>325.0</ele><time>2026-04-26T07:21:01.999Z</time></trkpt><trkpt lat="43.396921666744305" lon="13.196894033833944"><ele>325.0</ele><time>2026-04-26T07:21:06.999Z</time></trkpt><trkpt lat="43.3968254083527" lon="13.19691904283279"><ele>325.0</ele><time>2026-04-26T07:21:18.999Z</time></trkpt><trkpt lat="43.39669016189442" lon="13.196965948235798"><ele>325.0</ele><time>2026-04-26T07:21:20.999Z</time></trkpt><trkpt lat="43.39656322114168" lon="13.19701627054249"><ele>325.0</ele><time>2026-04-26T07:21:21.999Z</time></trkpt><trkpt lat="43.39649672924504" lon="13.19703712633067"><ele>325.0</ele><time>2026-04-26T07:21:22.999Z</time></trkpt><trkpt lat="43.396410925032136" lon="13.197058301801814"><ele>325.0</ele><time>2026-04-26T07:21:23.999Z</time></trkpt><trkpt lat="43.39634223258639" lon="13.197079355462376"><ele>325.0</ele><time>2026-04-26T07:21:24.999Z</time></trkpt><trkpt lat="43.3962757105434" lon="13.197089905355313"><ele>325.0</ele><time>2026-04-26T07:21:25.999Z</time></trkpt><trkpt lat="43.39621071642877" lon="13.197119633794312"><ele>325.0</ele><time>2026-04-26T07:21:26.999Z</time></trkpt><trkpt lat="43.39615726410864" lon="13.197241620962894"><ele>325.0</ele><time>2026-04-26T07:21:27.999Z</time></trkpt><trkpt lat="43.396044719904474" lon="13.197246589833329"><ele>325.0</ele><time>2026-04-26T07:21:29.999Z</time></trkpt><trkpt lat="43.39597341769222" lon="13.197249737877764"><ele>325.0</ele><time>2026-04-26T07:21:32.999Z</time></trkpt><trkpt lat="43.396046252353194" lon="13.197246522177107"><ele>325.0</ele><time>2026-04-26T07:21:38Z</time></trkpt><trkpt lat="43.39613425615576" lon="13.197242636767182"><ele>325.0</ele><time>2026-04-26T07:21:39Z</time></trkpt><trkpt lat="43.39624604642638" lon="13.19723770116893"><ele>325.0</ele><time>2026-04-26T07:21:40Z</time></trkpt><trkpt lat="43.39633940219771" lon="13.197297067754738"><ele>325.0</ele><time>2026-04-26T07:21:41Z</time></trkpt><trkpt lat="43.39643833921022" lon="13.197347295887676"><ele>325.0</ele><time>2026-04-26T07:21:42Z</time></trkpt><trkpt lat="43.39653701020188" lon="13.197370721990165"><ele>324.4</ele><time>2026-04-26T07:21:43Z</time></trkpt><trkpt lat="43.39664275982505" lon="13.197400934387657"><ele>323.8</ele><time>2026-04-26T07:21:44Z</time></trkpt><trkpt lat="43.396741113798264" lon="13.19743227801755"><ele>323.20000000000005</ele><time>2026-04-26T07:21:45Z</time></trkpt><trkpt lat="43.39683627190717" lon="13.197484992593642"><ele>322.6</ele><time>2026-04-26T07:21:46Z</time></trkpt><trkpt lat="43.39693387000558" lon="13.19751029242178"><ele>322.0</ele><time>2026-04-26T07:21:47Z</time></trkpt><trkpt lat="43.39703149962901" lon="13.197548022314418"><ele>322.0</ele><time>2026-04-26T07:21:48Z</time></trkpt><trkpt lat="43.39712259207249" lon="13.197553848101775"><ele>322.0</ele><time>2026-04-26T07:21:49Z</time></trkpt><trkpt lat="43.39720813484849" lon="13.197594490295026"><ele>322.0</ele><time>2026-04-26T07:21:50Z</time></trkpt><trkpt lat="43.39728821536077" lon="13.197624172525474"><ele>322.0</ele><time>2026-04-26T07:21:51Z</time></trkpt><trkpt lat="43.397371995872795" lon="13.197651472117526"><ele>322.0</ele><time>2026-04-26T07:21:52Z</time></trkpt><trkpt lat="43.39745214239783" lon="13.197690708439488"><ele>322.0</ele><time>2026-04-26T07:21:53Z</time></trkpt><trkpt lat="43.39753229283143" lon="13.19771466806469"><ele>321.6</ele><time>2026-04-26T07:21:54Z</time></trkpt><trkpt lat="43.39762385775714" lon="13.197720135843214"><ele>321.20000000000005</ele><time>2026-04-26T07:21:55Z</time></trkpt><trkpt lat="43.39768265260422" lon="13.197808686933291"><ele>320.8</ele><time>2026-04-26T07:21:56Z</time></trkpt><trkpt lat="43.397771142107274" lon="13.197833267425873"><ele>320.4</ele><time>2026-04-26T07:21:57Z</time></trkpt><trkpt lat="43.39788446052454" lon="13.197841417653326"><ele>320.0</ele><time>2026-04-26T07:21:59Z</time></trkpt><trkpt lat="43.39797903721359" lon="13.197892330973804"><ele>320.0</ele><time>2026-04-26T07:22:01Z</time></trkpt><trkpt lat="43.39808595812296" lon="13.197931155345234"><ele>320.0</ele><time>2026-04-26T07:22:04Z</time></trkpt><trkpt lat="43.39815456703773" lon="13.197960444573928"><ele>320.0</ele><time>2026-04-26T07:22:07Z</time></trkpt><trkpt lat="43.398020015372495" lon="13.198102608547483"><ele>320.0</ele><time>2026-04-26T07:22:11Z</time></trkpt><trkpt lat="43.39795268592413" lon="13.198126877641549"><ele>320.0</ele><time>2026-04-26T07:22:12Z</time></trkpt><trkpt lat="43.39785789694659" lon="13.198198763499272"><ele>316.83333333333337</ele><time>2026-04-26T07:22:14Z</time></trkpt><trkpt lat="43.39777597232127" lon="13.198314022707155"><ele>313.6666666666667</ele><time>2026-04-26T07:22:16Z</time></trkpt><trkpt lat="43.39771684854366" lon="13.198447767673105"><ele>310.5</ele><time>2026-04-26T07:22:18Z</time></trkpt><trkpt lat="43.39767922203187" lon="13.19852442781152"><ele>307.3333333333333</ele><time>2026-04-26T07:22:19Z</time></trkpt><trkpt lat="43.39765406343472" lon="13.198613785300013"><ele>304.16666666666663</ele><time>2026-04-26T07:22:20Z</time></trkpt><trkpt lat="43.397616024954914" lon="13.198707553724626"><ele>301.0</ele><time>2026-04-26T07:22:21Z</time></trkpt><trkpt lat="43.39758452385813" lon="13.198813496594186"><ele>301.0</ele><time>2026-04-26T07:22:22Z</time></trkpt><trkpt lat="43.39755646542924" lon="13.198908136904805"><ele>301.0</ele><time>2026-04-26T07:22:23Z</time></trkpt><trkpt lat="43.397523317498944" lon="13.199006650576278"><ele>301.0</ele><time>2026-04-26T07:22:24Z</time></trkpt><trkpt lat="43.39749592112255" lon="13.199096935502032"><ele>301.0</ele><time>2026-04-26T07:22:25Z</time></trkpt><trkpt lat="43.3974719532495" lon="13.19918062311248"><ele>301.0</ele><time>2026-04-26T07:22:26Z</time></trkpt><trkpt lat="43.39742586133548" lon="13.199328500821045"><ele>301.0</ele><time>2026-04-26T07:22:28Z</time></trkpt><trkpt lat="43.39739901788211" lon="13.199465617979675"><ele>298.40000000000003</ele><time>2026-04-26T07:22:30Z</time></trkpt><trkpt lat="43.39739680635133" lon="13.199596213132999"><ele>295.8</ele><time>2026-04-26T07:22:32Z</time></trkpt><trkpt lat="43.397417960666886" lon="13.199731244257412"><ele>293.20000000000005</ele><time>2026-04-26T07:22:34Z</time></trkpt><trkpt lat="43.397473111588546" lon="13.199781378643715"><ele>290.6</ele><time>2026-04-26T07:22:34.999Z</time></trkpt><trkpt lat="43.39758342282234" lon="13.19984337613741"><ele>288.0</ele><time>2026-04-26T07:22:36.999Z</time></trkpt><trkpt lat="43.397692216253" lon="13.199914294662863"><ele>287.75</ele><time>2026-04-26T07:22:38.999Z</time></trkpt><trkpt lat="43.397810910142866" lon="13.199958460718902"><ele>287.5</ele><time>2026-04-26T07:22:40.999Z</time></trkpt><trkpt lat="43.39792716387404" lon="13.199904030326135"><ele>287.25</ele><time>2026-04-26T07:22:41.999Z</time></trkpt><trkpt lat="43.39804501808387" lon="13.19990800642078"><ele>287.0</ele><time>2026-04-26T07:22:42.999Z</time></trkpt><trkpt lat="43.39818451736603" lon="13.199895654275252"><ele>286.25</ele><time>2026-04-26T07:22:43.999Z</time></trkpt><trkpt lat="43.398320185798845" lon="13.199863281753325"><ele>285.5</ele><time>2026-04-26T07:22:44.999Z</time></trkpt><trkpt lat="43.39845315606065" lon="13.199874184403008"><ele>284.75</ele><time>2026-04-26T07:22:45.999Z</time></trkpt><trkpt lat="43.398581050773785" lon="13.199864410066217"><ele>284.0</ele><time>2026-04-26T07:22:46.999Z</time></trkpt><trkpt lat="43.398698449596885" lon="13.199833275692374"><ele>283.25</ele><time>2026-04-26T07:22:47.999Z</time></trkpt><trkpt lat="43.398827190820136" lon="13.199826754188337"><ele>282.5</ele><time>2026-04-26T07:22:48.999Z</time></trkpt><trkpt lat="43.39896045420494" lon="13.19981557429002"><ele>281.75</ele><time>2026-04-26T07:22:49.999Z</time></trkpt><trkpt lat="43.399097323163694" lon="13.199818042427552"><ele>281.0</ele><time>2026-04-26T07:22:50.999Z</time></trkpt><trkpt lat="43.39922685437554" lon="13.199804102237835"><ele>279.75</ele><time>2026-04-26T07:22:51.999Z</time></trkpt><trkpt lat="43.39934941072563" lon="13.199778186678705"><ele>278.5</ele><time>2026-04-26T07:22:52.999Z</time></trkpt><trkpt lat="43.39947201316324" lon="13.199797568097964"><ele>277.25</ele><time>2026-04-26T07:22:53.999Z</time></trkpt><trkpt lat="43.399590705660756" lon="13.19982961302095"><ele>276.0</ele><time>2026-04-26T07:22:54.999Z</time></trkpt><trkpt lat="43.399704106252436" lon="13.199891985425097"><ele>275.25</ele><time>2026-04-26T07:22:55.999Z</time></trkpt><trkpt lat="43.39981669079496" lon="13.19992309561249"><ele>274.5</ele><time>2026-04-26T07:22:56.999Z</time></trkpt><trkpt lat="43.39993732528431" lon="13.199977261743276"><ele>273.75</ele><time>2026-04-26T07:22:57.999Z</time></trkpt><trkpt lat="43.400054073423306" lon="13.200021170820333"><ele>273.0</ele><time>2026-04-26T07:22:58.999Z</time></trkpt><trkpt lat="43.40016870824597" lon="13.20006273872689"><ele>273.0</ele><time>2026-04-26T07:22:59.999Z</time></trkpt><trkpt lat="43.4002785990945" lon="13.200100316561686"><ele>273.0</ele><time>2026-04-26T07:23:00.999Z</time></trkpt><trkpt lat="43.40038300211834" lon="13.200131023407954"><ele>273.0</ele><time>2026-04-26T07:23:01.999Z</time></trkpt><trkpt lat="43.40048695946486" lon="13.200130233396617"><ele>273.0</ele><time>2026-04-26T07:23:02.999Z</time></trkpt><trkpt lat="43.400576664542086" lon="13.200121892817023"><ele>273.0</ele><time>2026-04-26T07:23:03.999Z</time></trkpt><trkpt lat="43.40065396711127" lon="13.200144424103321"><ele>272.6</ele><time>2026-04-26T07:23:04.999Z</time></trkpt><trkpt lat="43.40072409791567" lon="13.200133909576971"><ele>272.20000000000005</ele><time>2026-04-26T07:23:05.999Z</time></trkpt><trkpt lat="43.40081202850494" lon="13.200201200609596"><ele>271.8</ele><time>2026-04-26T07:23:07.999Z</time></trkpt><trkpt lat="43.40085499840129" lon="13.200295995659323"><ele>271.40000000000003</ele><time>2026-04-26T07:23:13.999Z</time></trkpt><trkpt lat="43.400957097458246" lon="13.200162664218857"><ele>271.0</ele><time>2026-04-26T07:23:14.999Z</time></trkpt><trkpt lat="43.40101666398084" lon="13.200052021033787"><ele>271.0</ele><time>2026-04-26T07:23:15.999Z</time></trkpt><trkpt lat="43.401069801520805" lon="13.1999680103795"><ele>271.0</ele><time>2026-04-26T07:23:16.999Z</time></trkpt><trkpt lat="43.401125385751534" lon="13.199875712539951"><ele>271.0</ele><time>2026-04-26T07:23:17.999Z</time></trkpt><trkpt lat="43.401191831265976" lon="13.199781886743782"><ele>271.0</ele><time>2026-04-26T07:23:18.999Z</time></trkpt><trkpt lat="43.401257556051796" lon="13.199705089806505"><ele>271.0</ele><time>2026-04-26T07:23:19.999Z</time></trkpt><trkpt lat="43.40131891372308" lon="13.199611939785486"><ele>271.0</ele><time>2026-04-26T07:23:20.999Z</time></trkpt><trkpt lat="43.401363651071506" lon="13.199500913421621"><ele>269.6</ele><time>2026-04-26T07:23:21.999Z</time></trkpt><trkpt lat="43.40139620104487" lon="13.19937274984074"><ele>268.20000000000005</ele><time>2026-04-26T07:23:22.999Z</time></trkpt><trkpt lat="43.40143382341511" lon="13.199242535586823"><ele>266.79999999999995</ele><time>2026-04-26T07:23:23.999Z</time></trkpt><trkpt lat="43.40143200208492" lon="13.19908957351872"><ele>265.4</ele><time>2026-04-26T07:23:24.999Z</time></trkpt><trkpt lat="43.40141343599338" lon="13.198933471190292"><ele>264.0</ele><time>2026-04-26T07:23:25.999Z</time></trkpt><trkpt lat="43.40138252441841" lon="13.198780953594278"><ele>263.5</ele><time>2026-04-26T07:23:26.999Z</time></trkpt><trkpt lat="43.40133407557344" lon="13.198631451472034"><ele>263.0</ele><time>2026-04-26T07:23:27.999Z</time></trkpt><trkpt lat="43.40129503000717" lon="13.198468686725112"><ele>262.5</ele><time>2026-04-26T07:23:28.999Z</time></trkpt><trkpt lat="43.40127548912997" lon="13.198307063333363"><ele>262.0</ele><time>2026-04-26T07:23:29.999Z</time></trkpt><trkpt lat="43.40123873018117" lon="13.198140532527935"><ele>263.0</ele><time>2026-04-26T07:23:30.999Z</time></trkpt><trkpt lat="43.40120457523585" lon="13.197976121778284"><ele>264.0</ele><time>2026-04-26T07:23:31.999Z</time></trkpt><trkpt lat="43.40117337847848" lon="13.197819795318656"><ele>265.0</ele><time>2026-04-26T07:23:32.999Z</time></trkpt><trkpt lat="43.4011255294849" lon="13.197670588744959"><ele>266.0</ele><time>2026-04-26T07:23:33.999Z</time></trkpt><trkpt lat="43.401100690007205" lon="13.197517400186303"><ele>266.0</ele><time>2026-04-26T07:23:34.999Z</time></trkpt><trkpt lat="43.4010683283394" lon="13.19738441040043"><ele>266.0</ele><time>2026-04-26T07:23:35.999Z</time></trkpt><trkpt lat="43.401034962449614" lon="13.197249575765317"><ele>266.0</ele><time>2026-04-26T07:23:36.999Z</time></trkpt><trkpt lat="43.40101300042595" lon="13.197115239018151"><ele>266.0</ele><time>2026-04-26T07:23:37.999Z</time></trkpt><trkpt lat="43.40098676145219" lon="13.19699486616505"><ele>266.0</ele><time>2026-04-26T07:23:38.999Z</time></trkpt><trkpt lat="43.40097423279328" lon="13.196871766956223"><ele>265.40000000000003</ele><time>2026-04-26T07:23:39.999Z</time></trkpt><trkpt lat="43.40093777458167" lon="13.196760100735077"><ele>264.8</ele><time>2026-04-26T07:23:40.999Z</time></trkpt><trkpt lat="43.40091071148539" lon="13.19663371296727"><ele>264.20000000000005</ele><time>2026-04-26T07:23:41.999Z</time></trkpt><trkpt lat="43.400886829986014" lon="13.196526966554718"><ele>263.6</ele><time>2026-04-26T07:23:43.001Z</time></trkpt><trkpt lat="43.40084819380378" lon="13.196394859458124"><ele>263.0</ele><time>2026-04-26T07:23:44.001Z</time></trkpt><trkpt lat="43.400757385080304" lon="13.196273964029395"><ele>261.0</ele><time>2026-04-26T07:23:45Z</time></trkpt><trkpt lat="43.40066297453123" lon="13.19615770261748"><ele>259.0</ele><time>2026-04-26T07:23:46.001Z</time></trkpt><trkpt lat="43.40055502189101" lon="13.19601935253599"><ele>257.0</ele><time>2026-04-26T07:23:47.001Z</time></trkpt><trkpt lat="43.400484812483896" lon="13.19587528102328"><ele>255.0</ele><time>2026-04-26T07:23:48Z</time></trkpt><trkpt lat="43.40044846295221" lon="13.195701343937083"><ele>257.5</ele><time>2026-04-26T07:23:49Z</time></trkpt><trkpt lat="43.40043448622021" lon="13.195535855751778"><ele>260.0</ele><time>2026-04-26T07:23:50Z</time></trkpt><trkpt lat="43.400418602275444" lon="13.195348996738577"><ele>262.5</ele><time>2026-04-26T07:23:51Z</time></trkpt><trkpt lat="43.400416391274184" lon="13.195159674797246"><ele>265.0</ele><time>2026-04-26T07:23:52Z</time></trkpt><trkpt lat="43.40043774078237" lon="13.194959903115432"><ele>262.5</ele><time>2026-04-26T07:23:53Z</time></trkpt><trkpt lat="43.40045400669333" lon="13.194751995657796"><ele>260.0</ele><time>2026-04-26T07:23:54Z</time></trkpt><trkpt lat="43.40043611293256" lon="13.19455786033534"><ele>257.5</ele><time>2026-04-26T07:23:55Z</time></trkpt><trkpt lat="43.40039662615091" lon="13.194374073097887"><ele>255.0</ele><time>2026-04-26T07:23:56Z</time></trkpt><trkpt lat="43.40033120631674" lon="13.194214680580052"><ele>255.0</ele><time>2026-04-26T07:23:57Z</time></trkpt><trkpt lat="43.40025612688429" lon="13.194073733759184"><ele>255.0</ele><time>2026-04-26T07:23:58Z</time></trkpt><trkpt lat="43.40015363894563" lon="13.193942079812278"><ele>255.0</ele><time>2026-04-26T07:23:59Z</time></trkpt><trkpt lat="43.400053466843495" lon="13.193798667335988"><ele>255.0</ele><time>2026-04-26T07:24:00Z</time></trkpt><trkpt lat="43.39995672935957" lon="13.193640395059772"><ele>253.75</ele><time>2026-04-26T07:24:01Z</time></trkpt><trkpt lat="43.39985669925181" lon="13.193482240504892"><ele>252.5</ele><time>2026-04-26T07:24:02Z</time></trkpt><trkpt lat="43.39976072961036" lon="13.19333052877078"><ele>251.25</ele><time>2026-04-26T07:24:03Z</time></trkpt><trkpt lat="43.39967527906725" lon="13.193183966204607"><ele>250.0</ele><time>2026-04-26T07:24:04Z</time></trkpt><trkpt lat="43.399597869507616" lon="13.193039208141258"><ele>250.0</ele><time>2026-04-26T07:24:05Z</time></trkpt><trkpt lat="43.399538328633085" lon="13.192874557584345"><ele>250.0</ele><time>2026-04-26T07:24:06Z</time></trkpt><trkpt lat="43.39951665046592" lon="13.192700259267696"><ele>250.0</ele><time>2026-04-26T07:24:07Z</time></trkpt><trkpt lat="43.39948761501363" lon="13.192538799573859"><ele>250.0</ele><time>2026-04-26T07:24:08Z</time></trkpt><trkpt lat="43.39945645276469" lon="13.192373954376473"><ele>249.0</ele><time>2026-04-26T07:24:09Z</time></trkpt><trkpt lat="43.399424917688236" lon="13.192207944248583"><ele>248.0</ele><time>2026-04-26T07:24:10Z</time></trkpt><trkpt lat="43.39938005637707" lon="13.192065500306075"><ele>247.0</ele><time>2026-04-26T07:24:11Z</time></trkpt><trkpt lat="43.39935622596111" lon="13.191931115169178"><ele>246.0</ele><time>2026-04-26T07:24:12Z</time></trkpt><trkpt lat="43.39933973878935" lon="13.191836511160155"><ele>245.0</ele><time>2026-04-26T07:24:13Z</time></trkpt><trkpt lat="43.39933212526889" lon="13.191733588316277"><ele>245.0</ele><time>2026-04-26T07:24:15Z</time></trkpt><trkpt lat="43.39932346636542" lon="13.19164473535109"><ele>245.0</ele><time>2026-04-26T07:24:17Z</time></trkpt><trkpt lat="43.399164508123526" lon="13.191628405829476"><ele>245.0</ele><time>2026-04-26T07:24:18Z</time></trkpt><trkpt lat="43.39907109466409" lon="13.191525514125129"><ele>245.0</ele><time>2026-04-26T07:24:19Z</time></trkpt><trkpt lat="43.39898521477707" lon="13.191437852396056"><ele>244.0</ele><time>2026-04-26T07:24:20Z</time></trkpt><trkpt lat="43.3988957511636" lon="13.19138421023687"><ele>243.0</ele><time>2026-04-26T07:24:21Z</time></trkpt><trkpt lat="43.39882714774445" lon="13.191305806696214"><ele>242.0</ele><time>2026-04-26T07:24:22Z</time></trkpt><trkpt lat="43.398747148312864" lon="13.19123902408044"><ele>241.0</ele><time>2026-04-26T07:24:23Z</time></trkpt><trkpt lat="43.39866449930892" lon="13.191168530344674"><ele>240.0</ele><time>2026-04-26T07:24:24Z</time></trkpt><trkpt lat="43.398589727251455" lon="13.191103613801594"><ele>242.0</ele><time>2026-04-26T07:24:25Z</time></trkpt><trkpt lat="43.39852832292216" lon="13.191040094120178"><ele>244.0</ele><time>2026-04-26T07:24:26Z</time></trkpt><trkpt lat="43.39846946102491" lon="13.190951741303637"><ele>246.0</ele><time>2026-04-26T07:24:27Z</time></trkpt><trkpt lat="43.398405614628345" lon="13.190863350870133"><ele>248.0</ele><time>2026-04-26T07:24:28Z</time></trkpt><trkpt lat="43.39832939448623" lon="13.190777738129663"><ele>250.0</ele><time>2026-04-26T07:24:29Z</time></trkpt><trkpt lat="43.39823699403627" lon="13.190701203524386"><ele>251.2</ele><time>2026-04-26T07:24:30Z</time></trkpt><trkpt lat="43.398165450228305" lon="13.1906267155972"><ele>252.4</ele><time>2026-04-26T07:24:30.999Z</time></trkpt><trkpt lat="43.39809287921654" lon="13.190521103138188"><ele>253.60000000000002</ele><time>2026-04-26T07:24:31.999Z</time></trkpt><trkpt lat="43.39802071506345" lon="13.19043810398653"><ele>254.8</ele><time>2026-04-26T07:24:32.999Z</time></trkpt><trkpt lat="43.39794537575842" lon="13.190342979072005"><ele>256.0</ele><time>2026-04-26T07:24:33.999Z</time></trkpt><trkpt lat="43.397883456917796" lon="13.19024457936242"><ele>256.0</ele><time>2026-04-26T07:24:34.999Z</time></trkpt><trkpt lat="43.397825969751004" lon="13.190149937470519"><ele>256.0</ele><time>2026-04-26T07:24:35.999Z</time></trkpt><trkpt lat="43.397782305610185" lon="13.190047802829964"><ele>256.0</ele><time>2026-04-26T07:24:36.999Z</time></trkpt><trkpt lat="43.397755885566426" lon="13.189932917174323"><ele>256.0</ele><time>2026-04-26T07:24:37.999Z</time></trkpt><trkpt lat="43.3977256079942" lon="13.189809696587872"><ele>256.0</ele><time>2026-04-26T07:24:38.999Z</time></trkpt><trkpt lat="43.397746663541234" lon="13.189669390416295"><ele>254.5</ele><time>2026-04-26T07:24:39.999Z</time></trkpt><trkpt lat="43.39777273092465" lon="13.189529650826286"><ele>253.0</ele><time>2026-04-26T07:24:40.999Z</time></trkpt><trkpt lat="43.39782119198735" lon="13.189393740487507"><ele>251.5</ele><time>2026-04-26T07:24:41.999Z</time></trkpt><trkpt lat="43.39788321991422" lon="13.189244589386913"><ele>250.0</ele><time>2026-04-26T07:24:42.999Z</time></trkpt><trkpt lat="43.3979309068228" lon="13.189088578517842"><ele>249.33333333333331</ele><time>2026-04-26T07:24:43.999Z</time></trkpt><trkpt lat="43.397969498725814" lon="13.188952086769321"><ele>248.66666666666666</ele><time>2026-04-26T07:24:44.999Z</time></trkpt><trkpt lat="43.397989491098194" lon="13.188834750986585"><ele>248.0</ele><time>2026-04-26T07:24:45.999Z</time></trkpt><trkpt lat="43.39800408689495" lon="13.188742407113871"><ele>247.33333333333331</ele><time>2026-04-26T07:24:46.999Z</time></trkpt><trkpt lat="43.39794942947734" lon="13.188637382669546"><ele>246.66666666666666</ele><time>2026-04-26T07:24:47.999Z</time></trkpt><trkpt lat="43.3979113548244" lon="13.188534430580699"><ele>246.0</ele><time>2026-04-26T07:24:48.999Z</time></trkpt><trkpt lat="43.39784226896321" lon="13.188452795870635"><ele>246.0</ele><time>2026-04-26T07:24:49.999Z</time></trkpt><trkpt lat="43.39774152131627" lon="13.188458307018594"><ele>246.00000000000003</ele><time>2026-04-26T07:24:50.999Z</time></trkpt><trkpt lat="43.397641355161014" lon="13.188445119785865"><ele>246.00000000000003</ele><time>2026-04-26T07:24:52.999Z</time></trkpt><trkpt lat="43.397577941854315" lon="13.188439631000614"><ele>246.0</ele><time>2026-04-26T07:24:54.999Z</time></trkpt><trkpt lat="43.39749689114155" lon="13.188472525972722"><ele>246.0</ele><time>2026-04-26T07:24:59.999Z</time></trkpt><trkpt lat="43.39736995501703" lon="13.188474104380308"><ele>246.0</ele><time>2026-04-26T07:25:01.999Z</time></trkpt><trkpt lat="43.39730334630161" lon="13.188484445460666"><ele>246.0</ele><time>2026-04-26T07:25:02.999Z</time></trkpt><trkpt lat="43.39723288769168" lon="13.18849538423752"><ele>246.0</ele><time>2026-04-26T07:25:03.999Z</time></trkpt><trkpt lat="43.39714982596647" lon="13.188508279668621"><ele>246.0</ele><time>2026-04-26T07:25:04.999Z</time></trkpt><trkpt lat="43.39706448238961" lon="13.188521204502582"><ele>246.0</ele><time>2026-04-26T07:25:05.999Z</time></trkpt><trkpt lat="43.396979534314106" lon="13.18854769997297"><ele>246.0</ele><time>2026-04-26T07:25:06.999Z</time></trkpt><trkpt lat="43.39690675162303" lon="13.188580924971143"><ele>246.8571428571429</ele><time>2026-04-26T07:25:07.999Z</time></trkpt><trkpt lat="43.39683962625378" lon="13.188610589226267"><ele>247.71428571428572</ele><time>2026-04-26T07:25:08.999Z</time></trkpt><trkpt lat="43.3967830758617" lon="13.188654288113286"><ele>248.57142857142858</ele><time>2026-04-26T07:25:09.999Z</time></trkpt><trkpt lat="43.396705411837" lon="13.1886596776345"><ele>249.42857142857144</ele><time>2026-04-26T07:25:10.999Z</time></trkpt><trkpt lat="43.39663682873968" lon="13.188671455116955"><ele>250.28571428571428</ele><time>2026-04-26T07:25:11.999Z</time></trkpt><trkpt lat="43.39655426510764" lon="13.18866581974127"><ele>251.14285714285714</ele><time>2026-04-26T07:25:12.999Z</time></trkpt><trkpt lat="43.396472470913885" lon="13.188672856878757"><ele>252.0</ele><time>2026-04-26T07:25:13.999Z</time></trkpt><trkpt lat="43.39639930419854" lon="13.18860706464995"><ele>252.0</ele><time>2026-04-26T07:25:14.999Z</time></trkpt><trkpt lat="43.39633751246314" lon="13.18853173727325"><ele>252.0</ele><time>2026-04-26T07:25:15.999Z</time></trkpt><trkpt lat="43.3962803335735" lon="13.188458754696837"><ele>252.0</ele><time>2026-04-26T07:25:16.999Z</time></trkpt><trkpt lat="43.39622644142089" lon="13.18837085643903"><ele>252.0</ele><time>2026-04-26T07:25:17.999Z</time></trkpt><trkpt lat="43.396165292019056" lon="13.188274794034765"><ele>252.0</ele><time>2026-04-26T07:25:18.999Z</time></trkpt><trkpt lat="43.39608471747982" lon="13.188179518513623"><ele>252.0</ele><time>2026-04-26T07:25:19.999Z</time></trkpt><trkpt lat="43.396023026589646" lon="13.18808428183748"><ele>253.75</ele><time>2026-04-26T07:25:20.999Z</time></trkpt><trkpt lat="43.395956044357376" lon="13.187977991609408"><ele>255.5</ele><time>2026-04-26T07:25:21.999Z</time></trkpt><trkpt lat="43.39589142806995" lon="13.187843213218429"><ele>257.25</ele><time>2026-04-26T07:25:22.999Z</time></trkpt><trkpt lat="43.39580586004085" lon="13.187708366875464"><ele>259.0</ele><time>2026-04-26T07:25:23.999Z</time></trkpt><trkpt lat="43.39571232755447" lon="13.187588966565158"><ele>259.0</ele><time>2026-04-26T07:25:24.999Z</time></trkpt><trkpt lat="43.395641565816916" lon="13.18746640740932"><ele>259.0</ele><time>2026-04-26T07:25:25.999Z</time></trkpt><trkpt lat="43.395565149353374" lon="13.187353546661717"><ele>259.0</ele><time>2026-04-26T07:25:26.999Z</time></trkpt><trkpt lat="43.39549188548438" lon="13.187241516633568"><ele>259.0</ele><time>2026-04-26T07:25:27.999Z</time></trkpt><trkpt lat="43.395431583339786" lon="13.187135837885657"><ele>259.0</ele><time>2026-04-26T07:25:28.999Z</time></trkpt><trkpt lat="43.39535721410338" lon="13.187014881464911"><ele>260.59999999999997</ele><time>2026-04-26T07:25:29.999Z</time></trkpt><trkpt lat="43.39529418174159" lon="13.186890397405769"><ele>262.2</ele><time>2026-04-26T07:25:30.999Z</time></trkpt><trkpt lat="43.395218319995024" lon="13.186788165905417"><ele>263.79999999999995</ele><time>2026-04-26T07:25:31.998Z</time></trkpt><trkpt lat="43.39516029473663" lon="13.186727174915049"><ele>265.4</ele><time>2026-04-26T07:25:32.998Z</time></trkpt><trkpt lat="43.3951119840632" lon="13.186667313375475"><ele>267.0</ele><time>2026-04-26T07:25:33.998Z</time></trkpt><trkpt lat="43.395017587678915" lon="13.186585569738272"><ele>267.0</ele><time>2026-04-26T07:25:35.998Z</time></trkpt><trkpt lat="43.39494726488405" lon="13.186536184157461"><ele>267.0</ele><time>2026-04-26T07:25:36.998Z</time></trkpt><trkpt lat="43.39486998217378" lon="13.186494083036216"><ele>267.0</ele><time>2026-04-26T07:25:37.998Z</time></trkpt><trkpt lat="43.39480318319164" lon="13.186498947583313"><ele>267.0</ele><time>2026-04-26T07:25:56Z</time></trkpt><trkpt lat="43.39467680424207" lon="13.18654550274972"><ele>267.0</ele><time>2026-04-26T07:25:58Z</time></trkpt><trkpt lat="43.39456256066195" lon="13.186566368533647"><ele>268.2</ele><time>2026-04-26T07:25:59Z</time></trkpt><trkpt lat="43.394451200972284" lon="13.186610658634377"><ele>269.4</ele><time>2026-04-26T07:26:00Z</time></trkpt><trkpt lat="43.39433904682594" lon="13.186655264499205"><ele>270.6</ele><time>2026-04-26T07:26:01Z</time></trkpt><trkpt lat="43.39425449970502" lon="13.186686615098019"><ele>271.8</ele><time>2026-04-26T07:26:02Z</time></trkpt><trkpt lat="43.39415669523024" lon="13.186744666143364"><ele>273.0</ele><time>2026-04-26T07:26:03Z</time></trkpt><trkpt lat="43.39406003620564" lon="13.18677780010679"><ele>273.0</ele><time>2026-04-26T07:26:04Z</time></trkpt><trkpt lat="43.39394922461355" lon="13.1868185661772"><ele>273.0</ele><time>2026-04-26T07:26:05Z</time></trkpt><trkpt lat="43.39384842542274" lon="13.186830442347851"><ele>273.0</ele><time>2026-04-26T07:26:06Z</time></trkpt><trkpt lat="43.39374683884975" lon="13.186866048407401"><ele>273.0</ele><time>2026-04-26T07:26:07Z</time></trkpt><trkpt lat="43.39364602690257" lon="13.186898959926976"><ele>273.0</ele><time>2026-04-26T07:26:08Z</time></trkpt><trkpt lat="43.393538776081314" lon="13.186931901592857"><ele>273.4</ele><time>2026-04-26T07:26:09Z</time></trkpt><trkpt lat="43.393439444529264" lon="13.186978364223725"><ele>273.8</ele><time>2026-04-26T07:26:10Z</time></trkpt><trkpt lat="43.39334346227338" lon="13.186995630980812"><ele>274.2</ele><time>2026-04-26T07:26:11Z</time></trkpt><trkpt lat="43.39324271499615" lon="13.18697906655317"><ele>274.6</ele><time>2026-04-26T07:26:12Z</time></trkpt><trkpt lat="43.39313283106099" lon="13.186971054802463"><ele>275.0</ele><time>2026-04-26T07:26:13Z</time></trkpt><trkpt lat="43.393035998528404" lon="13.186976157496"><ele>277.0</ele><time>2026-04-26T07:26:14Z</time></trkpt><trkpt lat="43.392936659266425" lon="13.186940885071461"><ele>279.0</ele><time>2026-04-26T07:26:15Z</time></trkpt><trkpt lat="43.392853889744245" lon="13.186892429262159"><ele>281.0</ele><time>2026-04-26T07:26:16Z</time></trkpt><trkpt lat="43.392777852179236" lon="13.186832657906615"><ele>283.0</ele><time>2026-04-26T07:26:17Z</time></trkpt><trkpt lat="43.392699685332914" lon="13.186774886117542"><ele>285.0</ele><time>2026-04-26T07:26:18Z</time></trkpt><trkpt lat="43.39263434463919" lon="13.186674523717711"><ele>285.0</ele><time>2026-04-26T07:26:19Z</time></trkpt><trkpt lat="43.39256017833898" lon="13.186597417498762"><ele>285.0</ele><time>2026-04-26T07:26:20Z</time></trkpt><trkpt lat="43.39252141076903" lon="13.186492800022434"><ele>285.0</ele><time>2026-04-26T07:26:21Z</time></trkpt><trkpt lat="43.39248591769031" lon="13.186391928876985"><ele>285.0</ele><time>2026-04-26T07:26:22Z</time></trkpt><trkpt lat="43.39245379758302" lon="13.186298094046327"><ele>285.0</ele><time>2026-04-26T07:26:23Z</time></trkpt><trkpt lat="43.39242412040256" lon="13.186213971344323"><ele>285.0</ele><time>2026-04-26T07:26:24Z</time></trkpt><trkpt lat="43.39237008661603" lon="13.186109427224936"><ele>283.0</ele><time>2026-04-26T07:26:26Z</time></trkpt><trkpt lat="43.39234136121666" lon="13.185980468030563"><ele>281.0</ele><time>2026-04-26T07:26:48.999Z</time></trkpt><trkpt lat="43.39229635074133" lon="13.185853434610173"><ele>279.0</ele><time>2026-04-26T07:26:50.999Z</time></trkpt><trkpt lat="43.392247662888195" lon="13.1857639684108"><ele>277.0</ele><time>2026-04-26T07:26:51.999Z</time></trkpt><trkpt lat="43.392228783258616" lon="13.185656474178906"><ele>275.0</ele><time>2026-04-26T07:26:52.999Z</time></trkpt><trkpt lat="43.39219255720032" lon="13.185537752661842"><ele>275.33333333333337</ele><time>2026-04-26T07:26:53.999Z</time></trkpt><trkpt lat="43.39216090190037" lon="13.185405890040844"><ele>275.6666666666667</ele><time>2026-04-26T07:26:54.999Z</time></trkpt><trkpt lat="43.392140610196776" lon="13.185306287876855"><ele>276.0</ele><time>2026-04-26T07:26:55.999Z</time></trkpt><trkpt lat="43.39212054785258" lon="13.185184565329893"><ele>276.3333333333333</ele><time>2026-04-26T07:26:56.999Z</time></trkpt><trkpt lat="43.39211681021729" lon="13.185073956246153"><ele>276.66666666666663</ele><time>2026-04-26T07:26:57.999Z</time></trkpt><trkpt lat="43.39212310513385" lon="13.184964925042957"><ele>277.0</ele><time>2026-04-26T07:26:58.999Z</time></trkpt><trkpt lat="43.392154225679135" lon="13.184857476360417"><ele>277.2857142857143</ele><time>2026-04-26T07:26:59.999Z</time></trkpt><trkpt lat="43.39219995072058" lon="13.184757631241819"><ele>277.57142857142856</ele><time>2026-04-26T07:27:00.999Z</time></trkpt><trkpt lat="43.39223523598182" lon="13.18465964001664"><ele>277.85714285714283</ele><time>2026-04-26T07:27:01.999Z</time></trkpt><trkpt lat="43.39227159387201" lon="13.184571480426522"><ele>278.1428571428571</ele><time>2026-04-26T07:27:02.999Z</time></trkpt><trkpt lat="43.39231001445775" lon="13.184488664648311"><ele>278.42857142857144</ele><time>2026-04-26T07:27:03.999Z</time></trkpt><trkpt lat="43.392349615905374" lon="13.18441849565873"><ele>278.71428571428567</ele><time>2026-04-26T07:27:04.999Z</time></trkpt><trkpt lat="43.39240116730708" lon="13.184354071097466"><ele>279.0</ele><time>2026-04-26T07:27:05.999Z</time></trkpt><trkpt lat="43.39245659611337" lon="13.184294658074801"><ele>278.99999999999994</ele><time>2026-04-26T07:27:06.999Z</time></trkpt><trkpt lat="43.392516665556585" lon="13.184238573905393"><ele>279.0</ele><time>2026-04-26T07:27:07.999Z</time></trkpt><trkpt lat="43.39257062480998" lon="13.184190347768387"><ele>279.0</ele><time>2026-04-26T07:27:08.999Z</time></trkpt><trkpt lat="43.392638653804674" lon="13.184135299117221"><ele>279.0</ele><time>2026-04-26T07:27:09.999Z</time></trkpt><trkpt lat="43.39270880021616" lon="13.184087331337219"><ele>279.0</ele><time>2026-04-26T07:27:10.999Z</time></trkpt><trkpt lat="43.3927792129348" lon="13.184040483133991"><ele>278.99999999999994</ele><time>2026-04-26T07:27:11.999Z</time></trkpt><trkpt lat="43.3928422768754" lon="13.183996889268327"><ele>279.0</ele><time>2026-04-26T07:27:12.999Z</time></trkpt><trkpt lat="43.39291273251543" lon="13.183917973710649"><ele>278.4</ele><time>2026-04-26T07:27:14.999Z</time></trkpt><trkpt lat="43.39287912333356" lon="13.183789314920336"><ele>277.79999999999995</ele><time>2026-04-26T07:27:16.999Z</time></trkpt><trkpt lat="43.3927474823007" lon="13.183705275715996"><ele>277.20000000000005</ele><time>2026-04-26T07:27:18.999Z</time></trkpt><trkpt lat="43.392670839650215" lon="13.183701842816633"><ele>276.6</ele><time>2026-04-26T07:27:19.999Z</time></trkpt><trkpt lat="43.392595155198485" lon="13.18369366198472"><ele>276.0</ele><time>2026-04-26T07:27:20.999Z</time></trkpt><trkpt lat="43.39251024567161" lon="13.183650406584778"><ele>276.0</ele><time>2026-04-26T07:27:22.999Z</time></trkpt><trkpt lat="43.392447728476775" lon="13.18352932697945"><ele>276.0</ele><time>2026-04-26T07:28:02Z</time></trkpt><trkpt lat="43.392387904881346" lon="13.18349543147286"><ele>276.0</ele><time>2026-04-26T07:28:04Z</time></trkpt><trkpt lat="43.392314433034265" lon="13.183448916880659"><ele>276.0</ele><time>2026-04-26T07:28:07Z</time></trkpt><trkpt lat="43.392253976539855" lon="13.183387846174186"><ele>276.0</ele><time>2026-04-26T07:28:10Z</time></trkpt><trkpt lat="43.39230716591072" lon="13.183438923007845"><ele>276.0</ele><time>2026-04-26T07:28:24Z</time></trkpt><trkpt lat="43.392360872075635" lon="13.183488125444027"><ele>276.0</ele><time>2026-04-26T07:28:25Z</time></trkpt><trkpt lat="43.39242643133389" lon="13.18354024508825"><ele>276.0</ele><time>2026-04-26T07:28:26Z</time></trkpt><trkpt lat="43.39250085756862" lon="13.18357946456092"><ele>276.0</ele><time>2026-04-26T07:28:27Z</time></trkpt><trkpt lat="43.39258300260478" lon="13.183609113048785"><ele>276.0</ele><time>2026-04-26T07:28:28Z</time></trkpt><trkpt lat="43.392666078245675" lon="13.183617708939115"><ele>276.0</ele><time>2026-04-26T07:28:29Z</time></trkpt><trkpt lat="43.39275126292813" lon="13.183612339784538"><ele>276.0</ele><time>2026-04-26T07:28:30Z</time></trkpt><trkpt lat="43.392826924293786" lon="13.183600686522494"><ele>276.0</ele><time>2026-04-26T07:28:31Z</time></trkpt><trkpt lat="43.392907954443935" lon="13.183600860733671"><ele>276.0</ele><time>2026-04-26T07:28:32Z</time></trkpt><trkpt lat="43.392971384087446" lon="13.183625947264577"><ele>276.0</ele><time>2026-04-26T07:28:33Z</time></trkpt><trkpt lat="43.393036454462944" lon="13.183611371002813"><ele>276.0</ele><time>2026-04-26T07:28:34Z</time></trkpt><trkpt lat="43.39312009715173" lon="13.183622944882394"><ele>276.0</ele><time>2026-04-26T07:28:35Z</time></trkpt><trkpt lat="43.39319055340859" lon="13.183636635101339"><ele>276.0</ele><time>2026-04-26T07:28:36Z</time></trkpt><trkpt lat="43.393281603940075" lon="13.18365338202748"><ele>275.40000000000003</ele><time>2026-04-26T07:28:37Z</time></trkpt><trkpt lat="43.393358034539446" lon="13.18362688091161"><ele>274.8</ele><time>2026-04-26T07:28:38Z</time></trkpt><trkpt lat="43.393427717887974" lon="13.18362900588633"><ele>274.20000000000005</ele><time>2026-04-26T07:28:39Z</time></trkpt><trkpt lat="43.39357518890277" lon="13.183604339430634"><ele>273.6</ele><time>2026-04-26T07:28:41Z</time></trkpt><trkpt lat="43.393666776786276" lon="13.183583683584306"><ele>273.0</ele><time>2026-04-26T07:28:42Z</time></trkpt><trkpt lat="43.39375392772769" lon="13.183548780480239"><ele>273.0</ele><time>2026-04-26T07:28:43Z</time></trkpt><trkpt lat="43.393821161429045" lon="13.183496038700644"><ele>273.0</ele><time>2026-04-26T07:28:44Z</time></trkpt><trkpt lat="43.39388982310195" lon="13.183462107470664"><ele>273.0</ele><time>2026-04-26T07:28:45Z</time></trkpt><trkpt lat="43.3939645287477" lon="13.183429009401705"><ele>273.0</ele><time>2026-04-26T07:28:46Z</time></trkpt><trkpt lat="43.39404195053662" lon="13.18340649922916"><ele>273.0</ele><time>2026-04-26T07:28:47Z</time></trkpt><trkpt lat="43.39410910148383" lon="13.183392373789943"><ele>273.0</ele><time>2026-04-26T07:28:47.999Z</time></trkpt><trkpt lat="43.39417360045344" lon="13.18337995775903"><ele>273.0</ele><time>2026-04-26T07:28:48.999Z</time></trkpt><trkpt lat="43.39430124728551" lon="13.183373107350308"><ele>272.2</ele><time>2026-04-26T07:28:50.999Z</time></trkpt><trkpt lat="43.394399489122165" lon="13.183388140110283"><ele>271.4</ele><time>2026-04-26T07:28:52.999Z</time></trkpt><trkpt lat="43.394507887962014" lon="13.183336701668994"><ele>270.59999999999997</ele><time>2026-04-26T07:28:55.999Z</time></trkpt><trkpt lat="43.39452929591665" lon="13.183459129397486"><ele>269.8</ele><time>2026-04-26T07:28:56.999Z</time></trkpt><trkpt lat="43.39461744318074" lon="13.183324236537398"><ele>269.0</ele><time>2026-04-26T07:28:57.999Z</time></trkpt><trkpt lat="43.39469794798229" lon="13.1834051040878"><ele>258.0</ele><time>2026-04-26T07:28:59.999Z</time></trkpt><trkpt lat="43.39475804037749" lon="13.183458474337936"><ele>258.0</ele><time>2026-04-26T07:29:01.999Z</time></trkpt><trkpt lat="43.39481659134723" lon="13.183510413656123"><ele>258.0</ele><time>2026-04-26T07:29:05.999Z</time></trkpt></trkseg><trkseg><trkpt lat="43.394086354556926" lon="13.183363284361763"><ele>269.0</ele><time>2026-04-26T07:42:58.999Z</time></trkpt><trkpt lat="43.393991453593465" lon="13.18338527457221"><ele>269.0</ele><time>2026-04-26T07:43:00.999Z</time></trkpt><trkpt lat="43.39388650196775" lon="13.183436560352526"><ele>269.0</ele><time>2026-04-26T07:43:02.999Z</time></trkpt><trkpt lat="43.393817653462655" lon="13.183459616109374"><ele>269.0</ele><time>2026-04-26T07:43:03.999Z</time></trkpt><trkpt lat="43.39370116945726" lon="13.183509304131091"><ele>269.0</ele><time>2026-04-26T07:43:05.999Z</time></trkpt><trkpt lat="43.39362707890803" lon="13.183544051639066"><ele>269.57142857142856</ele><time>2026-04-26T07:43:06.999Z</time></trkpt><trkpt lat="43.39355305176074" lon="13.18356808731762"><ele>270.14285714285717</ele><time>2026-04-26T07:43:07.999Z</time></trkpt><trkpt lat="43.39347745507287" lon="13.183576015946437"><ele>270.7142857142857</ele><time>2026-04-26T07:43:08.999Z</time></trkpt><trkpt lat="43.3934053124069" lon="13.183586282131396"><ele>271.2857142857143</ele><time>2026-04-26T07:43:09.999Z</time></trkpt><trkpt lat="43.39332929409364" lon="13.183593367929094"><ele>271.8571428571429</ele><time>2026-04-26T07:43:10.999Z</time></trkpt><trkpt lat="43.3932591115877" lon="13.183598078801692"><ele>272.42857142857144</ele><time>2026-04-26T07:43:11.999Z</time></trkpt><trkpt lat="43.39318586799062" lon="13.183599039479553"><ele>273.0</ele><time>2026-04-26T07:43:12.999Z</time></trkpt><trkpt lat="43.39310946385502" lon="13.183616839667197"><ele>273.0</ele><time>2026-04-26T07:43:13.999Z</time></trkpt><trkpt lat="43.39302875609211" lon="13.183599544372361"><ele>273.0</ele><time>2026-04-26T07:43:14.999Z</time></trkpt><trkpt lat="43.39294067723483" lon="13.18359297885444"><ele>273.0</ele><time>2026-04-26T07:43:15.999Z</time></trkpt><trkpt lat="43.39285768655942" lon="13.183583064007935"><ele>273.0</ele><time>2026-04-26T07:43:16.999Z</time></trkpt><trkpt lat="43.39276229227866" lon="13.183577394672138"><ele>273.0</ele><time>2026-04-26T07:43:17.999Z</time></trkpt><trkpt lat="43.39268595604589" lon="13.183584579326437"><ele>273.0</ele><time>2026-04-26T07:43:18.999Z</time></trkpt><trkpt lat="43.39261001122542" lon="13.183582981840802"><ele>273.5</ele><time>2026-04-26T07:43:19.999Z</time></trkpt><trkpt lat="43.39254202319398" lon="13.183587243801943"><ele>274.0</ele><time>2026-04-26T07:43:20.999Z</time></trkpt><trkpt lat="43.39247493374056" lon="13.183560323762832"><ele>274.5</ele><time>2026-04-26T07:43:21.999Z</time></trkpt><trkpt lat="43.39240671040591" lon="13.183524183480225"><ele>275.0</ele><time>2026-04-26T07:43:22.999Z</time></trkpt><trkpt lat="43.39233138777638" lon="13.183479664121244"><ele>275.5</ele><time>2026-04-26T07:43:23.999Z</time></trkpt><trkpt lat="43.39225856287064" lon="13.183425949193834"><ele>276.0</ele><time>2026-04-26T07:43:24.999Z</time></trkpt><trkpt lat="43.39220014241837" lon="13.183331795652302"><ele>276.8</ele><time>2026-04-26T07:43:25.999Z</time></trkpt><trkpt lat="43.392130620511445" lon="13.183259886024569"><ele>277.6</ele><time>2026-04-26T07:43:26.999Z</time></trkpt><trkpt lat="43.392065065246165" lon="13.183183925939307"><ele>278.4</ele><time>2026-04-26T07:43:27.998Z</time></trkpt><trkpt lat="43.39201189545654" lon="13.183091548230719"><ele>279.2</ele><time>2026-04-26T07:43:28.998Z</time></trkpt><trkpt lat="43.3919575704241" lon="13.182985916625855"><ele>280.0</ele><time>2026-04-26T07:43:29.998Z</time></trkpt><trkpt lat="43.39189655549514" lon="13.182874363490027"><ele>280.6</ele><time>2026-04-26T07:43:30.998Z</time></trkpt><trkpt lat="43.39183777282211" lon="13.1827708168733"><ele>281.2</ele><time>2026-04-26T07:43:31.998Z</time></trkpt><trkpt lat="43.39178244368081" lon="13.182678003816351"><ele>281.8</ele><time>2026-04-26T07:43:32.998Z</time></trkpt><trkpt lat="43.391687056924404" lon="13.182581109317658"><ele>282.4</ele><time>2026-04-26T07:43:34.998Z</time></trkpt><trkpt lat="43.39156675632639" lon="13.182570964530846"><ele>283.0</ele><time>2026-04-26T07:43:36.998Z</time></trkpt><trkpt lat="43.391496028764806" lon="13.182592976113293"><ele>283.0</ele><time>2026-04-26T07:43:37.998Z</time></trkpt><trkpt lat="43.39142104566201" lon="13.182619300525035"><ele>283.0</ele><time>2026-04-26T07:43:38.998Z</time></trkpt><trkpt lat="43.39134456849852" lon="13.18265048212304"><ele>283.0</ele><time>2026-04-26T07:43:39.998Z</time></trkpt><trkpt lat="43.391271422381394" lon="13.18268134332398"><ele>283.0</ele><time>2026-04-26T07:43:40.998Z</time></trkpt><trkpt lat="43.39120137400677" lon="13.182710898263029"><ele>283.0</ele><time>2026-04-26T07:43:41.998Z</time></trkpt><trkpt lat="43.391101980436765" lon="13.182732036180024"><ele>283.0</ele><time>2026-04-26T07:43:44Z</time></trkpt><trkpt lat="43.39102012534943" lon="13.182736863365987"><ele>283.0</ele><time>2026-04-26T07:43:48Z</time></trkpt><trkpt lat="43.390918706932695" lon="13.182515090063255"><ele>283.0</ele><time>2026-04-26T07:43:50Z</time></trkpt><trkpt lat="43.39088012424248" lon="13.182444833729733"><ele>283.0</ele><time>2026-04-26T07:43:51Z</time></trkpt><trkpt lat="43.39084147552247" lon="13.182363947721901"><ele>283.0</ele><time>2026-04-26T07:43:52Z</time></trkpt><trkpt lat="43.39079721215447" lon="13.182286899051267"><ele>283.0</ele><time>2026-04-26T07:43:53Z</time></trkpt><trkpt lat="43.39075413841305" lon="13.182212664744082"><ele>283.0</ele><time>2026-04-26T07:43:54Z</time></trkpt><trkpt lat="43.390703788309544" lon="13.182152556819375"><ele>283.0</ele><time>2026-04-26T07:43:55Z</time></trkpt><trkpt lat="43.39064623946899" lon="13.182102431981843"><ele>283.0</ele><time>2026-04-26T07:43:56Z</time></trkpt><trkpt lat="43.3905805408913" lon="13.182065189378969"><ele>283.0</ele><time>2026-04-26T07:43:57Z</time></trkpt><trkpt lat="43.390515007909514" lon="13.182037227226518"><ele>283.0</ele><time>2026-04-26T07:43:58Z</time></trkpt><trkpt lat="43.39045322969035" lon="13.182001623640982"><ele>283.0</ele><time>2026-04-26T07:43:59Z</time></trkpt><trkpt lat="43.39039586513783" lon="13.181953952908326"><ele>283.0</ele><time>2026-04-26T07:44:00Z</time></trkpt><trkpt lat="43.390346149057464" lon="13.181896435069248"><ele>283.8571428571429</ele><time>2026-04-26T07:44:01Z</time></trkpt><trkpt lat="43.390296136734875" lon="13.181832656341017"><ele>284.7142857142857</ele><time>2026-04-26T07:44:02Z</time></trkpt><trkpt lat="43.390243059147785" lon="13.181770523563056"><ele>285.57142857142856</ele><time>2026-04-26T07:44:03Z</time></trkpt><trkpt lat="43.390191744131045" lon="13.181704513759414"><ele>286.42857142857144</ele><time>2026-04-26T07:44:04Z</time></trkpt><trkpt lat="43.390136136976395" lon="13.181638343533917"><ele>287.2857142857143</ele><time>2026-04-26T07:44:05Z</time></trkpt><trkpt lat="43.39009003086807" lon="13.18157134448164"><ele>288.14285714285717</ele><time>2026-04-26T07:44:06Z</time></trkpt><trkpt lat="43.39003810791928" lon="13.181466944883557"><ele>289.0</ele><time>2026-04-26T07:44:08Z</time></trkpt><trkpt lat="43.390000006419875" lon="13.181328562380243"><ele>289.0</ele><time>2026-04-26T07:44:10Z</time></trkpt><trkpt lat="43.38994844186241" lon="13.181175323686565"><ele>289.0</ele><time>2026-04-26T07:44:12Z</time></trkpt><trkpt lat="43.3898734124251" lon="13.181068811025508"><ele>289.0</ele><time>2026-04-26T07:44:14Z</time></trkpt><trkpt lat="43.38975770004313" lon="13.181041923278297"><ele>289.0</ele><time>2026-04-26T07:44:16Z</time></trkpt><trkpt lat="43.38969375823515" lon="13.181052359057395"><ele>289.0</ele><time>2026-04-26T07:44:17Z</time></trkpt><trkpt lat="43.389590162183" lon="13.18103798544441"><ele>290.7142857142857</ele><time>2026-04-26T07:44:19Z</time></trkpt><trkpt lat="43.38950380678392" lon="13.180987623516657"><ele>292.42857142857144</ele><time>2026-04-26T07:44:22Z</time></trkpt><trkpt lat="43.3894446628278" lon="13.180952845353085"><ele>294.1428571428571</ele><time>2026-04-26T07:44:23Z</time></trkpt><trkpt lat="43.38938749188302" lon="13.180909429280796"><ele>295.8571428571429</ele><time>2026-04-26T07:44:24Z</time></trkpt><trkpt lat="43.389329723741405" lon="13.18087239607125"><ele>297.57142857142856</ele><time>2026-04-26T07:44:25Z</time></trkpt><trkpt lat="43.389266188086424" lon="13.18085284470505"><ele>299.2857142857143</ele><time>2026-04-26T07:44:26Z</time></trkpt><trkpt lat="43.38919906502957" lon="13.180860645800436"><ele>301.0</ele><time>2026-04-26T07:44:27Z</time></trkpt><trkpt lat="43.389132012531924" lon="13.18087394187416"><ele>301.0</ele><time>2026-04-26T07:44:28Z</time></trkpt><trkpt lat="43.389061748538474" lon="13.180885749984425"><ele>301.0</ele><time>2026-04-26T07:44:29Z</time></trkpt><trkpt lat="43.38899910257431" lon="13.180898449000756"><ele>301.0</ele><time>2026-04-26T07:44:30Z</time></trkpt><trkpt lat="43.38888137189085" lon="13.180889115009"><ele>301.0</ele><time>2026-04-26T07:44:32Z</time></trkpt><trkpt lat="43.38881737697093" lon="13.18086839512906"><ele>301.0</ele><time>2026-04-26T07:44:33Z</time></trkpt><trkpt lat="43.38874787538348" lon="13.180858102200512"><ele>301.0</ele><time>2026-04-26T07:44:34Z</time></trkpt><trkpt lat="43.388680641999365" lon="13.180845954270131"><ele>302.16666666666663</ele><time>2026-04-26T07:44:35Z</time></trkpt><trkpt lat="43.38860822551259" lon="13.180847008027166"><ele>303.3333333333333</ele><time>2026-04-26T07:44:36Z</time></trkpt><trkpt lat="43.388536669105704" lon="13.180856536327717"><ele>304.5</ele><time>2026-04-26T07:44:37Z</time></trkpt><trkpt lat="43.38847185194923" lon="13.18088670374923"><ele>305.6666666666667</ele><time>2026-04-26T07:44:38Z</time></trkpt><trkpt lat="43.388410870478715" lon="13.180911253103025"><ele>306.83333333333337</ele><time>2026-04-26T07:44:39Z</time></trkpt><trkpt lat="43.38830011852825" lon="13.18089585115899"><ele>308.0</ele><time>2026-04-26T07:44:41Z</time></trkpt><trkpt lat="43.38824414994968" lon="13.180855076847738"><ele>308.0</ele><time>2026-04-26T07:44:43Z</time></trkpt><trkpt lat="43.388181351212815" lon="13.180806802313123"><ele>308.0</ele><time>2026-04-26T07:44:45Z</time></trkpt><trkpt lat="43.38812610526525" lon="13.180763097909352"><ele>308.0</ele><time>2026-04-26T07:44:46.999Z</time></trkpt><trkpt lat="43.388062492185306" lon="13.180682822491704"><ele>308.0</ele><time>2026-04-26T07:44:48.999Z</time></trkpt><trkpt lat="43.3880026635639" lon="13.180592032493692"><ele>308.0</ele><time>2026-04-26T07:44:50.999Z</time></trkpt><trkpt lat="43.38792311202981" lon="13.18050293994273"><ele>308.0</ele><time>2026-04-26T07:44:52.999Z</time></trkpt><trkpt lat="43.387824818383336" lon="13.180433333643826"><ele>308.0</ele><time>2026-04-26T07:44:54.999Z</time></trkpt><trkpt lat="43.387726003508554" lon="13.180362113417534"><ele>308.0</ele><time>2026-04-26T07:44:56.999Z</time></trkpt><trkpt lat="43.387618702956566" lon="13.18028607698084"><ele>308.0</ele><time>2026-04-26T07:44:58.999Z</time></trkpt><trkpt lat="43.38756371262169" lon="13.18024041821339"><ele>308.0</ele><time>2026-04-26T07:44:59.999Z</time></trkpt><trkpt lat="43.38750968423453" lon="13.180195776700833"><ele>308.0</ele><time>2026-04-26T07:45:00.999Z</time></trkpt><trkpt lat="43.3874551316339" lon="13.180151424592351"><ele>308.0</ele><time>2026-04-26T07:45:01.999Z</time></trkpt><trkpt lat="43.38739619602686" lon="13.180107315799996"><ele>308.0</ele><time>2026-04-26T07:45:02.999Z</time></trkpt><trkpt lat="43.38732839106204" lon="13.180071961159475"><ele>308.0</ele><time>2026-04-26T07:45:03.999Z</time></trkpt><trkpt lat="43.38725658153302" lon="13.180042214249832"><ele>308.0</ele><time>2026-04-26T07:45:04.999Z</time></trkpt><trkpt lat="43.38718107001285" lon="13.180022065393965"><ele>308.0</ele><time>2026-04-26T07:45:05.999Z</time></trkpt><trkpt lat="43.38710706334809" lon="13.180008965488199"><ele>308.0</ele><time>2026-04-26T07:45:06.999Z</time></trkpt><trkpt lat="43.38703155765099" lon="13.18000835028026"><ele>308.0</ele><time>2026-04-26T07:45:07.999Z</time></trkpt><trkpt lat="43.38691428995204" lon="13.179988041176374"><ele>309.6</ele><time>2026-04-26T07:45:09.999Z</time></trkpt><trkpt lat="43.38685094693586" lon="13.179980602544893"><ele>311.20000000000005</ele><time>2026-04-26T07:45:10.999Z</time></trkpt><trkpt lat="43.38673649147183" lon="13.18002406173436"><ele>312.8</ele><time>2026-04-26T07:45:12.999Z</time></trkpt><trkpt lat="43.38663341641756" lon="13.180101003641202"><ele>314.40000000000003</ele><time>2026-04-26T07:45:14.999Z</time></trkpt><trkpt lat="43.38656618280698" lon="13.180176647257712"><ele>316.0</ele><time>2026-04-26T07:45:16.999Z</time></trkpt><trkpt lat="43.38648456904786" lon="13.180245824250445"><ele>316.0</ele><time>2026-04-26T07:45:18.999Z</time></trkpt><trkpt lat="43.386400687089626" lon="13.180285464690574"><ele>316.0</ele><time>2026-04-26T07:45:20.999Z</time></trkpt><trkpt lat="43.3863139994595" lon="13.180288861210832"><ele>316.0</ele><time>2026-04-26T07:45:22.999Z</time></trkpt><trkpt lat="43.386196503696574" lon="13.18028542427775"><ele>316.0</ele><time>2026-04-26T07:45:24.999Z</time></trkpt><trkpt lat="43.38606812578506" lon="13.180313415069302"><ele>316.0</ele><time>2026-04-26T07:45:26.999Z</time></trkpt><trkpt lat="43.385995030050445" lon="13.180351789161637"><ele>316.2</ele><time>2026-04-26T07:45:28.999Z</time></trkpt><trkpt lat="43.38592542399659" lon="13.1804003778908"><ele>316.40000000000003</ele><time>2026-04-26T07:45:30.999Z</time></trkpt><trkpt lat="43.385851228731106" lon="13.180509661135256"><ele>316.6</ele><time>2026-04-26T07:45:32.999Z</time></trkpt><trkpt lat="43.38577660260349" lon="13.180613639679914"><ele>316.8</ele><time>2026-04-26T07:45:34.999Z</time></trkpt><trkpt lat="43.3857098807022" lon="13.180709258559908"><ele>317.0</ele><time>2026-04-26T07:45:36.999Z</time></trkpt><trkpt lat="43.385679229690915" lon="13.180805314493055"><ele>318.83333333333337</ele><time>2026-04-26T07:45:38.999Z</time></trkpt><trkpt lat="43.38561290770545" lon="13.180823258230777"><ele>320.6666666666667</ele><time>2026-04-26T07:45:40.999Z</time></trkpt><trkpt lat="43.38556382729262" lon="13.180763310868706"><ele>322.5</ele><time>2026-04-26T07:45:42.999Z</time></trkpt><trkpt lat="43.385503697841024" lon="13.180730810724276"><ele>324.3333333333333</ele><time>2026-04-26T07:45:45.999Z</time></trkpt><trkpt lat="43.38557076875745" lon="13.180783547330918"><ele>326.16666666666663</ele><time>2026-04-26T07:48:29Z</time></trkpt><trkpt lat="43.38569735502232" lon="13.180895355927955"><ele>328.0</ele><time>2026-04-26T07:49:39.999Z</time></trkpt><trkpt lat="43.38575442007859" lon="13.180992911915867"><ele>328.0</ele><time>2026-04-26T07:49:41.999Z</time></trkpt><trkpt lat="43.38582347989625" lon="13.181101789462062"><ele>328.0</ele><time>2026-04-26T07:49:43.999Z</time></trkpt><trkpt lat="43.38589006306968" lon="13.181208983206746"><ele>328.0</ele><time>2026-04-26T07:49:45.999Z</time></trkpt><trkpt lat="43.3859582126586" lon="13.181323617995526"><ele>328.0</ele><time>2026-04-26T07:49:47.999Z</time></trkpt><trkpt lat="43.38602641926499" lon="13.181440856923217"><ele>328.0</ele><time>2026-04-26T07:49:49.999Z</time></trkpt><trkpt lat="43.38610465247485" lon="13.181549858074664"><ele>328.59999999999997</ele><time>2026-04-26T07:49:51.999Z</time></trkpt><trkpt lat="43.38616647995408" lon="13.181661141593795"><ele>329.2</ele><time>2026-04-26T07:49:53.999Z</time></trkpt><trkpt lat="43.38621302920311" lon="13.181793677097078"><ele>329.8</ele><time>2026-04-26T07:49:56.999Z</time></trkpt><trkpt lat="43.386261315538604" lon="13.181923132364263"><ele>330.4</ele><time>2026-04-26T07:49:58.999Z</time></trkpt><trkpt lat="43.386304275159915" lon="13.182048024096366"><ele>331.0</ele><time>2026-04-26T07:50:01.001Z</time></trkpt><trkpt lat="43.386346815948976" lon="13.18217734250121"><ele>331.0</ele><time>2026-04-26T07:50:03.001Z</time></trkpt><trkpt lat="43.38640686362771" lon="13.182290439035738"><ele>331.0</ele><time>2026-04-26T07:50:05.001Z</time></trkpt><trkpt lat="43.386488022900274" lon="13.182394353466872"><ele>331.0</ele><time>2026-04-26T07:50:07.001Z</time></trkpt><trkpt lat="43.386576561828754" lon="13.182476902666105"><ele>331.0</ele><time>2026-04-26T07:50:09.001Z</time></trkpt><trkpt lat="43.386657118081885" lon="13.182553085075792"><ele>331.0</ele><time>2026-04-26T07:50:11.001Z</time></trkpt><trkpt lat="43.38672221555089" lon="13.182646231339424"><ele>333.75</ele><time>2026-04-26T07:50:13.001Z</time></trkpt><trkpt lat="43.386770511122094" lon="13.182755246301726"><ele>336.5</ele><time>2026-04-26T07:50:15Z</time></trkpt><trkpt lat="43.3868172062668" lon="13.182893160644161"><ele>339.25</ele><time>2026-04-26T07:50:17Z</time></trkpt><trkpt lat="43.38684621906774" lon="13.183060064865385"><ele>342.0</ele><time>2026-04-26T07:50:19Z</time></trkpt><trkpt lat="43.3868863449076" lon="13.183232155989817"><ele>344.0</ele><time>2026-04-26T07:50:21Z</time></trkpt><trkpt lat="43.386908532051265" lon="13.183319480312225"><ele>346.0</ele><time>2026-04-26T07:50:22Z</time></trkpt><trkpt lat="43.3869293084751" lon="13.183405092255798"><ele>348.0</ele><time>2026-04-26T07:50:23Z</time></trkpt><trkpt lat="43.38694875880366" lon="13.183488334700975"><ele>350.0</ele><time>2026-04-26T07:50:24Z</time></trkpt><trkpt lat="43.386856502515144" lon="13.183667006130742"><ele>352.0</ele><time>2026-04-26T07:50:25Z</time></trkpt><trkpt lat="43.386902320174976" lon="13.183761496852314"><ele>354.0</ele><time>2026-04-26T07:50:27Z</time></trkpt><trkpt lat="43.38681920308079" lon="13.183609964931147"><ele>354.0</ele><time>2026-04-26T07:50:33Z</time></trkpt><trkpt lat="43.38677600293832" lon="13.183504610400094"><ele>354.0</ele><time>2026-04-26T07:50:34Z</time></trkpt><trkpt lat="43.386723480844196" lon="13.18339472592146"><ele>354.0</ele><time>2026-04-26T07:50:35Z</time></trkpt><trkpt lat="43.386691685263436" lon="13.183261802186717"><ele>354.0</ele><time>2026-04-26T07:50:36Z</time></trkpt><trkpt lat="43.38663609347642" lon="13.183160080075785"><ele>354.0</ele><time>2026-04-26T07:50:37Z</time></trkpt><trkpt lat="43.3865696457739" lon="13.183072378815076"><ele>355.5</ele><time>2026-04-26T07:50:38Z</time></trkpt><trkpt lat="43.38652345038163" lon="13.182970244716751"><ele>357.0</ele><time>2026-04-26T07:50:39Z</time></trkpt><trkpt lat="43.38647200467419" lon="13.182879224233515"><ele>358.5</ele><time>2026-04-26T07:50:40Z</time></trkpt><trkpt lat="43.38641462049652" lon="13.182795056161265"><ele>360.0</ele><time>2026-04-26T07:50:41Z</time></trkpt><trkpt lat="43.38635989861067" lon="13.182723454751772"><ele>361.5</ele><time>2026-04-26T07:50:42Z</time></trkpt><trkpt lat="43.38629794968016" lon="13.182663710749177"><ele>363.0</ele><time>2026-04-26T07:50:43Z</time></trkpt><trkpt lat="43.38622978456164" lon="13.182617137449599"><ele>363.0</ele><time>2026-04-26T07:50:44Z</time></trkpt><trkpt lat="43.38615625643535" lon="13.182578656771566"><ele>363.0</ele><time>2026-04-26T07:50:45Z</time></trkpt><trkpt lat="43.386071774367174" lon="13.182556177677881"><ele>363.0</ele><time>2026-04-26T07:50:46Z</time></trkpt><trkpt lat="43.385990864535614" lon="13.182527476127786"><ele>363.0</ele><time>2026-04-26T07:50:47Z</time></trkpt><trkpt lat="43.38591142720531" lon="13.182499430179117"><ele>363.0</ele><time>2026-04-26T07:50:48Z</time></trkpt><trkpt lat="43.385839115843325" lon="13.182474501782831"><ele>363.0</ele><time>2026-04-26T07:50:49Z</time></trkpt><trkpt lat="43.38577777104176" lon="13.182412770214345"><ele>362.6666666666667</ele><time>2026-04-26T07:50:50Z</time></trkpt><trkpt lat="43.38571977624162" lon="13.18234526472593"><ele>362.3333333333333</ele><time>2026-04-26T07:50:51Z</time></trkpt><trkpt lat="43.38565709745674" lon="13.18229876747521"><ele>362.0</ele><time>2026-04-26T07:50:52Z</time></trkpt><trkpt lat="43.385596048286146" lon="13.182247456769632"><ele>361.66666666666663</ele><time>2026-04-26T07:50:54Z</time></trkpt><trkpt lat="43.38552855875283" lon="13.182253937081681"><ele>361.3333333333333</ele><time>2026-04-26T07:50:57Z</time></trkpt><trkpt lat="43.38543904506863" lon="13.182079442761598"><ele>361.0</ele><time>2026-04-26T07:50:59Z</time></trkpt><trkpt lat="43.38536353022449" lon="13.181966167519688"><ele>361.0</ele><time>2026-04-26T07:51:00Z</time></trkpt><trkpt lat="43.38528734243279" lon="13.181837498743649"><ele>361.0</ele><time>2026-04-26T07:51:01Z</time></trkpt><trkpt lat="43.38519624737968" lon="13.181705901483177"><ele>361.0</ele><time>2026-04-26T07:51:02Z</time></trkpt><trkpt lat="43.385101908642326" lon="13.181574987230745"><ele>361.0</ele><time>2026-04-26T07:51:03Z</time></trkpt><trkpt lat="43.3850064847192" lon="13.181432145125004"><ele>356.75</ele><time>2026-04-26T07:51:04Z</time></trkpt><trkpt lat="43.384899382943" lon="13.181299972992267"><ele>352.5</ele><time>2026-04-26T07:51:04.999Z</time></trkpt><trkpt lat="43.384783379139485" lon="13.181181474994448"><ele>348.25</ele><time>2026-04-26T07:51:05.999Z</time></trkpt><trkpt lat="43.384679413735775" lon="13.181069762648324"><ele>344.0</ele><time>2026-04-26T07:51:06.999Z</time></trkpt><trkpt lat="43.38456646823085" lon="13.180975119162776"><ele>344.0</ele><time>2026-04-26T07:51:07.999Z</time></trkpt><trkpt lat="43.38444317409324" lon="13.18090569482228"><ele>344.0</ele><time>2026-04-26T07:51:08.999Z</time></trkpt><trkpt lat="43.384309557807256" lon="13.180861357854322"><ele>344.0</ele><time>2026-04-26T07:51:09.999Z</time></trkpt><trkpt lat="43.38417253339458" lon="13.180832599556886"><ele>344.0</ele><time>2026-04-26T07:51:10.999Z</time></trkpt><trkpt lat="43.38403060753456" lon="13.180840071076936"><ele>344.0</ele><time>2026-04-26T07:51:11.999Z</time></trkpt><trkpt lat="43.38388883522475" lon="13.180860659110305"><ele>344.0</ele><time>2026-04-26T07:51:12.999Z</time></trkpt><trkpt lat="43.38374491022595" lon="13.180887484262003"><ele>344.0</ele><time>2026-04-26T07:51:13.999Z</time></trkpt><trkpt lat="43.38360324044091" lon="13.180881057645577"><ele>344.0</ele><time>2026-04-26T07:51:14.999Z</time></trkpt><trkpt lat="43.383460829987726" lon="13.180911604843391"><ele>342.75</ele><time>2026-04-26T07:51:15.999Z</time></trkpt><trkpt lat="43.38331695435983" lon="13.180917152251505"><ele>341.5</ele><time>2026-04-26T07:51:16.999Z</time></trkpt><trkpt lat="43.38317759320982" lon="13.180927333674"><ele>340.25</ele><time>2026-04-26T07:51:17.999Z</time></trkpt><trkpt lat="43.38303682684921" lon="13.180913569025515"><ele>339.0</ele><time>2026-04-26T07:51:18.999Z</time></trkpt><trkpt lat="43.38289963002991" lon="13.180915683505965"><ele>336.75</ele><time>2026-04-26T07:51:19.999Z</time></trkpt><trkpt lat="43.38275175339001" lon="13.18093141853526"><ele>334.5</ele><time>2026-04-26T07:51:20.999Z</time></trkpt><trkpt lat="43.38260558000435" lon="13.180932529975138"><ele>332.25</ele><time>2026-04-26T07:51:21.999Z</time></trkpt><trkpt lat="43.38246588698389" lon="13.180911901342164"><ele>330.0</ele><time>2026-04-26T07:51:22.999Z</time></trkpt><trkpt lat="43.38233944949471" lon="13.180909870294046"><ele>330.0</ele><time>2026-04-26T07:51:23.999Z</time></trkpt><trkpt lat="43.38222802040243" lon="13.180908016564535"><ele>330.0</ele><time>2026-04-26T07:51:24.999Z</time></trkpt><trkpt lat="43.38212444022266" lon="13.180906293415717"><ele>330.0</ele><time>2026-04-26T07:51:25.999Z</time></trkpt><trkpt lat="43.3820300421517" lon="13.180903410441148"><ele>330.0</ele><time>2026-04-26T07:51:26.999Z</time></trkpt><trkpt lat="43.38193870414673" lon="13.18088462611179"><ele>330.0</ele><time>2026-04-26T07:51:27.999Z</time></trkpt><trkpt lat="43.38186134150296" lon="13.180832348983106"><ele>331.0</ele><time>2026-04-26T07:51:28.999Z</time></trkpt><trkpt lat="43.381812299562725" lon="13.180725589261714"><ele>332.0</ele><time>2026-04-26T07:51:29.999Z</time></trkpt><trkpt lat="43.3818106132283" lon="13.180575743446372"><ele>333.0</ele><time>2026-04-26T07:51:30.999Z</time></trkpt><trkpt lat="43.381833311126705" lon="13.180443841677612"><ele>334.0</ele><time>2026-04-26T07:51:31.999Z</time></trkpt><trkpt lat="43.381899321611506" lon="13.180352716637243"><ele>335.0</ele><time>2026-04-26T07:51:32.999Z</time></trkpt><trkpt lat="43.381964249430894" lon="13.180267306220106"><ele>333.6</ele><time>2026-04-26T07:51:33.999Z</time></trkpt><trkpt lat="43.38205545972955" lon="13.180224213950959"><ele>332.2</ele><time>2026-04-26T07:51:34.999Z</time></trkpt><trkpt lat="43.38213802289204" lon="13.180145252477951"><ele>330.79999999999995</ele><time>2026-04-26T07:51:35.999Z</time></trkpt><trkpt lat="43.382236975891594" lon="13.180088064181536"><ele>329.4</ele><time>2026-04-26T07:51:36.999Z</time></trkpt><trkpt lat="43.38233394549881" lon="13.18003183604467"><ele>328.0</ele><time>2026-04-26T07:51:37.999Z</time></trkpt><trkpt lat="43.38243975210959" lon="13.179966923543367"><ele>328.0</ele><time>2026-04-26T07:51:38.999Z</time></trkpt><trkpt lat="43.38254810309306" lon="13.179887921106628"><ele>328.0</ele><time>2026-04-26T07:51:39.999Z</time></trkpt><trkpt lat="43.38266024895624" lon="13.179825222351012"><ele>328.0</ele><time>2026-04-26T07:51:40.999Z</time></trkpt><trkpt lat="43.382788356044635" lon="13.179754854582843"><ele>328.0</ele><time>2026-04-26T07:51:41.999Z</time></trkpt><trkpt lat="43.382908278462565" lon="13.179666191762138"><ele>328.5</ele><time>2026-04-26T07:51:42.999Z</time></trkpt><trkpt lat="43.383032648925315" lon="13.17960707550154"><ele>329.0</ele><time>2026-04-26T07:51:43.999Z</time></trkpt><trkpt lat="43.38313223616371" lon="13.179483602407348"><ele>329.5</ele><time>2026-04-26T07:51:44.999Z</time></trkpt><trkpt lat="43.38324860498901" lon="13.17938834417422"><ele>330.0</ele><time>2026-04-26T07:51:45.999Z</time></trkpt><trkpt lat="43.383367702748416" lon="13.179285039352354"><ele>330.0</ele><time>2026-04-26T07:51:46.999Z</time></trkpt><trkpt lat="43.38348769602565" lon="13.179182651034516"><ele>330.0</ele><time>2026-04-26T07:51:47.999Z</time></trkpt><trkpt lat="43.3836085164749" lon="13.179085525877941"><ele>330.0</ele><time>2026-04-26T07:51:48.999Z</time></trkpt><trkpt lat="43.38372491592926" lon="13.178992322406273"><ele>330.0</ele><time>2026-04-26T07:51:49.999Z</time></trkpt><trkpt lat="43.383840131932985" lon="13.178903072220683"><ele>331.75</ele><time>2026-04-26T07:51:50.999Z</time></trkpt><trkpt lat="43.38395715917229" lon="13.178812274872538"><ele>333.5</ele><time>2026-04-26T07:51:51.999Z</time></trkpt><trkpt lat="43.384071479743504" lon="13.178720336397543"><ele>335.25</ele><time>2026-04-26T07:51:52.999Z</time></trkpt><trkpt lat="43.38418328972007" lon="13.178632639016369"><ele>337.0</ele><time>2026-04-26T07:51:53.999Z</time></trkpt><trkpt lat="43.38428883997743" lon="13.178540783662383"><ele>337.0</ele><time>2026-04-26T07:51:54.999Z</time></trkpt><trkpt lat="43.3843860899031" lon="13.17842864013253"><ele>337.0</ele><time>2026-04-26T07:51:55.999Z</time></trkpt><trkpt lat="43.3844680744081" lon="13.178305545910945"><ele>337.0</ele><time>2026-04-26T07:51:56.999Z</time></trkpt><trkpt lat="43.38452818299137" lon="13.178163923274154"><ele>337.0</ele><time>2026-04-26T07:51:57.999Z</time></trkpt><trkpt lat="43.3845698942996" lon="13.17799829217323"><ele>339.0</ele><time>2026-04-26T07:51:58.999Z</time></trkpt><trkpt lat="43.38458602461897" lon="13.177833355484267"><ele>341.0</ele><time>2026-04-26T07:51:59.999Z</time></trkpt><trkpt lat="43.384582063468606" lon="13.177663520212427"><ele>343.0</ele><time>2026-04-26T07:52:00.999Z</time></trkpt><trkpt lat="43.384554114039965" lon="13.177506769783209"><ele>345.0</ele><time>2026-04-26T07:52:01.999Z</time></trkpt><trkpt lat="43.38452100133577" lon="13.177354188479761"><ele>345.75</ele><time>2026-04-26T07:52:02.999Z</time></trkpt><trkpt lat="43.38446741628349" lon="13.177216260115099"><ele>346.5</ele><time>2026-04-26T07:52:03.999Z</time></trkpt><trkpt lat="43.38441518590662" lon="13.17707122619566"><ele>347.25</ele><time>2026-04-26T07:52:04.999Z</time></trkpt><trkpt lat="43.38437287454708" lon="13.176908196388421"><ele>348.0</ele><time>2026-04-26T07:52:05.999Z</time></trkpt><trkpt lat="43.384327696794514" lon="13.176770310179403"><ele>348.0</ele><time>2026-04-26T07:52:07Z</time></trkpt><trkpt lat="43.38426946942037" lon="13.176634169184942"><ele>348.0</ele><time>2026-04-26T07:52:08Z</time></trkpt><trkpt lat="43.38424714888976" lon="13.176499660205485"><ele>348.0</ele><time>2026-04-26T07:52:09Z</time></trkpt><trkpt lat="43.38423262877361" lon="13.176366988629315"><ele>348.0</ele><time>2026-04-26T07:52:10Z</time></trkpt><trkpt lat="43.38422621062097" lon="13.176229789432218"><ele>348.0</ele><time>2026-04-26T07:52:11Z</time></trkpt><trkpt lat="43.38424293624951" lon="13.176092582403585"><ele>348.5</ele><time>2026-04-26T07:52:12Z</time></trkpt><trkpt lat="43.38425537791973" lon="13.175923407389007"><ele>349.0</ele><time>2026-04-26T07:52:13Z</time></trkpt><trkpt lat="43.38432283734468" lon="13.175780104850356"><ele>349.5</ele><time>2026-04-26T07:52:14Z</time></trkpt><trkpt lat="43.38437144732001" lon="13.175631364477184"><ele>350.0</ele><time>2026-04-26T07:52:15Z</time></trkpt><trkpt lat="43.384443110644334" lon="13.175491503984484"><ele>351.5</ele><time>2026-04-26T07:52:16Z</time></trkpt><trkpt lat="43.38452261664744" lon="13.175348254416157"><ele>353.0</ele><time>2026-04-26T07:52:17Z</time></trkpt><trkpt lat="43.38458850729476" lon="13.175202625942575"><ele>354.5</ele><time>2026-04-26T07:52:18Z</time></trkpt><trkpt lat="43.38464106884292" lon="13.175046693508492"><ele>356.0</ele><time>2026-04-26T07:52:19Z</time></trkpt><trkpt lat="43.38471105962292" lon="13.17489198528851"><ele>350.75</ele><time>2026-04-26T07:52:20Z</time></trkpt><trkpt lat="43.384764713965076" lon="13.174730277437176"><ele>345.5</ele><time>2026-04-26T07:52:21Z</time></trkpt><trkpt lat="43.38484416199612" lon="13.17459057955318"><ele>340.25</ele><time>2026-04-26T07:52:22Z</time></trkpt><trkpt lat="43.38490676876033" lon="13.174427244751532"><ele>335.0</ele><time>2026-04-26T07:52:23Z</time></trkpt><trkpt lat="43.3849870569992" lon="13.174284832334413"><ele>335.0</ele><time>2026-04-26T07:52:24Z</time></trkpt><trkpt lat="43.38507008869729" lon="13.174144021945228"><ele>335.0</ele><time>2026-04-26T07:52:25Z</time></trkpt><trkpt lat="43.38513445544557" lon="13.173989744789218"><ele>335.0</ele><time>2026-04-26T07:52:26Z</time></trkpt><trkpt lat="43.385189697677056" lon="13.173831585112788"><ele>335.0</ele><time>2026-04-26T07:52:27Z</time></trkpt><trkpt lat="43.38526099177226" lon="13.173672600268848"><ele>335.75</ele><time>2026-04-26T07:52:28Z</time></trkpt><trkpt lat="43.38533688515542" lon="13.173506811494615"><ele>336.5</ele><time>2026-04-26T07:52:29Z</time></trkpt><trkpt lat="43.38541915184714" lon="13.173342133053326"><ele>337.25</ele><time>2026-04-26T07:52:30Z</time></trkpt><trkpt lat="43.38550354186908" lon="13.173180435547565"><ele>338.0</ele><time>2026-04-26T07:52:31Z</time></trkpt><trkpt lat="43.38559367448953" lon="13.173019147517799"><ele>335.5</ele><time>2026-04-26T07:52:32Z</time></trkpt><trkpt lat="43.38568114991569" lon="13.172870223939281"><ele>333.0</ele><time>2026-04-26T07:52:33Z</time></trkpt><trkpt lat="43.38576082082799" lon="13.172727032993423"><ele>330.5</ele><time>2026-04-26T07:52:34Z</time></trkpt><trkpt lat="43.38581805968336" lon="13.172576017078624"><ele>328.0</ele><time>2026-04-26T07:52:35Z</time></trkpt><trkpt lat="43.38588596472386" lon="13.172433145566375"><ele>326.75</ele><time>2026-04-26T07:52:36Z</time></trkpt><trkpt lat="43.38594986629558" lon="13.172327907821305"><ele>325.5</ele><time>2026-04-26T07:52:37Z</time></trkpt><trkpt lat="43.38601129138395" lon="13.172203983062003"><ele>324.25</ele><time>2026-04-26T07:52:38Z</time></trkpt><trkpt lat="43.38589277706991" lon="13.171946298684443"><ele>323.0</ele><time>2026-04-26T07:52:39Z</time></trkpt><trkpt lat="43.38583130503274" lon="13.171763017461652"><ele>323.0</ele><time>2026-04-26T07:52:40Z</time></trkpt><trkpt lat="43.38577294000767" lon="13.171621475832069"><ele>323.0</ele><time>2026-04-26T07:52:41Z</time></trkpt><trkpt lat="43.3856747423343" lon="13.171483520169705"><ele>323.0</ele><time>2026-04-26T07:52:42Z</time></trkpt><trkpt lat="43.38558365389799" lon="13.171337809971085"><ele>323.0</ele><time>2026-04-26T07:52:43Z</time></trkpt><trkpt lat="43.3855279928814" lon="13.171198434787994"><ele>327.75</ele><time>2026-04-26T07:52:44Z</time></trkpt><trkpt lat="43.38547693770687" lon="13.17104552030198"><ele>332.5</ele><time>2026-04-26T07:52:45Z</time></trkpt><trkpt lat="43.38543098633561" lon="13.170892612759078"><ele>337.25</ele><time>2026-04-26T07:52:46Z</time></trkpt><trkpt lat="43.385385029398755" lon="13.170735071834576"><ele>342.0</ele><time>2026-04-26T07:52:47Z</time></trkpt><trkpt lat="43.38533962132009" lon="13.17057909306609"><ele>342.0</ele><time>2026-04-26T07:52:48Z</time></trkpt><trkpt lat="43.38529806903658" lon="13.170446612731627"><ele>342.0</ele><time>2026-04-26T07:52:49Z</time></trkpt><trkpt lat="43.38527915843432" lon="13.170328965880657"><ele>342.0</ele><time>2026-04-26T07:52:50Z</time></trkpt><trkpt lat="43.38525673077893" lon="13.170236514195244"><ele>342.0</ele><time>2026-04-26T07:52:51Z</time></trkpt><trkpt lat="43.38525504477659" lon="13.170146093819712"><ele>342.0</ele><time>2026-04-26T07:52:52Z</time></trkpt><trkpt lat="43.38524783555221" lon="13.170058491795176"><ele>342.0</ele><time>2026-04-26T07:52:53Z</time></trkpt><trkpt lat="43.38523411231212" lon="13.169960323353086"><ele>342.0</ele><time>2026-04-26T07:52:55Z</time></trkpt><trkpt lat="43.385134308839795" lon="13.169964934607536"><ele>342.0</ele><time>2026-04-26T07:52:56Z</time></trkpt><trkpt lat="43.38512745748693" lon="13.169829600929113"><ele>342.0</ele><time>2026-04-26T07:52:57.999Z</time></trkpt><trkpt lat="43.38510943622541" lon="13.169687377722694"><ele>342.0</ele><time>2026-04-26T07:52:59.999Z</time></trkpt><trkpt lat="43.385044630444206" lon="13.169616669286397"><ele>342.0</ele><time>2026-04-26T07:53:01.999Z</time></trkpt><trkpt lat="43.385013800898435" lon="13.169491936904215"><ele>342.0</ele><time>2026-04-26T07:53:03.999Z</time></trkpt><trkpt lat="43.38504353386883" lon="13.169654046970527"><ele>342.0</ele><time>2026-04-26T07:53:43.999Z</time></trkpt><trkpt lat="43.38510832198382" lon="13.16977335748661"><ele>342.0</ele><time>2026-04-26T07:53:45.999Z</time></trkpt><trkpt lat="43.38511397077723" lon="13.169883785544071"><ele>342.0</ele><time>2026-04-26T07:53:47.999Z</time></trkpt><trkpt lat="43.38512391209909" lon="13.1700103680769"><ele>342.0</ele><time>2026-04-26T07:53:49.999Z</time></trkpt><trkpt lat="43.385162448961324" lon="13.170091609894087"><ele>342.0</ele><time>2026-04-26T07:53:51.999Z</time></trkpt><trkpt lat="43.385236205541794" lon="13.170008410948519"><ele>342.0</ele><time>2026-04-26T07:53:55.999Z</time></trkpt><trkpt lat="43.38523930851641" lon="13.1698960723913"><ele>342.0</ele><time>2026-04-26T07:53:56.999Z</time></trkpt><trkpt lat="43.38522970003773" lon="13.169775024798714"><ele>342.0</ele><time>2026-04-26T07:53:57.999Z</time></trkpt><trkpt lat="43.38522014880103" lon="13.169641988331037"><ele>342.0</ele><time>2026-04-26T07:53:58.999Z</time></trkpt><trkpt lat="43.38521493791064" lon="13.169504853103676"><ele>340.0</ele><time>2026-04-26T07:53:59.999Z</time></trkpt><trkpt lat="43.38519677866896" lon="13.16936454773093"><ele>338.0</ele><time>2026-04-26T07:54:00.999Z</time></trkpt><trkpt lat="43.385168270750974" lon="13.169234243557057"><ele>336.0</ele><time>2026-04-26T07:54:01.999Z</time></trkpt><trkpt lat="43.385141650029404" lon="13.16909325062911"><ele>334.0</ele><time>2026-04-26T07:54:02.999Z</time></trkpt><trkpt lat="43.38509688938805" lon="13.168967742353146"><ele>332.0</ele><time>2026-04-26T07:54:03.999Z</time></trkpt><trkpt lat="43.3850660381736" lon="13.168855826228096"><ele>331.40000000000003</ele><time>2026-04-26T07:54:04.999Z</time></trkpt><trkpt lat="43.385038253517465" lon="13.168746567076008"><ele>330.8</ele><time>2026-04-26T07:54:05.999Z</time></trkpt><trkpt lat="43.38503779727573" lon="13.168619430376772"><ele>330.2</ele><time>2026-04-26T07:54:06.999Z</time></trkpt><trkpt lat="43.38505751149435" lon="13.168481592233897"><ele>329.6</ele><time>2026-04-26T07:54:07.999Z</time></trkpt><trkpt lat="43.385094797397855" lon="13.16834648727821"><ele>329.0</ele><time>2026-04-26T07:54:08.999Z</time></trkpt><trkpt lat="43.3851534898573" lon="13.168227494125203"><ele>329.4</ele><time>2026-04-26T07:54:09.999Z</time></trkpt><trkpt lat="43.38520484060733" lon="13.168119163393234"><ele>329.79999999999995</ele><time>2026-04-26T07:54:10.998Z</time></trkpt><trkpt lat="43.385250062439304" lon="13.16803054326242"><ele>330.20000000000005</ele><time>2026-04-26T07:54:11.998Z</time></trkpt><trkpt lat="43.385292807082465" lon="13.167957026621933"><ele>330.6</ele><time>2026-04-26T07:54:12.999Z</time></trkpt><trkpt lat="43.38536040238279" lon="13.167801743743436"><ele>331.0</ele><time>2026-04-26T07:54:14.999Z</time></trkpt><trkpt lat="43.385402837536205" lon="13.167705518270136"><ele>331.0</ele><time>2026-04-26T07:54:15.999Z</time></trkpt><trkpt lat="43.38545563348437" lon="13.167609108185886"><ele>331.0</ele><time>2026-04-26T07:54:17Z</time></trkpt><trkpt lat="43.385526175480365" lon="13.167519686464312"><ele>331.0</ele><time>2026-04-26T07:54:17.999Z</time></trkpt><trkpt lat="43.38560191995" lon="13.167417214062224"><ele>331.0</ele><time>2026-04-26T07:54:19Z</time></trkpt><trkpt lat="43.385681255096124" lon="13.167314958973519"><ele>331.0</ele><time>2026-04-26T07:54:20Z</time></trkpt><trkpt lat="43.38576993338974" lon="13.167214915230195"><ele>322.75</ele><time>2026-04-26T07:54:21Z</time></trkpt><trkpt lat="43.38587799904079" lon="13.16713155690145"><ele>314.5</ele><time>2026-04-26T07:54:22Z</time></trkpt><trkpt lat="43.385977566353894" lon="13.167017288460839"><ele>306.25</ele><time>2026-04-26T07:54:23Z</time></trkpt><trkpt lat="43.38609347555485" lon="13.166913133098861"><ele>298.0</ele><time>2026-04-26T07:54:24Z</time></trkpt><trkpt lat="43.38621653887999" lon="13.166805820504626"><ele>298.0</ele><time>2026-04-26T07:54:25Z</time></trkpt><trkpt lat="43.386338843039795" lon="13.166690073909606"><ele>298.0</ele><time>2026-04-26T07:54:26Z</time></trkpt><trkpt lat="43.38646793527957" lon="13.166576011265166"><ele>298.0</ele><time>2026-04-26T07:54:27Z</time></trkpt><trkpt lat="43.386604156200356" lon="13.166448695540465"><ele>297.5</ele><time>2026-04-26T07:54:28Z</time></trkpt><trkpt lat="43.38673186419901" lon="13.166328079887577"><ele>297.0</ele><time>2026-04-26T07:54:29Z</time></trkpt><trkpt lat="43.386872354116385" lon="13.166195294916038"><ele>296.5</ele><time>2026-04-26T07:54:30Z</time></trkpt><trkpt lat="43.38694842227843" lon="13.166123209298927"><ele>296.0</ele><time>2026-04-26T07:54:31Z</time></trkpt><trkpt lat="43.387069236374195" lon="13.166008618471636"><ele>299.5</ele><time>2026-04-26T07:54:32Z</time></trkpt><trkpt lat="43.38718563542785" lon="13.165897987475992"><ele>303.0</ele><time>2026-04-26T07:54:33Z</time></trkpt><trkpt lat="43.38729822706709" lon="13.165792666203611"><ele>306.5</ele><time>2026-04-26T07:54:34Z</time></trkpt><trkpt lat="43.387397441513954" lon="13.165700662101777"><ele>310.0</ele><time>2026-04-26T07:54:35Z</time></trkpt><trkpt lat="43.38748331373078" lon="13.165625407199274"><ele>310.0</ele><time>2026-04-26T07:54:36Z</time></trkpt><trkpt lat="43.38755692233803" lon="13.165575586036423"><ele>310.0</ele><time>2026-04-26T07:54:37Z</time></trkpt><trkpt lat="43.38762187226919" lon="13.165545265234828"><ele>310.0</ele><time>2026-04-26T07:54:38Z</time></trkpt><trkpt lat="43.387724646164614" lon="13.165546267277888"><ele>310.0</ele><time>2026-04-26T07:54:40Z</time></trkpt><trkpt lat="43.38774694558151" lon="13.1657172975126"><ele>310.0</ele><time>2026-04-26T07:54:42Z</time></trkpt><trkpt lat="43.387667312227805" lon="13.165853742162057"><ele>310.0</ele><time>2026-04-26T07:54:44Z</time></trkpt><trkpt lat="43.387588051611814" lon="13.165882408327247"><ele>310.0</ele><time>2026-04-26T07:54:45Z</time></trkpt><trkpt lat="43.38750621341442" lon="13.165906670539174"><ele>310.0</ele><time>2026-04-26T07:54:46Z</time></trkpt><trkpt lat="43.38741572736803" lon="13.165909829947585"><ele>310.0</ele><time>2026-04-26T07:54:47Z</time></trkpt><trkpt lat="43.387341012075275" lon="13.165983772001251"><ele>310.0</ele><time>2026-04-26T07:54:48Z</time></trkpt><trkpt lat="43.38728051556336" lon="13.166062552624151"><ele>310.0</ele><time>2026-04-26T07:54:49Z</time></trkpt><trkpt lat="43.387258838605746" lon="13.166169551347148"><ele>310.0</ele><time>2026-04-26T07:54:50Z</time></trkpt><trkpt lat="43.38722542893593" lon="13.166285067973174"><ele>310.0</ele><time>2026-04-26T07:54:50.999Z</time></trkpt><trkpt lat="43.387268614435825" lon="13.166414234169533"><ele>310.0</ele><time>2026-04-26T07:54:51.999Z</time></trkpt><trkpt lat="43.387300612609216" lon="13.166556692139514"><ele>310.0</ele><time>2026-04-26T07:54:52.999Z</time></trkpt><trkpt lat="43.38733878729687" lon="13.166687892517007"><ele>310.0</ele><time>2026-04-26T07:54:53.999Z</time></trkpt><trkpt lat="43.3873620030144" lon="13.166828764441929"><ele>310.3333333333333</ele><time>2026-04-26T07:54:54.999Z</time></trkpt><trkpt lat="43.38740275442993" lon="13.166965461522187"><ele>310.66666666666663</ele><time>2026-04-26T07:54:55.999Z</time></trkpt><trkpt lat="43.38744366436319" lon="13.167100095044965"><ele>311.0</ele><time>2026-04-26T07:54:56.999Z</time></trkpt><trkpt lat="43.38745672752595" lon="13.167219317671716"><ele>311.3333333333333</ele><time>2026-04-26T07:54:57.999Z</time></trkpt><trkpt lat="43.387476453305624" lon="13.167303620753696"><ele>311.6666666666667</ele><time>2026-04-26T07:54:58.999Z</time></trkpt><trkpt lat="43.38746966019566" lon="13.167390056740093"><ele>312.0</ele><time>2026-04-26T07:55:00.999Z</time></trkpt><trkpt lat="43.38735260207936" lon="13.16738840104884"><ele>312.0</ele><time>2026-04-26T07:55:03.999Z</time></trkpt><trkpt lat="43.38728690123223" lon="13.167315465990075"><ele>312.0</ele><time>2026-04-26T07:55:05.999Z</time></trkpt><trkpt lat="43.387227601478116" lon="13.167203153473434"><ele>312.0</ele><time>2026-04-26T07:55:07.999Z</time></trkpt><trkpt lat="43.387157796609934" lon="13.16707952180613"><ele>312.0</ele><time>2026-04-26T07:55:09.999Z</time></trkpt><trkpt lat="43.38710206465685" lon="13.166949470731511"><ele>312.0</ele><time>2026-04-26T07:55:11.999Z</time></trkpt><trkpt lat="43.38707392356653" lon="13.16685186613627"><ele>312.0</ele><time>2026-04-26T07:55:13.999Z</time></trkpt><trkpt lat="43.387049394782586" lon="13.166762287435475"><ele>312.0</ele><time>2026-04-26T07:55:16.999Z</time></trkpt><trkpt lat="43.38704542446716" lon="13.166924509404277"><ele>312.0</ele><time>2026-04-26T07:55:26.999Z</time></trkpt><trkpt lat="43.38708949923274" lon="13.167009618200296"><ele>312.0</ele><time>2026-04-26T07:55:27.999Z</time></trkpt><trkpt lat="43.38713774657957" lon="13.16709782256801"><ele>312.0</ele><time>2026-04-26T07:55:28.999Z</time></trkpt><trkpt lat="43.387193753978295" lon="13.167180293521309"><ele>312.0</ele><time>2026-04-26T07:55:29.999Z</time></trkpt><trkpt lat="43.38724958448218" lon="13.167260441513108"><ele>312.0</ele><time>2026-04-26T07:55:30.999Z</time></trkpt><trkpt lat="43.38730529550552" lon="13.16733260968165"><ele>312.0</ele><time>2026-04-26T07:55:31.999Z</time></trkpt><trkpt lat="43.387358017800835" lon="13.167389195824049"><ele>312.0</ele><time>2026-04-26T07:55:32.999Z</time></trkpt><trkpt lat="43.387426363964536" lon="13.167417012378648"><ele>312.0</ele><time>2026-04-26T07:55:34.999Z</time></trkpt><trkpt lat="43.38749425769691" lon="13.16733662387532"><ele>312.0</ele><time>2026-04-26T07:55:37.999Z</time></trkpt><trkpt lat="43.387488736919614" lon="13.1671960563022"><ele>312.0</ele><time>2026-04-26T07:55:39.999Z</time></trkpt><trkpt lat="43.387457929670795" lon="13.167082817756544"><ele>312.0</ele><time>2026-04-26T07:55:40.999Z</time></trkpt><trkpt lat="43.38742589864105" lon="13.166965895137446"><ele>312.0</ele><time>2026-04-26T07:55:41.999Z</time></trkpt><trkpt lat="43.38738487263216" lon="13.166835822237518"><ele>312.0</ele><time>2026-04-26T07:55:42.999Z</time></trkpt><trkpt lat="43.387343757553396" lon="13.166679293686322"><ele>312.0</ele><time>2026-04-26T07:55:43.999Z</time></trkpt><trkpt lat="43.38731928196675" lon="13.166504064375163"><ele>312.0</ele><time>2026-04-26T07:55:44.999Z</time></trkpt><trkpt lat="43.38728664640812" lon="13.166359471750647"><ele>311.6666666666667</ele><time>2026-04-26T07:55:45.999Z</time></trkpt><trkpt lat="43.38725619692653" lon="13.166241266126878"><ele>311.3333333333333</ele><time>2026-04-26T07:55:46.999Z</time></trkpt><trkpt lat="43.387264837432056" lon="13.166126648711618"><ele>311.0</ele><time>2026-04-26T07:55:47.999Z</time></trkpt><trkpt lat="43.38730677714391" lon="13.166019407272731"><ele>310.66666666666663</ele><time>2026-04-26T07:55:48.999Z</time></trkpt><trkpt lat="43.387395863112864" lon="13.16596338922093"><ele>310.3333333333333</ele><time>2026-04-26T07:55:49.999Z</time></trkpt><trkpt lat="43.3874770140873" lon="13.165919217449625"><ele>310.0</ele><time>2026-04-26T07:55:50.999Z</time></trkpt><trkpt lat="43.38757411328361" lon="13.165910305819326"><ele>310.0</ele><time>2026-04-26T07:55:51.999Z</time></trkpt><trkpt lat="43.3876661264928" lon="13.165871346928087"><ele>310.0</ele><time>2026-04-26T07:55:52.999Z</time></trkpt><trkpt lat="43.38775387808495" lon="13.165813614660557"><ele>310.0</ele><time>2026-04-26T07:55:53.999Z</time></trkpt><trkpt lat="43.38782155377291" lon="13.165703957542055"><ele>310.0</ele><time>2026-04-26T07:55:54.999Z</time></trkpt><trkpt lat="43.38787359156171" lon="13.1656027760903"><ele>310.0</ele><time>2026-04-26T07:55:55.999Z</time></trkpt><trkpt lat="43.38791621583277" lon="13.165508568924766"><ele>312.0</ele><time>2026-04-26T07:55:56.999Z</time></trkpt><trkpt lat="43.388063152763344" lon="13.16556004553423"><ele>314.0</ele><time>2026-04-26T07:55:57.999Z</time></trkpt><trkpt lat="43.38815805558838" lon="13.165565053127628"><ele>316.0</ele><time>2026-04-26T07:55:58.999Z</time></trkpt><trkpt lat="43.3882524016246" lon="13.165592891276187"><ele>318.0</ele><time>2026-04-26T07:55:59.999Z</time></trkpt><trkpt lat="43.38835268254223" lon="13.165614563419762"><ele>320.0</ele><time>2026-04-26T07:56:00.999Z</time></trkpt><trkpt lat="43.38845939230425" lon="13.16563438803979"><ele>320.0</ele><time>2026-04-26T07:56:01.999Z</time></trkpt><trkpt lat="43.38855314692116" lon="13.165617719311985"><ele>320.0</ele><time>2026-04-26T07:56:02.999Z</time></trkpt><trkpt lat="43.38863596636251" lon="13.165567649675543"><ele>320.0</ele><time>2026-04-26T07:56:03.999Z</time></trkpt><trkpt lat="43.38871849057049" lon="13.165516833407459"><ele>320.0</ele><time>2026-04-26T07:56:04.999Z</time></trkpt><trkpt lat="43.388784933293444" lon="13.165427206300706"><ele>320.0</ele><time>2026-04-26T07:56:05.999Z</time></trkpt><trkpt lat="43.388831952536144" lon="13.165305493047917"><ele>320.0</ele><time>2026-04-26T07:56:06.999Z</time></trkpt><trkpt lat="43.38884054702398" lon="13.165176902431767"><ele>320.0</ele><time>2026-04-26T07:56:07.999Z</time></trkpt><trkpt lat="43.38885674697156" lon="13.165055734931851"><ele>320.0</ele><time>2026-04-26T07:56:08.999Z</time></trkpt><trkpt lat="43.3888141637621" lon="13.164928690463602"><ele>320.0</ele><time>2026-04-26T07:56:09.999Z</time></trkpt><trkpt lat="43.388767328821984" lon="13.164806756080845"><ele>320.0</ele><time>2026-04-26T07:56:10.999Z</time></trkpt><trkpt lat="43.38869645408973" lon="13.164702256206457"><ele>328.5</ele><time>2026-04-26T07:56:11.999Z</time></trkpt><trkpt lat="43.388597181606514" lon="13.164631150755103"><ele>337.0</ele><time>2026-04-26T07:56:12.999Z</time></trkpt><trkpt lat="43.38848106814372" lon="13.164609330903136"><ele>345.5</ele><time>2026-04-26T07:56:13.999Z</time></trkpt><trkpt lat="43.38835670547095" lon="13.164635702754516"><ele>354.0</ele><time>2026-04-26T07:56:14.999Z</time></trkpt><trkpt lat="43.38822777682736" lon="13.164678837518027"><ele>354.0</ele><time>2026-04-26T07:56:15.998Z</time></trkpt><trkpt lat="43.38808815380898" lon="13.164738528116736"><ele>354.0</ele><time>2026-04-26T07:56:16.998Z</time></trkpt><trkpt lat="43.38794281352318" lon="13.164809439024422"><ele>354.0</ele><time>2026-04-26T07:56:17.998Z</time></trkpt><trkpt lat="43.387790028864664" lon="13.164904510302804"><ele>345.5</ele><time>2026-04-26T07:56:19Z</time></trkpt><trkpt lat="43.38763161962366" lon="13.164957157535147"><ele>337.0</ele><time>2026-04-26T07:56:20Z</time></trkpt><trkpt lat="43.38749111268839" lon="13.165018620875411"><ele>328.5</ele><time>2026-04-26T07:56:21Z</time></trkpt><trkpt lat="43.387372097761926" lon="13.165045488244328"><ele>320.0</ele><time>2026-04-26T07:56:22Z</time></trkpt><trkpt lat="43.38725324564429" lon="13.165027153025173"><ele>322.25</ele><time>2026-04-26T07:56:23Z</time></trkpt><trkpt lat="43.38714073581889" lon="13.164964775299866"><ele>324.5</ele><time>2026-04-26T07:56:24Z</time></trkpt><trkpt lat="43.3870297009896" lon="13.164859828035858"><ele>326.75</ele><time>2026-04-26T07:56:25Z</time></trkpt><trkpt lat="43.38692093821235" lon="13.1647401955584"><ele>329.0</ele><time>2026-04-26T07:56:26Z</time></trkpt><trkpt lat="43.38680460879846" lon="13.164620741198332"><ele>329.0</ele><time>2026-04-26T07:56:27Z</time></trkpt><trkpt lat="43.38670510566211" lon="13.164480058676396"><ele>329.0</ele><time>2026-04-26T07:56:28Z</time></trkpt><trkpt lat="43.38659408149458" lon="13.164351307227802"><ele>329.0</ele><time>2026-04-26T07:56:29Z</time></trkpt><trkpt lat="43.38651403666352" lon="13.164186441328095"><ele>329.0</ele><time>2026-04-26T07:56:30Z</time></trkpt><trkpt lat="43.386443898476635" lon="13.163999831620055"><ele>327.0</ele><time>2026-04-26T07:56:31Z</time></trkpt><trkpt lat="43.38637556138557" lon="13.163809952544511"><ele>325.0</ele><time>2026-04-26T07:56:32Z</time></trkpt><trkpt lat="43.386305982074674" lon="13.163610320285153"><ele>323.0</ele><time>2026-04-26T07:56:33Z</time></trkpt><trkpt lat="43.38622685182761" lon="13.163412315038556"><ele>323.0</ele><time>2026-04-26T07:56:34Z</time></trkpt><trkpt lat="43.386126574047395" lon="13.163246239929306"><ele>323.0</ele><time>2026-04-26T07:56:35Z</time></trkpt><trkpt lat="43.38601435507428" lon="13.163104946238557"><ele>323.0</ele><time>2026-04-26T07:56:36Z</time></trkpt><trkpt lat="43.38589423118479" lon="13.162978188146539"><ele>322.75</ele><time>2026-04-26T07:56:37Z</time></trkpt><trkpt lat="43.38575514424014" lon="13.162899150272734"><ele>322.5</ele><time>2026-04-26T07:56:38Z</time></trkpt><trkpt lat="43.38562614844029" lon="13.16280574313543"><ele>322.25</ele><time>2026-04-26T07:56:39Z</time></trkpt><trkpt lat="43.385515051713384" lon="13.162675025129063"><ele>322.0</ele><time>2026-04-26T07:56:40Z</time></trkpt><trkpt lat="43.38542310405012" lon="13.16251942228418"><ele>328.75</ele><time>2026-04-26T07:56:41Z</time></trkpt><trkpt lat="43.38533936178987" lon="13.162361796464138"><ele>335.5</ele><time>2026-04-26T07:56:42Z</time></trkpt><trkpt lat="43.38526359889457" lon="13.162192606202565"><ele>342.25</ele><time>2026-04-26T07:56:43Z</time></trkpt><trkpt lat="43.38518974050365" lon="13.162026728151217"><ele>349.0</ele><time>2026-04-26T07:56:44Z</time></trkpt><trkpt lat="43.38510188267894" lon="13.161881616644363"><ele>349.0</ele><time>2026-04-26T07:56:45Z</time></trkpt><trkpt lat="43.3849993426549" lon="13.161757119866225"><ele>349.0</ele><time>2026-04-26T07:56:46Z</time></trkpt><trkpt lat="43.384885238953466" lon="13.161653672662384"><ele>349.0</ele><time>2026-04-26T07:56:47Z</time></trkpt><trkpt lat="43.384770918505936" lon="13.16157946780646"><ele>349.0</ele><time>2026-04-26T07:56:48Z</time></trkpt><trkpt lat="43.384643117136555" lon="13.1615109440895"><ele>350.5</ele><time>2026-04-26T07:56:49Z</time></trkpt><trkpt lat="43.384515239816075" lon="13.161446083715164"><ele>352.0</ele><time>2026-04-26T07:56:50Z</time></trkpt><trkpt lat="43.38439572202305" lon="13.161352045072531"><ele>353.5</ele><time>2026-04-26T07:56:51Z</time></trkpt><trkpt lat="43.38429197884991" lon="13.161249931443665"><ele>355.0</ele><time>2026-04-26T07:56:52Z</time></trkpt><trkpt lat="43.38420861337116" lon="13.161121446517022"><ele>355.0</ele><time>2026-04-26T07:56:53Z</time></trkpt><trkpt lat="43.38414476175754" lon="13.160967603255312"><ele>355.0</ele><time>2026-04-26T07:56:54Z</time></trkpt><trkpt lat="43.38406580469827" lon="13.160803262838945"><ele>355.0</ele><time>2026-04-26T07:56:55Z</time></trkpt><trkpt lat="43.38399629269022" lon="13.160636950938017"><ele>355.0</ele><time>2026-04-26T07:56:56Z</time></trkpt><trkpt lat="43.383896235149955" lon="13.160500264732406"><ele>355.66666666666663</ele><time>2026-04-26T07:56:57Z</time></trkpt><trkpt lat="43.383768986556305" lon="13.160390836836262"><ele>356.3333333333333</ele><time>2026-04-26T07:56:58Z</time></trkpt><trkpt lat="43.3836225857779" lon="13.160298890270392"><ele>357.0</ele><time>2026-04-26T07:56:59Z</time></trkpt><trkpt lat="43.3834696439281" lon="13.160204223038644"><ele>357.0</ele><time>2026-04-26T07:57:00Z</time></trkpt><trkpt lat="43.38332001406393" lon="13.160110475124737"><ele>357.0</ele><time>2026-04-26T07:57:01Z</time></trkpt><trkpt lat="43.38318385205421" lon="13.160018153621719"><ele>357.0</ele><time>2026-04-26T07:57:02Z</time></trkpt><trkpt lat="43.383061353544505" lon="13.159925201128639"><ele>354.5</ele><time>2026-04-26T07:57:03Z</time></trkpt><trkpt lat="43.38296653279839" lon="13.159825907915799"><ele>352.0</ele><time>2026-04-26T07:57:04Z</time></trkpt><trkpt lat="43.38290709172197" lon="13.159687935115128"><ele>349.5</ele><time>2026-04-26T07:57:05Z</time></trkpt><trkpt lat="43.38283906260227" lon="13.159558820647264"><ele>347.0</ele><time>2026-04-26T07:57:06Z</time></trkpt><trkpt lat="43.38282863213213" lon="13.159396706706113"><ele>347.0</ele><time>2026-04-26T07:57:07Z</time></trkpt><trkpt lat="43.38280769817164" lon="13.159231952037677"><ele>347.0</ele><time>2026-04-26T07:57:08Z</time></trkpt><trkpt lat="43.38277489967142" lon="13.15907242290087"><ele>347.0</ele><time>2026-04-26T07:57:09Z</time></trkpt><trkpt lat="43.38275997624205" lon="13.158936589040486"><ele>347.0</ele><time>2026-04-26T07:57:10Z</time></trkpt><trkpt lat="43.38274187838919" lon="13.15884483622789"><ele>347.0</ele><time>2026-04-26T07:57:11Z</time></trkpt><trkpt lat="43.38271958350074" lon="13.158725656141662"><ele>347.0</ele><time>2026-04-26T07:57:12.999Z</time></trkpt><trkpt lat="43.38285851054696" lon="13.158743861222005"><ele>347.0</ele><time>2026-04-26T07:57:17.999Z</time></trkpt><trkpt lat="43.382884020588" lon="13.158876393452058"><ele>347.0</ele><time>2026-04-26T07:57:19.999Z</time></trkpt><trkpt lat="43.38286322485596" lon="13.159029913108093"><ele>347.0</ele><time>2026-04-26T07:57:21.999Z</time></trkpt><trkpt lat="43.38288817246704" lon="13.159194050568251"><ele>347.0</ele><time>2026-04-26T07:57:23.999Z</time></trkpt><trkpt lat="43.38291548184254" lon="13.159295130431829"><ele>347.0</ele><time>2026-04-26T07:57:24.999Z</time></trkpt><trkpt lat="43.38295251639575" lon="13.159391754923151"><ele>347.0</ele><time>2026-04-26T07:57:25.999Z</time></trkpt><trkpt lat="43.382834401898776" lon="13.159608569686927"><ele>347.0</ele><time>2026-04-26T07:57:26.999Z</time></trkpt><trkpt lat="43.38288451052653" lon="13.159723131034887"><ele>347.0</ele><time>2026-04-26T07:57:27.999Z</time></trkpt><trkpt lat="43.382941591683355" lon="13.15982387671571"><ele>347.0</ele><time>2026-04-26T07:57:28.999Z</time></trkpt><trkpt lat="43.38303044069567" lon="13.159927738035558"><ele>347.0</ele><time>2026-04-26T07:57:29.999Z</time></trkpt><trkpt lat="43.38309820539381" lon="13.15998917276854"><ele>347.0</ele><time>2026-04-26T07:57:30.999Z</time></trkpt><trkpt lat="43.38317379383823" lon="13.160044502024475"><ele>347.0</ele><time>2026-04-26T07:57:31.999Z</time></trkpt><trkpt lat="43.383237684106376" lon="13.160092506301478"><ele>347.0</ele><time>2026-04-26T07:57:32.999Z</time></trkpt><trkpt lat="43.38330618572646" lon="13.160140682676358"><ele>349.0</ele><time>2026-04-26T07:57:33.999Z</time></trkpt><trkpt lat="43.38336535760856" lon="13.160180430110541"><ele>351.0</ele><time>2026-04-26T07:57:34.999Z</time></trkpt><trkpt lat="43.383464614676086" lon="13.160247103792845"><ele>353.0</ele><time>2026-04-26T07:57:36.999Z</time></trkpt><trkpt lat="43.38355875230195" lon="13.160310686941708"><ele>355.0</ele><time>2026-04-26T07:57:38.999Z</time></trkpt><trkpt lat="43.383665520604026" lon="13.160384598045107"><ele>357.0</ele><time>2026-04-26T07:57:40.999Z</time></trkpt><trkpt lat="43.383755363702164" lon="13.16044855621321"><ele>357.0</ele><time>2026-04-26T07:57:42.999Z</time></trkpt><trkpt lat="43.38382697279994" lon="13.16050617462116"><ele>357.0</ele><time>2026-04-26T07:57:44.999Z</time></trkpt><trkpt lat="43.38391344517426" lon="13.160578312555392"><ele>357.0</ele><time>2026-04-26T07:57:46.999Z</time></trkpt><trkpt lat="43.38396859657742" lon="13.160658784015936"><ele>357.0</ele><time>2026-04-26T07:57:50.999Z</time></trkpt><trkpt lat="43.38401297834906" lon="13.16074554346802"><ele>357.0</ele><time>2026-04-26T07:57:52.999Z</time></trkpt><trkpt lat="43.384056154307395" lon="13.160849932716145"><ele>357.0</ele><time>2026-04-26T07:57:54.999Z</time></trkpt><trkpt lat="43.384095784039886" lon="13.160942304789007"><ele>356.6</ele><time>2026-04-26T07:57:56.999Z</time></trkpt><trkpt lat="43.384137965132126" lon="13.161042923953607"><ele>356.20000000000005</ele><time>2026-04-26T07:58:01.999Z</time></trkpt><trkpt lat="43.384174061553196" lon="13.161123521066205"><ele>355.8</ele><time>2026-04-26T07:58:05.999Z</time></trkpt><trkpt lat="43.38427472651812" lon="13.161215440059813"><ele>355.4</ele><time>2026-04-26T08:02:27.999Z</time></trkpt><trkpt lat="43.384205535684565" lon="13.161187274742431"><ele>355.0</ele><time>2026-04-26T08:02:28.999Z</time></trkpt><trkpt lat="43.38412948455292" lon="13.161022745303116"><ele>355.0</ele><time>2026-04-26T08:02:30.999Z</time></trkpt><trkpt lat="43.38407290588261" lon="13.160843180979303"><ele>355.0</ele><time>2026-04-26T08:02:33.999Z</time></trkpt><trkpt lat="43.384313997313534" lon="13.160584343848306"><ele>355.0</ele><time>2026-04-26T08:02:34.999Z</time></trkpt><trkpt lat="43.384276649692715" lon="13.160483663978596"><ele>359.66666666666663</ele><time>2026-04-26T08:02:36.999Z</time></trkpt><trkpt lat="43.38421478641114" lon="13.160380182231151"><ele>364.3333333333333</ele><time>2026-04-26T08:02:38.999Z</time></trkpt><trkpt lat="43.384155965959074" lon="13.160280997490233"><ele>369.0</ele><time>2026-04-26T08:02:40.999Z</time></trkpt><trkpt lat="43.38409497787218" lon="13.160229511818578"><ele>373.6666666666667</ele><time>2026-04-26T08:02:42.999Z</time></trkpt><trkpt lat="43.38401560616071" lon="13.160198993449939"><ele>378.33333333333337</ele><time>2026-04-26T08:02:44.999Z</time></trkpt><trkpt lat="43.38395097760232" lon="13.1601824111086"><ele>383.0</ele><time>2026-04-26T08:02:46.999Z</time></trkpt><trkpt lat="43.38388711599154" lon="13.160162257796381"><ele>379.2857142857143</ele><time>2026-04-26T08:02:48.999Z</time></trkpt><trkpt lat="43.38381944584993" lon="13.160130489602146"><ele>375.57142857142856</ele><time>2026-04-26T08:02:50.999Z</time></trkpt><trkpt lat="43.38375345876048" lon="13.160103026264128"><ele>371.8571428571429</ele><time>2026-04-26T08:02:52.999Z</time></trkpt><trkpt lat="43.38368545455697" lon="13.160071250166979"><ele>368.1428571428571</ele><time>2026-04-26T08:02:54.999Z</time></trkpt><trkpt lat="43.38361908357492" lon="13.160029492462701"><ele>364.42857142857144</ele><time>2026-04-26T08:02:56.999Z</time></trkpt><trkpt lat="43.38354430896714" lon="13.159982585848896"><ele>360.7142857142857</ele><time>2026-04-26T08:02:59.999Z</time></trkpt><trkpt lat="43.38347390221265" lon="13.159958263790667"><ele>357.0</ele><time>2026-04-26T08:03:01.999Z</time></trkpt><trkpt lat="43.38339258919018" lon="13.159907351242028"><ele>357.0</ele><time>2026-04-26T08:03:03.999Z</time></trkpt><trkpt lat="43.383313657077025" lon="13.159857494370707"><ele>357.0</ele><time>2026-04-26T08:03:05.999Z</time></trkpt><trkpt lat="43.3832235436443" lon="13.159964847110261"><ele>357.0</ele><time>2026-04-26T08:03:06.999Z</time></trkpt><trkpt lat="43.38313882067361" lon="13.159899371974754"><ele>357.0</ele><time>2026-04-26T08:03:08.999Z</time></trkpt><trkpt lat="43.383077408121" lon="13.159847655176536"><ele>357.0</ele><time>2026-04-26T08:03:09.999Z</time></trkpt><trkpt lat="43.38302332075237" lon="13.159789655358345"><ele>357.0</ele><time>2026-04-26T08:03:10.999Z</time></trkpt><trkpt lat="43.38297222739314" lon="13.159713719792725"><ele>355.3333333333333</ele><time>2026-04-26T08:03:11.999Z</time></trkpt><trkpt lat="43.382932816113986" lon="13.159639145400446"><ele>353.6666666666667</ele><time>2026-04-26T08:03:12.999Z</time></trkpt><trkpt lat="43.38289870452945" lon="13.159555777718246"><ele>352.0</ele><time>2026-04-26T08:03:13.999Z</time></trkpt><trkpt lat="43.3828755481976" lon="13.159452650998334"><ele>350.33333333333337</ele><time>2026-04-26T08:03:14.999Z</time></trkpt><trkpt lat="43.38286467124672" lon="13.15935707667592"><ele>348.6666666666667</ele><time>2026-04-26T08:03:15.999Z</time></trkpt><trkpt lat="43.382846392753144" lon="13.159193883222148"><ele>347.0</ele><time>2026-04-26T08:03:17.999Z</time></trkpt><trkpt lat="43.38283077604078" lon="13.159051576042067"><ele>348.42857142857144</ele><time>2026-04-26T08:03:19.999Z</time></trkpt><trkpt lat="43.3828178467497" lon="13.158935004784295"><ele>349.85714285714283</ele><time>2026-04-26T08:03:21.999Z</time></trkpt><trkpt lat="43.38280129260463" lon="13.158843450172334"><ele>351.2857142857143</ele><time>2026-04-26T08:03:23.999Z</time></trkpt><trkpt lat="43.38278182057428" lon="13.158755219216152"><ele>352.7142857142857</ele><time>2026-04-26T08:03:25.999Z</time></trkpt><trkpt lat="43.38275683070244" lon="13.158671315689036"><ele>354.1428571428571</ele><time>2026-04-26T08:03:28.999Z</time></trkpt><trkpt lat="43.382737839658404" lon="13.158761644708445"><ele>355.57142857142856</ele><time>2026-04-26T08:03:33.999Z</time></trkpt><trkpt lat="43.38276204059888" lon="13.158858627474054"><ele>357.0</ele><time>2026-04-26T08:03:34.999Z</time></trkpt><trkpt lat="43.382781743790765" lon="13.15898668590437"><ele>355.0</ele><time>2026-04-26T08:03:35.999Z</time></trkpt><trkpt lat="43.382773988605585" lon="13.15911929592998"><ele>353.0</ele><time>2026-04-26T08:03:36.999Z</time></trkpt><trkpt lat="43.38278945668911" lon="13.159270382665088"><ele>351.0</ele><time>2026-04-26T08:03:37.999Z</time></trkpt><trkpt lat="43.382809672868255" lon="13.159433256472155"><ele>349.0</ele><time>2026-04-26T08:03:38.999Z</time></trkpt><trkpt lat="43.382845016091224" lon="13.159586945798884"><ele>347.0</ele><time>2026-04-26T08:03:39.999Z</time></trkpt><trkpt lat="43.382902330317805" lon="13.159739267027494"><ele>347.0</ele><time>2026-04-26T08:03:40.999Z</time></trkpt><trkpt lat="43.38297716246229" lon="13.159866030777167"><ele>347.0</ele><time>2026-04-26T08:03:41.999Z</time></trkpt><trkpt lat="43.38307274316009" lon="13.159974515722528"><ele>347.0</ele><time>2026-04-26T08:03:42.999Z</time></trkpt><trkpt lat="43.3831878884003" lon="13.16006392966443"><ele>347.0</ele><time>2026-04-26T08:03:43.999Z</time></trkpt><trkpt lat="43.38331652543087" lon="13.160146246444523"><ele>349.5</ele><time>2026-04-26T08:03:44.999Z</time></trkpt><trkpt lat="43.38345391293473" lon="13.160231286509816"><ele>352.0</ele><time>2026-04-26T08:03:45.999Z</time></trkpt><trkpt lat="43.383582526306164" lon="13.160327144625406"><ele>354.5</ele><time>2026-04-26T08:03:46.999Z</time></trkpt><trkpt lat="43.38370639848227" lon="13.160413282131946"><ele>357.0</ele><time>2026-04-26T08:03:47.999Z</time></trkpt><trkpt lat="43.38382018098064" lon="13.160500508691962"><ele>356.5</ele><time>2026-04-26T08:03:48.999Z</time></trkpt><trkpt lat="43.38393420625058" lon="13.16057903454273"><ele>356.0</ele><time>2026-04-26T08:03:49.999Z</time></trkpt><trkpt lat="43.38400390009414" lon="13.160729105016133"><ele>355.5</ele><time>2026-04-26T08:03:50.999Z</time></trkpt><trkpt lat="43.38406862501685" lon="13.160877903551448"><ele>355.0</ele><time>2026-04-26T08:03:51.999Z</time></trkpt><trkpt lat="43.384142729963244" lon="13.161014223554513"><ele>355.0</ele><time>2026-04-26T08:03:52.999Z</time></trkpt><trkpt lat="43.38420175312627" lon="13.16116894760473"><ele>355.0</ele><time>2026-04-26T08:03:53.999Z</time></trkpt><trkpt lat="43.38428347056727" lon="13.161293751899215"><ele>355.0</ele><time>2026-04-26T08:03:54.999Z</time></trkpt><trkpt lat="43.3843860046713" lon="13.161389419065461"><ele>355.0</ele><time>2026-04-26T08:03:55.999Z</time></trkpt><trkpt lat="43.38450673655948" lon="13.161460682893136"><ele>353.5</ele><time>2026-04-26T08:03:56.999Z</time></trkpt><trkpt lat="43.38463131262042" lon="13.161557452949307"><ele>352.0</ele><time>2026-04-26T08:03:57.999Z</time></trkpt><trkpt lat="43.384762947709945" lon="13.161633062553618"><ele>350.5</ele><time>2026-04-26T08:03:58.999Z</time></trkpt><trkpt lat="43.38488785083542" lon="13.161720014918789"><ele>349.0</ele><time>2026-04-26T08:03:59.999Z</time></trkpt><trkpt lat="43.38500319783566" lon="13.161826356149971"><ele>349.0</ele><time>2026-04-26T08:04:00.999Z</time></trkpt><trkpt lat="43.385098568242384" lon="13.16195531030583"><ele>349.0</ele><time>2026-04-26T08:04:01.999Z</time></trkpt><trkpt lat="43.385181025992" lon="13.162107743055554"><ele>349.0</ele><time>2026-04-26T08:04:02.999Z</time></trkpt><trkpt lat="43.38527329928346" lon="13.162257339611733"><ele>349.0</ele><time>2026-04-26T08:04:03.999Z</time></trkpt><trkpt lat="43.38534960219785" lon="13.162426387226455"><ele>350.0</ele><time>2026-04-26T08:04:04.999Z</time></trkpt><trkpt lat="43.38543602956112" lon="13.162578266230373"><ele>351.0</ele><time>2026-04-26T08:04:05.999Z</time></trkpt><trkpt lat="43.38554271184258" lon="13.162730734068417"><ele>352.0</ele><time>2026-04-26T08:04:06.999Z</time></trkpt><trkpt lat="43.385675115414976" lon="13.16286402790408"><ele>352.0</ele><time>2026-04-26T08:04:07.999Z</time></trkpt><trkpt lat="43.3858195338252" lon="13.162996157486862"><ele>352.0</ele><time>2026-04-26T08:04:08.999Z</time></trkpt><trkpt lat="43.385964140098764" lon="13.16310987143174"><ele>352.0</ele><time>2026-04-26T08:04:09.999Z</time></trkpt><trkpt lat="43.386084257205816" lon="13.163236944277424"><ele>342.3333333333333</ele><time>2026-04-26T08:04:10.999Z</time></trkpt><trkpt lat="43.38617613488955" lon="13.163394939463148"><ele>332.6666666666667</ele><time>2026-04-26T08:04:11.999Z</time></trkpt><trkpt lat="43.38625935042952" lon="13.163572450831742"><ele>323.0</ele><time>2026-04-26T08:04:12.999Z</time></trkpt><trkpt lat="43.386333628611574" lon="13.163767241282734"><ele>325.0</ele><time>2026-04-26T08:04:13.999Z</time></trkpt><trkpt lat="43.38642388483243" lon="13.163962556304826"><ele>327.0</ele><time>2026-04-26T08:04:14.999Z</time></trkpt><trkpt lat="43.38647860298353" lon="13.1641498307583"><ele>329.0</ele><time>2026-04-26T08:04:15.999Z</time></trkpt><trkpt lat="43.386559365558874" lon="13.164332069051735"><ele>329.0</ele><time>2026-04-26T08:04:16.999Z</time></trkpt><trkpt lat="43.38668493636058" lon="13.164516703823075"><ele>329.0</ele><time>2026-04-26T08:04:17.999Z</time></trkpt><trkpt lat="43.38680890133923" lon="13.16466202106518"><ele>329.0</ele><time>2026-04-26T08:04:18.999Z</time></trkpt><trkpt lat="43.3869179603124" lon="13.16477707629959"><ele>326.75</ele><time>2026-04-26T08:04:19.999Z</time></trkpt><trkpt lat="43.387049666437406" lon="13.16491044876772"><ele>324.5</ele><time>2026-04-26T08:04:20.999Z</time></trkpt><trkpt lat="43.387161341196595" lon="13.165006470707462"><ele>322.25</ele><time>2026-04-26T08:04:21.999Z</time></trkpt><trkpt lat="43.387274419081514" lon="13.165064696463677"><ele>320.0</ele><time>2026-04-26T08:04:22.999Z</time></trkpt><trkpt lat="43.38739463422071" lon="13.165072593895822"><ele>320.0</ele><time>2026-04-26T08:04:23.999Z</time></trkpt><trkpt lat="43.38750696284837" lon="13.165054470184883"><ele>320.0</ele><time>2026-04-26T08:04:24.999Z</time></trkpt><trkpt lat="43.38761962433726" lon="13.165008683742329"><ele>320.0</ele><time>2026-04-26T08:04:25.999Z</time></trkpt><trkpt lat="43.387732686735475" lon="13.164957982765355"><ele>320.0</ele><time>2026-04-26T08:04:26.999Z</time></trkpt><trkpt lat="43.38784848790017" lon="13.16490398205568"><ele>328.5</ele><time>2026-04-26T08:04:27.999Z</time></trkpt><trkpt lat="43.387960781949076" lon="13.164849132543374"><ele>337.0</ele><time>2026-04-26T08:04:28.999Z</time></trkpt><trkpt lat="43.38807867511713" lon="13.164791548168484"><ele>345.5</ele><time>2026-04-26T08:04:29.999Z</time></trkpt><trkpt lat="43.38821090773301" lon="13.164729213777028"><ele>354.0</ele><time>2026-04-26T08:04:30.999Z</time></trkpt><trkpt lat="43.38831875540382" lon="13.164688787340584"><ele>354.0</ele><time>2026-04-26T08:04:31.999Z</time></trkpt><trkpt lat="43.38842601952506" lon="13.16466409827579"><ele>354.0</ele><time>2026-04-26T08:04:32.999Z</time></trkpt><trkpt lat="43.38853394663833" lon="13.164662595092551"><ele>354.0</ele><time>2026-04-26T08:04:33.999Z</time></trkpt><trkpt lat="43.38863597622778" lon="13.164702998981046"><ele>354.0</ele><time>2026-04-26T08:04:34.999Z</time></trkpt><trkpt lat="43.38871725632332" lon="13.164787521061806"><ele>354.0</ele><time>2026-04-26T08:04:35.999Z</time></trkpt><trkpt lat="43.38877720983626" lon="13.164888684545394"><ele>347.2</ele><time>2026-04-26T08:04:36.999Z</time></trkpt><trkpt lat="43.388808311555835" lon="13.165011651167182"><ele>340.4</ele><time>2026-04-26T08:04:37.999Z</time></trkpt><trkpt lat="43.388838125699095" lon="13.165146996764888"><ele>333.6</ele><time>2026-04-26T08:04:38.999Z</time></trkpt><trkpt lat="43.38879842500949" lon="13.165284277987164"><ele>326.8</ele><time>2026-04-26T08:04:39.999Z</time></trkpt><trkpt lat="43.38875528668497" lon="13.165409970202383"><ele>320.0</ele><time>2026-04-26T08:04:40.999Z</time></trkpt><trkpt lat="43.388685699820336" lon="13.165499323888723"><ele>320.0</ele><time>2026-04-26T08:04:41.999Z</time></trkpt><trkpt lat="43.3885987954511" lon="13.165587612625645"><ele>320.0</ele><time>2026-04-26T08:04:42.998Z</time></trkpt><trkpt lat="43.388488844187926" lon="13.16562081246531"><ele>320.0</ele><time>2026-04-26T08:04:43.998Z</time></trkpt><trkpt lat="43.388367799891384" lon="13.165581309894144"><ele>320.0</ele><time>2026-04-26T08:04:44.998Z</time></trkpt><trkpt lat="43.38825732051523" lon="13.165544033685716"><ele>320.0</ele><time>2026-04-26T08:04:45.998Z</time></trkpt><trkpt lat="43.38814434645721" lon="13.165494809355554"><ele>320.0</ele><time>2026-04-26T08:04:46.998Z</time></trkpt><trkpt lat="43.388040449423094" lon="13.16545084558383"><ele>320.0</ele><time>2026-04-26T08:04:47.998Z</time></trkpt><trkpt lat="43.387951332994724" lon="13.165435873003744"><ele>320.0</ele><time>2026-04-26T08:04:48.999Z</time></trkpt><trkpt lat="43.38788354371068" lon="13.165457470613214"><ele>320.0</ele><time>2026-04-26T08:04:49.999Z</time></trkpt><trkpt lat="43.38779410590517" lon="13.165606736868478"><ele>318.33333333333337</ele><time>2026-04-26T08:04:51.999Z</time></trkpt><trkpt lat="43.38774981908689" lon="13.165704329993051"><ele>316.6666666666667</ele><time>2026-04-26T08:04:52.999Z</time></trkpt><trkpt lat="43.38770164017077" lon="13.165797327411926"><ele>315.0</ele><time>2026-04-26T08:04:53.999Z</time></trkpt><trkpt lat="43.387627186163186" lon="13.165859071629852"><ele>313.3333333333333</ele><time>2026-04-26T08:04:54.999Z</time></trkpt><trkpt lat="43.38753897043522" lon="13.165876305925034"><ele>311.66666666666663</ele><time>2026-04-26T08:04:55.999Z</time></trkpt><trkpt lat="43.387453437802115" lon="13.165915163055141"><ele>310.0</ele><time>2026-04-26T08:04:56.999Z</time></trkpt><trkpt lat="43.38735819194778" lon="13.165966373767997"><ele>310.0</ele><time>2026-04-26T08:04:57.999Z</time></trkpt><trkpt lat="43.387294513422766" lon="13.166048310439887"><ele>310.0</ele><time>2026-04-26T08:04:58.999Z</time></trkpt><trkpt lat="43.387254501908544" lon="13.166174912223013"><ele>310.0</ele><time>2026-04-26T08:04:59.999Z</time></trkpt><trkpt lat="43.38725432974931" lon="13.166318713912577"><ele>310.0</ele><time>2026-04-26T08:05:00.999Z</time></trkpt><trkpt lat="43.387287555301334" lon="13.166462515693759"><ele>310.0</ele><time>2026-04-26T08:05:01.999Z</time></trkpt><trkpt lat="43.38731518157027" lon="13.166634744619195"><ele>310.66666666666663</ele><time>2026-04-26T08:05:02.999Z</time></trkpt><trkpt lat="43.38735900741402" lon="13.166814675470254"><ele>311.3333333333333</ele><time>2026-04-26T08:05:03.999Z</time></trkpt><trkpt lat="43.3874207860544" lon="13.16700831960082"><ele>312.0</ele><time>2026-04-26T08:05:04.999Z</time></trkpt><trkpt lat="43.387473821968655" lon="13.167230674132975"><ele>308.3333333333333</ele><time>2026-04-26T08:05:05.999Z</time></trkpt><trkpt lat="43.38752627846251" lon="13.167460823181795"><ele>304.66666666666663</ele><time>2026-04-26T08:05:06.999Z</time></trkpt><trkpt lat="43.38759806077248" lon="13.167684481345121"><ele>301.0</ele><time>2026-04-26T08:05:07.999Z</time></trkpt><trkpt lat="43.38770173512106" lon="13.167895016302802"><ele>301.0</ele><time>2026-04-26T08:05:08.999Z</time></trkpt><trkpt lat="43.38781208242637" lon="13.168112772032748"><ele>301.0</ele><time>2026-04-26T08:05:09.999Z</time></trkpt><trkpt lat="43.38792802664652" lon="13.168328987677693"><ele>301.0</ele><time>2026-04-26T08:05:10.999Z</time></trkpt><trkpt lat="43.38803944713801" lon="13.16854158957196"><ele>299.0</ele><time>2026-04-26T08:05:11.999Z</time></trkpt><trkpt lat="43.38815056695681" lon="13.168759050361992"><ele>297.0</ele><time>2026-04-26T08:05:12.999Z</time></trkpt><trkpt lat="43.3882557566252" lon="13.168974672354224"><ele>295.0</ele><time>2026-04-26T08:05:13.999Z</time></trkpt><trkpt lat="43.38835778373256" lon="13.169182735132454"><ele>295.0</ele><time>2026-04-26T08:05:14.999Z</time></trkpt><trkpt lat="43.38845729434024" lon="13.169396574607296"><ele>295.0</ele><time>2026-04-26T08:05:15.999Z</time></trkpt><trkpt lat="43.388561416495655" lon="13.169597716900965"><ele>295.0</ele><time>2026-04-26T08:05:16.999Z</time></trkpt><trkpt lat="43.3886752594689" lon="13.169791132634236"><ele>298.0</ele><time>2026-04-26T08:05:17.999Z</time></trkpt><trkpt lat="43.38880221907783" lon="13.169979394755387"><ele>301.0</ele><time>2026-04-26T08:05:18.999Z</time></trkpt><trkpt lat="43.388932067940274" lon="13.17015882843349"><ele>304.0</ele><time>2026-04-26T08:05:19.999Z</time></trkpt><trkpt lat="43.389065767872694" lon="13.170338179596156"><ele>304.0</ele><time>2026-04-26T08:05:20.999Z</time></trkpt><trkpt lat="43.38919738519205" lon="13.170521076456128"><ele>304.0</ele><time>2026-04-26T08:05:21.999Z</time></trkpt><trkpt lat="43.38933485964689" lon="13.170704953001518"><ele>304.0</ele><time>2026-04-26T08:05:22.999Z</time></trkpt><trkpt lat="43.389476474613" lon="13.170880342090538"><ele>304.66666666666663</ele><time>2026-04-26T08:05:23.999Z</time></trkpt><trkpt lat="43.3896130798062" lon="13.171070032084813"><ele>305.3333333333333</ele><time>2026-04-26T08:05:24.999Z</time></trkpt><trkpt lat="43.38975469965546" lon="13.171227419273198"><ele>306.0</ele><time>2026-04-26T08:05:25.999Z</time></trkpt><trkpt lat="43.3899028506914" lon="13.171372726937761"><ele>306.0</ele><time>2026-04-26T08:05:26.999Z</time></trkpt><trkpt lat="43.39006488078693" lon="13.171501344042802"><ele>306.0</ele><time>2026-04-26T08:05:27.999Z</time></trkpt><trkpt lat="43.39023887001775" lon="13.171601401308713"><ele>306.0</ele><time>2026-04-26T08:05:28.999Z</time></trkpt><trkpt lat="43.390469204852224" lon="13.171703546497167"><ele>304.0</ele><time>2026-04-26T08:05:29.999Z</time></trkpt><trkpt lat="43.390704964874885" lon="13.171884831273577"><ele>302.0</ele><time>2026-04-26T08:05:30.999Z</time></trkpt><trkpt lat="43.39088684000864" lon="13.172004719782498"><ele>302.0</ele><time>2026-04-26T08:05:32.999Z</time></trkpt><trkpt lat="43.39104972442747" lon="13.172143721689599"><ele>302.0</ele><time>2026-04-26T08:05:33.999Z</time></trkpt><trkpt lat="43.39120958671813" lon="13.17229627943403"><ele>302.0</ele><time>2026-04-26T08:05:34.999Z</time></trkpt><trkpt lat="43.3913617164018" lon="13.172471592240617"><ele>301.6666666666667</ele><time>2026-04-26T08:05:35.999Z</time></trkpt><trkpt lat="43.391511312710655" lon="13.172665744081229"><ele>301.3333333333333</ele><time>2026-04-26T08:05:36.999Z</time></trkpt><trkpt lat="43.391666839900246" lon="13.172867728897945"><ele>301.0</ele><time>2026-04-26T08:05:37.999Z</time></trkpt><trkpt lat="43.39182426816792" lon="13.17307184255169"><ele>302.66666666666663</ele><time>2026-04-26T08:05:38.999Z</time></trkpt><trkpt lat="43.39198494519418" lon="13.17328672554543"><ele>304.3333333333333</ele><time>2026-04-26T08:05:39.999Z</time></trkpt><trkpt lat="43.39212001963057" lon="13.173495444330634"><ele>306.0</ele><time>2026-04-26T08:05:40.999Z</time></trkpt><trkpt lat="43.39224284921796" lon="13.17370669627447"><ele>306.0</ele><time>2026-04-26T08:05:41.999Z</time></trkpt><trkpt lat="43.39235847907098" lon="13.17391743654543"><ele>306.0</ele><time>2026-04-26T08:05:42.999Z</time></trkpt><trkpt lat="43.39246642866503" lon="13.174118023705562"><ele>306.0</ele><time>2026-04-26T08:05:43.999Z</time></trkpt><trkpt lat="43.39257564249977" lon="13.17431906262006"><ele>299.3333333333333</ele><time>2026-04-26T08:05:44.999Z</time></trkpt><trkpt lat="43.39268223910476" lon="13.174514259195652"><ele>292.66666666666663</ele><time>2026-04-26T08:05:45.999Z</time></trkpt><trkpt lat="43.392791260052135" lon="13.174713894839662"><ele>286.0</ele><time>2026-04-26T08:05:46.999Z</time></trkpt><trkpt lat="43.39289994711578" lon="13.174910995093288"><ele>287.0</ele><time>2026-04-26T08:05:47.999Z</time></trkpt><trkpt lat="43.39300480127248" lon="13.175100441680486"><ele>288.0</ele><time>2026-04-26T08:05:48.999Z</time></trkpt><trkpt lat="43.39310608773325" lon="13.175283442243067"><ele>289.0</ele><time>2026-04-26T08:05:49.999Z</time></trkpt><trkpt lat="43.393207170973106" lon="13.175467088496612"><ele>289.0</ele><time>2026-04-26T08:05:50.999Z</time></trkpt><trkpt lat="43.39330585979653" lon="13.175648320090174"><ele>289.0</ele><time>2026-04-26T08:05:51.999Z</time></trkpt><trkpt lat="43.39340377265676" lon="13.175828127114952"><ele>289.0</ele><time>2026-04-26T08:05:52.999Z</time></trkpt><trkpt lat="43.39350197223349" lon="13.176010411079176"><ele>287.0</ele><time>2026-04-26T08:05:53.999Z</time></trkpt><trkpt lat="43.3936007307268" lon="13.17619582923638"><ele>285.0</ele><time>2026-04-26T08:05:54.999Z</time></trkpt><trkpt lat="43.39369642955561" lon="13.176360446194103"><ele>283.0</ele><time>2026-04-26T08:05:55.999Z</time></trkpt><trkpt lat="43.393796899053775" lon="13.176516284526324"><ele>283.75</ele><time>2026-04-26T08:05:56.999Z</time></trkpt><trkpt lat="43.393895370295034" lon="13.176669318452651"><ele>284.5</ele><time>2026-04-26T08:05:57.999Z</time></trkpt><trkpt lat="43.393980117512946" lon="13.176821009462273"><ele>285.25</ele><time>2026-04-26T08:05:58.999Z</time></trkpt><trkpt lat="43.39402540579756" lon="13.176986416981913"><ele>286.0</ele><time>2026-04-26T08:05:59.999Z</time></trkpt><trkpt lat="43.39404923664676" lon="13.1771857767414"><ele>285.3333333333333</ele><time>2026-04-26T08:06:00.999Z</time></trkpt><trkpt lat="43.394099660346605" lon="13.177377133977807"><ele>284.6666666666667</ele><time>2026-04-26T08:06:01.999Z</time></trkpt><trkpt lat="43.39416256748743" lon="13.177558271349566"><ele>284.0</ele><time>2026-04-26T08:06:02.999Z</time></trkpt><trkpt lat="43.39425604339535" lon="13.177734295344937"><ele>284.0</ele><time>2026-04-26T08:06:03.999Z</time></trkpt><trkpt lat="43.39435800146513" lon="13.177914891202201"><ele>284.0</ele><time>2026-04-26T08:06:04.999Z</time></trkpt><trkpt lat="43.39445050879077" lon="13.178113050465324"><ele>284.0</ele><time>2026-04-26T08:06:05.999Z</time></trkpt><trkpt lat="43.39456297714969" lon="13.178302584063756"><ele>287.33333333333337</ele><time>2026-04-26T08:06:06.999Z</time></trkpt><trkpt lat="43.39468916446178" lon="13.178493353078776"><ele>290.6666666666667</ele><time>2026-04-26T08:06:07.999Z</time></trkpt><trkpt lat="43.39483203414635" lon="13.178683581768771"><ele>294.0</ele><time>2026-04-26T08:06:08.999Z</time></trkpt><trkpt lat="43.39498047550337" lon="13.1788718485389"><ele>292.0</ele><time>2026-04-26T08:06:09.999Z</time></trkpt><trkpt lat="43.39512326449161" lon="13.179051866589624"><ele>290.0</ele><time>2026-04-26T08:06:10.999Z</time></trkpt><trkpt lat="43.395262650461646" lon="13.179234171308957"><ele>288.0</ele><time>2026-04-26T08:06:11.999Z</time></trkpt><trkpt lat="43.39539143530953" lon="13.17942087168887"><ele>288.0</ele><time>2026-04-26T08:06:12.999Z</time></trkpt><trkpt lat="43.39550369222931" lon="13.17959889143552"><ele>288.0</ele><time>2026-04-26T08:06:13.999Z</time></trkpt><trkpt lat="43.395602616330464" lon="13.17976165829823"><ele>288.0</ele><time>2026-04-26T08:06:14.999Z</time></trkpt><trkpt lat="43.39568751242168" lon="13.179918879426634"><ele>292.5</ele><time>2026-04-26T08:06:15.999Z</time></trkpt><trkpt lat="43.39575068767289" lon="13.180069838718826"><ele>297.0</ele><time>2026-04-26T08:06:16.999Z</time></trkpt><trkpt lat="43.39580221453589" lon="13.180239401148015"><ele>301.5</ele><time>2026-04-26T08:06:17.999Z</time></trkpt><trkpt lat="43.39585906718274" lon="13.180420121899937"><ele>306.0</ele><time>2026-04-26T08:06:18.999Z</time></trkpt><trkpt lat="43.39589288037723" lon="13.180575093025748"><ele>304.75</ele><time>2026-04-26T08:06:19.999Z</time></trkpt><trkpt lat="43.395907965588094" lon="13.180742940787061"><ele>303.5</ele><time>2026-04-26T08:06:20.999Z</time></trkpt><trkpt lat="43.39592175923035" lon="13.180926807092419"><ele>302.25</ele><time>2026-04-26T08:06:21.999Z</time></trkpt><trkpt lat="43.395923979289684" lon="13.181130806341436"><ele>301.0</ele><time>2026-04-26T08:06:22.999Z</time></trkpt><trkpt lat="43.39590236614247" lon="13.181341586576478"><ele>299.3333333333333</ele><time>2026-04-26T08:06:23.999Z</time></trkpt><trkpt lat="43.39589130616101" lon="13.181566246630934"><ele>297.6666666666667</ele><time>2026-04-26T08:06:24.999Z</time></trkpt><trkpt lat="43.39589127726559" lon="13.181803501047932"><ele>296.0</ele><time>2026-04-26T08:06:25.999Z</time></trkpt><trkpt lat="43.39591265543657" lon="13.182025962332775"><ele>296.0</ele><time>2026-04-26T08:06:26.999Z</time></trkpt><trkpt lat="43.39591134088694" lon="13.182247556985777"><ele>296.0</ele><time>2026-04-26T08:06:27.999Z</time></trkpt><trkpt lat="43.39593677708694" lon="13.182440551542856"><ele>296.0</ele><time>2026-04-26T08:06:28.999Z</time></trkpt><trkpt lat="43.39599293352459" lon="13.182633865654632"><ele>294.0</ele><time>2026-04-26T08:06:29.999Z</time></trkpt><trkpt lat="43.39605922961513" lon="13.182805994799297"><ele>292.0</ele><time>2026-04-26T08:06:30.999Z</time></trkpt><trkpt lat="43.39612570497701" lon="13.182978281269085"><ele>290.0</ele><time>2026-04-26T08:06:31.999Z</time></trkpt><trkpt lat="43.39619158204401" lon="13.18316167451708"><ele>288.0</ele><time>2026-04-26T08:06:32.999Z</time></trkpt><trkpt lat="43.39625577580542" lon="13.183343551605132"><ele>285.75</ele><time>2026-04-26T08:06:33.999Z</time></trkpt><trkpt lat="43.396319513480464" lon="13.183524136237557"><ele>283.5</ele><time>2026-04-26T08:06:34.999Z</time></trkpt><trkpt lat="43.396383939646036" lon="13.18369705520556"><ele>281.25</ele><time>2026-04-26T08:06:35.999Z</time></trkpt><trkpt lat="43.39645130994325" lon="13.183876628749385"><ele>279.0</ele><time>2026-04-26T08:06:36.999Z</time></trkpt><trkpt lat="43.396496629589166" lon="13.184026766050081"><ele>284.0</ele><time>2026-04-26T08:06:37.999Z</time></trkpt><trkpt lat="43.396551347227074" lon="13.184178437633213"><ele>289.0</ele><time>2026-04-26T08:06:38.999Z</time></trkpt><trkpt lat="43.396617834782475" lon="13.18433672694458"><ele>294.0</ele><time>2026-04-26T08:06:39.999Z</time></trkpt><trkpt lat="43.39669310172693" lon="13.18447098508591"><ele>299.0</ele><time>2026-04-26T08:06:40.999Z</time></trkpt><trkpt lat="43.39676463723391" lon="13.184628303998336"><ele>299.0</ele><time>2026-04-26T08:06:41.999Z</time></trkpt><trkpt lat="43.39685298290367" lon="13.184782920978005"><ele>299.0</ele><time>2026-04-26T08:06:42.999Z</time></trkpt><trkpt lat="43.39692090699583" lon="13.184949535952233"><ele>299.0</ele><time>2026-04-26T08:06:43.999Z</time></trkpt><trkpt lat="43.39700089739262" lon="13.185099761720299"><ele>299.0</ele><time>2026-04-26T08:06:44.999Z</time></trkpt><trkpt lat="43.39710282458378" lon="13.18521411108207"><ele>300.25</ele><time>2026-04-26T08:06:45.999Z</time></trkpt><trkpt lat="43.397223118112436" lon="13.185305098531003"><ele>301.5</ele><time>2026-04-26T08:06:46.999Z</time></trkpt><trkpt lat="43.397354540675806" lon="13.18538644166383"><ele>302.75</ele><time>2026-04-26T08:06:47.999Z</time></trkpt><trkpt lat="43.39749609296048" lon="13.185486475594647"><ele>304.0</ele><time>2026-04-26T08:06:48.999Z</time></trkpt><trkpt lat="43.39762814496144" lon="13.185551418284152"><ele>304.0</ele><time>2026-04-26T08:06:49.999Z</time></trkpt><trkpt lat="43.39777133517855" lon="13.185606188830981"><ele>304.0</ele><time>2026-04-26T08:06:50.999Z</time></trkpt><trkpt lat="43.39791489241981" lon="13.185613450599595"><ele>304.0</ele><time>2026-04-26T08:06:51.999Z</time></trkpt><trkpt lat="43.39803655874427" lon="13.185585845086074"><ele>304.0</ele><time>2026-04-26T08:06:52.999Z</time></trkpt><trkpt lat="43.39815097245849" lon="13.185528945972784"><ele>304.0</ele><time>2026-04-26T08:06:53.999Z</time></trkpt><trkpt lat="43.3982799041598" lon="13.1854618037823"><ele>304.0</ele><time>2026-04-26T08:06:54.999Z</time></trkpt><trkpt lat="43.39837726723327" lon="13.18535401642748"><ele>304.0</ele><time>2026-04-26T08:06:55.999Z</time></trkpt><trkpt lat="43.39848746909967" lon="13.185270333734788"><ele>304.0</ele><time>2026-04-26T08:06:56.999Z</time></trkpt><trkpt lat="43.39859979590526" lon="13.185272890078304"><ele>304.0</ele><time>2026-04-26T08:06:57.999Z</time></trkpt><trkpt lat="43.39870197307962" lon="13.185289810426713"><ele>304.0</ele><time>2026-04-26T08:06:58.999Z</time></trkpt><trkpt lat="43.39879547489398" lon="13.185322847962166"><ele>304.0</ele><time>2026-04-26T08:07:00Z</time></trkpt><trkpt lat="43.39888677862042" lon="13.185389895098233"><ele>304.0</ele><time>2026-04-26T08:07:01Z</time></trkpt><trkpt lat="43.39899950988238" lon="13.185480591171414"><ele>304.0</ele><time>2026-04-26T08:07:02Z</time></trkpt><trkpt lat="43.39914226393247" lon="13.185551266046525"><ele>305.3333333333333</ele><time>2026-04-26T08:07:03Z</time></trkpt><trkpt lat="43.3992909006213" lon="13.185623751685046"><ele>306.6666666666667</ele><time>2026-04-26T08:07:04Z</time></trkpt><trkpt lat="43.399440837428074" lon="13.18569677502422"><ele>308.0</ele><time>2026-04-26T08:07:05Z</time></trkpt><trkpt lat="43.39959911880928" lon="13.185728409960872"><ele>303.0</ele><time>2026-04-26T08:07:06Z</time></trkpt><trkpt lat="43.39974405861396" lon="13.18577131209292"><ele>298.0</ele><time>2026-04-26T08:07:07Z</time></trkpt><trkpt lat="43.39988235154254" lon="13.185829994224106"><ele>293.0</ele><time>2026-04-26T08:07:08Z</time></trkpt><trkpt lat="43.40000224515796" lon="13.185915591620688"><ele>288.0</ele><time>2026-04-26T08:07:09Z</time></trkpt><trkpt lat="43.40011751533967" lon="13.185998784548378"><ele>288.0</ele><time>2026-04-26T08:07:10Z</time></trkpt><trkpt lat="43.40020773716412" lon="13.186155430987984"><ele>288.0</ele><time>2026-04-26T08:07:11Z</time></trkpt><trkpt lat="43.40026069082435" lon="13.186357846983986"><ele>288.0</ele><time>2026-04-26T08:07:12Z</time></trkpt><trkpt lat="43.40032252650825" lon="13.186555578695415"><ele>284.3333333333333</ele><time>2026-04-26T08:07:13Z</time></trkpt><trkpt lat="43.400392418797395" lon="13.186771747686015"><ele>280.66666666666663</ele><time>2026-04-26T08:07:14Z</time></trkpt><trkpt lat="43.400461437663566" lon="13.186989303752872"><ele>277.0</ele><time>2026-04-26T08:07:15Z</time></trkpt><trkpt lat="43.400509699991744" lon="13.18721298871555"><ele>273.3333333333333</ele><time>2026-04-26T08:07:16Z</time></trkpt><trkpt lat="43.400577767372496" lon="13.187418161570445"><ele>269.6666666666667</ele><time>2026-04-26T08:07:17Z</time></trkpt><trkpt lat="43.400621373595975" lon="13.187622217634278"><ele>266.0</ele><time>2026-04-26T08:07:18Z</time></trkpt><trkpt lat="43.40066558263779" lon="13.187824800067549"><ele>266.0</ele><time>2026-04-26T08:07:19Z</time></trkpt><trkpt lat="43.40067939739624" lon="13.188036941691644"><ele>266.0</ele><time>2026-04-26T08:07:20Z</time></trkpt><trkpt lat="43.4006930931269" lon="13.188230732915438"><ele>266.0</ele><time>2026-04-26T08:07:21Z</time></trkpt><trkpt lat="43.40071518869687" lon="13.188418495487745"><ele>266.0</ele><time>2026-04-26T08:07:22Z</time></trkpt><trkpt lat="43.40070822904827" lon="13.188604864768141"><ele>266.0</ele><time>2026-04-26T08:07:23Z</time></trkpt><trkpt lat="43.400676672736985" lon="13.188776159722643"><ele>266.0</ele><time>2026-04-26T08:07:24Z</time></trkpt><trkpt lat="43.4006603285009" lon="13.188952224434788"><ele>266.0</ele><time>2026-04-26T08:07:25Z</time></trkpt><trkpt lat="43.4006369074705" lon="13.189102021652477"><ele>266.0</ele><time>2026-04-26T08:07:26Z</time></trkpt><trkpt lat="43.400626182457714" lon="13.189237330898639"><ele>265.0</ele><time>2026-04-26T08:07:27Z</time></trkpt><trkpt lat="43.40061658068765" lon="13.189337970497531"><ele>264.0</ele><time>2026-04-26T08:07:28Z</time></trkpt><trkpt lat="43.40061230443554" lon="13.18945791522922"><ele>263.0</ele><time>2026-04-26T08:07:30Z</time></trkpt><trkpt lat="43.4007249241121" lon="13.189407353460854"><ele>262.0</ele><time>2026-04-26T08:07:35Z</time></trkpt><trkpt lat="43.40074439394079" lon="13.189275184419072"><ele>261.0</ele><time>2026-04-26T08:07:36Z</time></trkpt><trkpt lat="43.40079843736235" lon="13.189161499801415"><ele>261.0</ele><time>2026-04-26T08:07:37Z</time></trkpt><trkpt lat="43.40085968287312" lon="13.189058398371424"><ele>261.0</ele><time>2026-04-26T08:07:38Z</time></trkpt><trkpt lat="43.4009440708132" lon="13.189023667313414"><ele>261.0</ele><time>2026-04-26T08:07:39Z</time></trkpt><trkpt lat="43.40106213474966" lon="13.188989475338309"><ele>261.0</ele><time>2026-04-26T08:07:40Z</time></trkpt><trkpt lat="43.401187113394165" lon="13.188949067865803"><ele>261.0</ele><time>2026-04-26T08:07:41Z</time></trkpt><trkpt lat="43.40129500719716" lon="13.188888798759482"><ele>261.40000000000003</ele><time>2026-04-26T08:07:42Z</time></trkpt><trkpt lat="43.40139362688588" lon="13.188851928657114"><ele>261.8</ele><time>2026-04-26T08:07:43Z</time></trkpt><trkpt lat="43.4014877598941" lon="13.188805343519274"><ele>262.20000000000005</ele><time>2026-04-26T08:07:44Z</time></trkpt><trkpt lat="43.40158248731326" lon="13.188763940676676"><ele>262.6</ele><time>2026-04-26T08:07:45Z</time></trkpt><trkpt lat="43.40167235559231" lon="13.188730130285487"><ele>263.0</ele><time>2026-04-26T08:07:46Z</time></trkpt><trkpt lat="43.401744053423016" lon="13.188701667099835"><ele>263.0</ele><time>2026-04-26T08:07:47Z</time></trkpt><trkpt lat="43.40180618039131" lon="13.188645280991448"><ele>263.0</ele><time>2026-04-26T08:07:48Z</time></trkpt><trkpt lat="43.401874418510346" lon="13.188573014612071"><ele>263.0</ele><time>2026-04-26T08:07:49Z</time></trkpt><trkpt lat="43.40192897119484" lon="13.188471101877528"><ele>263.0</ele><time>2026-04-26T08:07:50Z</time></trkpt><trkpt lat="43.401959445121754" lon="13.188306358297535"><ele>263.0</ele><time>2026-04-26T08:07:51Z</time></trkpt><trkpt lat="43.40200901654847" lon="13.188170125203712"><ele>263.25</ele><time>2026-04-26T08:07:52Z</time></trkpt><trkpt lat="43.40204445419518" lon="13.188019357077794"><ele>263.5</ele><time>2026-04-26T08:07:53Z</time></trkpt><trkpt lat="43.40209474749801" lon="13.187853324699136"><ele>263.75</ele><time>2026-04-26T08:07:54Z</time></trkpt><trkpt lat="43.4021441027715" lon="13.187701710400182"><ele>264.0</ele><time>2026-04-26T08:07:55Z</time></trkpt><trkpt lat="43.40218858090901" lon="13.187574481447268"><ele>269.0</ele><time>2026-04-26T08:07:56Z</time></trkpt><trkpt lat="43.40222674122344" lon="13.187501668181582"><ele>274.0</ele><time>2026-04-26T08:07:57Z</time></trkpt><trkpt lat="43.40227434605627" lon="13.187400832480343"><ele>279.0</ele><time>2026-04-26T08:07:59Z</time></trkpt><trkpt lat="43.4023787416554" lon="13.187392885584783"><ele>284.0</ele><time>2026-04-26T08:08:01Z</time></trkpt><trkpt lat="43.40241520153359" lon="13.187565418004871"><ele>289.0</ele><time>2026-04-26T08:08:03Z</time></trkpt><trkpt lat="43.40240441194478" lon="13.187678446824417"><ele>289.0</ele><time>2026-04-26T08:08:04Z</time></trkpt><trkpt lat="43.402420671783005" lon="13.18781935612169"><ele>289.0</ele><time>2026-04-26T08:08:05Z</time></trkpt><trkpt lat="43.402422149591956" lon="13.187943961638485"><ele>289.0</ele><time>2026-04-26T08:08:06Z</time></trkpt><trkpt lat="43.40243362253849" lon="13.188057148245239"><ele>289.0</ele><time>2026-04-26T08:08:07Z</time></trkpt><trkpt lat="43.40248480664341" lon="13.18815147829294"><ele>289.0</ele><time>2026-04-26T08:08:09Z</time></trkpt><trkpt lat="43.402618806892065" lon="13.18811043624374"><ele>289.0</ele><time>2026-04-26T08:08:11Z</time></trkpt><trkpt lat="43.40264898994393" lon="13.187968470668709"><ele>289.0</ele><time>2026-04-26T08:08:12Z</time></trkpt><trkpt lat="43.40267878072723" lon="13.187853471139963"><ele>289.0</ele><time>2026-04-26T08:08:13Z</time></trkpt><trkpt lat="43.40272592743141" lon="13.187729722677522"><ele>289.0</ele><time>2026-04-26T08:08:14Z</time></trkpt><trkpt lat="43.40280088331212" lon="13.18764134747005"><ele>289.0</ele><time>2026-04-26T08:08:15Z</time></trkpt><trkpt lat="43.40286695117554" lon="13.187531031641825"><ele>289.0</ele><time>2026-04-26T08:08:16Z</time></trkpt><trkpt lat="43.40292632886875" lon="13.18743188607973"><ele>289.0</ele><time>2026-04-26T08:08:17Z</time></trkpt><trkpt lat="43.40296706192273" lon="13.187363873247497"><ele>289.0</ele><time>2026-04-26T08:08:18Z</time></trkpt><trkpt lat="43.403024780857685" lon="13.187320922181783"><ele>289.0</ele><time>2026-04-26T08:08:20Z</time></trkpt><trkpt lat="43.40309846307952" lon="13.187364658407366"><ele>289.0</ele><time>2026-04-26T08:08:22Z</time></trkpt><trkpt lat="43.40312741653891" lon="13.18753097723734"><ele>289.0</ele><time>2026-04-26T08:08:24Z</time></trkpt><trkpt lat="43.40315257601806" lon="13.18762846186628"><ele>293.2</ele><time>2026-04-26T08:08:25Z</time></trkpt><trkpt lat="43.4031808927047" lon="13.187735694869083"><ele>297.4</ele><time>2026-04-26T08:08:26Z</time></trkpt><trkpt lat="43.40322298877789" lon="13.187842683199413"><ele>301.6</ele><time>2026-04-26T08:08:27Z</time></trkpt><trkpt lat="43.4032478821308" lon="13.187969852145377"><ele>305.8</ele><time>2026-04-26T08:08:28Z</time></trkpt><trkpt lat="43.40329772632407" lon="13.188094100449906"><ele>310.0</ele><time>2026-04-26T08:08:29Z</time></trkpt><trkpt lat="43.403362430061016" lon="13.188210866265173"><ele>310.0</ele><time>2026-04-26T08:08:30Z</time></trkpt><trkpt lat="43.403454580115486" lon="13.188314735746403"><ele>310.0</ele><time>2026-04-26T08:08:31Z</time></trkpt><trkpt lat="43.4035417673528" lon="13.188410992084505"><ele>310.0</ele><time>2026-04-26T08:08:32Z</time></trkpt><trkpt lat="43.40365163607882" lon="13.18848705636359"><ele>310.0</ele><time>2026-04-26T08:08:34Z</time></trkpt><trkpt lat="43.40375299204053" lon="13.188419598923426"><ele>310.0</ele><time>2026-04-26T08:08:36Z</time></trkpt><trkpt lat="43.40377527753013" lon="13.188303796594717"><ele>310.0</ele><time>2026-04-26T08:08:37Z</time></trkpt><trkpt lat="43.40374797680203" lon="13.188171583705813"><ele>310.0</ele><time>2026-04-26T08:08:38Z</time></trkpt><trkpt lat="43.40374372636544" lon="13.188047570884802"><ele>310.0</ele><time>2026-04-26T08:08:39Z</time></trkpt><trkpt lat="43.40376467636095" lon="13.187927370275807"><ele>310.0</ele><time>2026-04-26T08:08:40Z</time></trkpt><trkpt lat="43.403797657419304" lon="13.187833313787555"><ele>310.0</ele><time>2026-04-26T08:08:41Z</time></trkpt><trkpt lat="43.4038427796286" lon="13.187752257796085"><ele>314.2</ele><time>2026-04-26T08:08:42Z</time></trkpt><trkpt lat="43.40390962941112" lon="13.187734037299437"><ele>318.4</ele><time>2026-04-26T08:08:43Z</time></trkpt><trkpt lat="43.4039892529053" lon="13.18771779377474"><ele>322.6</ele><time>2026-04-26T08:08:44Z</time></trkpt><trkpt lat="43.40408861849596" lon="13.18769694816488"><ele>326.8</ele><time>2026-04-26T08:08:45Z</time></trkpt><trkpt lat="43.404201036858126" lon="13.187673364249608"><ele>331.0</ele><time>2026-04-26T08:08:46Z</time></trkpt><trkpt lat="43.40433150978726" lon="13.187645992723207"><ele>331.0</ele><time>2026-04-26T08:08:47Z</time></trkpt><trkpt lat="43.40445426945591" lon="13.187618705014874"><ele>331.0</ele><time>2026-04-26T08:08:48Z</time></trkpt><trkpt lat="43.40457858644338" lon="13.187590463528048"><ele>331.0</ele><time>2026-04-26T08:08:49Z</time></trkpt><trkpt lat="43.40469961854414" lon="13.18754220056281"><ele>331.0</ele><time>2026-04-26T08:08:50Z</time></trkpt><trkpt lat="43.40482763862057" lon="13.187517162262685"><ele>332.25</ele><time>2026-04-26T08:08:51Z</time></trkpt><trkpt lat="43.40495060207634" lon="13.187490715204326"><ele>333.5</ele><time>2026-04-26T08:08:52Z</time></trkpt><trkpt lat="43.40507363968566" lon="13.187460672178606"><ele>334.75</ele><time>2026-04-26T08:08:53Z</time></trkpt><trkpt lat="43.40521176318271" lon="13.187407163158348"><ele>336.0</ele><time>2026-04-26T08:08:54Z</time></trkpt><trkpt lat="43.40535343475784" lon="13.187327138674075"><ele>336.6666666666667</ele><time>2026-04-26T08:08:55Z</time></trkpt><trkpt lat="43.40551290891507" lon="13.187210720507965"><ele>337.33333333333337</ele><time>2026-04-26T08:08:56Z</time></trkpt><trkpt lat="43.40567300856168" lon="13.187090009651437"><ele>338.0</ele><time>2026-04-26T08:08:57Z</time></trkpt><trkpt lat="43.405830528480486" lon="13.186971304473968"><ele>338.0</ele><time>2026-04-26T08:08:58Z</time></trkpt><trkpt lat="43.40598487689883" lon="13.186854334250135"><ele>338.0</ele><time>2026-04-26T08:08:59Z</time></trkpt><trkpt lat="43.406130861478964" lon="13.186728731826358"><ele>338.0</ele><time>2026-04-26T08:09:00Z</time></trkpt><trkpt lat="43.40625843451119" lon="13.186593786817731"><ele>341.5</ele><time>2026-04-26T08:09:01Z</time></trkpt><trkpt lat="43.406360842913095" lon="13.186434709229488"><ele>345.0</ele><time>2026-04-26T08:09:02Z</time></trkpt><trkpt lat="43.40644746021599" lon="13.186286601195857"><ele>348.5</ele><time>2026-04-26T08:09:03Z</time></trkpt><trkpt lat="43.40651377409067" lon="13.186179050900263"><ele>352.0</ele><time>2026-04-26T08:09:04Z</time></trkpt><trkpt lat="43.40657781981304" lon="13.18611053831748"><ele>352.0</ele><time>2026-04-26T08:09:05Z</time></trkpt><trkpt lat="43.40664955989821" lon="13.186093942026405"><ele>352.0</ele><time>2026-04-26T08:09:06Z</time></trkpt><trkpt lat="43.406736265641655" lon="13.186134957675895"><ele>352.0</ele><time>2026-04-26T08:09:07Z</time></trkpt><trkpt lat="43.40683404252775" lon="13.186172988508124"><ele>352.0</ele><time>2026-04-26T08:09:08Z</time></trkpt><trkpt lat="43.40694215516299" lon="13.186199425968514"><ele>352.0</ele><time>2026-04-26T08:09:09Z</time></trkpt><trkpt lat="43.40705095394447" lon="13.186237011133265"><ele>352.0</ele><time>2026-04-26T08:09:10Z</time></trkpt><trkpt lat="43.40716042079627" lon="13.186261320936152"><ele>352.0</ele><time>2026-04-26T08:09:11Z</time></trkpt><trkpt lat="43.407240364389104" lon="13.18628605883961"><ele>352.0</ele><time>2026-04-26T08:09:12Z</time></trkpt><trkpt lat="43.40730858376112" lon="13.186322171283232"><ele>352.0</ele><time>2026-04-26T08:09:14Z</time></trkpt><trkpt lat="43.40737116092267" lon="13.186178581598611"><ele>352.0</ele><time>2026-04-26T08:09:17Z</time></trkpt><trkpt lat="43.40736746629265" lon="13.186077947034033"><ele>354.0</ele><time>2026-04-26T08:09:18Z</time></trkpt><trkpt lat="43.40739162532329" lon="13.185953213087593"><ele>356.0</ele><time>2026-04-26T08:09:19Z</time></trkpt><trkpt lat="43.40740562332836" lon="13.185816540329734"><ele>358.0</ele><time>2026-04-26T08:09:20Z</time></trkpt><trkpt lat="43.40742141371884" lon="13.185662367313881"><ele>360.0</ele><time>2026-04-26T08:09:21Z</time></trkpt><trkpt lat="43.40744127607286" lon="13.185488670296184"><ele>362.0</ele><time>2026-04-26T08:09:22Z</time></trkpt><trkpt lat="43.40746160555251" lon="13.185311595258373"><ele>363.5</ele><time>2026-04-26T08:09:23Z</time></trkpt><trkpt lat="43.40748229082077" lon="13.185131421129476"><ele>365.0</ele><time>2026-04-26T08:09:24Z</time></trkpt><trkpt lat="43.40750360786501" lon="13.184945744084564"><ele>366.5</ele><time>2026-04-26T08:09:25Z</time></trkpt><trkpt lat="43.407526779700284" lon="13.184745245842494"><ele>368.0</ele><time>2026-04-26T08:09:26Z</time></trkpt><trkpt lat="43.40755017202884" lon="13.184543439607646"><ele>368.33333333333337</ele><time>2026-04-26T08:09:27Z</time></trkpt><trkpt lat="43.407559137802636" lon="13.184331079137957"><ele>368.6666666666667</ele><time>2026-04-26T08:09:28Z</time></trkpt><trkpt lat="43.407603090102334" lon="13.184123285926724"><ele>369.0</ele><time>2026-04-26T08:09:29Z</time></trkpt><trkpt lat="43.407630114793065" lon="13.183925739076907"><ele>370.0</ele><time>2026-04-26T08:09:30Z</time></trkpt><trkpt lat="43.407628793374485" lon="13.183737028171794"><ele>371.0</ele><time>2026-04-26T08:09:31Z</time></trkpt><trkpt lat="43.407617656198084" lon="13.1835636778599"><ele>372.0</ele><time>2026-04-26T08:09:32Z</time></trkpt><trkpt lat="43.40756110433918" lon="13.183395861786982"><ele>373.0</ele><time>2026-04-26T08:09:33Z</time></trkpt><trkpt lat="43.4074858973127" lon="13.183233617331798"><ele>374.66666666666663</ele><time>2026-04-26T08:09:34Z</time></trkpt><trkpt lat="43.40741146484858" lon="13.18305092342734"><ele>376.3333333333333</ele><time>2026-04-26T08:09:35Z</time></trkpt><trkpt lat="43.407334142150695" lon="13.182872045841862"><ele>378.0</ele><time>2026-04-26T08:09:36Z</time></trkpt><trkpt lat="43.40725404213024" lon="13.18267860915847"><ele>378.0</ele><time>2026-04-26T08:09:37Z</time></trkpt><trkpt lat="43.407185202840516" lon="13.182464292830621"><ele>378.0</ele><time>2026-04-26T08:09:38Z</time></trkpt><trkpt lat="43.407104918213165" lon="13.182262444925275"><ele>378.0</ele><time>2026-04-26T08:09:39Z</time></trkpt><trkpt lat="43.40701898760281" lon="13.182059183132083"><ele>378.0</ele><time>2026-04-26T08:09:40Z</time></trkpt><trkpt lat="43.40693930045313" lon="13.181855978097927"><ele>378.0</ele><time>2026-04-26T08:09:41Z</time></trkpt><trkpt lat="43.406863159870696" lon="13.181662699360352"><ele>378.0</ele><time>2026-04-26T08:09:42Z</time></trkpt><trkpt lat="43.40680243528252" lon="13.181471899598998"><ele>378.5</ele><time>2026-04-26T08:09:43Z</time></trkpt><trkpt lat="43.40677183987297" lon="13.181273268355216"><ele>379.0</ele><time>2026-04-26T08:09:44Z</time></trkpt><trkpt lat="43.406762261437756" lon="13.181070520760471"><ele>379.5</ele><time>2026-04-26T08:09:45Z</time></trkpt><trkpt lat="43.406772373817944" lon="13.180866974752742"><ele>380.0</ele><time>2026-04-26T08:09:46Z</time></trkpt><trkpt lat="43.40680672673216" lon="13.180646485975117"><ele>380.6666666666667</ele><time>2026-04-26T08:09:47Z</time></trkpt><trkpt lat="43.40684929169824" lon="13.18041720126382"><ele>381.3333333333333</ele><time>2026-04-26T08:09:48Z</time></trkpt><trkpt lat="43.406899331753" lon="13.180180347303367"><ele>382.0</ele><time>2026-04-26T08:09:49Z</time></trkpt><trkpt lat="43.40695534837282" lon="13.179926771617973"><ele>382.66666666666663</ele><time>2026-04-26T08:09:50Z</time></trkpt><trkpt lat="43.40701326707127" lon="13.17967806997959"><ele>383.3333333333333</ele><time>2026-04-26T08:09:51Z</time></trkpt><trkpt lat="43.407069582941446" lon="13.179438781211704"><ele>384.0</ele><time>2026-04-26T08:09:52Z</time></trkpt><trkpt lat="43.40712161973267" lon="13.179206447047603"><ele>381.6666666666667</ele><time>2026-04-26T08:09:53Z</time></trkpt><trkpt lat="43.40717158982163" lon="13.178986872986048"><ele>379.33333333333337</ele><time>2026-04-26T08:09:54Z</time></trkpt><trkpt lat="43.4072221972906" lon="13.178765214574423"><ele>377.0</ele><time>2026-04-26T08:09:55Z</time></trkpt><trkpt lat="43.40727549871603" lon="13.178533026723072"><ele>377.0</ele><time>2026-04-26T08:09:56Z</time></trkpt><trkpt lat="43.4073276960742" lon="13.178305648540608"><ele>377.0</ele><time>2026-04-26T08:09:57Z</time></trkpt><trkpt lat="43.40738402474967" lon="13.178066533746895"><ele>377.0</ele><time>2026-04-26T08:09:58Z</time></trkpt><trkpt lat="43.407438650900566" lon="13.177837925736787"><ele>379.6666666666667</ele><time>2026-04-26T08:09:59Z</time></trkpt><trkpt lat="43.407492590916654" lon="13.177612343738765"><ele>382.33333333333337</ele><time>2026-04-26T08:10:00Z</time></trkpt><trkpt lat="43.4075497482413" lon="13.177385854249296"><ele>385.0</ele><time>2026-04-26T08:10:01Z</time></trkpt><trkpt lat="43.40760499273667" lon="13.177159396638823"><ele>386.0</ele><time>2026-04-26T08:10:02Z</time></trkpt><trkpt lat="43.40765963485811" lon="13.176935874458025"><ele>387.0</ele><time>2026-04-26T08:10:03Z</time></trkpt><trkpt lat="43.40771421472513" lon="13.176713931321116"><ele>388.0</ele><time>2026-04-26T08:10:04Z</time></trkpt><trkpt lat="43.40776888796468" lon="13.176493083933698"><ele>388.33333333333337</ele><time>2026-04-26T08:10:05Z</time></trkpt><trkpt lat="43.40782294822333" lon="13.176274712560419"><ele>388.66666666666663</ele><time>2026-04-26T08:10:06Z</time></trkpt><trkpt lat="43.407879406166245" lon="13.176051167770167"><ele>389.0</ele><time>2026-04-26T08:10:07Z</time></trkpt><trkpt lat="43.40793075170246" lon="13.175845107985829"><ele>389.0</ele><time>2026-04-26T08:10:08Z</time></trkpt><trkpt lat="43.407979799969716" lon="13.175644528193285"><ele>389.0</ele><time>2026-04-26T08:10:09Z</time></trkpt><trkpt lat="43.40802477189879" lon="13.175464383928995"><ele>389.0</ele><time>2026-04-26T08:10:10Z</time></trkpt><trkpt lat="43.4080692094452" lon="13.175292600934721"><ele>389.0</ele><time>2026-04-26T08:10:11Z</time></trkpt><trkpt lat="43.40811127590642" lon="13.17512469047078"><ele>390.0</ele><time>2026-04-26T08:10:12Z</time></trkpt><trkpt lat="43.40814455870649" lon="13.174945855178791"><ele>391.0</ele><time>2026-04-26T08:10:13Z</time></trkpt><trkpt lat="43.40815703886925" lon="13.174777698076491"><ele>392.0</ele><time>2026-04-26T08:10:14Z</time></trkpt><trkpt lat="43.40820603078412" lon="13.174623119475783"><ele>393.0</ele><time>2026-04-26T08:10:15Z</time></trkpt><trkpt lat="43.40824936049626" lon="13.174464752860487"><ele>393.0</ele><time>2026-04-26T08:10:16Z</time></trkpt><trkpt lat="43.40827187489336" lon="13.174314880760678"><ele>393.0</ele><time>2026-04-26T08:10:17Z</time></trkpt><trkpt lat="43.40824284472241" lon="13.174160646333734"><ele>393.0</ele><time>2026-04-26T08:10:18Z</time></trkpt><trkpt lat="43.4082151932202" lon="13.174053076195472"><ele>393.0</ele><time>2026-04-26T08:10:19Z</time></trkpt><trkpt lat="43.40818691444663" lon="13.17390346045736"><ele>393.0</ele><time>2026-04-26T08:10:21Z</time></trkpt><trkpt lat="43.40817567904787" lon="13.173803744796903"><ele>394.0</ele><time>2026-04-26T08:10:22Z</time></trkpt><trkpt lat="43.40816164369347" lon="13.17365659569757"><ele>395.0</ele><time>2026-04-26T08:10:23Z</time></trkpt><trkpt lat="43.40814857246943" lon="13.173499911441395"><ele>396.0</ele><time>2026-04-26T08:10:24Z</time></trkpt><trkpt lat="43.40813723419913" lon="13.173322923058647"><ele>397.0</ele><time>2026-04-26T08:10:25Z</time></trkpt><trkpt lat="43.40812459613622" lon="13.173122493418294"><ele>399.25</ele><time>2026-04-26T08:10:26Z</time></trkpt><trkpt lat="43.408110400180654" lon="13.172934710635769"><ele>401.5</ele><time>2026-04-26T08:10:27Z</time></trkpt><trkpt lat="43.40809999144522" lon="13.172744368470578"><ele>403.75</ele><time>2026-04-26T08:10:28Z</time></trkpt><trkpt lat="43.408091506258636" lon="13.172559587248367"><ele>406.0</ele><time>2026-04-26T08:10:29Z</time></trkpt><trkpt lat="43.40808517031654" lon="13.172379279341788"><ele>408.0</ele><time>2026-04-26T08:10:30Z</time></trkpt><trkpt lat="43.40807993101326" lon="13.172201614266157"><ele>410.0</ele><time>2026-04-26T08:10:31Z</time></trkpt><trkpt lat="43.40807592416572" lon="13.172030544890257"><ele>412.0</ele><time>2026-04-26T08:10:32Z</time></trkpt><trkpt lat="43.40807949313327" lon="13.171865851995411"><ele>414.0</ele><time>2026-04-26T08:10:33Z</time></trkpt><trkpt lat="43.40811929477942" lon="13.171726478201398"><ele>414.0</ele><time>2026-04-26T08:10:34Z</time></trkpt><trkpt lat="43.40817769584274" lon="13.171577616287193"><ele>414.0</ele><time>2026-04-26T08:10:35Z</time></trkpt><trkpt lat="43.40822781141123" lon="13.171441993586662"><ele>414.0</ele><time>2026-04-26T08:10:36Z</time></trkpt><trkpt lat="43.408273616253105" lon="13.171318036297764"><ele>414.0</ele><time>2026-04-26T08:10:37Z</time></trkpt><trkpt lat="43.40829991109735" lon="13.171219266896316"><ele>414.0</ele><time>2026-04-26T08:10:38Z</time></trkpt><trkpt lat="43.40827182025249" lon="13.171023164854846"><ele>415.4</ele><time>2026-04-26T08:10:40Z</time></trkpt><trkpt lat="43.40817140349837" lon="13.170957481571417"><ele>416.79999999999995</ele><time>2026-04-26T08:10:41Z</time></trkpt><trkpt lat="43.40808663364893" lon="13.170887542035222"><ele>418.20000000000005</ele><time>2026-04-26T08:10:42Z</time></trkpt><trkpt lat="43.408000243248146" lon="13.170797605504832"><ele>419.6</ele><time>2026-04-26T08:10:43Z</time></trkpt><trkpt lat="43.40790262285519" lon="13.170717892135269"><ele>421.0</ele><time>2026-04-26T08:10:44Z</time></trkpt><trkpt lat="43.40778963081857" lon="13.170647122821684"><ele>427.75</ele><time>2026-04-26T08:10:45Z</time></trkpt><trkpt lat="43.40768535955534" lon="13.17052875513768"><ele>434.5</ele><time>2026-04-26T08:10:46Z</time></trkpt><trkpt lat="43.40758479854199" lon="13.170439642367947"><ele>441.25</ele><time>2026-04-26T08:10:47Z</time></trkpt><trkpt lat="43.40749195480325" lon="13.170361034766106"><ele>448.0</ele><time>2026-04-26T08:10:48Z</time></trkpt><trkpt lat="43.40739380000251" lon="13.170281222835023"><ele>448.0</ele><time>2026-04-26T08:10:49Z</time></trkpt><trkpt lat="43.4073223542418" lon="13.17021458139383"><ele>447.99999999999994</ele><time>2026-04-26T08:10:50Z</time></trkpt><trkpt lat="43.407269464855545" lon="13.170158186717169"><ele>447.99999999999994</ele><time>2026-04-26T08:10:51Z</time></trkpt><trkpt lat="43.407213834453145" lon="13.17002274468794"><ele>448.0</ele><time>2026-04-26T08:10:53Z</time></trkpt><trkpt lat="43.40723333140758" lon="13.169929344638026"><ele>448.0</ele><time>2026-04-26T08:10:54Z</time></trkpt><trkpt lat="43.40736610459947" lon="13.169841491954084"><ele>450.00000000000006</ele><time>2026-04-26T08:10:56Z</time></trkpt><trkpt lat="43.407448731094036" lon="13.169785834607053"><ele>452.0</ele><time>2026-04-26T08:10:57Z</time></trkpt><trkpt lat="43.40752581899726" lon="13.169709897560317"><ele>454.0</ele><time>2026-04-26T08:10:58Z</time></trkpt><trkpt lat="43.40760975202111" lon="13.169660000969806"><ele>456.0</ele><time>2026-04-26T08:10:59Z</time></trkpt><trkpt lat="43.40766336360496" lon="13.169572376393685"><ele>458.00000000000006</ele><time>2026-04-26T08:11:00Z</time></trkpt><trkpt lat="43.40770504284118" lon="13.169475945371659"><ele>460.0</ele><time>2026-04-26T08:11:01Z</time></trkpt><trkpt lat="43.407752392144126" lon="13.16936932007765"><ele>460.0</ele><time>2026-04-26T08:11:02Z</time></trkpt><trkpt lat="43.40779845268307" lon="13.169247638643835"><ele>460.0</ele><time>2026-04-26T08:11:03Z</time></trkpt><trkpt lat="43.40784558732636" lon="13.169108786173487"><ele>460.0</ele><time>2026-04-26T08:11:04Z</time></trkpt><trkpt lat="43.407889129223" lon="13.168966225011559"><ele>460.0</ele><time>2026-04-26T08:11:05Z</time></trkpt><trkpt lat="43.40792032920251" lon="13.168840850169024"><ele>460.0</ele><time>2026-04-26T08:11:06Z</time></trkpt><trkpt lat="43.40795243098845" lon="13.168711123752647"><ele>460.4</ele><time>2026-04-26T08:11:07Z</time></trkpt><trkpt lat="43.407987706454065" lon="13.168594144635598"><ele>460.8</ele><time>2026-04-26T08:11:08Z</time></trkpt><trkpt lat="43.40803194096728" lon="13.168483661406105"><ele>461.20000000000005</ele><time>2026-04-26T08:11:09Z</time></trkpt><trkpt lat="43.408082655671976" lon="13.168373825771914"><ele>461.6</ele><time>2026-04-26T08:11:10Z</time></trkpt><trkpt lat="43.40813710198421" lon="13.168260443699094"><ele>462.0</ele><time>2026-04-26T08:11:11Z</time></trkpt><trkpt lat="43.408178821272976" lon="13.168135335396148"><ele>463.25</ele><time>2026-04-26T08:11:12Z</time></trkpt><trkpt lat="43.40822856401921" lon="13.16801408722687"><ele>464.5</ele><time>2026-04-26T08:11:13Z</time></trkpt><trkpt lat="43.40828675389923" lon="13.167891567828145"><ele>465.75</ele><time>2026-04-26T08:11:14Z</time></trkpt><trkpt lat="43.40834130424751" lon="13.167748024541625"><ele>467.0</ele><time>2026-04-26T08:11:15Z</time></trkpt><trkpt lat="43.40840782744226" lon="13.167592176121236"><ele>467.0</ele><time>2026-04-26T08:11:16Z</time></trkpt><trkpt lat="43.408466061314165" lon="13.167411010534991"><ele>467.0</ele><time>2026-04-26T08:11:17Z</time></trkpt><trkpt lat="43.40855195543081" lon="13.167231429687039"><ele>467.0</ele><time>2026-04-26T08:11:18Z</time></trkpt><trkpt lat="43.408646705340324" lon="13.16704795170861"><ele>466.66666666666663</ele><time>2026-04-26T08:11:19Z</time></trkpt><trkpt lat="43.408726946373505" lon="13.166859095034512"><ele>466.33333333333337</ele><time>2026-04-26T08:11:20Z</time></trkpt><trkpt lat="43.40881060290168" lon="13.166686582527374"><ele>466.0</ele><time>2026-04-26T08:11:21Z</time></trkpt><trkpt lat="43.40888988382896" lon="13.166525912906456"><ele>467.25</ele><time>2026-04-26T08:11:22Z</time></trkpt><trkpt lat="43.408956799281114" lon="13.16637568647091"><ele>468.5</ele><time>2026-04-26T08:11:23Z</time></trkpt><trkpt lat="43.40902046164801" lon="13.166221584203285"><ele>469.75</ele><time>2026-04-26T08:11:24Z</time></trkpt><trkpt lat="43.409098343252424" lon="13.166082273131071"><ele>471.0</ele><time>2026-04-26T08:11:25Z</time></trkpt><trkpt lat="43.40916830161449" lon="13.165916278018663"><ele>471.0</ele><time>2026-04-26T08:11:26Z</time></trkpt><trkpt lat="43.40924117364844" lon="13.165761821520451"><ele>471.0</ele><time>2026-04-26T08:11:27Z</time></trkpt><trkpt lat="43.409331691196236" lon="13.165610417769477"><ele>471.0</ele><time>2026-04-26T08:11:28Z</time></trkpt><trkpt lat="43.40940714366" lon="13.165453060615013"><ele>471.0</ele><time>2026-04-26T08:11:29Z</time></trkpt><trkpt lat="43.409461538398915" lon="13.165300109731124"><ele>471.0</ele><time>2026-04-26T08:11:30Z</time></trkpt><trkpt lat="43.40952834255429" lon="13.165181937759936"><ele>471.0</ele><time>2026-04-26T08:11:31Z</time></trkpt><trkpt lat="43.40957273681083" lon="13.165053342782764"><ele>471.0</ele><time>2026-04-26T08:11:32Z</time></trkpt><trkpt lat="43.409588602859124" lon="13.16492024906678"><ele>471.0</ele><time>2026-04-26T08:11:33Z</time></trkpt><trkpt lat="43.40961657554844" lon="13.164757793598753"><ele>471.0</ele><time>2026-04-26T08:11:34Z</time></trkpt><trkpt lat="43.40961646913413" lon="13.164562122192335"><ele>471.8</ele><time>2026-04-26T08:11:35Z</time></trkpt><trkpt lat="43.40961216172872" lon="13.164373884891276"><ele>472.6</ele><time>2026-04-26T08:11:36Z</time></trkpt><trkpt lat="43.409604950271415" lon="13.164214111326707"><ele>473.4</ele><time>2026-04-26T08:11:37Z</time></trkpt><trkpt lat="43.409616263336204" lon="13.164073900672156"><ele>474.2</ele><time>2026-04-26T08:11:38Z</time></trkpt><trkpt lat="43.40962569814192" lon="13.16396547544709"><ele>475.0</ele><time>2026-04-26T08:11:39Z</time></trkpt><trkpt lat="43.40968512061196" lon="13.163889928672662"><ele>479.25</ele><time>2026-04-26T08:11:40Z</time></trkpt><trkpt lat="43.40976250442557" lon="13.16373983443431"><ele>483.5</ele><time>2026-04-26T08:11:41Z</time></trkpt><trkpt lat="43.40984032877473" lon="13.16362086199499"><ele>487.75</ele><time>2026-04-26T08:11:42Z</time></trkpt><trkpt lat="43.409931111412796" lon="13.163504268043056"><ele>492.0</ele><time>2026-04-26T08:11:43Z</time></trkpt><trkpt lat="43.41001731025586" lon="13.163359377414755"><ele>492.0</ele><time>2026-04-26T08:11:44Z</time></trkpt><trkpt lat="43.41012294437398" lon="13.163215460517726"><ele>492.0</ele><time>2026-04-26T08:11:45Z</time></trkpt><trkpt lat="43.410231131073594" lon="13.163065873716587"><ele>492.0</ele><time>2026-04-26T08:11:46Z</time></trkpt><trkpt lat="43.41031802244099" lon="13.162897841654692"><ele>492.25</ele><time>2026-04-26T08:11:47Z</time></trkpt><trkpt lat="43.41040417830916" lon="13.162738580802209"><ele>492.5</ele><time>2026-04-26T08:11:48Z</time></trkpt><trkpt lat="43.41048635592628" lon="13.162589288922403"><ele>492.75</ele><time>2026-04-26T08:11:49Z</time></trkpt><trkpt lat="43.41054732018925" lon="13.162464396546357"><ele>493.0</ele><time>2026-04-26T08:11:50Z</time></trkpt><trkpt lat="43.41059881865915" lon="13.162339777712422"><ele>493.0</ele><time>2026-04-26T08:11:51Z</time></trkpt><trkpt lat="43.41064542751833" lon="13.162206373756474"><ele>493.0</ele><time>2026-04-26T08:11:52Z</time></trkpt><trkpt lat="43.41069320917519" lon="13.162056892869957"><ele>493.0</ele><time>2026-04-26T08:11:53Z</time></trkpt><trkpt lat="43.410737093613285" lon="13.16189685219158"><ele>493.0</ele><time>2026-04-26T08:11:54Z</time></trkpt><trkpt lat="43.41075234656029" lon="13.161685529308428"><ele>493.0</ele><time>2026-04-26T08:11:55Z</time></trkpt><trkpt lat="43.410762048385735" lon="13.16148501766302"><ele>493.0</ele><time>2026-04-26T08:11:56Z</time></trkpt><trkpt lat="43.41078908991419" lon="13.161294165202758"><ele>493.0</ele><time>2026-04-26T08:11:57Z</time></trkpt><trkpt lat="43.41080800362423" lon="13.161155125340763"><ele>493.0</ele><time>2026-04-26T08:11:58Z</time></trkpt><trkpt lat="43.410846250746886" lon="13.161013089179548"><ele>493.0</ele><time>2026-04-26T08:11:59Z</time></trkpt><trkpt lat="43.41090361149649" lon="13.160891845681252"><ele>493.0</ele><time>2026-04-26T08:12:00Z</time></trkpt><trkpt lat="43.41097074208173" lon="13.160749027969977"><ele>493.0</ele><time>2026-04-26T08:12:01Z</time></trkpt><trkpt lat="43.4110343334932" lon="13.160591043549456"><ele>493.0</ele><time>2026-04-26T08:12:02Z</time></trkpt><trkpt lat="43.41109165925244" lon="13.160427891785721"><ele>493.4</ele><time>2026-04-26T08:12:03Z</time></trkpt><trkpt lat="43.41114282559329" lon="13.160272617725914"><ele>493.79999999999995</ele><time>2026-04-26T08:12:04Z</time></trkpt><trkpt lat="43.411187762246605" lon="13.160131441857576"><ele>494.2</ele><time>2026-04-26T08:12:05Z</time></trkpt><trkpt lat="43.41120298066925" lon="13.159991967940146"><ele>494.6</ele><time>2026-04-26T08:12:06Z</time></trkpt><trkpt lat="43.411162564918406" lon="13.159849453981332"><ele>495.0</ele><time>2026-04-26T08:12:07Z</time></trkpt><trkpt lat="43.411111413471644" lon="13.159717594776922"><ele>497.0</ele><time>2026-04-26T08:12:08Z</time></trkpt><trkpt lat="43.41105447050789" lon="13.159577723936158"><ele>499.0</ele><time>2026-04-26T08:12:09Z</time></trkpt><trkpt lat="43.410978017485995" lon="13.159454947689252"><ele>501.0</ele><time>2026-04-26T08:12:10Z</time></trkpt><trkpt lat="43.41089099324385" lon="13.15933363478732"><ele>503.0</ele><time>2026-04-26T08:12:11Z</time></trkpt><trkpt lat="43.41080470437788" lon="13.159222843056497"><ele>502.99999999999994</ele><time>2026-04-26T08:12:12Z</time></trkpt><trkpt lat="43.41073150766031" lon="13.159125221635186"><ele>503.0</ele><time>2026-04-26T08:12:13Z</time></trkpt><trkpt lat="43.41066117870963" lon="13.159045894207258"><ele>503.0</ele><time>2026-04-26T08:12:14Z</time></trkpt><trkpt lat="43.41061231510717" lon="13.158954066178918"><ele>503.0</ele><time>2026-04-26T08:12:15Z</time></trkpt><trkpt lat="43.41056804196952" lon="13.158870331307973"><ele>502.99999999999994</ele><time>2026-04-26T08:12:16Z</time></trkpt><trkpt lat="43.41053732872663" lon="13.158765820348497"><ele>503.0</ele><time>2026-04-26T08:12:17Z</time></trkpt><trkpt lat="43.41053616607145" lon="13.158648569349975"><ele>503.0</ele><time>2026-04-26T08:12:18Z</time></trkpt><trkpt lat="43.41059834644481" lon="13.158545584665296"><ele>502.99999999999994</ele><time>2026-04-26T08:12:19Z</time></trkpt><trkpt lat="43.41065909036965" lon="13.158441276566228"><ele>502.99999999999994</ele><time>2026-04-26T08:12:20Z</time></trkpt><trkpt lat="43.4107100916781" lon="13.158325119728882"><ele>503.0</ele><time>2026-04-26T08:12:21Z</time></trkpt><trkpt lat="43.41076932701543" lon="13.158225026099766"><ele>503.0</ele><time>2026-04-26T08:12:22Z</time></trkpt><trkpt lat="43.41082455637992" lon="13.158135467833894"><ele>501.0</ele><time>2026-04-26T08:12:23Z</time></trkpt><trkpt lat="43.41087834129988" lon="13.158056207137234"><ele>498.99999999999994</ele><time>2026-04-26T08:12:24Z</time></trkpt><trkpt lat="43.41092182392625" lon="13.157987417879147"><ele>496.99999999999994</ele><time>2026-04-26T08:12:25Z</time></trkpt><trkpt lat="43.41096089021657" lon="13.157885249878571"><ele>495.0</ele><time>2026-04-26T08:12:27Z</time></trkpt><trkpt lat="43.410897436363875" lon="13.157735529768074"><ele>493.0</ele><time>2026-04-26T08:12:29Z</time></trkpt><trkpt lat="43.41079200952805" lon="13.157719308647197"><ele>493.0</ele><time>2026-04-26T08:12:30Z</time></trkpt><trkpt lat="43.410685391282136" lon="13.157723509677071"><ele>492.99999999999994</ele><time>2026-04-26T08:12:31Z</time></trkpt><trkpt lat="43.41058099029143" lon="13.157730237040777"><ele>492.99999999999994</ele><time>2026-04-26T08:12:32Z</time></trkpt><trkpt lat="43.410469679732444" lon="13.157710217163597"><ele>493.0</ele><time>2026-04-26T08:12:33Z</time></trkpt><trkpt lat="43.41037848762127" lon="13.157639643446105"><ele>493.0</ele><time>2026-04-26T08:12:34Z</time></trkpt><trkpt lat="43.41025539717761" lon="13.157546018020701"><ele>493.0</ele><time>2026-04-26T08:12:35Z</time></trkpt><trkpt lat="43.41012441566286" lon="13.157441341908829"><ele>493.0</ele><time>2026-04-26T08:12:36Z</time></trkpt><trkpt lat="43.409986659446396" lon="13.157327823285792"><ele>493.0</ele><time>2026-04-26T08:12:37Z</time></trkpt><trkpt lat="43.40984763188614" lon="13.1572048114759"><ele>491.33333333333337</ele><time>2026-04-26T08:12:38Z</time></trkpt><trkpt lat="43.40971647816927" lon="13.157076190655902"><ele>489.66666666666663</ele><time>2026-04-26T08:12:39Z</time></trkpt><trkpt lat="43.409585311266234" lon="13.15694223857087"><ele>488.0</ele><time>2026-04-26T08:12:40Z</time></trkpt><trkpt lat="43.40945228686136" lon="13.156813781098082"><ele>488.0</ele><time>2026-04-26T08:12:41Z</time></trkpt><trkpt lat="43.409319055776365" lon="13.156678003630645"><ele>488.0</ele><time>2026-04-26T08:12:42Z</time></trkpt><trkpt lat="43.40919264971066" lon="13.156547649088814"><ele>488.0</ele><time>2026-04-26T08:12:43Z</time></trkpt><trkpt lat="43.409075958298565" lon="13.156420638472099"><ele>487.5</ele><time>2026-04-26T08:12:44Z</time></trkpt><trkpt lat="43.408979802427105" lon="13.156325169691545"><ele>487.0</ele><time>2026-04-26T08:12:45Z</time></trkpt><trkpt lat="43.408874218598356" lon="13.156184430331626"><ele>486.5</ele><time>2026-04-26T08:12:46Z</time></trkpt><trkpt lat="43.4087706043774" lon="13.156076810992612"><ele>486.0</ele><time>2026-04-26T08:12:47Z</time></trkpt><trkpt lat="43.40865885629596" lon="13.156005637399067"><ele>487.25</ele><time>2026-04-26T08:12:48Z</time></trkpt><trkpt lat="43.40855647693842" lon="13.15589878334042"><ele>488.5</ele><time>2026-04-26T08:12:49Z</time></trkpt><trkpt lat="43.40845935714996" lon="13.155832377660273"><ele>489.75</ele><time>2026-04-26T08:12:50Z</time></trkpt><trkpt lat="43.40835234297331" lon="13.15572924372686"><ele>491.0</ele><time>2026-04-26T08:12:51Z</time></trkpt><trkpt lat="43.40825308576728" lon="13.15565068339042"><ele>491.20000000000005</ele><time>2026-04-26T08:12:52Z</time></trkpt><trkpt lat="43.40816989410469" lon="13.155567279406144"><ele>491.40000000000003</ele><time>2026-04-26T08:12:53Z</time></trkpt><trkpt lat="43.40810589237556" lon="13.15547203666445"><ele>491.6</ele><time>2026-04-26T08:12:54Z</time></trkpt><trkpt lat="43.408050778185824" lon="13.15536059899993"><ele>491.8</ele><time>2026-04-26T08:12:55Z</time></trkpt><trkpt lat="43.40800375005752" lon="13.155230422750904"><ele>492.0</ele><time>2026-04-26T08:12:56Z</time></trkpt><trkpt lat="43.40795077084671" lon="13.155095728516114"><ele>491.0</ele><time>2026-04-26T08:12:57Z</time></trkpt><trkpt lat="43.40789680546281" lon="13.154959114934544"><ele>490.0</ele><time>2026-04-26T08:12:58Z</time></trkpt><trkpt lat="43.40783814706126" lon="13.154813575414769"><ele>489.0</ele><time>2026-04-26T08:12:59Z</time></trkpt><trkpt lat="43.40776730555274" lon="13.154688507320136"><ele>488.0</ele><time>2026-04-26T08:13:00Z</time></trkpt><trkpt lat="43.4077046682746" lon="13.154544010410977"><ele>490.0</ele><time>2026-04-26T08:13:01Z</time></trkpt><trkpt lat="43.40764514461242" lon="13.154406537384283"><ele>492.0</ele><time>2026-04-26T08:13:02Z</time></trkpt><trkpt lat="43.40758958598075" lon="13.154266425811501"><ele>494.0</ele><time>2026-04-26T08:13:03Z</time></trkpt><trkpt lat="43.40753910887522" lon="13.154128029656883"><ele>496.0</ele><time>2026-04-26T08:13:04Z</time></trkpt><trkpt lat="43.40746746043603" lon="13.153998593887833"><ele>497.4</ele><time>2026-04-26T08:13:05Z</time></trkpt><trkpt lat="43.40742074666531" lon="13.153852124413316"><ele>498.8</ele><time>2026-04-26T08:13:06Z</time></trkpt><trkpt lat="43.407370058342316" lon="13.153729066293444"><ele>500.19999999999993</ele><time>2026-04-26T08:13:07.001Z</time></trkpt><trkpt lat="43.407322148849154" lon="13.153598529194834"><ele>501.59999999999997</ele><time>2026-04-26T08:13:08.001Z</time></trkpt><trkpt lat="43.407277610103506" lon="13.153471529701534"><ele>503.0</ele><time>2026-04-26T08:13:09.001Z</time></trkpt><trkpt lat="43.40723580929674" lon="13.153338776699101"><ele>503.0</ele><time>2026-04-26T08:13:10.001Z</time></trkpt><trkpt lat="43.407185707039766" lon="13.153216917001274"><ele>502.99999999999994</ele><time>2026-04-26T08:13:11.001Z</time></trkpt><trkpt lat="43.40717001111315" lon="13.153071940951946"><ele>502.99999999999994</ele><time>2026-04-26T08:13:12.001Z</time></trkpt><trkpt lat="43.40713677616971" lon="13.152917200385598"><ele>503.0</ele><time>2026-04-26T08:13:13.001Z</time></trkpt><trkpt lat="43.40710630055877" lon="13.152775307063958"><ele>503.0</ele><time>2026-04-26T08:13:14.001Z</time></trkpt><trkpt lat="43.40706804543953" lon="13.152597263669106"><ele>503.25</ele><time>2026-04-26T08:13:15.001Z</time></trkpt><trkpt lat="43.40703910254992" lon="13.152409375392129"><ele>503.5</ele><time>2026-04-26T08:13:16.001Z</time></trkpt><trkpt lat="43.40699297984242" lon="13.152247917398736"><ele>503.75</ele><time>2026-04-26T08:13:17.001Z</time></trkpt><trkpt lat="43.40695998328007" lon="13.152088731116331"><ele>504.0</ele><time>2026-04-26T08:13:18.001Z</time></trkpt><trkpt lat="43.406917504594134" lon="13.151925286938425"><ele>506.5</ele><time>2026-04-26T08:13:19.001Z</time></trkpt><trkpt lat="43.40688198771561" lon="13.151759456426241"><ele>509.0</ele><time>2026-04-26T08:13:20.001Z</time></trkpt><trkpt lat="43.406846267419226" lon="13.151607026796654"><ele>511.5</ele><time>2026-04-26T08:13:21.001Z</time></trkpt><trkpt lat="43.40678530159918" lon="13.151479222863012"><ele>514.0</ele><time>2026-04-26T08:13:22.001Z</time></trkpt><trkpt lat="43.40670277317558" lon="13.151335010880995"><ele>516.25</ele><time>2026-04-26T08:13:23.001Z</time></trkpt><trkpt lat="43.406619520327745" lon="13.151176640889906"><ele>518.5</ele><time>2026-04-26T08:13:24.001Z</time></trkpt><trkpt lat="43.406546916004636" lon="13.150993669913463"><ele>520.75</ele><time>2026-04-26T08:13:25.001Z</time></trkpt><trkpt lat="43.406459647347944" lon="13.150849213985406"><ele>523.0</ele><time>2026-04-26T08:13:26.001Z</time></trkpt><trkpt lat="43.406370917306845" lon="13.150697366785037"><ele>524.25</ele><time>2026-04-26T08:13:27.001Z</time></trkpt><trkpt lat="43.40629150418888" lon="13.150561212795683"><ele>525.5</ele><time>2026-04-26T08:13:28.001Z</time></trkpt><trkpt lat="43.40623588770215" lon="13.150411870123234"><ele>526.75</ele><time>2026-04-26T08:13:29Z</time></trkpt><trkpt lat="43.406176687680315" lon="13.150289975043904"><ele>528.0</ele><time>2026-04-26T08:13:30Z</time></trkpt><trkpt lat="43.406152949812416" lon="13.150131438500221"><ele>528.0</ele><time>2026-04-26T08:13:31Z</time></trkpt><trkpt lat="43.406147863027385" lon="13.149956307737355"><ele>528.0</ele><time>2026-04-26T08:13:32Z</time></trkpt><trkpt lat="43.4061490329516" lon="13.149782131888818"><ele>528.0</ele><time>2026-04-26T08:13:33Z</time></trkpt><trkpt lat="43.40613411234328" lon="13.149610777513296"><ele>528.0</ele><time>2026-04-26T08:13:34Z</time></trkpt><trkpt lat="43.406099315129325" lon="13.14942291115935"><ele>530.4</ele><time>2026-04-26T08:13:35Z</time></trkpt><trkpt lat="43.40605975904758" lon="13.149263605046563"><ele>532.8</ele><time>2026-04-26T08:13:36Z</time></trkpt><trkpt lat="43.406028087332075" lon="13.1491339705714"><ele>535.2</ele><time>2026-04-26T08:13:37Z</time></trkpt><trkpt lat="43.40600931031348" lon="13.149016879436447"><ele>537.6</ele><time>2026-04-26T08:13:38Z</time></trkpt><trkpt lat="43.40601468216633" lon="13.148894520643864"><ele>540.0</ele><time>2026-04-26T08:13:39Z</time></trkpt><trkpt lat="43.40599542052296" lon="13.14876668756745"><ele>541.3333333333334</ele><time>2026-04-26T08:13:40Z</time></trkpt><trkpt lat="43.40600259960877" lon="13.148667432940648"><ele>542.6666666666666</ele><time>2026-04-26T08:13:41Z</time></trkpt><trkpt lat="43.40602553751562" lon="13.148582600216898"><ele>544.0</ele><time>2026-04-26T08:13:42Z</time></trkpt><trkpt lat="43.40610692719351" lon="13.148434717796619"><ele>545.3333333333333</ele><time>2026-04-26T08:13:44Z</time></trkpt><trkpt lat="43.40612906512036" lon="13.148338670779058"><ele>546.6666666666666</ele><time>2026-04-26T08:13:45Z</time></trkpt><trkpt lat="43.406127570542616" lon="13.14823506182891"><ele>548.0</ele><time>2026-04-26T08:13:46Z</time></trkpt><trkpt lat="43.40609954813632" lon="13.148125014710164"><ele>548.0</ele><time>2026-04-26T08:13:47Z</time></trkpt><trkpt lat="43.406063495327366" lon="13.148002313793276"><ele>548.0</ele><time>2026-04-26T08:13:48Z</time></trkpt><trkpt lat="43.406029625440105" lon="13.147875163515618"><ele>548.0</ele><time>2026-04-26T08:13:49Z</time></trkpt><trkpt lat="43.405977047850385" lon="13.147761679696025"><ele>548.0</ele><time>2026-04-26T08:13:50Z</time></trkpt><trkpt lat="43.405919275380526" lon="13.14764250647077"><ele>548.0</ele><time>2026-04-26T08:13:51Z</time></trkpt><trkpt lat="43.405844734307514" lon="13.147540100049076"><ele>548.0</ele><time>2026-04-26T08:13:52Z</time></trkpt><trkpt lat="43.405770023189355" lon="13.147438842367936"><ele>548.0</ele><time>2026-04-26T08:13:53Z</time></trkpt><trkpt lat="43.405679249925036" lon="13.147343255081317"><ele>548.0</ele><time>2026-04-26T08:13:54Z</time></trkpt><trkpt lat="43.40559940702095" lon="13.147277464879616"><ele>548.0</ele><time>2026-04-26T08:13:55Z</time></trkpt><trkpt lat="43.40552457974743" lon="13.147200237175081"><ele>548.0</ele><time>2026-04-26T08:13:56Z</time></trkpt><trkpt lat="43.40544758569486" lon="13.147174392387551"><ele>548.0</ele><time>2026-04-26T08:13:57Z</time></trkpt><trkpt lat="43.405373382422326" lon="13.147131924666644"><ele>548.0</ele><time>2026-04-26T08:13:59Z</time></trkpt><trkpt lat="43.40543771863187" lon="13.14716661755701"><ele>548.0</ele><time>2026-04-26T08:14:06Z</time></trkpt><trkpt lat="43.40552702195664" lon="13.147198019304504"><ele>548.0</ele><time>2026-04-26T08:14:07Z</time></trkpt><trkpt lat="43.405575022600196" lon="13.147274900104168"><ele>548.0</ele><time>2026-04-26T08:14:08Z</time></trkpt><trkpt lat="43.405649025408664" lon="13.14732689672559"><ele>548.0</ele><time>2026-04-26T08:14:09Z</time></trkpt><trkpt lat="43.405725718471395" lon="13.147413363807665"><ele>548.0</ele><time>2026-04-26T08:14:10Z</time></trkpt><trkpt lat="43.4057927216054" lon="13.147514727960235"><ele>548.0</ele><time>2026-04-26T08:14:11Z</time></trkpt><trkpt lat="43.405853538848596" lon="13.147606038622094"><ele>548.0</ele><time>2026-04-26T08:14:12Z</time></trkpt><trkpt lat="43.40591001699534" lon="13.147682002656687"><ele>548.0</ele><time>2026-04-26T08:14:13Z</time></trkpt><trkpt lat="43.405958700791544" lon="13.147774273176706"><ele>548.0</ele><time>2026-04-26T08:14:14Z</time></trkpt><trkpt lat="43.40599792227403" lon="13.147867412641688"><ele>548.0</ele><time>2026-04-26T08:14:15Z</time></trkpt><trkpt lat="43.406032661359646" lon="13.147964655296875"><ele>548.0</ele><time>2026-04-26T08:14:16Z</time></trkpt><trkpt lat="43.40605915716955" lon="13.148078076055347"><ele>548.0</ele><time>2026-04-26T08:14:17Z</time></trkpt><trkpt lat="43.406073677994264" lon="13.14818846960039"><ele>548.0</ele><time>2026-04-26T08:14:18Z</time></trkpt><trkpt lat="43.40609405205931" lon="13.148286365045186"><ele>548.0</ele><time>2026-04-26T08:14:19Z</time></trkpt><trkpt lat="43.406111875896386" lon="13.14837118491362"><ele>548.0</ele><time>2026-04-26T08:14:20Z</time></trkpt><trkpt lat="43.406117054769695" lon="13.148469637908565"><ele>548.0</ele><time>2026-04-26T08:14:21Z</time></trkpt><trkpt lat="43.40608182324164" lon="13.148560067954346"><ele>548.0</ele><time>2026-04-26T08:14:22Z</time></trkpt><trkpt lat="43.406028390872805" lon="13.148635580356029"><ele>548.0</ele><time>2026-04-26T08:14:23Z</time></trkpt><trkpt lat="43.40597973375249" lon="13.148807293147811"><ele>548.0</ele><time>2026-04-26T08:14:25Z</time></trkpt><trkpt lat="43.405987407077696" lon="13.148919461285315"><ele>548.0</ele><time>2026-04-26T08:14:26Z</time></trkpt><trkpt lat="43.40599795157823" lon="13.149035950635621"><ele>548.0</ele><time>2026-04-26T08:14:27Z</time></trkpt><trkpt lat="43.406007850681526" lon="13.149146900097353"><ele>546.4</ele><time>2026-04-26T08:14:28Z</time></trkpt><trkpt lat="43.406031174374014" lon="13.149258907336929"><ele>544.8</ele><time>2026-04-26T08:14:29Z</time></trkpt><trkpt lat="43.40607159139315" lon="13.149373036647402"><ele>543.2</ele><time>2026-04-26T08:14:30Z</time></trkpt><trkpt lat="43.406096088869674" lon="13.149506641341898"><ele>541.6</ele><time>2026-04-26T08:14:31Z</time></trkpt><trkpt lat="43.40612021014113" lon="13.149645387701884"><ele>540.0</ele><time>2026-04-26T08:14:32Z</time></trkpt><trkpt lat="43.40613813535928" lon="13.149795051630619"><ele>537.6</ele><time>2026-04-26T08:14:33Z</time></trkpt><trkpt lat="43.406138336352704" lon="13.14993683648821"><ele>535.2</ele><time>2026-04-26T08:14:34Z</time></trkpt><trkpt lat="43.40613547680273" lon="13.150074957312476"><ele>532.8</ele><time>2026-04-26T08:14:35Z</time></trkpt><trkpt lat="43.406143128248296" lon="13.15022256808413"><ele>530.4</ele><time>2026-04-26T08:14:36Z</time></trkpt><trkpt lat="43.40619151713549" lon="13.150356858943317"><ele>528.0</ele><time>2026-04-26T08:14:37Z</time></trkpt><trkpt lat="43.40625656548341" lon="13.15050912853162"><ele>528.5</ele><time>2026-04-26T08:14:38Z</time></trkpt><trkpt lat="43.40633954456335" lon="13.150657069932588"><ele>529.0</ele><time>2026-04-26T08:14:39Z</time></trkpt><trkpt lat="43.40641220537567" lon="13.150814959044796"><ele>529.5</ele><time>2026-04-26T08:14:40Z</time></trkpt><trkpt lat="43.40648899515718" lon="13.150951168071382"><ele>530.0</ele><time>2026-04-26T08:14:41Z</time></trkpt><trkpt lat="43.40655787889596" lon="13.151091949402861"><ele>528.25</ele><time>2026-04-26T08:14:42Z</time></trkpt><trkpt lat="43.4066260542897" lon="13.151239080197021"><ele>526.5</ele><time>2026-04-26T08:14:43Z</time></trkpt><trkpt lat="43.40669391795543" lon="13.151385942441827"><ele>524.75</ele><time>2026-04-26T08:14:44Z</time></trkpt><trkpt lat="43.40677773722688" lon="13.151528767691163"><ele>523.0</ele><time>2026-04-26T08:14:45Z</time></trkpt><trkpt lat="43.406841049906376" lon="13.15168311753251"><ele>520.75</ele><time>2026-04-26T08:14:46Z</time></trkpt><trkpt lat="43.40688138887828" lon="13.1518457690282"><ele>518.5</ele><time>2026-04-26T08:14:47Z</time></trkpt><trkpt lat="43.40692974241291" lon="13.152010739742776"><ele>516.25</ele><time>2026-04-26T08:14:48Z</time></trkpt><trkpt lat="43.406967767951315" lon="13.152191449478753"><ele>514.0</ele><time>2026-04-26T08:14:49Z</time></trkpt><trkpt lat="43.40699747662992" lon="13.152367504077054"><ele>511.5</ele><time>2026-04-26T08:14:50Z</time></trkpt><trkpt lat="43.407032956119515" lon="13.152540943904727"><ele>509.0</ele><time>2026-04-26T08:14:51Z</time></trkpt><trkpt lat="43.40706541410233" lon="13.152711685072981"><ele>506.5</ele><time>2026-04-26T08:14:52Z</time></trkpt><trkpt lat="43.40709107689262" lon="13.152871982015352"><ele>504.0</ele><time>2026-04-26T08:14:53Z</time></trkpt><trkpt lat="43.40712357774959" lon="13.153020376293123"><ele>503.75</ele><time>2026-04-26T08:14:54Z</time></trkpt><trkpt lat="43.40716526599407" lon="13.153188493088885"><ele>503.5</ele><time>2026-04-26T08:14:55Z</time></trkpt><trkpt lat="43.40721126654863" lon="13.153332915090777"><ele>503.25</ele><time>2026-04-26T08:14:56Z</time></trkpt><trkpt lat="43.40725378268643" lon="13.153471952514982"><ele>503.0</ele><time>2026-04-26T08:14:57Z</time></trkpt><trkpt lat="43.40730188896716" lon="13.153617054419003"><ele>503.0</ele><time>2026-04-26T08:14:58Z</time></trkpt><trkpt lat="43.40735071098089" lon="13.153758849992125"><ele>503.0</ele><time>2026-04-26T08:14:59Z</time></trkpt><trkpt lat="43.407408945305576" lon="13.15390217688374"><ele>503.0</ele><time>2026-04-26T08:15:00Z</time></trkpt><trkpt lat="43.4074631067096" lon="13.154042956123659"><ele>503.0</ele><time>2026-04-26T08:15:01Z</time></trkpt><trkpt lat="43.407519875028726" lon="13.154175659372669"><ele>501.25</ele><time>2026-04-26T08:15:02Z</time></trkpt><trkpt lat="43.407580163735744" lon="13.154318023526775"><ele>499.5</ele><time>2026-04-26T08:15:03Z</time></trkpt><trkpt lat="43.407641749507455" lon="13.15445707261373"><ele>497.75</ele><time>2026-04-26T08:15:04Z</time></trkpt><trkpt lat="43.40770711827125" lon="13.154603426415134"><ele>496.0</ele><time>2026-04-26T08:15:05Z</time></trkpt><trkpt lat="43.40777312186916" lon="13.154756229771408"><ele>495.0</ele><time>2026-04-26T08:15:06Z</time></trkpt><trkpt lat="43.40783596021433" lon="13.154902371763498"><ele>494.0</ele><time>2026-04-26T08:15:07Z</time></trkpt><trkpt lat="43.40789734984841" lon="13.155073504512227"><ele>493.0</ele><time>2026-04-26T08:15:08Z</time></trkpt><trkpt lat="43.40795710068979" lon="13.155230655747932"><ele>492.0</ele><time>2026-04-26T08:15:09Z</time></trkpt><trkpt lat="43.40801735091027" lon="13.155366963415748"><ele>492.0</ele><time>2026-04-26T08:15:10Z</time></trkpt><trkpt lat="43.408076289560114" lon="13.155495846206707"><ele>492.0</ele><time>2026-04-26T08:15:11Z</time></trkpt><trkpt lat="43.408153399572996" lon="13.155608447288289"><ele>492.0</ele><time>2026-04-26T08:15:12Z</time></trkpt><trkpt lat="43.40824723423124" lon="13.15570623744547"><ele>492.0</ele><time>2026-04-26T08:15:13.001Z</time></trkpt><trkpt lat="43.40835331627424" lon="13.155777370344227"><ele>491.75</ele><time>2026-04-26T08:15:14.001Z</time></trkpt><trkpt lat="43.40845818516464" lon="13.155851180634672"><ele>491.5</ele><time>2026-04-26T08:15:15.001Z</time></trkpt><trkpt lat="43.40856558227223" lon="13.155930816324004"><ele>491.25</ele><time>2026-04-26T08:15:16.001Z</time></trkpt><trkpt lat="43.40866152082425" lon="13.156018682318685"><ele>491.0</ele><time>2026-04-26T08:15:17.001Z</time></trkpt><trkpt lat="43.408773658617356" lon="13.156120584056337"><ele>490.25</ele><time>2026-04-26T08:15:18.001Z</time></trkpt><trkpt lat="43.408872575388784" lon="13.15624277770963"><ele>489.5</ele><time>2026-04-26T08:15:19.001Z</time></trkpt><trkpt lat="43.40897414040049" lon="13.156362580480582"><ele>488.75</ele><time>2026-04-26T08:15:20.001Z</time></trkpt><trkpt lat="43.40908247353613" lon="13.156467983948582"><ele>488.0</ele><time>2026-04-26T08:15:21.001Z</time></trkpt><trkpt lat="43.4091824568949" lon="13.156577744384888"><ele>488.0</ele><time>2026-04-26T08:15:22.001Z</time></trkpt><trkpt lat="43.40927826112484" lon="13.156706296032766"><ele>488.0</ele><time>2026-04-26T08:15:23.001Z</time></trkpt><trkpt lat="43.4093936303637" lon="13.156811767841749"><ele>488.0</ele><time>2026-04-26T08:15:24.001Z</time></trkpt><trkpt lat="43.409510694913116" lon="13.156922800070145"><ele>488.0</ele><time>2026-04-26T08:15:25.001Z</time></trkpt><trkpt lat="43.40962876827129" lon="13.157043504144278"><ele>487.3333333333333</ele><time>2026-04-26T08:15:26.001Z</time></trkpt><trkpt lat="43.40975041980473" lon="13.157167173251723"><ele>486.66666666666663</ele><time>2026-04-26T08:15:27.001Z</time></trkpt><trkpt lat="43.40988283387778" lon="13.157287087076636"><ele>486.0</ele><time>2026-04-26T08:15:28.001Z</time></trkpt><trkpt lat="43.41002010831046" lon="13.157407384456734"><ele>487.75</ele><time>2026-04-26T08:15:29.001Z</time></trkpt><trkpt lat="43.41015626632154" lon="13.15751906556696"><ele>489.5</ele><time>2026-04-26T08:15:30.001Z</time></trkpt><trkpt lat="43.410289547232004" lon="13.157614590532186"><ele>491.25</ele><time>2026-04-26T08:15:31.001Z</time></trkpt><trkpt lat="43.410406320136794" lon="13.157696478067985"><ele>493.0</ele><time>2026-04-26T08:15:32.001Z</time></trkpt><trkpt lat="43.41052248997436" lon="13.157760836933283"><ele>493.0</ele><time>2026-04-26T08:15:33Z</time></trkpt><trkpt lat="43.410637029813714" lon="13.157777012688202"><ele>492.99999999999994</ele><time>2026-04-26T08:15:34Z</time></trkpt><trkpt lat="43.410741895363934" lon="13.15775052880278"><ele>492.99999999999994</ele><time>2026-04-26T08:15:35Z</time></trkpt><trkpt lat="43.410833083474664" lon="13.15776587027106"><ele>493.0</ele><time>2026-04-26T08:15:36Z</time></trkpt><trkpt lat="43.410901519603975" lon="13.157776937571251"><ele>493.0</ele><time>2026-04-26T08:15:37Z</time></trkpt><trkpt lat="43.41093250936981" lon="13.157866641769983"><ele>493.0</ele><time>2026-04-26T08:15:38Z</time></trkpt><trkpt lat="43.41092564223135" lon="13.157969133317637"><ele>492.99999999999994</ele><time>2026-04-26T08:15:39Z</time></trkpt><trkpt lat="43.410853079385845" lon="13.158049629804822"><ele>492.99999999999994</ele><time>2026-04-26T08:15:40Z</time></trkpt><trkpt lat="43.410799505451415" lon="13.158165254173817"><ele>493.0</ele><time>2026-04-26T08:15:41Z</time></trkpt><trkpt lat="43.41072126347981" lon="13.158281279967058"><ele>493.0</ele><time>2026-04-26T08:15:42Z</time></trkpt><trkpt lat="43.41064487810158" lon="13.15839074456139"><ele>495.0</ele><time>2026-04-26T08:15:43Z</time></trkpt><trkpt lat="43.41057811836346" lon="13.158506831668836"><ele>496.99999999999994</ele><time>2026-04-26T08:15:44Z</time></trkpt><trkpt lat="43.41052833396672" lon="13.158616542615627"><ele>498.99999999999994</ele><time>2026-04-26T08:15:45Z</time></trkpt><trkpt lat="43.410507574105" lon="13.158730997147021"><ele>501.0</ele><time>2026-04-26T08:15:46Z</time></trkpt><trkpt lat="43.41051373527666" lon="13.15886286100318"><ele>503.0</ele><time>2026-04-26T08:15:47Z</time></trkpt><trkpt lat="43.410561911361164" lon="13.158984641870703"><ele>503.0</ele><time>2026-04-26T08:15:48Z</time></trkpt><trkpt lat="43.410646859547796" lon="13.159101430283776"><ele>503.0</ele><time>2026-04-26T08:15:49Z</time></trkpt><trkpt lat="43.410744032454176" lon="13.159220748906964"><ele>503.0</ele><time>2026-04-26T08:15:50Z</time></trkpt><trkpt lat="43.41084178332045" lon="13.15934706673671"><ele>503.0</ele><time>2026-04-26T08:15:51Z</time></trkpt><trkpt lat="43.410931764536" lon="13.159463427802914"><ele>503.0</ele><time>2026-04-26T08:15:52Z</time></trkpt><trkpt lat="43.41099560278738" lon="13.15956009190747"><ele>502.99999999999994</ele><time>2026-04-26T08:15:53Z</time></trkpt><trkpt lat="43.411048960398965" lon="13.159669325068311"><ele>502.99999999999994</ele><time>2026-04-26T08:15:54Z</time></trkpt><trkpt lat="43.41111118604616" lon="13.159785961417048"><ele>503.0</ele><time>2026-04-26T08:15:55Z</time></trkpt><trkpt lat="43.41115426437108" lon="13.159921263945426"><ele>503.0</ele><time>2026-04-26T08:15:56Z</time></trkpt><trkpt lat="43.41116875907035" lon="13.160058583149992"><ele>501.0</ele><time>2026-04-26T08:15:57Z</time></trkpt><trkpt lat="43.411141436973786" lon="13.16020549755674"><ele>499.0</ele><time>2026-04-26T08:15:58Z</time></trkpt><trkpt lat="43.41108873236621" lon="13.160342925294401"><ele>497.0</ele><time>2026-04-26T08:15:59Z</time></trkpt><trkpt lat="43.41103309374556" lon="13.160481480431736"><ele>495.0</ele><time>2026-04-26T08:16:00Z</time></trkpt><trkpt lat="43.41098361377701" lon="13.160632541679833"><ele>494.6</ele><time>2026-04-26T08:16:01Z</time></trkpt><trkpt lat="43.410923677657635" lon="13.160777189367806"><ele>494.2</ele><time>2026-04-26T08:16:02Z</time></trkpt><trkpt lat="43.41085680436377" lon="13.16090257238449"><ele>493.79999999999995</ele><time>2026-04-26T08:16:03Z</time></trkpt><trkpt lat="43.410805299881105" lon="13.161021679764872"><ele>493.4</ele><time>2026-04-26T08:16:04Z</time></trkpt><trkpt lat="43.410770492514985" lon="13.161146819425385"><ele>493.0</ele><time>2026-04-26T08:16:05Z</time></trkpt><trkpt lat="43.41075118579413" lon="13.161288838617295"><ele>493.0</ele><time>2026-04-26T08:16:06Z</time></trkpt><trkpt lat="43.41073899699689" lon="13.161456804383947"><ele>493.0</ele><time>2026-04-26T08:16:07Z</time></trkpt><trkpt lat="43.41072883183327" lon="13.161635293673273"><ele>493.0</ele><time>2026-04-26T08:16:08Z</time></trkpt><trkpt lat="43.41071499540147" lon="13.161809713361503"><ele>493.0</ele><time>2026-04-26T08:16:09Z</time></trkpt><trkpt lat="43.410694051881386" lon="13.161966394503068"><ele>493.0</ele><time>2026-04-26T08:16:10Z</time></trkpt><trkpt lat="43.41064906479118" lon="13.162137100670792"><ele>493.0</ele><time>2026-04-26T08:16:11Z</time></trkpt><trkpt lat="43.41059226668924" lon="13.162295319916106"><ele>493.0</ele><time>2026-04-26T08:16:12Z</time></trkpt><trkpt lat="43.41053321428436" lon="13.16245150229376"><ele>493.0</ele><time>2026-04-26T08:16:13Z</time></trkpt><trkpt lat="43.41045541815691" lon="13.162608772338137"><ele>492.25</ele><time>2026-04-26T08:16:14Z</time></trkpt><trkpt lat="43.410369278786376" lon="13.162771493088584"><ele>491.5</ele><time>2026-04-26T08:16:15Z</time></trkpt><trkpt lat="43.41028768752761" lon="13.162920446753558"><ele>490.75</ele><time>2026-04-26T08:16:16Z</time></trkpt><trkpt lat="43.41019753512703" lon="13.163062658492336"><ele>490.0</ele><time>2026-04-26T08:16:17Z</time></trkpt><trkpt lat="43.4101127003911" lon="13.163184201017474"><ele>490.5</ele><time>2026-04-26T08:16:18Z</time></trkpt><trkpt lat="43.41003181888204" lon="13.163311581974042"><ele>491.0</ele><time>2026-04-26T08:16:19Z</time></trkpt><trkpt lat="43.40994286077441" lon="13.163431554641821"><ele>491.5</ele><time>2026-04-26T08:16:20Z</time></trkpt><trkpt lat="43.40985312591739" lon="13.16354327272257"><ele>492.0</ele><time>2026-04-26T08:16:21Z</time></trkpt><trkpt lat="43.40978743020239" lon="13.163658841020979"><ele>492.0</ele><time>2026-04-26T08:16:22Z</time></trkpt><trkpt lat="43.409716494959405" lon="13.163768529224228"><ele>492.00000000000006</ele><time>2026-04-26T08:16:23Z</time></trkpt><trkpt lat="43.409657182571394" lon="13.16387958706413"><ele>492.00000000000006</ele><time>2026-04-26T08:16:24Z</time></trkpt><trkpt lat="43.4096103450289" lon="13.163980707911405"><ele>492.0</ele><time>2026-04-26T08:16:25Z</time></trkpt><trkpt lat="43.40957724895575" lon="13.164077589699353"><ele>492.0</ele><time>2026-04-26T08:16:26Z</time></trkpt><trkpt lat="43.40956179847057" lon="13.164194814977689"><ele>487.75</ele><time>2026-04-26T08:16:27Z</time></trkpt><trkpt lat="43.40957371631712" lon="13.16434176044818"><ele>483.5</ele><time>2026-04-26T08:16:28Z</time></trkpt><trkpt lat="43.409599965048784" lon="13.164507256450444"><ele>479.25</ele><time>2026-04-26T08:16:29Z</time></trkpt><trkpt lat="43.409580146994664" lon="13.16467135723077"><ele>475.0</ele><time>2026-04-26T08:16:30Z</time></trkpt><trkpt lat="43.40958202536649" lon="13.164831754267237"><ele>474.0</ele><time>2026-04-26T08:16:31Z</time></trkpt><trkpt lat="43.40955650205678" lon="13.164993364643818"><ele>473.0</ele><time>2026-04-26T08:16:32Z</time></trkpt><trkpt lat="43.409528499890364" lon="13.165137770998744"><ele>472.0</ele><time>2026-04-26T08:16:33Z</time></trkpt><trkpt lat="43.40945747454434" lon="13.165273074782206"><ele>471.0</ele><time>2026-04-26T08:16:34Z</time></trkpt><trkpt lat="43.409392820952014" lon="13.165438999347584"><ele>471.0</ele><time>2026-04-26T08:16:35Z</time></trkpt><trkpt lat="43.40929852581415" lon="13.16561575050319"><ele>471.0</ele><time>2026-04-26T08:16:36Z</time></trkpt><trkpt lat="43.40920960221856" lon="13.165804445476475"><ele>471.0</ele><time>2026-04-26T08:16:37Z</time></trkpt><trkpt lat="43.40913053550927" lon="13.16595960380158"><ele>471.0</ele><time>2026-04-26T08:16:38Z</time></trkpt><trkpt lat="43.40906285984259" lon="13.166106037330813"><ele>471.0</ele><time>2026-04-26T08:16:39Z</time></trkpt><trkpt lat="43.40899343368221" lon="13.166253989471494"><ele>471.0</ele><time>2026-04-26T08:16:40Z</time></trkpt><trkpt lat="43.40893322882269" lon="13.166387573265993"><ele>471.0</ele><time>2026-04-26T08:16:41Z</time></trkpt><trkpt lat="43.408876956094055" lon="13.16652716870077"><ele>469.75</ele><time>2026-04-26T08:16:42Z</time></trkpt><trkpt lat="43.40880782310544" lon="13.166677087460945"><ele>468.5</ele><time>2026-04-26T08:16:43Z</time></trkpt><trkpt lat="43.40873405492106" lon="13.166831764367732"><ele>467.25</ele><time>2026-04-26T08:16:44Z</time></trkpt><trkpt lat="43.40865535340452" lon="13.16699504327952"><ele>466.0</ele><time>2026-04-26T08:16:45Z</time></trkpt><trkpt lat="43.408574777428186" lon="13.16717071312646"><ele>466.0</ele><time>2026-04-26T08:16:46Z</time></trkpt><trkpt lat="43.408480957800286" lon="13.167329755844245"><ele>466.0</ele><time>2026-04-26T08:16:47Z</time></trkpt><trkpt lat="43.40840872038163" lon="13.167495293540938"><ele>466.0</ele><time>2026-04-26T08:16:48Z</time></trkpt><trkpt lat="43.40835332579544" lon="13.167668917504663"><ele>466.0</ele><time>2026-04-26T08:16:49Z</time></trkpt><trkpt lat="43.40827739659119" lon="13.16782500166302"><ele>466.25</ele><time>2026-04-26T08:16:50Z</time></trkpt><trkpt lat="43.408240130225906" lon="13.167971365667645"><ele>466.5</ele><time>2026-04-26T08:16:51Z</time></trkpt><trkpt lat="43.40818289724633" lon="13.168108312144128"><ele>466.75</ele><time>2026-04-26T08:16:52Z</time></trkpt><trkpt lat="43.40812105219957" lon="13.168242190100594"><ele>467.0</ele><time>2026-04-26T08:16:53Z</time></trkpt><trkpt lat="43.40805242396407" lon="13.168380383623083"><ele>464.5</ele><time>2026-04-26T08:16:54Z</time></trkpt><trkpt lat="43.40798153266705" lon="13.168523855698767"><ele>462.0</ele><time>2026-04-26T08:16:55Z</time></trkpt><trkpt lat="43.407935276813056" lon="13.168647088971728"><ele>459.5</ele><time>2026-04-26T08:16:56Z</time></trkpt><trkpt lat="43.407896283623224" lon="13.168804307174142"><ele>457.0</ele><time>2026-04-26T08:16:57Z</time></trkpt><trkpt lat="43.40785523454723" lon="13.168960465892871"><ele>457.75</ele><time>2026-04-26T08:16:58Z</time></trkpt><trkpt lat="43.40780575707872" lon="13.16913361111061"><ele>458.5</ele><time>2026-04-26T08:16:59Z</time></trkpt><trkpt lat="43.4077544603485" lon="13.169292052806124"><ele>459.25</ele><time>2026-04-26T08:17:00Z</time></trkpt><trkpt lat="43.40769764155339" lon="13.16942902188226"><ele>460.0</ele><time>2026-04-26T08:17:01Z</time></trkpt><trkpt lat="43.407640336948894" lon="13.169550129860708"><ele>460.0</ele><time>2026-04-26T08:17:02Z</time></trkpt><trkpt lat="43.40757693369288" lon="13.169652099029964"><ele>460.0</ele><time>2026-04-26T08:17:03Z</time></trkpt><trkpt lat="43.407492307285324" lon="13.169709235993764"><ele>460.0</ele><time>2026-04-26T08:17:04Z</time></trkpt><trkpt lat="43.40739789711387" lon="13.169768512455022"><ele>460.0</ele><time>2026-04-26T08:17:05Z</time></trkpt><trkpt lat="43.40730778338248" lon="13.169837569391493"><ele>460.0</ele><time>2026-04-26T08:17:06Z</time></trkpt><trkpt lat="43.40723642696539" lon="13.16989142309301"><ele>457.6</ele><time>2026-04-26T08:17:07Z</time></trkpt><trkpt lat="43.40718775653761" lon="13.170036141940557"><ele>455.2</ele><time>2026-04-26T08:17:09Z</time></trkpt><trkpt lat="43.40720632442871" lon="13.170135549942804"><ele>452.79999999999995</ele><time>2026-04-26T08:17:10Z</time></trkpt><trkpt lat="43.40726043455969" lon="13.170221542714021"><ele>450.4</ele><time>2026-04-26T08:17:11Z</time></trkpt><trkpt lat="43.4073403234994" lon="13.170281613413527"><ele>448.0</ele><time>2026-04-26T08:17:12Z</time></trkpt><trkpt lat="43.40743580450394" lon="13.170346784953145"><ele>448.0</ele><time>2026-04-26T08:17:13Z</time></trkpt><trkpt lat="43.40753013072978" lon="13.170446389890285"><ele>448.0</ele><time>2026-04-26T08:17:14Z</time></trkpt><trkpt lat="43.4076305197862" lon="13.170534538327887"><ele>448.0</ele><time>2026-04-26T08:17:15Z</time></trkpt><trkpt lat="43.407728945256046" lon="13.170621758686455"><ele>448.0</ele><time>2026-04-26T08:17:16Z</time></trkpt><trkpt lat="43.40782544814776" lon="13.170707275414774"><ele>444.4</ele><time>2026-04-26T08:17:17Z</time></trkpt><trkpt lat="43.407924553188415" lon="13.170788957564273"><ele>440.79999999999995</ele><time>2026-04-26T08:17:18Z</time></trkpt><trkpt lat="43.40801976598771" lon="13.170866330316603"><ele>437.2</ele><time>2026-04-26T08:17:19.001Z</time></trkpt><trkpt lat="43.40809570521275" lon="13.170929655605372"><ele>433.6</ele><time>2026-04-26T08:17:20.001Z</time></trkpt><trkpt lat="43.40816453629798" lon="13.170989947047964"><ele>430.0</ele><time>2026-04-26T08:17:21.001Z</time></trkpt><trkpt lat="43.40823289344465" lon="13.171035049564674"><ele>428.2</ele><time>2026-04-26T08:17:22.001Z</time></trkpt><trkpt lat="43.4082770518074" lon="13.171113502745351"><ele>426.4</ele><time>2026-04-26T08:17:23.001Z</time></trkpt><trkpt lat="43.40828931423348" lon="13.171233170273435"><ele>424.6</ele><time>2026-04-26T08:17:24.001Z</time></trkpt><trkpt lat="43.408228889995165" lon="13.171357233735897"><ele>422.8</ele><time>2026-04-26T08:17:25.001Z</time></trkpt><trkpt lat="43.40818696628996" lon="13.171497395343348"><ele>421.0</ele><time>2026-04-26T08:17:26.001Z</time></trkpt><trkpt lat="43.408124808183665" lon="13.17161975582861"><ele>419.25</ele><time>2026-04-26T08:17:27.001Z</time></trkpt><trkpt lat="43.408082107753145" lon="13.1717508138211"><ele>417.5</ele><time>2026-04-26T08:17:28.001Z</time></trkpt><trkpt lat="43.40805104892699" lon="13.171881587768763"><ele>415.75</ele><time>2026-04-26T08:17:29.001Z</time></trkpt><trkpt lat="43.40803388195123" lon="13.172036186767073"><ele>414.0</ele><time>2026-04-26T08:17:30.001Z</time></trkpt><trkpt lat="43.408048792127985" lon="13.172222937396661"><ele>412.0</ele><time>2026-04-26T08:17:31.001Z</time></trkpt><trkpt lat="43.408053662589936" lon="13.172431411823473"><ele>410.0</ele><time>2026-04-26T08:17:32.001Z</time></trkpt><trkpt lat="43.40807000215964" lon="13.172627837236995"><ele>408.0</ele><time>2026-04-26T08:17:33.001Z</time></trkpt><trkpt lat="43.408069851986596" lon="13.17283249175468"><ele>406.0</ele><time>2026-04-26T08:17:34.001Z</time></trkpt><trkpt lat="43.40807681133093" lon="13.17304491570899"><ele>403.0</ele><time>2026-04-26T08:17:35.001Z</time></trkpt><trkpt lat="43.408097555742934" lon="13.173254965038247"><ele>400.0</ele><time>2026-04-26T08:17:36.001Z</time></trkpt><trkpt lat="43.40811568968092" lon="13.17346329481083"><ele>397.0</ele><time>2026-04-26T08:17:37.001Z</time></trkpt><trkpt lat="43.408130161032496" lon="13.173668657999569"><ele>397.0</ele><time>2026-04-26T08:17:38.001Z</time></trkpt><trkpt lat="43.40815532344261" lon="13.173846788140024"><ele>397.0</ele><time>2026-04-26T08:17:39.001Z</time></trkpt><trkpt lat="43.4081715328938" lon="13.174021736272882"><ele>397.0</ele><time>2026-04-26T08:17:40.001Z</time></trkpt><trkpt lat="43.40820785982046" lon="13.17420990442911"><ele>397.0</ele><time>2026-04-26T08:17:41Z</time></trkpt><trkpt lat="43.40822960288716" lon="13.174369591538643"><ele>396.25</ele><time>2026-04-26T08:17:42Z</time></trkpt><trkpt lat="43.40820029323669" lon="13.174533721267053"><ele>395.5</ele><time>2026-04-26T08:17:43Z</time></trkpt><trkpt lat="43.40815888770441" lon="13.174703936427676"><ele>394.75</ele><time>2026-04-26T08:17:44Z</time></trkpt><trkpt lat="43.40811711026818" lon="13.174854227668074"><ele>394.0</ele><time>2026-04-26T08:17:45Z</time></trkpt><trkpt lat="43.40808944624301" lon="13.175005332146583"><ele>394.0</ele><time>2026-04-26T08:17:46Z</time></trkpt><trkpt lat="43.408068660404325" lon="13.175168041756155"><ele>394.0</ele><time>2026-04-26T08:17:47Z</time></trkpt><trkpt lat="43.40803424309279" lon="13.175349800618"><ele>394.0</ele><time>2026-04-26T08:17:48Z</time></trkpt><trkpt lat="43.40797488968247" lon="13.175520970130771"><ele>394.0</ele><time>2026-04-26T08:17:49Z</time></trkpt><trkpt lat="43.40792954680362" lon="13.175706396934086"><ele>392.75</ele><time>2026-04-26T08:17:50Z</time></trkpt><trkpt lat="43.407890512720144" lon="13.175903593609958"><ele>391.5</ele><time>2026-04-26T08:17:51Z</time></trkpt><trkpt lat="43.40784136569213" lon="13.17609747672694"><ele>390.25</ele><time>2026-04-26T08:17:52Z</time></trkpt><trkpt lat="43.40779252405481" lon="13.17629002934126"><ele>389.0</ele><time>2026-04-26T08:17:53Z</time></trkpt><trkpt lat="43.40774456961448" lon="13.176483456706256"><ele>388.66666666666663</ele><time>2026-04-26T08:17:54Z</time></trkpt><trkpt lat="43.40769679020705" lon="13.176680576484996"><ele>388.33333333333337</ele><time>2026-04-26T08:17:55Z</time></trkpt><trkpt lat="43.40764530219345" lon="13.176878961801535"><ele>388.0</ele><time>2026-04-26T08:17:56Z</time></trkpt><trkpt lat="43.40759165346911" lon="13.177084112276107"><ele>388.0</ele><time>2026-04-26T08:17:57Z</time></trkpt><trkpt lat="43.40753598549681" lon="13.177282785440408"><ele>388.0</ele><time>2026-04-26T08:17:58Z</time></trkpt><trkpt lat="43.407491000858" lon="13.177511302118754"><ele>388.0</ele><time>2026-04-26T08:17:59Z</time></trkpt><trkpt lat="43.40743969370793" lon="13.177737086535092"><ele>387.0</ele><time>2026-04-26T08:18:00Z</time></trkpt><trkpt lat="43.40738747626168" lon="13.177963305862248"><ele>386.0</ele><time>2026-04-26T08:18:01Z</time></trkpt><trkpt lat="43.407334429985305" lon="13.178186518366378"><ele>385.0</ele><time>2026-04-26T08:18:02Z</time></trkpt><trkpt lat="43.40728724924488" lon="13.178399487085276"><ele>384.6666666666667</ele><time>2026-04-26T08:18:03Z</time></trkpt><trkpt lat="43.40722081071005" lon="13.178619169493784"><ele>384.33333333333337</ele><time>2026-04-26T08:18:04Z</time></trkpt><trkpt lat="43.40717104015893" lon="13.178836121420108"><ele>384.0</ele><time>2026-04-26T08:18:05Z</time></trkpt><trkpt lat="43.407126390062515" lon="13.179032139345223"><ele>384.0</ele><time>2026-04-26T08:18:06Z</time></trkpt><trkpt lat="43.40708458902765" lon="13.179216240884143"><ele>384.0</ele><time>2026-04-26T08:18:07Z</time></trkpt><trkpt lat="43.407042524172226" lon="13.179404052472208"><ele>384.0</ele><time>2026-04-26T08:18:08Z</time></trkpt><trkpt lat="43.40699754385779" lon="13.179597276984218"><ele>384.0</ele><time>2026-04-26T08:18:09Z</time></trkpt><trkpt lat="43.406951919688694" lon="13.179788028368462"><ele>383.3333333333333</ele><time>2026-04-26T08:18:10Z</time></trkpt><trkpt lat="43.40690672582463" lon="13.179989360683175"><ele>382.66666666666663</ele><time>2026-04-26T08:18:11Z</time></trkpt><trkpt lat="43.40686565293725" lon="13.18019963990145"><ele>382.0</ele><time>2026-04-26T08:18:12Z</time></trkpt><trkpt lat="43.40681558841511" lon="13.180401799206559"><ele>382.0</ele><time>2026-04-26T08:18:13Z</time></trkpt><trkpt lat="43.406785898236826" lon="13.180583074672851"><ele>382.0</ele><time>2026-04-26T08:18:14Z</time></trkpt><trkpt lat="43.4067556709775" lon="13.180766467195705"><ele>382.0</ele><time>2026-04-26T08:18:15Z</time></trkpt><trkpt lat="43.406736392576036" lon="13.180937983831358"><ele>382.0</ele><time>2026-04-26T08:18:16Z</time></trkpt><trkpt lat="43.40672779993813" lon="13.181115228120962"><ele>381.5</ele><time>2026-04-26T08:18:17Z</time></trkpt><trkpt lat="43.4067335905075" lon="13.181285848986738"><ele>381.0</ele><time>2026-04-26T08:18:18Z</time></trkpt><trkpt lat="43.40676244661823" lon="13.181457513813474"><ele>380.5</ele><time>2026-04-26T08:18:19Z</time></trkpt><trkpt lat="43.4068051028182" lon="13.181619625173802"><ele>380.0</ele><time>2026-04-26T08:18:20Z</time></trkpt><trkpt lat="43.40686305857984" lon="13.181783322758239"><ele>379.5</ele><time>2026-04-26T08:18:21Z</time></trkpt><trkpt lat="43.406934081727584" lon="13.181950910171965"><ele>379.0</ele><time>2026-04-26T08:18:22Z</time></trkpt><trkpt lat="43.40701009845188" lon="13.18212032826743"><ele>378.5</ele><time>2026-04-26T08:18:23Z</time></trkpt><trkpt lat="43.40708231414077" lon="13.182300719256139"><ele>378.0</ele><time>2026-04-26T08:18:24Z</time></trkpt><trkpt lat="43.40715454692156" lon="13.18247527874292"><ele>378.0</ele><time>2026-04-26T08:18:25Z</time></trkpt><trkpt lat="43.40722593645631" lon="13.182657788939423"><ele>378.0</ele><time>2026-04-26T08:18:26Z</time></trkpt><trkpt lat="43.407283537038815" lon="13.182850054239603"><ele>378.0</ele><time>2026-04-26T08:18:27Z</time></trkpt><trkpt lat="43.40735477607508" lon="13.183012932569255"><ele>378.0</ele><time>2026-04-26T08:18:28Z</time></trkpt><trkpt lat="43.40742910947046" lon="13.183175091240727"><ele>376.75</ele><time>2026-04-26T08:18:29Z</time></trkpt><trkpt lat="43.4075010954127" lon="13.183323763420335"><ele>375.5</ele><time>2026-04-26T08:18:30Z</time></trkpt><trkpt lat="43.40756455696352" lon="13.183473651436294"><ele>374.25</ele><time>2026-04-26T08:18:31Z</time></trkpt><trkpt lat="43.40760723935978" lon="13.18363397481827"><ele>373.0</ele><time>2026-04-26T08:18:32Z</time></trkpt><trkpt lat="43.4076072494262" lon="13.183810876821498"><ele>373.0</ele><time>2026-04-26T08:18:33Z</time></trkpt><trkpt lat="43.40758894329058" lon="13.183984985005"><ele>373.0</ele><time>2026-04-26T08:18:34Z</time></trkpt><trkpt lat="43.40757103703274" lon="13.184173295357972"><ele>373.0</ele><time>2026-04-26T08:18:35Z</time></trkpt><trkpt lat="43.407532775281005" lon="13.184364303487696"><ele>373.0</ele><time>2026-04-26T08:18:36Z</time></trkpt><trkpt lat="43.407513416019356" lon="13.184565894638414"><ele>372.0</ele><time>2026-04-26T08:18:37Z</time></trkpt><trkpt lat="43.40748915589819" lon="13.184757540833731"><ele>371.0</ele><time>2026-04-26T08:18:38Z</time></trkpt><trkpt lat="43.40746569199051" lon="13.18495026474381"><ele>370.0</ele><time>2026-04-26T08:18:39Z</time></trkpt><trkpt lat="43.407440342648016" lon="13.185131651869947"><ele>369.0</ele><time>2026-04-26T08:18:40Z</time></trkpt><trkpt lat="43.40742512876405" lon="13.18530449353426"><ele>368.75</ele><time>2026-04-26T08:18:41Z</time></trkpt><trkpt lat="43.40741146530129" lon="13.185466285430085"><ele>368.5</ele><time>2026-04-26T08:18:42Z</time></trkpt><trkpt lat="43.40738827727897" lon="13.18561807467834"><ele>368.25</ele><time>2026-04-26T08:18:43Z</time></trkpt><trkpt lat="43.407370987076455" lon="13.185772380223893"><ele>368.0</ele><time>2026-04-26T08:18:44Z</time></trkpt><trkpt lat="43.407354185774615" lon="13.18591935707064"><ele>367.0</ele><time>2026-04-26T08:18:45Z</time></trkpt><trkpt lat="43.40734125968525" lon="13.186033650066054"><ele>366.0</ele><time>2026-04-26T08:18:46Z</time></trkpt><trkpt lat="43.40732843521053" lon="13.186126240535874"><ele>365.0</ele><time>2026-04-26T08:18:47Z</time></trkpt><trkpt lat="43.40731778294259" lon="13.18624109105868"><ele>364.0</ele><time>2026-04-26T08:18:49Z</time></trkpt><trkpt lat="43.40738850838159" lon="13.18638137289"><ele>363.0</ele><time>2026-04-26T08:18:52Z</time></trkpt><trkpt lat="43.40746812969927" lon="13.186426799421298"><ele>362.0</ele><time>2026-04-26T08:18:53Z</time></trkpt><trkpt lat="43.407541163200975" lon="13.186513760425731"><ele>360.0</ele><time>2026-04-26T08:18:54Z</time></trkpt><trkpt lat="43.407635387854576" lon="13.186588391437434"><ele>358.0</ele><time>2026-04-26T08:18:55Z</time></trkpt><trkpt lat="43.40774550605092" lon="13.186670592103573"><ele>356.0</ele><time>2026-04-26T08:18:56Z</time></trkpt><trkpt lat="43.407855905633824" lon="13.186751330647303"><ele>354.0</ele><time>2026-04-26T08:18:57Z</time></trkpt><trkpt lat="43.40795841807576" lon="13.186823782901472"><ele>354.4</ele><time>2026-04-26T08:18:58Z</time></trkpt><trkpt lat="43.40805418589884" lon="13.1868840742535"><ele>354.79999999999995</ele><time>2026-04-26T08:18:59Z</time></trkpt><trkpt lat="43.40815124342618" lon="13.18691787294181"><ele>355.20000000000005</ele><time>2026-04-26T08:19:00Z</time></trkpt><trkpt lat="43.40825097379452" lon="13.186945754423645"><ele>355.6</ele><time>2026-04-26T08:19:01Z</time></trkpt><trkpt lat="43.40837348684701" lon="13.18694290416089"><ele>356.0</ele><time>2026-04-26T08:19:02Z</time></trkpt><trkpt lat="43.408510504134895" lon="13.186937977172814"><ele>356.0</ele><time>2026-04-26T08:19:03Z</time></trkpt><trkpt lat="43.408647899045384" lon="13.186942097716948"><ele>356.0</ele><time>2026-04-26T08:19:04Z</time></trkpt><trkpt lat="43.40879057881785" lon="13.186932834396599"><ele>356.0</ele><time>2026-04-26T08:19:05Z</time></trkpt><trkpt lat="43.40893122424875" lon="13.186924534283209"><ele>356.0</ele><time>2026-04-26T08:19:06Z</time></trkpt><trkpt lat="43.409071212607145" lon="13.186918186439605"><ele>353.75</ele><time>2026-04-26T08:19:07Z</time></trkpt><trkpt lat="43.409212862242484" lon="13.186915385979857"><ele>351.5</ele><time>2026-04-26T08:19:08Z</time></trkpt><trkpt lat="43.409347281272495" lon="13.186907071510458"><ele>349.25</ele><time>2026-04-26T08:19:09Z</time></trkpt><trkpt lat="43.40947937380419" lon="13.186900859355429"><ele>347.0</ele><time>2026-04-26T08:19:10Z</time></trkpt><trkpt lat="43.40960642566373" lon="13.186917414754769"><ele>347.6</ele><time>2026-04-26T08:19:11Z</time></trkpt><trkpt lat="43.40972480185929" lon="13.186951284200713"><ele>348.20000000000005</ele><time>2026-04-26T08:19:12Z</time></trkpt><trkpt lat="43.40981726975035" lon="13.187021629936181"><ele>348.8</ele><time>2026-04-26T08:19:13Z</time></trkpt><trkpt lat="43.40991393011053" lon="13.18709322174114"><ele>349.4</ele><time>2026-04-26T08:19:14Z</time></trkpt><trkpt lat="43.41000405666301" lon="13.187157339397574"><ele>350.0</ele><time>2026-04-26T08:19:15Z</time></trkpt><trkpt lat="43.410096031540284" lon="13.187211436972522"><ele>350.0</ele><time>2026-04-26T08:19:16Z</time></trkpt><trkpt lat="43.41017933152813" lon="13.187252614626015"><ele>350.0</ele><time>2026-04-26T08:19:17Z</time></trkpt><trkpt lat="43.41025139113182" lon="13.187282374117979"><ele>350.0</ele><time>2026-04-26T08:19:18Z</time></trkpt><trkpt lat="43.41037118508617" lon="13.187326439537644"><ele>350.0</ele><time>2026-04-26T08:19:20Z</time></trkpt><trkpt lat="43.41043394387739" lon="13.187348008871538"><ele>350.0</ele><time>2026-04-26T08:19:21Z</time></trkpt><trkpt lat="43.41055387619607" lon="13.187399545113658"><ele>349.14285714285717</ele><time>2026-04-26T08:19:22.999Z</time></trkpt><trkpt lat="43.410616044122335" lon="13.187435061027166"><ele>348.2857142857143</ele><time>2026-04-26T08:19:23.999Z</time></trkpt><trkpt lat="43.41067142346444" lon="13.187505493695387"><ele>347.42857142857144</ele><time>2026-04-26T08:19:25.001Z</time></trkpt><trkpt lat="43.41071822005921" lon="13.187590483725012"><ele>346.57142857142856</ele><time>2026-04-26T08:19:26.001Z</time></trkpt><trkpt lat="43.410757760648" lon="13.187683196496769"><ele>345.7142857142857</ele><time>2026-04-26T08:19:27.001Z</time></trkpt><trkpt lat="43.410788185364275" lon="13.187775438675173"><ele>344.8571428571429</ele><time>2026-04-26T08:19:28.001Z</time></trkpt><trkpt lat="43.4108288582547" lon="13.187858559490907"><ele>344.0</ele><time>2026-04-26T08:19:29.001Z</time></trkpt><trkpt lat="43.410869535207524" lon="13.18794456540637"><ele>344.0</ele><time>2026-04-26T08:19:30.001Z</time></trkpt><trkpt lat="43.41088951687322" lon="13.188043794699116"><ele>344.0</ele><time>2026-04-26T08:19:31.001Z</time></trkpt><trkpt lat="43.41093343983738" lon="13.188125655299114"><ele>344.0</ele><time>2026-04-26T08:19:32.001Z</time></trkpt><trkpt lat="43.41096351033929" lon="13.188213154000511"><ele>344.0</ele><time>2026-04-26T08:19:33.001Z</time></trkpt><trkpt lat="43.41099183605264" lon="13.188303479063583"><ele>344.0</ele><time>2026-04-26T08:19:34.001Z</time></trkpt><trkpt lat="43.4110523600143" lon="13.188452979371856"><ele>344.0</ele><time>2026-04-26T08:19:36Z</time></trkpt><trkpt lat="43.411081183684075" lon="13.188540442923525"><ele>344.0</ele><time>2026-04-26T08:19:37Z</time></trkpt><trkpt lat="43.41112191736801" lon="13.188624267210106"><ele>344.0</ele><time>2026-04-26T08:19:38Z</time></trkpt><trkpt lat="43.41116793331019" lon="13.188712934170747"><ele>344.0</ele><time>2026-04-26T08:19:39Z</time></trkpt><trkpt lat="43.41121578786888" lon="13.18883029860162"><ele>344.0</ele><time>2026-04-26T08:19:40Z</time></trkpt><trkpt lat="43.411266172350416" lon="13.188961528751767"><ele>344.0</ele><time>2026-04-26T08:19:41Z</time></trkpt><trkpt lat="43.41129871897155" lon="13.189093533493907"><ele>343.00000000000006</ele><time>2026-04-26T08:19:42Z</time></trkpt><trkpt lat="43.411347921560846" lon="13.189185676987123"><ele>342.0</ele><time>2026-04-26T08:19:43Z</time></trkpt><trkpt lat="43.411372907766484" lon="13.189290469288373"><ele>341.0</ele><time>2026-04-26T08:19:44Z</time></trkpt><trkpt lat="43.411399153595994" lon="13.189386772695052"><ele>340.0</ele><time>2026-04-26T08:19:45Z</time></trkpt><trkpt lat="43.411423037827724" lon="13.189470944757357"><ele>339.0</ele><time>2026-04-26T08:19:46Z</time></trkpt><trkpt lat="43.41144314270154" lon="13.189561367837115"><ele>338.00000000000006</ele><time>2026-04-26T08:19:47Z</time></trkpt><trkpt lat="43.41144766661843" lon="13.189657872689972"><ele>337.0</ele><time>2026-04-26T08:19:48Z</time></trkpt><trkpt lat="43.41146368614014" lon="13.189764369345118"><ele>337.6</ele><time>2026-04-26T08:19:49Z</time></trkpt><trkpt lat="43.41147894019672" lon="13.18987412848274"><ele>338.20000000000005</ele><time>2026-04-26T08:19:50Z</time></trkpt><trkpt lat="43.41149637001164" lon="13.189981533030616"><ele>338.8</ele><time>2026-04-26T08:19:51Z</time></trkpt><trkpt lat="43.41153639193286" lon="13.190118592768707"><ele>339.4</ele><time>2026-04-26T08:19:53Z</time></trkpt><trkpt lat="43.41153739360023" lon="13.190231670253796"><ele>340.0</ele><time>2026-04-26T08:19:54Z</time></trkpt><trkpt lat="43.41156118831157" lon="13.190400235815526"><ele>340.0</ele><time>2026-04-26T08:19:55Z</time></trkpt><trkpt lat="43.411596062385804" lon="13.19061019832779"><ele>340.0</ele><time>2026-04-26T08:19:56Z</time></trkpt><trkpt lat="43.411634339762536" lon="13.1908420874809"><ele>340.0</ele><time>2026-04-26T08:19:57Z</time></trkpt><trkpt lat="43.411678248775154" lon="13.191075353784532"><ele>339.66666666666663</ele><time>2026-04-26T08:19:58Z</time></trkpt><trkpt lat="43.41173720454005" lon="13.191335420273283"><ele>339.3333333333333</ele><time>2026-04-26T08:19:59Z</time></trkpt><trkpt lat="43.411813989851574" lon="13.191605261831647"><ele>339.0</ele><time>2026-04-26T08:20:00Z</time></trkpt><trkpt lat="43.41189056871077" lon="13.191883927112727"><ele>337.6666666666667</ele><time>2026-04-26T08:20:01Z</time></trkpt><trkpt lat="43.41196201187665" lon="13.192169677127385"><ele>336.33333333333337</ele><time>2026-04-26T08:20:02Z</time></trkpt><trkpt lat="43.41202855964595" lon="13.19243181693404"><ele>335.0</ele><time>2026-04-26T08:20:03Z</time></trkpt><trkpt lat="43.41209030795606" lon="13.192683132802035"><ele>332.6666666666667</ele><time>2026-04-26T08:20:04Z</time></trkpt><trkpt lat="43.4121556334072" lon="13.192924199054092"><ele>330.3333333333333</ele><time>2026-04-26T08:20:05Z</time></trkpt><trkpt lat="43.41222874834585" lon="13.193149993753558"><ele>328.0</ele><time>2026-04-26T08:20:06Z</time></trkpt><trkpt lat="43.41228745042961" lon="13.193386605438818"><ele>327.66666666666663</ele><time>2026-04-26T08:20:07Z</time></trkpt><trkpt lat="43.41234901555758" lon="13.193619033639813"><ele>327.3333333333333</ele><time>2026-04-26T08:20:08Z</time></trkpt><trkpt lat="43.412413796504204" lon="13.193829049330184"><ele>327.0</ele><time>2026-04-26T08:20:09Z</time></trkpt><trkpt lat="43.41244953453698" lon="13.194045060264564"><ele>326.3333333333333</ele><time>2026-04-26T08:20:10Z</time></trkpt><trkpt lat="43.41249495365925" lon="13.19425203764989"><ele>325.66666666666663</ele><time>2026-04-26T08:20:11Z</time></trkpt><trkpt lat="43.412509752033934" lon="13.194481602639907"><ele>325.0</ele><time>2026-04-26T08:20:12Z</time></trkpt><trkpt lat="43.412508732065646" lon="13.194725882634838"><ele>323.0</ele><time>2026-04-26T08:20:13Z</time></trkpt><trkpt lat="43.412501164410536" lon="13.194989593857793"><ele>321.0</ele><time>2026-04-26T08:20:14Z</time></trkpt><trkpt lat="43.412496146637146" lon="13.19526172408392"><ele>319.0</ele><time>2026-04-26T08:20:15Z</time></trkpt><trkpt lat="43.41248824013991" lon="13.195545682854426"><ele>317.0</ele><time>2026-04-26T08:20:16Z</time></trkpt><trkpt lat="43.41247895589938" lon="13.19585504046151"><ele>315.0</ele><time>2026-04-26T08:20:17Z</time></trkpt><trkpt lat="43.41246531978968" lon="13.196166741618535"><ele>315.0</ele><time>2026-04-26T08:20:18Z</time></trkpt><trkpt lat="43.41245657970521" lon="13.196464790060018"><ele>315.0</ele><time>2026-04-26T08:20:19Z</time></trkpt><trkpt lat="43.41244838134372" lon="13.196748701177771"><ele>315.0</ele><time>2026-04-26T08:20:20Z</time></trkpt><trkpt lat="43.41244085984981" lon="13.19702429147596"><ele>314.0</ele><time>2026-04-26T08:20:21Z</time></trkpt><trkpt lat="43.41243822216289" lon="13.197309128150719"><ele>313.0</ele><time>2026-04-26T08:20:22Z</time></trkpt><trkpt lat="43.41242689640717" lon="13.197570586368466"><ele>312.0</ele><time>2026-04-26T08:20:23Z</time></trkpt><trkpt lat="43.41242093900108" lon="13.197821383032261"><ele>310.3333333333333</ele><time>2026-04-26T08:20:24Z</time></trkpt><trkpt lat="43.41240952267589" lon="13.198068809538418"><ele>308.66666666666663</ele><time>2026-04-26T08:20:25Z</time></trkpt><trkpt lat="43.41240583755787" lon="13.198304386182345"><ele>307.0</ele><time>2026-04-26T08:20:26Z</time></trkpt><trkpt lat="43.41240902335128" lon="13.198529474122923"><ele>304.75</ele><time>2026-04-26T08:20:27Z</time></trkpt><trkpt lat="43.41242678877286" lon="13.198728417587454"><ele>302.5</ele><time>2026-04-26T08:20:28Z</time></trkpt><trkpt lat="43.4124535420892" lon="13.198926286673128"><ele>300.25</ele><time>2026-04-26T08:20:29Z</time></trkpt><trkpt lat="43.4125237396921" lon="13.199106424726814"><ele>298.0</ele><time>2026-04-26T08:20:30Z</time></trkpt><trkpt lat="43.412633390098435" lon="13.199275523189655"><ele>298.0</ele><time>2026-04-26T08:20:31Z</time></trkpt><trkpt lat="43.41276291872913" lon="13.199438452343951"><ele>298.0</ele><time>2026-04-26T08:20:32Z</time></trkpt><trkpt lat="43.41290753639209" lon="13.199608813860564"><ele>298.0</ele><time>2026-04-26T08:20:33Z</time></trkpt><trkpt lat="43.41303877765971" lon="13.199785621869543"><ele>297.66666666666663</ele><time>2026-04-26T08:20:34Z</time></trkpt><trkpt lat="43.41317054508127" lon="13.199958008880419"><ele>297.3333333333333</ele><time>2026-04-26T08:20:35Z</time></trkpt><trkpt lat="43.413292965197975" lon="13.20012904495255"><ele>297.0</ele><time>2026-04-26T08:20:36Z</time></trkpt><trkpt lat="43.41342552029069" lon="13.200282622971871"><ele>297.0</ele><time>2026-04-26T08:20:37Z</time></trkpt><trkpt lat="43.41355561769567" lon="13.200449426006202"><ele>297.0</ele><time>2026-04-26T08:20:38Z</time></trkpt><trkpt lat="43.413682526787525" lon="13.20060478840065"><ele>297.0</ele><time>2026-04-26T08:20:39Z</time></trkpt><trkpt lat="43.41379709373843" lon="13.200775824544813"><ele>292.3333333333333</ele><time>2026-04-26T08:20:40Z</time></trkpt><trkpt lat="43.4139225097813" lon="13.200909767839468"><ele>287.66666666666663</ele><time>2026-04-26T08:20:41Z</time></trkpt><trkpt lat="43.41402577656062" lon="13.201062843322656"><ele>283.0</ele><time>2026-04-26T08:20:42Z</time></trkpt><trkpt lat="43.4141202023653" lon="13.201228861335021"><ele>283.0</ele><time>2026-04-26T08:20:43Z</time></trkpt><trkpt lat="43.414212769925165" lon="13.201401571207056"><ele>283.0</ele><time>2026-04-26T08:20:44Z</time></trkpt><trkpt lat="43.414289542259915" lon="13.201574927810833"><ele>283.0</ele><time>2026-04-26T08:20:45Z</time></trkpt><trkpt lat="43.4143156767419" lon="13.201778526414248"><ele>283.5</ele><time>2026-04-26T08:20:46Z</time></trkpt><trkpt lat="43.414351415338" lon="13.201984503500888"><ele>284.0</ele><time>2026-04-26T08:20:47Z</time></trkpt><trkpt lat="43.4143829004636" lon="13.202153449664593"><ele>284.5</ele><time>2026-04-26T08:20:48Z</time></trkpt><trkpt lat="43.414385245327914" lon="13.202356612297386"><ele>285.0</ele><time>2026-04-26T08:20:49Z</time></trkpt><trkpt lat="43.41438590077629" lon="13.202573585830185"><ele>281.3333333333333</ele><time>2026-04-26T08:20:50Z</time></trkpt><trkpt lat="43.41438400024715" lon="13.20279023456903"><ele>277.66666666666663</ele><time>2026-04-26T08:20:51Z</time></trkpt><trkpt lat="43.41435422733451" lon="13.20301282064587"><ele>274.0</ele><time>2026-04-26T08:20:52Z</time></trkpt><trkpt lat="43.41430990081912" lon="13.203241427495804"><ele>271.0</ele><time>2026-04-26T08:20:53Z</time></trkpt><trkpt lat="43.414251029519654" lon="13.203472513514361"><ele>268.0</ele><time>2026-04-26T08:20:54Z</time></trkpt><trkpt lat="43.41417051265817" lon="13.203703552627635"><ele>265.0</ele><time>2026-04-26T08:20:55Z</time></trkpt><trkpt lat="43.41409044590649" lon="13.203916553055203"><ele>263.3333333333333</ele><time>2026-04-26T08:20:56Z</time></trkpt><trkpt lat="43.41401798929274" lon="13.204121684932696"><ele>261.6666666666667</ele><time>2026-04-26T08:20:56.999Z</time></trkpt><trkpt lat="43.413939400840384" lon="13.204323030282799"><ele>260.0</ele><time>2026-04-26T08:20:57.999Z</time></trkpt><trkpt lat="43.41387927375135" lon="13.2045378477078"><ele>260.0</ele><time>2026-04-26T08:20:58.999Z</time></trkpt><trkpt lat="43.41382516396321" lon="13.204736912628121"><ele>260.0</ele><time>2026-04-26T08:20:59.999Z</time></trkpt><trkpt lat="43.41377883139151" lon="13.20492478627572"><ele>260.0</ele><time>2026-04-26T08:21:00.999Z</time></trkpt><trkpt lat="43.41375427823873" lon="13.205138278235674"><ele>253.33333333333334</ele><time>2026-04-26T08:21:01.999Z</time></trkpt><trkpt lat="43.41373998982563" lon="13.205353433227845"><ele>246.66666666666669</ele><time>2026-04-26T08:21:02.999Z</time></trkpt><trkpt lat="43.413745898583926" lon="13.205571098553506"><ele>240.0</ele><time>2026-04-26T08:21:03.999Z</time></trkpt><trkpt lat="43.4137540893684" lon="13.205794761553818"><ele>238.33333333333331</ele><time>2026-04-26T08:21:04.999Z</time></trkpt><trkpt lat="43.41375307997944" lon="13.206033872658844"><ele>236.66666666666666</ele><time>2026-04-26T08:21:05.999Z</time></trkpt><trkpt lat="43.413754709611496" lon="13.20626497211232"><ele>235.0</ele><time>2026-04-26T08:21:06.999Z</time></trkpt><trkpt lat="43.41376625646723" lon="13.20649515095822"><ele>234.66666666666666</ele><time>2026-04-26T08:21:07.999Z</time></trkpt><trkpt lat="43.413781920182096" lon="13.206728256215802"><ele>234.33333333333331</ele><time>2026-04-26T08:21:08.999Z</time></trkpt><trkpt lat="43.413801708480975" lon="13.206960768527203"><ele>234.0</ele><time>2026-04-26T08:21:09.999Z</time></trkpt><trkpt lat="43.4138273562378" lon="13.20719309125227"><ele>230.33333333333331</ele><time>2026-04-26T08:21:10.999Z</time></trkpt><trkpt lat="43.41384923343787" lon="13.20741636202137"><ele>226.66666666666666</ele><time>2026-04-26T08:21:11.999Z</time></trkpt><trkpt lat="43.413863802323036" lon="13.207621828750508"><ele>223.0</ele><time>2026-04-26T08:21:12.999Z</time></trkpt><trkpt lat="43.41388301772319" lon="13.207829807870365"><ele>223.0</ele><time>2026-04-26T08:21:13.999Z</time></trkpt><trkpt lat="43.41390427122062" lon="13.208023762237053"><ele>223.0</ele><time>2026-04-26T08:21:14.999Z</time></trkpt><trkpt lat="43.41393189965787" lon="13.208241366722476"><ele>223.0</ele><time>2026-04-26T08:21:15.999Z</time></trkpt><trkpt lat="43.41395976770915" lon="13.208452409358491"><ele>222.33333333333331</ele><time>2026-04-26T08:21:16.999Z</time></trkpt><trkpt lat="43.41398768140481" lon="13.208657017583024"><ele>221.66666666666669</ele><time>2026-04-26T08:21:17.999Z</time></trkpt><trkpt lat="43.41401645687921" lon="13.208861826143925"><ele>221.0</ele><time>2026-04-26T08:21:18.999Z</time></trkpt><trkpt lat="43.41404296934871" lon="13.20907136716251"><ele>219.0</ele><time>2026-04-26T08:21:19.999Z</time></trkpt><trkpt lat="43.41408081374782" lon="13.209273866365402"><ele>217.0</ele><time>2026-04-26T08:21:20.999Z</time></trkpt><trkpt lat="43.414094361027196" lon="13.209496205328314"><ele>215.0</ele><time>2026-04-26T08:21:21.999Z</time></trkpt><trkpt lat="43.414085511877076" lon="13.20970957903659"><ele>214.0</ele><time>2026-04-26T08:21:22.999Z</time></trkpt><trkpt lat="43.41406769963688" lon="13.20992298500178"><ele>213.0</ele><time>2026-04-26T08:21:23.999Z</time></trkpt><trkpt lat="43.41400405619778" lon="13.210103827261724"><ele>212.0</ele><time>2026-04-26T08:21:24.999Z</time></trkpt><trkpt lat="43.4139528322291" lon="13.210276048504081"><ele>211.0</ele><time>2026-04-26T08:21:25.999Z</time></trkpt><trkpt lat="43.41388799011165" lon="13.210418353610295"><ele>211.0</ele><time>2026-04-26T08:21:26.999Z</time></trkpt><trkpt lat="43.41385246726229" lon="13.21055337726065"><ele>211.0</ele><time>2026-04-26T08:21:27.999Z</time></trkpt><trkpt lat="43.41385328230954" lon="13.210690939928332"><ele>211.0</ele><time>2026-04-26T08:21:28.999Z</time></trkpt><trkpt lat="43.41389708733328" lon="13.210801692341393"><ele>211.0</ele><time>2026-04-26T08:21:29.999Z</time></trkpt><trkpt lat="43.41396355209235" lon="13.210898569107906"><ele>211.0</ele><time>2026-04-26T08:21:31Z</time></trkpt><trkpt lat="43.414070395649375" lon="13.210989863750786"><ele>210.5</ele><time>2026-04-26T08:21:32Z</time></trkpt><trkpt lat="43.414187143274305" lon="13.211058393588264"><ele>210.0</ele><time>2026-04-26T08:21:33Z</time></trkpt><trkpt lat="43.41429946542515" lon="13.21116715554014"><ele>209.5</ele><time>2026-04-26T08:21:34Z</time></trkpt><trkpt lat="43.41443440029186" lon="13.211272653960073"><ele>209.0</ele><time>2026-04-26T08:21:35Z</time></trkpt><trkpt lat="43.414570405835704" lon="13.21138231953685"><ele>208.75</ele><time>2026-04-26T08:21:36Z</time></trkpt><trkpt lat="43.414705461798405" lon="13.21148516209811"><ele>208.5</ele><time>2026-04-26T08:21:37Z</time></trkpt><trkpt lat="43.4148246299356" lon="13.21153854651661"><ele>208.25</ele><time>2026-04-26T08:21:38Z</time></trkpt><trkpt lat="43.414976014616336" lon="13.211594696628485"><ele>208.0</ele><time>2026-04-26T08:21:39Z</time></trkpt><trkpt lat="43.415121405356345" lon="13.211571201802276"><ele>208.0</ele><time>2026-04-26T08:21:40Z</time></trkpt><trkpt lat="43.41525577500177" lon="13.211507570338654"><ele>208.0</ele><time>2026-04-26T08:21:41Z</time></trkpt><trkpt lat="43.4153745370668" lon="13.211434062934226"><ele>208.0</ele><time>2026-04-26T08:21:42Z</time></trkpt><trkpt lat="43.415489660712744" lon="13.211411542238396"><ele>208.0</ele><time>2026-04-26T08:21:43Z</time></trkpt><trkpt lat="43.41558978450175" lon="13.211459410533097"><ele>208.5</ele><time>2026-04-26T08:21:44Z</time></trkpt><trkpt lat="43.41564499264315" lon="13.211580675307376"><ele>209.0</ele><time>2026-04-26T08:21:45Z</time></trkpt><trkpt lat="43.41564546843648" lon="13.211723758244514"><ele>209.5</ele><time>2026-04-26T08:21:46Z</time></trkpt><trkpt lat="43.41567006101069" lon="13.211885390797997"><ele>210.0</ele><time>2026-04-26T08:21:47Z</time></trkpt><trkpt lat="43.415703863036256" lon="13.212067998595106"><ele>210.0</ele><time>2026-04-26T08:21:48Z</time></trkpt><trkpt lat="43.41574676569881" lon="13.212286068183516"><ele>210.0</ele><time>2026-04-26T08:21:49Z</time></trkpt><trkpt lat="43.41579941485111" lon="13.212499923217955"><ele>210.0</ele><time>2026-04-26T08:21:50Z</time></trkpt><trkpt lat="43.4158477175973" lon="13.212722461061924"><ele>211.0</ele><time>2026-04-26T08:21:51Z</time></trkpt><trkpt lat="43.415909389116436" lon="13.212917167588664"><ele>212.0</ele><time>2026-04-26T08:21:52Z</time></trkpt><trkpt lat="43.41598237527848" lon="13.213107015072044"><ele>213.0</ele><time>2026-04-26T08:21:53Z</time></trkpt><trkpt lat="43.41606981513136" lon="13.21327742299654"><ele>212.33333333333331</ele><time>2026-04-26T08:21:54Z</time></trkpt><trkpt lat="43.41617208355891" lon="13.213468356319764"><ele>211.66666666666666</ele><time>2026-04-26T08:21:55Z</time></trkpt><trkpt lat="43.41625835615775" lon="13.213623448899682"><ele>211.0</ele><time>2026-04-26T08:21:56Z</time></trkpt><trkpt lat="43.41635528838851" lon="13.213760090219557"><ele>211.0</ele><time>2026-04-26T08:21:57Z</time></trkpt><trkpt lat="43.416461299757394" lon="13.213875185068495"><ele>211.0</ele><time>2026-04-26T08:21:58Z</time></trkpt><trkpt lat="43.416589364422904" lon="13.213950315810955"><ele>211.0</ele><time>2026-04-26T08:21:59Z</time></trkpt><trkpt lat="43.41673623222629" lon="13.214001403818544"><ele>211.0</ele><time>2026-04-26T08:22:00Z</time></trkpt><trkpt lat="43.41690676842844" lon="13.213998646212321"><ele>215.0</ele><time>2026-04-26T08:22:01Z</time></trkpt><trkpt lat="43.4170639595025" lon="13.214034207118942"><ele>219.0</ele><time>2026-04-26T08:22:02Z</time></trkpt><trkpt lat="43.41723008767614" lon="13.214055199957945"><ele>223.0</ele><time>2026-04-26T08:22:03Z</time></trkpt><trkpt lat="43.41739213840394" lon="13.214086501793098"><ele>223.0</ele><time>2026-04-26T08:22:04Z</time></trkpt><trkpt lat="43.41754308596232" lon="13.21414552874904"><ele>223.0</ele><time>2026-04-26T08:22:05Z</time></trkpt><trkpt lat="43.417694449989774" lon="13.214202363295886"><ele>223.0</ele><time>2026-04-26T08:22:06Z</time></trkpt><trkpt lat="43.417823256646585" lon="13.214239408231878"><ele>223.0</ele><time>2026-04-26T08:22:07Z</time></trkpt><trkpt lat="43.4179464574275" lon="13.21430889686865"><ele>221.0</ele><time>2026-04-26T08:22:08Z</time></trkpt><trkpt lat="43.41806934368041" lon="13.21434232876609"><ele>219.0</ele><time>2026-04-26T08:22:09Z</time></trkpt><trkpt lat="43.41818028396327" lon="13.214339645607412"><ele>217.0</ele><time>2026-04-26T08:22:10Z</time></trkpt><trkpt lat="43.41826968435647" lon="13.214352660693999"><ele>215.0</ele><time>2026-04-26T08:22:11Z</time></trkpt><trkpt lat="43.41836723665894" lon="13.214370840894752"><ele>213.0</ele><time>2026-04-26T08:22:13Z</time></trkpt><trkpt lat="43.41846739359369" lon="13.214409533049574"><ele>213.0</ele><time>2026-04-26T08:22:15Z</time></trkpt><trkpt lat="43.41856694729423" lon="13.214264821405978"><ele>213.0</ele><time>2026-04-26T08:22:16Z</time></trkpt><trkpt lat="43.4186728596437" lon="13.214236006992463"><ele>213.0</ele><time>2026-04-26T08:22:17Z</time></trkpt><trkpt lat="43.41879003424498" lon="13.214256921953755"><ele>213.0</ele><time>2026-04-26T08:22:18Z</time></trkpt><trkpt lat="43.41888976400201" lon="13.214289858846106"><ele>212.33333333333334</ele><time>2026-04-26T08:22:19Z</time></trkpt><trkpt lat="43.41898583258616" lon="13.214306691918745"><ele>211.66666666666669</ele><time>2026-04-26T08:22:20Z</time></trkpt><trkpt lat="43.419071005474976" lon="13.214323641884967"><ele>211.0</ele><time>2026-04-26T08:22:21Z</time></trkpt><trkpt lat="43.41914640448387" lon="13.214323620302553"><ele>210.33333333333334</ele><time>2026-04-26T08:22:22Z</time></trkpt><trkpt lat="43.41920985125007" lon="13.214331810660893"><ele>209.66666666666669</ele><time>2026-04-26T08:22:23Z</time></trkpt><trkpt lat="43.41931391893359" lon="13.214373253179575"><ele>209.0</ele><time>2026-04-26T08:22:25Z</time></trkpt><trkpt lat="43.41939607994744" lon="13.214387178620543"><ele>209.00000000000003</ele><time>2026-04-26T08:22:27Z</time></trkpt><trkpt lat="43.41947749215476" lon="13.214395455188232"><ele>209.0</ele><time>2026-04-26T08:22:30Z</time></trkpt><trkpt lat="43.4195537446677" lon="13.214412277141012"><ele>209.0</ele><time>2026-04-26T08:22:47.999Z</time></trkpt><trkpt lat="43.41962202540669" lon="13.21441442076364"><ele>209.0</ele><time>2026-04-26T08:22:48.999Z</time></trkpt><trkpt lat="43.419692739192314" lon="13.214444161199452"><ele>209.00000000000003</ele><time>2026-04-26T08:22:49.999Z</time></trkpt><trkpt lat="43.419780502530834" lon="13.214461310358894"><ele>209.0</ele><time>2026-04-26T08:22:50.999Z</time></trkpt><trkpt lat="43.419871142121245" lon="13.214479196930458"><ele>208.0</ele><time>2026-04-26T08:22:51.999Z</time></trkpt><trkpt lat="43.41999521040445" lon="13.214503404042087"><ele>207.0</ele><time>2026-04-26T08:22:52.999Z</time></trkpt><trkpt lat="43.42011676743075" lon="13.214527023819855"><ele>206.0</ele><time>2026-04-26T08:22:53.999Z</time></trkpt><trkpt lat="43.42025047234585" lon="13.214552938729598"><ele>205.0</ele><time>2026-04-26T08:22:54.999Z</time></trkpt><trkpt lat="43.42038643364941" lon="13.214579390102756"><ele>205.5</ele><time>2026-04-26T08:22:55.999Z</time></trkpt><trkpt lat="43.42051173357215" lon="13.214590611712367"><ele>206.0</ele><time>2026-04-26T08:22:56.999Z</time></trkpt><trkpt lat="43.42063326395463" lon="13.214616862743457"><ele>206.5</ele><time>2026-04-26T08:22:57.999Z</time></trkpt><trkpt lat="43.42074485320676" lon="13.214651263075794"><ele>207.0</ele><time>2026-04-26T08:22:58.999Z</time></trkpt><trkpt lat="43.42086938469902" lon="13.214670251271727"><ele>207.0</ele><time>2026-04-26T08:22:59.999Z</time></trkpt><trkpt lat="43.420992707804004" lon="13.214688767404201"><ele>207.0</ele><time>2026-04-26T08:23:00.999Z</time></trkpt><trkpt lat="43.421118328671376" lon="13.214703201234737"><ele>207.0</ele><time>2026-04-26T08:23:01.999Z</time></trkpt><trkpt lat="43.42125625497652" lon="13.214735628048743"><ele>207.0</ele><time>2026-04-26T08:23:02.999Z</time></trkpt><trkpt lat="43.42140575875581" lon="13.214764206290198"><ele>208.0</ele><time>2026-04-26T08:23:03.999Z</time></trkpt><trkpt lat="43.421560791214766" lon="13.214791985094191"><ele>209.0</ele><time>2026-04-26T08:23:04.999Z</time></trkpt><trkpt lat="43.421722644598596" lon="13.214841961738333"><ele>210.0</ele><time>2026-04-26T08:23:05.999Z</time></trkpt><trkpt lat="43.42190031249198" lon="13.214854814078738"><ele>210.0</ele><time>2026-04-26T08:23:06.999Z</time></trkpt><trkpt lat="43.42208014228292" lon="13.214913698355181"><ele>210.0</ele><time>2026-04-26T08:23:07.999Z</time></trkpt><trkpt lat="43.42225695947465" lon="13.214949178207693"><ele>210.0</ele><time>2026-04-26T08:23:08.999Z</time></trkpt><trkpt lat="43.42242664099024" lon="13.214981998856064"><ele>212.0</ele><time>2026-04-26T08:23:09.999Z</time></trkpt><trkpt lat="43.42259814001751" lon="13.21499402443698"><ele>214.0</ele><time>2026-04-26T08:23:10.999Z</time></trkpt><trkpt lat="43.422767957189016" lon="13.21503157787275"><ele>216.0</ele><time>2026-04-26T08:23:11.999Z</time></trkpt><trkpt lat="43.42292635938484" lon="13.215062967304467"><ele>217.33333333333331</ele><time>2026-04-26T08:23:12.999Z</time></trkpt><trkpt lat="43.42308596433083" lon="13.215101383399695"><ele>218.66666666666666</ele><time>2026-04-26T08:23:13.999Z</time></trkpt><trkpt lat="43.423239693984996" lon="13.215125085115542"><ele>220.0</ele><time>2026-04-26T08:23:14.999Z</time></trkpt><trkpt lat="43.42339561696226" lon="13.215122350987935"><ele>220.0</ele><time>2026-04-26T08:23:15.999Z</time></trkpt><trkpt lat="43.42354456748076" lon="13.215125377981883"><ele>220.0</ele><time>2026-04-26T08:23:16.999Z</time></trkpt><trkpt lat="43.42369947187925" lon="13.215152159109861"><ele>220.0</ele><time>2026-04-26T08:23:17.999Z</time></trkpt><trkpt lat="43.423837727826786" lon="13.215159584567353"><ele>220.0</ele><time>2026-04-26T08:23:18.999Z</time></trkpt><trkpt lat="43.42398655232519" lon="13.215168152231303"><ele>219.25</ele><time>2026-04-26T08:23:19.999Z</time></trkpt><trkpt lat="43.42412502459251" lon="13.215162403228812"><ele>218.5</ele><time>2026-04-26T08:23:20.999Z</time></trkpt><trkpt lat="43.42426465430729" lon="13.215177600504978"><ele>217.75</ele><time>2026-04-26T08:23:21.999Z</time></trkpt><trkpt lat="43.42438539397014" lon="13.215265632274733"><ele>217.0</ele><time>2026-04-26T08:23:22.999Z</time></trkpt><trkpt lat="43.424499188018586" lon="13.215378014452318"><ele>217.0</ele><time>2026-04-26T08:23:23.999Z</time></trkpt><trkpt lat="43.42461751181927" lon="13.215530930379716"><ele>217.0</ele><time>2026-04-26T08:23:24.999Z</time></trkpt><trkpt lat="43.424737630276375" lon="13.215713516915264"><ele>217.0</ele><time>2026-04-26T08:23:25.999Z</time></trkpt><trkpt lat="43.42486459971282" lon="13.215909304695323"><ele>214.33333333333331</ele><time>2026-04-26T08:23:26.999Z</time></trkpt><trkpt lat="43.42499295653437" lon="13.216111108211582"><ele>211.66666666666669</ele><time>2026-04-26T08:23:27.999Z</time></trkpt><trkpt lat="43.4251171213528" lon="13.216304040383147"><ele>209.0</ele><time>2026-04-26T08:23:28.999Z</time></trkpt><trkpt lat="43.42524253548809" lon="13.216491140370316"><ele>208.33333333333334</ele><time>2026-04-26T08:23:29.999Z</time></trkpt><trkpt lat="43.42535966277899" lon="13.216689857226068"><ele>207.66666666666669</ele><time>2026-04-26T08:23:30.999Z</time></trkpt><trkpt lat="43.42548052012625" lon="13.216869343191448"><ele>207.0</ele><time>2026-04-26T08:23:31.999Z</time></trkpt><trkpt lat="43.425597631012046" lon="13.21705088739626"><ele>209.66666666666669</ele><time>2026-04-26T08:23:32.999Z</time></trkpt><trkpt lat="43.42571191819345" lon="13.217225269579142"><ele>212.33333333333334</ele><time>2026-04-26T08:23:33.999Z</time></trkpt><trkpt lat="43.425825839697715" lon="13.217403149880598"><ele>215.0</ele><time>2026-04-26T08:23:34.999Z</time></trkpt><trkpt lat="43.425946454502494" lon="13.217587282921462"><ele>215.0</ele><time>2026-04-26T08:23:35.999Z</time></trkpt><trkpt lat="43.42606293214218" lon="13.21776588827653"><ele>215.0</ele><time>2026-04-26T08:23:37Z</time></trkpt><trkpt lat="43.42617727905507" lon="13.217949162675527"><ele>215.0</ele><time>2026-04-26T08:23:38Z</time></trkpt><trkpt lat="43.42629371861325" lon="13.218125013973687"><ele>217.0</ele><time>2026-04-26T08:23:39Z</time></trkpt><trkpt lat="43.42640921362163" lon="13.21830819898479"><ele>219.0</ele><time>2026-04-26T08:23:40Z</time></trkpt><trkpt lat="43.42652779937864" lon="13.218487340045856"><ele>221.0</ele><time>2026-04-26T08:23:41Z</time></trkpt><trkpt lat="43.42664867253646" lon="13.21867849495013"><ele>221.0</ele><time>2026-04-26T08:23:42Z</time></trkpt><trkpt lat="43.426773224229635" lon="13.218881259027363"><ele>221.0</ele><time>2026-04-26T08:23:43Z</time></trkpt><trkpt lat="43.42689379887527" lon="13.219070797089234"><ele>221.0</ele><time>2026-04-26T08:23:44Z</time></trkpt><trkpt lat="43.42701351152873" lon="13.219251060261067"><ele>219.66666666666669</ele><time>2026-04-26T08:23:45Z</time></trkpt><trkpt lat="43.427126001204144" lon="13.219432059683994"><ele>218.33333333333331</ele><time>2026-04-26T08:23:46Z</time></trkpt><trkpt lat="43.427239574516356" lon="13.219597713138334"><ele>217.0</ele><time>2026-04-26T08:23:47Z</time></trkpt><trkpt lat="43.42734905916097" lon="13.219734750633974"><ele>219.25</ele><time>2026-04-26T08:23:48Z</time></trkpt><trkpt lat="43.42746237055721" lon="13.21984431651118"><ele>221.5</ele><time>2026-04-26T08:23:49Z</time></trkpt><trkpt lat="43.42759851410767" lon="13.219929241458269"><ele>223.75</ele><time>2026-04-26T08:23:50Z</time></trkpt><trkpt lat="43.42774083127617" lon="13.21998808939711"><ele>226.0</ele><time>2026-04-26T08:23:51Z</time></trkpt><trkpt lat="43.42788894702713" lon="13.220030370077032"><ele>228.0</ele><time>2026-04-26T08:23:52Z</time></trkpt><trkpt lat="43.428042108414964" lon="13.22008254475282"><ele>230.0</ele><time>2026-04-26T08:23:53Z</time></trkpt><trkpt lat="43.42819440295878" lon="13.220137570349223"><ele>232.0</ele><time>2026-04-26T08:23:54Z</time></trkpt><trkpt lat="43.42834624697332" lon="13.22019421650284"><ele>232.0</ele><time>2026-04-26T08:23:55Z</time></trkpt><trkpt lat="43.42849560364554" lon="13.220239104833366"><ele>232.0</ele><time>2026-04-26T08:23:56Z</time></trkpt><trkpt lat="43.428649158157015" lon="13.220275487193348"><ele>232.0</ele><time>2026-04-26T08:23:57Z</time></trkpt><trkpt lat="43.428804651122825" lon="13.22028407071334"><ele>233.66666666666666</ele><time>2026-04-26T08:23:58Z</time></trkpt><trkpt lat="43.42896199130828" lon="13.220282823179518"><ele>235.33333333333331</ele><time>2026-04-26T08:23:59Z</time></trkpt><trkpt lat="43.42912231799476" lon="13.220267954530014"><ele>237.0</ele><time>2026-04-26T08:24:00Z</time></trkpt><trkpt lat="43.42927814289467" lon="13.220220852073604"><ele>237.0</ele><time>2026-04-26T08:24:01Z</time></trkpt><trkpt lat="43.42943275458429" lon="13.220179258333308"><ele>237.0</ele><time>2026-04-26T08:24:02Z</time></trkpt><trkpt lat="43.42954964908651" lon="13.220074676111665"><ele>237.0</ele><time>2026-04-26T08:24:03Z</time></trkpt><trkpt lat="43.42965474073586" lon="13.219973068677144"><ele>237.0</ele><time>2026-04-26T08:24:04Z</time></trkpt><trkpt lat="43.42974678791676" lon="13.21982682004007"><ele>239.33333333333331</ele><time>2026-04-26T08:24:05Z</time></trkpt><trkpt lat="43.42985973020732" lon="13.219683737863292"><ele>241.66666666666666</ele><time>2026-04-26T08:24:06Z</time></trkpt><trkpt lat="43.42996994144265" lon="13.219523478517106"><ele>244.0</ele><time>2026-04-26T08:24:07Z</time></trkpt><trkpt lat="43.43008473896238" lon="13.21935655023011"><ele>244.0</ele><time>2026-04-26T08:24:08Z</time></trkpt><trkpt lat="43.43020827769669" lon="13.219176911238211"><ele>244.0</ele><time>2026-04-26T08:24:09Z</time></trkpt><trkpt lat="43.43033790862225" lon="13.218988190481287"><ele>244.0</ele><time>2026-04-26T08:24:10Z</time></trkpt><trkpt lat="43.43047359111802" lon="13.21879047638647"><ele>247.0</ele><time>2026-04-26T08:24:11Z</time></trkpt><trkpt lat="43.43061260434314" lon="13.218584191179696"><ele>250.0</ele><time>2026-04-26T08:24:12Z</time></trkpt><trkpt lat="43.430754486792026" lon="13.218373385813853"><ele>253.0</ele><time>2026-04-26T08:24:13Z</time></trkpt><trkpt lat="43.430895009288484" lon="13.218159522481528"><ele>256.0</ele><time>2026-04-26T08:24:14Z</time></trkpt><trkpt lat="43.43102963982203" lon="13.21794103803175"><ele>259.0</ele><time>2026-04-26T08:24:15Z</time></trkpt><trkpt lat="43.431161572960164" lon="13.217717860965257"><ele>262.0</ele><time>2026-04-26T08:24:16Z</time></trkpt><trkpt lat="43.431296297567876" lon="13.217484597955616"><ele>262.3333333333333</ele><time>2026-04-26T08:24:17Z</time></trkpt><trkpt lat="43.43143568754086" lon="13.21723896605121"><ele>262.6666666666667</ele><time>2026-04-26T08:24:18Z</time></trkpt><trkpt lat="43.431567663707426" lon="13.217003254686375"><ele>263.0</ele><time>2026-04-26T08:24:19Z</time></trkpt><trkpt lat="43.43169832011025" lon="13.216768135705442"><ele>263.0</ele><time>2026-04-26T08:24:20Z</time></trkpt><trkpt lat="43.43181047715451" lon="13.216534101845179"><ele>263.0</ele><time>2026-04-26T08:24:21Z</time></trkpt><trkpt lat="43.43192851202296" lon="13.216319886719592"><ele>263.0</ele><time>2026-04-26T08:24:22Z</time></trkpt><trkpt lat="43.43204553483745" lon="13.216111466669346"><ele>263.6666666666667</ele><time>2026-04-26T08:24:23Z</time></trkpt><trkpt lat="43.43217424630174" lon="13.215921391764034"><ele>264.3333333333333</ele><time>2026-04-26T08:24:24Z</time></trkpt><trkpt lat="43.432281680740005" lon="13.21573537891087"><ele>265.0</ele><time>2026-04-26T08:24:25Z</time></trkpt><trkpt lat="43.43238939820435" lon="13.215566578487342"><ele>267.3333333333333</ele><time>2026-04-26T08:24:26Z</time></trkpt><trkpt lat="43.432507763112184" lon="13.215419792552218"><ele>269.6666666666667</ele><time>2026-04-26T08:24:27Z</time></trkpt><trkpt lat="43.4326435894373" lon="13.215304240301979"><ele>272.0</ele><time>2026-04-26T08:24:28Z</time></trkpt><trkpt lat="43.4327963049628" lon="13.21521088929436"><ele>272.0</ele><time>2026-04-26T08:24:29Z</time></trkpt><trkpt lat="43.432960179653435" lon="13.215135749498677"><ele>272.0</ele><time>2026-04-26T08:24:30Z</time></trkpt><trkpt lat="43.43313163561658" lon="13.215061888090716"><ele>272.0</ele><time>2026-04-26T08:24:31Z</time></trkpt><trkpt lat="43.43330682773875" lon="13.214966701580058"><ele>272.0</ele><time>2026-04-26T08:24:32Z</time></trkpt><trkpt lat="43.43348034488259" lon="13.214890602311442"><ele>272.0</ele><time>2026-04-26T08:24:33Z</time></trkpt><trkpt lat="43.4336528156606" lon="13.214814936519437"><ele>272.0</ele><time>2026-04-26T08:24:34Z</time></trkpt><trkpt lat="43.43382509953083" lon="13.214732291492131"><ele>273.33333333333337</ele><time>2026-04-26T08:24:35Z</time></trkpt><trkpt lat="43.433998277752096" lon="13.214654351326958"><ele>274.6666666666667</ele><time>2026-04-26T08:24:36Z</time></trkpt><trkpt lat="43.43417379799011" lon="13.214579844583364"><ele>276.0</ele><time>2026-04-26T08:24:37Z</time></trkpt><trkpt lat="43.43436053697574" lon="13.214550244080366"><ele>276.0</ele><time>2026-04-26T08:24:38Z</time></trkpt><trkpt lat="43.43453644588009" lon="13.214476053653872"><ele>276.0</ele><time>2026-04-26T08:24:39Z</time></trkpt><trkpt lat="43.43471293418157" lon="13.214401244094827"><ele>276.0</ele><time>2026-04-26T08:24:40Z</time></trkpt><trkpt lat="43.434893020380045" lon="13.21432366543263"><ele>276.6666666666667</ele><time>2026-04-26T08:24:41Z</time></trkpt><trkpt lat="43.435076987584175" lon="13.214244414878886"><ele>277.33333333333337</ele><time>2026-04-26T08:24:42Z</time></trkpt><trkpt lat="43.435262293573764" lon="13.21416458760384"><ele>278.0</ele><time>2026-04-26T08:24:42.999Z</time></trkpt><trkpt lat="43.435446119438495" lon="13.214087710168672"><ele>277.6666666666667</ele><time>2026-04-26T08:24:43.999Z</time></trkpt><trkpt lat="43.43563496960292" lon="13.214009417883961"><ele>277.3333333333333</ele><time>2026-04-26T08:24:44.999Z</time></trkpt><trkpt lat="43.43582793271765" lon="13.213933282839744"><ele>277.0</ele><time>2026-04-26T08:24:45.999Z</time></trkpt><trkpt lat="43.43603186560746" lon="13.213855084990167"><ele>279.0</ele><time>2026-04-26T08:24:46.999Z</time></trkpt><trkpt lat="43.436230405468926" lon="13.213782153607141"><ele>281.0</ele><time>2026-04-26T08:24:47.999Z</time></trkpt><trkpt lat="43.43642187845343" lon="13.213714534506321"><ele>283.0</ele><time>2026-04-26T08:24:48.999Z</time></trkpt><trkpt lat="43.43659719662546" lon="13.21365318875347"><ele>283.0</ele><time>2026-04-26T08:24:49.999Z</time></trkpt><trkpt lat="43.436750353870465" lon="13.213600044130995"><ele>283.0</ele><time>2026-04-26T08:24:50.999Z</time></trkpt><trkpt lat="43.43689304156038" lon="13.213553815259466"><ele>283.0</ele><time>2026-04-26T08:24:51.999Z</time></trkpt><trkpt lat="43.43702470952146" lon="13.213512743745714"><ele>283.0</ele><time>2026-04-26T08:24:52.999Z</time></trkpt><trkpt lat="43.437146317084995" lon="13.21348090553588"><ele>283.0</ele><time>2026-04-26T08:24:53.999Z</time></trkpt><trkpt lat="43.43725238733288" lon="13.213467646952076"><ele>283.0</ele><time>2026-04-26T08:24:54.999Z</time></trkpt><trkpt lat="43.43735725445921" lon="13.213487033756174"><ele>283.0</ele><time>2026-04-26T08:24:55.999Z</time></trkpt><trkpt lat="43.43746068872692" lon="13.21349237789899"><ele>283.0</ele><time>2026-04-26T08:24:56.999Z</time></trkpt><trkpt lat="43.43756396394532" lon="13.213463571930722"><ele>283.0</ele><time>2026-04-26T08:24:57.999Z</time></trkpt><trkpt lat="43.43765823111705" lon="13.21333960377318"><ele>283.0</ele><time>2026-04-26T08:24:58.999Z</time></trkpt><trkpt lat="43.43777930835142" lon="13.21325164223018"><ele>283.0</ele><time>2026-04-26T08:24:59.999Z</time></trkpt><trkpt lat="43.437920601624874" lon="13.213232638969115"><ele>283.0</ele><time>2026-04-26T08:25:00.999Z</time></trkpt><trkpt lat="43.438069788934264" lon="13.213188522165433"><ele>283.0</ele><time>2026-04-26T08:25:01.999Z</time></trkpt><trkpt lat="43.43821189530616" lon="13.213095942562356"><ele>284.0</ele><time>2026-04-26T08:25:02.999Z</time></trkpt><trkpt lat="43.438363621677716" lon="13.213060306225566"><ele>285.0</ele><time>2026-04-26T08:25:03.999Z</time></trkpt><trkpt lat="43.43851132067641" lon="13.213018936997297"><ele>286.0</ele><time>2026-04-26T08:25:04.999Z</time></trkpt><trkpt lat="43.43864938934389" lon="13.21299269427743"><ele>287.0</ele><time>2026-04-26T08:25:05.999Z</time></trkpt><trkpt lat="43.43879681257719" lon="13.212973596072162"><ele>286.33333333333337</ele><time>2026-04-26T08:25:06.999Z</time></trkpt><trkpt lat="43.43895464913432" lon="13.212981487348692"><ele>285.6666666666667</ele><time>2026-04-26T08:25:07.999Z</time></trkpt><trkpt lat="43.43911065764958" lon="13.213025248721983"><ele>285.0</ele><time>2026-04-26T08:25:08.999Z</time></trkpt><trkpt lat="43.439267855493526" lon="13.21299494687821"><ele>285.0</ele><time>2026-04-26T08:25:09.999Z</time></trkpt><trkpt lat="43.439415837759164" lon="13.21302181895365"><ele>285.0</ele><time>2026-04-26T08:25:10.999Z</time></trkpt><trkpt lat="43.43955741634439" lon="13.213046436828026"><ele>285.0</ele><time>2026-04-26T08:25:11.999Z</time></trkpt><trkpt lat="43.439691009191414" lon="13.2131005508346"><ele>285.0</ele><time>2026-04-26T08:25:12.999Z</time></trkpt><trkpt lat="43.43982397136485" lon="13.213157930528187"><ele>284.0</ele><time>2026-04-26T08:25:13.999Z</time></trkpt><trkpt lat="43.439953487009" lon="13.213215966965999"><ele>283.0</ele><time>2026-04-26T08:25:14.999Z</time></trkpt><trkpt lat="43.44008134425403" lon="13.21330431584664"><ele>282.0</ele><time>2026-04-26T08:25:15.999Z</time></trkpt><trkpt lat="43.44021944477047" lon="13.213350122413372"><ele>281.0</ele><time>2026-04-26T08:25:16.999Z</time></trkpt><trkpt lat="43.44035824247081" lon="13.21338157068503"><ele>281.0</ele><time>2026-04-26T08:25:17.999Z</time></trkpt><trkpt lat="43.44049198069834" lon="13.21339843555972"><ele>281.0</ele><time>2026-04-26T08:25:18.999Z</time></trkpt><trkpt lat="43.44061631955609" lon="13.213417731416774"><ele>281.0</ele><time>2026-04-26T08:25:19.999Z</time></trkpt><trkpt lat="43.44074014519325" lon="13.213444147406365"><ele>281.0</ele><time>2026-04-26T08:25:20.999Z</time></trkpt><trkpt lat="43.44084923544628" lon="13.213496437277357"><ele>281.0</ele><time>2026-04-26T08:25:21.999Z</time></trkpt><trkpt lat="43.44096764748511" lon="13.213562611276592"><ele>281.0</ele><time>2026-04-26T08:25:22.999Z</time></trkpt><trkpt lat="43.44109149066872" lon="13.21363546737537"><ele>281.0</ele><time>2026-04-26T08:25:23.999Z</time></trkpt><trkpt lat="43.4412155805428" lon="13.213714170881724"><ele>281.0</ele><time>2026-04-26T08:25:24.999Z</time></trkpt><trkpt lat="43.44134518820391" lon="13.213780004661038"><ele>280.6666666666667</ele><time>2026-04-26T08:25:25.999Z</time></trkpt><trkpt lat="43.44147040360826" lon="13.213883939409426"><ele>280.3333333333333</ele><time>2026-04-26T08:25:26.999Z</time></trkpt><trkpt lat="43.441591173776544" lon="13.214025062083339"><ele>280.0</ele><time>2026-04-26T08:25:27.999Z</time></trkpt><trkpt lat="43.44170820966521" lon="13.214153729522762"><ele>279.25</ele><time>2026-04-26T08:25:28.999Z</time></trkpt><trkpt lat="43.4418149248802" lon="13.214301263637182"><ele>278.5</ele><time>2026-04-26T08:25:29.999Z</time></trkpt><trkpt lat="43.441903552676216" lon="13.214466759019334"><ele>277.75</ele><time>2026-04-26T08:25:30.999Z</time></trkpt><trkpt lat="43.441964720844915" lon="13.214639833666203"><ele>277.0</ele><time>2026-04-26T08:25:31.999Z</time></trkpt><trkpt lat="43.442008911416444" lon="13.214839689810262"><ele>276.0</ele><time>2026-04-26T08:25:32.999Z</time></trkpt><trkpt lat="43.442036823374906" lon="13.215054123545693"><ele>275.0</ele><time>2026-04-26T08:25:33.999Z</time></trkpt><trkpt lat="43.44205456404428" lon="13.215271328094424"><ele>274.0</ele><time>2026-04-26T08:25:34.999Z</time></trkpt><trkpt lat="43.442078463312804" lon="13.215484084707555"><ele>273.75</ele><time>2026-04-26T08:25:35.999Z</time></trkpt><trkpt lat="43.442102332138894" lon="13.215698658428753"><ele>273.5</ele><time>2026-04-26T08:25:36.999Z</time></trkpt><trkpt lat="43.44212702808909" lon="13.215894575778474"><ele>273.25</ele><time>2026-04-26T08:25:37.999Z</time></trkpt><trkpt lat="43.4421421586942" lon="13.21607828382237"><ele>273.0</ele><time>2026-04-26T08:25:38.999Z</time></trkpt><trkpt lat="43.44215759813481" lon="13.216248383790195"><ele>273.0</ele><time>2026-04-26T08:25:39.999Z</time></trkpt><trkpt lat="43.44217394360207" lon="13.216403775828278"><ele>273.0</ele><time>2026-04-26T08:25:40.999Z</time></trkpt><trkpt lat="43.44217832587395" lon="13.216536775388082"><ele>273.0</ele><time>2026-04-26T08:25:41.999Z</time></trkpt><trkpt lat="43.442170516540635" lon="13.216660359195538"><ele>273.0</ele><time>2026-04-26T08:25:43Z</time></trkpt><trkpt lat="43.442143043939666" lon="13.216788093411868"><ele>273.0</ele><time>2026-04-26T08:25:44Z</time></trkpt><trkpt lat="43.442109320472554" lon="13.216922830997717"><ele>274.2</ele><time>2026-04-26T08:25:45Z</time></trkpt><trkpt lat="43.442099637333634" lon="13.217061591648692"><ele>275.4</ele><time>2026-04-26T08:25:46Z</time></trkpt><trkpt lat="43.442137490200636" lon="13.217198483515965"><ele>276.59999999999997</ele><time>2026-04-26T08:25:47Z</time></trkpt><trkpt lat="43.44215926951246" lon="13.217355961875192"><ele>277.8</ele><time>2026-04-26T08:25:48Z</time></trkpt><trkpt lat="43.442219195165784" lon="13.217505210138299"><ele>279.0</ele><time>2026-04-26T08:25:49Z</time></trkpt><trkpt lat="43.442254403073456" lon="13.217672104783544"><ele>280.8</ele><time>2026-04-26T08:25:50Z</time></trkpt><trkpt lat="43.44227079053134" lon="13.217837242356785"><ele>282.59999999999997</ele><time>2026-04-26T08:25:51Z</time></trkpt><trkpt lat="43.44229005935158" lon="13.217986863553143"><ele>284.4</ele><time>2026-04-26T08:25:52Z</time></trkpt><trkpt lat="43.44231276098802" lon="13.21811119082493"><ele>286.2</ele><time>2026-04-26T08:25:53Z</time></trkpt><trkpt lat="43.44235306608045" lon="13.218214894438704"><ele>288.0</ele><time>2026-04-26T08:25:54Z</time></trkpt><trkpt lat="43.442412721223896" lon="13.21831563167359"><ele>289.0</ele><time>2026-04-26T08:25:55Z</time></trkpt><trkpt lat="43.44245306284381" lon="13.218425995903345"><ele>290.0</ele><time>2026-04-26T08:25:56Z</time></trkpt><trkpt lat="43.44251799402784" lon="13.21852803514949"><ele>291.0</ele><time>2026-04-26T08:25:58Z</time></trkpt><trkpt lat="43.4425109000042" lon="13.218622709336483"><ele>292.0</ele><time>2026-04-26T08:26:00Z</time></trkpt><trkpt lat="43.44247344562089" lon="13.218702624374979"><ele>293.0</ele><time>2026-04-26T08:26:01Z</time></trkpt><trkpt lat="43.442420018064844" lon="13.218805133129898"><ele>294.0</ele><time>2026-04-26T08:26:02Z</time></trkpt><trkpt lat="43.442353048400804" lon="13.218916626818768"><ele>293.75</ele><time>2026-04-26T08:26:03Z</time></trkpt><trkpt lat="43.442274043752796" lon="13.219043762309637"><ele>293.5</ele><time>2026-04-26T08:26:04Z</time></trkpt><trkpt lat="43.4421983479635" lon="13.21917579655659"><ele>293.25</ele><time>2026-04-26T08:26:05Z</time></trkpt><trkpt lat="43.44212355932215" lon="13.219321422836936"><ele>293.0</ele><time>2026-04-26T08:26:06Z</time></trkpt><trkpt lat="43.44203960167152" lon="13.21948393416099"><ele>291.33333333333337</ele><time>2026-04-26T08:26:07Z</time></trkpt><trkpt lat="43.44195214945817" lon="13.219662543180531"><ele>289.6666666666667</ele><time>2026-04-26T08:26:08Z</time></trkpt><trkpt lat="43.4418679154222" lon="13.219859660454043"><ele>288.0</ele><time>2026-04-26T08:26:09Z</time></trkpt><trkpt lat="43.441800087866255" lon="13.220069835966724"><ele>286.6666666666667</ele><time>2026-04-26T08:26:10Z</time></trkpt><trkpt lat="43.44175026460538" lon="13.220282626657399"><ele>285.33333333333337</ele><time>2026-04-26T08:26:11Z</time></trkpt><trkpt lat="43.44170955384753" lon="13.220497869428694"><ele>284.0</ele><time>2026-04-26T08:26:12Z</time></trkpt><trkpt lat="43.441666436561725" lon="13.22071236819194"><ele>282.6666666666667</ele><time>2026-04-26T08:26:13Z</time></trkpt><trkpt lat="43.44161259013492" lon="13.220931040157453"><ele>281.3333333333333</ele><time>2026-04-26T08:26:14Z</time></trkpt><trkpt lat="43.44156059005856" lon="13.221144389320369"><ele>280.0</ele><time>2026-04-26T08:26:15Z</time></trkpt><trkpt lat="43.44151470509404" lon="13.221356944838572"><ele>280.3333333333333</ele><time>2026-04-26T08:26:16Z</time></trkpt><trkpt lat="43.44146984819325" lon="13.221571712388982"><ele>280.6666666666667</ele><time>2026-04-26T08:26:17Z</time></trkpt><trkpt lat="43.441416564304696" lon="13.22178574745531"><ele>281.0</ele><time>2026-04-26T08:26:18Z</time></trkpt><trkpt lat="43.44136233011178" lon="13.221993559187744"><ele>281.0</ele><time>2026-04-26T08:26:19Z</time></trkpt><trkpt lat="43.441304319852605" lon="13.22220859785246"><ele>281.0</ele><time>2026-04-26T08:26:20Z</time></trkpt><trkpt lat="43.441254784661524" lon="13.222412777995547"><ele>281.0</ele><time>2026-04-26T08:26:21Z</time></trkpt><trkpt lat="43.44118997362025" lon="13.222614906632561"><ele>282.33333333333337</ele><time>2026-04-26T08:26:22Z</time></trkpt><trkpt lat="43.44113071892276" lon="13.222821744730464"><ele>283.6666666666667</ele><time>2026-04-26T08:26:23Z</time></trkpt><trkpt lat="43.44108032031104" lon="13.22302675650101"><ele>285.0</ele><time>2026-04-26T08:26:24Z</time></trkpt><trkpt lat="43.4410301744028" lon="13.22323114053745"><ele>286.6666666666667</ele><time>2026-04-26T08:26:25Z</time></trkpt><trkpt lat="43.440977397414926" lon="13.223432379663613"><ele>288.33333333333337</ele><time>2026-04-26T08:26:26Z</time></trkpt><trkpt lat="43.440930414571966" lon="13.223635279097367"><ele>290.0</ele><time>2026-04-26T08:26:27Z</time></trkpt><trkpt lat="43.44088625386298" lon="13.223819111070744"><ele>290.0</ele><time>2026-04-26T08:26:28Z</time></trkpt><trkpt lat="43.44084791190447" lon="13.223962993800164"><ele>290.0</ele><time>2026-04-26T08:26:29Z</time></trkpt><trkpt lat="43.440826886084" lon="13.224095844408685"><ele>290.0</ele><time>2026-04-26T08:26:30Z</time></trkpt><trkpt lat="43.44080180113941" lon="13.224202933564415"><ele>290.0</ele><time>2026-04-26T08:26:31Z</time></trkpt><trkpt lat="43.44078324433165" lon="13.224290552465558"><ele>290.0</ele><time>2026-04-26T08:26:32Z</time></trkpt><trkpt lat="43.44074370923282" lon="13.224370273493255"><ele>290.0</ele><time>2026-04-26T08:26:34Z</time></trkpt><trkpt lat="43.44067599155171" lon="13.224353324398948"><ele>290.0</ele><time>2026-04-26T08:26:35Z</time></trkpt><trkpt lat="43.440602024117254" lon="13.224322161080662"><ele>290.0</ele><time>2026-04-26T08:26:36.999Z</time></trkpt><trkpt lat="43.44054517180215" lon="13.224276182869955"><ele>290.0</ele><time>2026-04-26T08:26:37.999Z</time></trkpt><trkpt lat="43.44049359363826" lon="13.224193471986712"><ele>290.0</ele><time>2026-04-26T08:26:39.999Z</time></trkpt><trkpt lat="43.440443131697705" lon="13.224121323289513"><ele>290.0</ele><time>2026-04-26T08:26:41.999Z</time></trkpt><trkpt lat="43.440373948490134" lon="13.224034823962242"><ele>290.0</ele><time>2026-04-26T08:26:44.999Z</time></trkpt><trkpt lat="43.440326500483" lon="13.223971640179807"><ele>291.0</ele><time>2026-04-26T08:26:46.999Z</time></trkpt><trkpt lat="43.44027709559148" lon="13.223895685065429"><ele>291.0</ele><time>2026-04-26T08:26:49.999Z</time></trkpt><trkpt lat="43.44021161686174" lon="13.223865580748535"><ele>291.0</ele><time>2026-04-26T08:26:51.999Z</time></trkpt></trkseg><trkseg><trkpt lat="43.44047089677529" lon="13.226951556761968"><ele>279.66666666666663</ele><time>2026-04-26T08:35:26.999Z</time></trkpt><trkpt lat="43.44045285130359" lon="13.22717553734751"><ele>279.3333333333333</ele><time>2026-04-26T08:35:27.999Z</time></trkpt><trkpt lat="43.44044229961474" lon="13.227391337130978"><ele>279.0</ele><time>2026-04-26T08:35:28.999Z</time></trkpt><trkpt lat="43.44041966708373" lon="13.227605551891049"><ele>278.3333333333333</ele><time>2026-04-26T08:35:29.999Z</time></trkpt><trkpt lat="43.440401113910646" lon="13.227821451531637"><ele>277.66666666666663</ele><time>2026-04-26T08:35:30.999Z</time></trkpt><trkpt lat="43.440378018677016" lon="13.228034276938242"><ele>277.0</ele><time>2026-04-26T08:35:31.999Z</time></trkpt><trkpt lat="43.44037135376304" lon="13.228222970727941"><ele>277.0</ele><time>2026-04-26T08:35:32.999Z</time></trkpt><trkpt lat="43.44034960666051" lon="13.228400448309852"><ele>277.0</ele><time>2026-04-26T08:35:33.999Z</time></trkpt><trkpt lat="43.44031291646967" lon="13.22856770642942"><ele>277.0</ele><time>2026-04-26T08:35:34.999Z</time></trkpt><trkpt lat="43.44027021644024" lon="13.228724509014658"><ele>277.0</ele><time>2026-04-26T08:35:35.999Z</time></trkpt><trkpt lat="43.44022763761986" lon="13.228893429005133"><ele>276.66666666666663</ele><time>2026-04-26T08:35:36.999Z</time></trkpt><trkpt lat="43.440152568325445" lon="13.229071205521736"><ele>276.3333333333333</ele><time>2026-04-26T08:35:37.999Z</time></trkpt><trkpt lat="43.44008014200703" lon="13.229262129640631"><ele>276.0</ele><time>2026-04-26T08:35:38.999Z</time></trkpt><trkpt lat="43.44000826865583" lon="13.22946896647"><ele>276.0</ele><time>2026-04-26T08:35:39.999Z</time></trkpt><trkpt lat="43.439937625907774" lon="13.229676459914455"><ele>276.0</ele><time>2026-04-26T08:35:40.999Z</time></trkpt><trkpt lat="43.439861844220665" lon="13.229883006194386"><ele>276.0</ele><time>2026-04-26T08:35:41.999Z</time></trkpt><trkpt lat="43.439786873398994" lon="13.230095594411708"><ele>275.0</ele><time>2026-04-26T08:35:42.999Z</time></trkpt><trkpt lat="43.439708509633796" lon="13.230306371439266"><ele>274.0</ele><time>2026-04-26T08:35:43.999Z</time></trkpt><trkpt lat="43.43963284545812" lon="13.230518150264682"><ele>273.0</ele><time>2026-04-26T08:35:44.999Z</time></trkpt><trkpt lat="43.43956319122956" lon="13.230729635601719"><ele>271.6666666666667</ele><time>2026-04-26T08:35:45.999Z</time></trkpt><trkpt lat="43.4394849982963" lon="13.230942264484764"><ele>270.33333333333337</ele><time>2026-04-26T08:35:46.999Z</time></trkpt><trkpt lat="43.43941457445901" lon="13.23114853170394"><ele>269.0</ele><time>2026-04-26T08:35:47.999Z</time></trkpt><trkpt lat="43.4393493574906" lon="13.23135382482845"><ele>269.6666666666667</ele><time>2026-04-26T08:35:48.999Z</time></trkpt><trkpt lat="43.43928157507455" lon="13.231553225514558"><ele>270.3333333333333</ele><time>2026-04-26T08:35:49.999Z</time></trkpt><trkpt lat="43.43921895174739" lon="13.23175887803988"><ele>271.0</ele><time>2026-04-26T08:35:50.999Z</time></trkpt><trkpt lat="43.439156512138354" lon="13.23197395248699"><ele>271.0</ele><time>2026-04-26T08:35:51.999Z</time></trkpt><trkpt lat="43.43909474876425" lon="13.232194161455189"><ele>271.0</ele><time>2026-04-26T08:35:52.999Z</time></trkpt><trkpt lat="43.439036491883165" lon="13.232422504473794"><ele>271.0</ele><time>2026-04-26T08:35:53.999Z</time></trkpt><trkpt lat="43.43900143095296" lon="13.232645738675524"><ele>269.66666666666663</ele><time>2026-04-26T08:35:54.999Z</time></trkpt><trkpt lat="43.43898575155945" lon="13.232861507275429"><ele>268.3333333333333</ele><time>2026-04-26T08:35:55.999Z</time></trkpt><trkpt lat="43.43900411642948" lon="13.233089175155705"><ele>267.0</ele><time>2026-04-26T08:35:56.999Z</time></trkpt><trkpt lat="43.439026894911954" lon="13.233317639641085"><ele>265.6666666666667</ele><time>2026-04-26T08:35:57.999Z</time></trkpt><trkpt lat="43.43904897380499" lon="13.233564579059442"><ele>264.33333333333337</ele><time>2026-04-26T08:35:58.999Z</time></trkpt><trkpt lat="43.439070255755986" lon="13.23382822774985"><ele>263.0</ele><time>2026-04-26T08:35:59.999Z</time></trkpt><trkpt lat="43.43909617208201" lon="13.23411327733231"><ele>261.33333333333337</ele><time>2026-04-26T08:36:00.999Z</time></trkpt><trkpt lat="43.439119783894895" lon="13.234386057388333"><ele>259.6666666666667</ele><time>2026-04-26T08:36:01.999Z</time></trkpt><trkpt lat="43.439143015543785" lon="13.23466078617653"><ele>258.0</ele><time>2026-04-26T08:36:02.999Z</time></trkpt><trkpt lat="43.43916608236584" lon="13.23493537114554"><ele>256.6666666666667</ele><time>2026-04-26T08:36:03.999Z</time></trkpt><trkpt lat="43.43918175803169" lon="13.235205688176197"><ele>255.33333333333334</ele><time>2026-04-26T08:36:04.999Z</time></trkpt><trkpt lat="43.43919444515173" lon="13.235476802321744"><ele>254.0</ele><time>2026-04-26T08:36:05.999Z</time></trkpt><trkpt lat="43.43920969918672" lon="13.235749372866882"><ele>252.66666666666669</ele><time>2026-04-26T08:36:06.999Z</time></trkpt><trkpt lat="43.43923071616161" lon="13.236022067634774"><ele>251.33333333333331</ele><time>2026-04-26T08:36:07.998Z</time></trkpt><trkpt lat="43.43924786416974" lon="13.236302536088406"><ele>250.0</ele><time>2026-04-26T08:36:08.998Z</time></trkpt><trkpt lat="43.439265108706145" lon="13.23658609395448"><ele>248.66666666666666</ele><time>2026-04-26T08:36:09.998Z</time></trkpt><trkpt lat="43.43928053296469" lon="13.236851535633974"><ele>247.33333333333331</ele><time>2026-04-26T08:36:10.998Z</time></trkpt><trkpt lat="43.43929652797426" lon="13.237109524966812"><ele>246.0</ele><time>2026-04-26T08:36:11.998Z</time></trkpt><trkpt lat="43.43931537953738" lon="13.23736170136888"><ele>244.0</ele><time>2026-04-26T08:36:13Z</time></trkpt><trkpt lat="43.439336732865364" lon="13.237621984202528"><ele>242.0</ele><time>2026-04-26T08:36:14Z</time></trkpt><trkpt lat="43.43935458611107" lon="13.237892787106473"><ele>240.0</ele><time>2026-04-26T08:36:15Z</time></trkpt><trkpt lat="43.43938045495724" lon="13.23817265745683"><ele>239.0</ele><time>2026-04-26T08:36:16Z</time></trkpt><trkpt lat="43.439408990525486" lon="13.238454763593937"><ele>238.0</ele><time>2026-04-26T08:36:17Z</time></trkpt><trkpt lat="43.43942922050855" lon="13.238731331743965"><ele>237.0</ele><time>2026-04-26T08:36:18Z</time></trkpt><trkpt lat="43.43945065318833" lon="13.238997152900016"><ele>235.33333333333331</ele><time>2026-04-26T08:36:19Z</time></trkpt><trkpt lat="43.43947127185961" lon="13.239257542521656"><ele>233.66666666666666</ele><time>2026-04-26T08:36:20Z</time></trkpt><trkpt lat="43.43949058218414" lon="13.239507563883203"><ele>232.0</ele><time>2026-04-26T08:36:21Z</time></trkpt><trkpt lat="43.43951419815338" lon="13.239756067241933"><ele>230.33333333333331</ele><time>2026-04-26T08:36:22Z</time></trkpt><trkpt lat="43.43955850548117" lon="13.239986792727162"><ele>228.66666666666669</ele><time>2026-04-26T08:36:23Z</time></trkpt><trkpt lat="43.439603465922595" lon="13.240215495364973"><ele>227.0</ele><time>2026-04-26T08:36:24Z</time></trkpt><trkpt lat="43.439661385596196" lon="13.240444731575986"><ele>226.0</ele><time>2026-04-26T08:36:25Z</time></trkpt><trkpt lat="43.43973214098859" lon="13.240640494885625"><ele>225.0</ele><time>2026-04-26T08:36:26Z</time></trkpt><trkpt lat="43.439797172683875" lon="13.240823096434214"><ele>224.0</ele><time>2026-04-26T08:36:27Z</time></trkpt><trkpt lat="43.439854831055825" lon="13.2409987765781"><ele>223.0</ele><time>2026-04-26T08:36:28Z</time></trkpt><trkpt lat="43.43990855009308" lon="13.241165554696016"><ele>223.0</ele><time>2026-04-26T08:36:29Z</time></trkpt><trkpt lat="43.439959312016384" lon="13.24131491256281"><ele>223.0</ele><time>2026-04-26T08:36:30Z</time></trkpt><trkpt lat="43.44000087447569" lon="13.241442653509141"><ele>223.0</ele><time>2026-04-26T08:36:31Z</time></trkpt><trkpt lat="43.44002501002587" lon="13.241560027342617"><ele>223.0</ele><time>2026-04-26T08:36:32Z</time></trkpt><trkpt lat="43.440030215179966" lon="13.24167269603028"><ele>223.0</ele><time>2026-04-26T08:36:33Z</time></trkpt><trkpt lat="43.44001588783542" lon="13.241796211537274"><ele>221.5</ele><time>2026-04-26T08:36:34Z</time></trkpt><trkpt lat="43.43997254068397" lon="13.24189665975115"><ele>220.0</ele><time>2026-04-26T08:36:35Z</time></trkpt><trkpt lat="43.43991097710071" lon="13.241961588288648"><ele>218.5</ele><time>2026-04-26T08:36:36Z</time></trkpt><trkpt lat="43.439754244095504" lon="13.24200027137068"><ele>217.0</ele><time>2026-04-26T08:36:37Z</time></trkpt><trkpt lat="43.439628482221046" lon="13.241955276731085"><ele>215.75</ele><time>2026-04-26T08:36:38Z</time></trkpt><trkpt lat="43.439511703593816" lon="13.241921974669253"><ele>214.5</ele><time>2026-04-26T08:36:39Z</time></trkpt><trkpt lat="43.439392544794785" lon="13.24191329704196"><ele>213.25</ele><time>2026-04-26T08:36:40Z</time></trkpt><trkpt lat="43.439289835283724" lon="13.24189090901148"><ele>212.0</ele><time>2026-04-26T08:36:41Z</time></trkpt><trkpt lat="43.43916438324258" lon="13.241891158155234"><ele>212.0</ele><time>2026-04-26T08:36:42Z</time></trkpt><trkpt lat="43.43904530314859" lon="13.241963042323293"><ele>212.0</ele><time>2026-04-26T08:36:43Z</time></trkpt><trkpt lat="43.43898480789798" lon="13.242017477054723"><ele>212.0</ele><time>2026-04-26T08:36:44Z</time></trkpt><trkpt lat="43.43888202946807" lon="13.242193825715388"><ele>212.0</ele><time>2026-04-26T08:36:45Z</time></trkpt><trkpt lat="43.438790093198755" lon="13.242336215900474"><ele>210.5</ele><time>2026-04-26T08:36:46Z</time></trkpt><trkpt lat="43.438701058868155" lon="13.24248894608899"><ele>209.0</ele><time>2026-04-26T08:36:47Z</time></trkpt><trkpt lat="43.43861659615323" lon="13.242636260846679"><ele>207.5</ele><time>2026-04-26T08:36:48Z</time></trkpt><trkpt lat="43.43853237534305" lon="13.242764842371562"><ele>206.0</ele><time>2026-04-26T08:36:49Z</time></trkpt><trkpt lat="43.43846172293118" lon="13.242877529670618"><ele>206.0</ele><time>2026-04-26T08:36:50Z</time></trkpt><trkpt lat="43.43839953975395" lon="13.242966457122526"><ele>206.0</ele><time>2026-04-26T08:36:51Z</time></trkpt><trkpt lat="43.438345435502086" lon="13.243032187767206"><ele>206.0</ele><time>2026-04-26T08:36:52Z</time></trkpt><trkpt lat="43.438267217462794" lon="13.243117986212187"><ele>206.0</ele><time>2026-04-26T08:36:54Z</time></trkpt><trkpt lat="43.43819233870343" lon="13.24319631490187"><ele>206.0</ele><time>2026-04-26T08:37:34.999Z</time></trkpt><trkpt lat="43.438307938187435" lon="13.24336366937729"><ele>206.25</ele><time>2026-04-26T08:37:36.999Z</time></trkpt><trkpt lat="43.43838113672233" lon="13.243439962783363"><ele>206.5</ele><time>2026-04-26T08:37:37.999Z</time></trkpt><trkpt lat="43.438478627106015" lon="13.243536426474279"><ele>206.75</ele><time>2026-04-26T08:37:38.999Z</time></trkpt><trkpt lat="43.438603446138586" lon="13.243710248320218"><ele>207.0</ele><time>2026-04-26T08:37:40.999Z</time></trkpt><trkpt lat="43.438717497255446" lon="13.24383339976805"><ele>205.33333333333331</ele><time>2026-04-26T08:37:41.999Z</time></trkpt><trkpt lat="43.4388439858398" lon="13.243982177034201"><ele>203.66666666666666</ele><time>2026-04-26T08:37:42.999Z</time></trkpt><trkpt lat="43.43896430686647" lon="13.244157422861761"><ele>202.0</ele><time>2026-04-26T08:37:43.999Z</time></trkpt><trkpt lat="43.43908160995847" lon="13.244340003696339"><ele>202.0</ele><time>2026-04-26T08:37:44.999Z</time></trkpt><trkpt lat="43.43917580570086" lon="13.244555009563364"><ele>202.0</ele><time>2026-04-26T08:37:45.999Z</time></trkpt><trkpt lat="43.439299185347664" lon="13.244753232833006"><ele>202.0</ele><time>2026-04-26T08:37:46.999Z</time></trkpt><trkpt lat="43.439410206278005" lon="13.244975179187174"><ele>201.33333333333331</ele><time>2026-04-26T08:37:47.999Z</time></trkpt><trkpt lat="43.439527650403065" lon="13.245198647869957"><ele>200.66666666666669</ele><time>2026-04-26T08:37:48.999Z</time></trkpt><trkpt lat="43.439647849925784" lon="13.245435347347492"><ele>200.0</ele><time>2026-04-26T08:37:49.999Z</time></trkpt><trkpt lat="43.43977640604739" lon="13.245680672203184"><ele>199.0</ele><time>2026-04-26T08:37:50.999Z</time></trkpt><trkpt lat="43.43990468085806" lon="13.245930028692921"><ele>198.0</ele><time>2026-04-26T08:37:51.999Z</time></trkpt><trkpt lat="43.44003014820468" lon="13.246177752048103"><ele>197.0</ele><time>2026-04-26T08:37:52.999Z</time></trkpt><trkpt lat="43.44016103611041" lon="13.246427908275466"><ele>195.0</ele><time>2026-04-26T08:37:53.999Z</time></trkpt><trkpt lat="43.44029136359634" lon="13.246682883909752"><ele>193.0</ele><time>2026-04-26T08:37:54.998Z</time></trkpt><trkpt lat="43.44042211470407" lon="13.24693280028043"><ele>195.66666666666666</ele><time>2026-04-26T08:37:55.998Z</time></trkpt><trkpt lat="43.44054747114701" lon="13.247188539625132"><ele>198.33333333333331</ele><time>2026-04-26T08:37:56.998Z</time></trkpt><trkpt lat="43.440674259902885" lon="13.247431956965041"><ele>201.0</ele><time>2026-04-26T08:37:57.998Z</time></trkpt><trkpt lat="43.44079737468382" lon="13.247666727413106"><ele>201.33333333333331</ele><time>2026-04-26T08:37:58.998Z</time></trkpt><trkpt lat="43.440931188910376" lon="13.247889874939238"><ele>201.66666666666666</ele><time>2026-04-26T08:37:59.998Z</time></trkpt><trkpt lat="43.44105997603007" lon="13.2481137457101"><ele>202.0</ele><time>2026-04-26T08:38:00.998Z</time></trkpt><trkpt lat="43.44118541263792" lon="13.248316900719468"><ele>203.0</ele><time>2026-04-26T08:38:01.998Z</time></trkpt><trkpt lat="43.44131604372344" lon="13.248536222924164"><ele>204.0</ele><time>2026-04-26T08:38:02.998Z</time></trkpt><trkpt lat="43.44146394159217" lon="13.248737711095552"><ele>205.0</ele><time>2026-04-26T08:38:03.998Z</time></trkpt><trkpt lat="43.441614724808375" lon="13.24894035239703"><ele>202.0</ele><time>2026-04-26T08:38:04.998Z</time></trkpt><trkpt lat="43.441760089641924" lon="13.249149963590586"><ele>199.0</ele><time>2026-04-26T08:38:05.998Z</time></trkpt><trkpt lat="43.44191371334923" lon="13.249349045342543"><ele>196.0</ele><time>2026-04-26T08:38:06.998Z</time></trkpt><trkpt lat="43.442071290372525" lon="13.249550001359486"><ele>196.0</ele><time>2026-04-26T08:38:07.998Z</time></trkpt><trkpt lat="43.442238787810474" lon="13.24974360248188"><ele>196.0</ele><time>2026-04-26T08:38:08.998Z</time></trkpt><trkpt lat="43.44240756179791" lon="13.249937838456043"><ele>196.0</ele><time>2026-04-26T08:38:09.998Z</time></trkpt><trkpt lat="43.442577853303014" lon="13.250130185166187"><ele>196.0</ele><time>2026-04-26T08:38:10.998Z</time></trkpt><trkpt lat="43.44274478637393" lon="13.250330993049559"><ele>196.0</ele><time>2026-04-26T08:38:11.998Z</time></trkpt><trkpt lat="43.44290755894991" lon="13.250530945296154"><ele>196.0</ele><time>2026-04-26T08:38:12.998Z</time></trkpt><trkpt lat="43.44307909150579" lon="13.250727557741586"><ele>194.33333333333331</ele><time>2026-04-26T08:38:13.998Z</time></trkpt><trkpt lat="43.443242853575676" lon="13.250936267780492"><ele>192.66666666666666</ele><time>2026-04-26T08:38:14.998Z</time></trkpt><trkpt lat="43.443396093933536" lon="13.251153565325556"><ele>191.0</ele><time>2026-04-26T08:38:15.998Z</time></trkpt><trkpt lat="43.4435672708926" lon="13.251367356994626"><ele>190.33333333333331</ele><time>2026-04-26T08:38:16.998Z</time></trkpt><trkpt lat="43.44373560571704" lon="13.251576325764157"><ele>189.66666666666666</ele><time>2026-04-26T08:38:17.998Z</time></trkpt><trkpt lat="43.44389783257367" lon="13.251764371578213"><ele>189.0</ele><time>2026-04-26T08:38:18.999Z</time></trkpt><trkpt lat="43.44405594206002" lon="13.25195762156183"><ele>188.33333333333334</ele><time>2026-04-26T08:38:19.999Z</time></trkpt><trkpt lat="43.44420299424143" lon="13.25214464211751"><ele>187.66666666666669</ele><time>2026-04-26T08:38:20.999Z</time></trkpt><trkpt lat="43.44435673176889" lon="13.25232353434898"><ele>187.0</ele><time>2026-04-26T08:38:21.999Z</time></trkpt><trkpt lat="43.44449402899078" lon="13.25250518768434"><ele>182.0</ele><time>2026-04-26T08:38:22.999Z</time></trkpt><trkpt lat="43.44463841896016" lon="13.25267574444237"><ele>177.0</ele><time>2026-04-26T08:38:23.999Z</time></trkpt><trkpt lat="43.444784107655735" lon="13.252820913069323"><ele>172.0</ele><time>2026-04-26T08:38:25Z</time></trkpt><trkpt lat="43.444937106213395" lon="13.252947089094107"><ele>172.0</ele><time>2026-04-26T08:38:26Z</time></trkpt><trkpt lat="43.445091119451845" lon="13.253061558082544"><ele>172.0</ele><time>2026-04-26T08:38:27Z</time></trkpt><trkpt lat="43.445235794815254" lon="13.253152063866366"><ele>172.0</ele><time>2026-04-26T08:38:28Z</time></trkpt><trkpt lat="43.44537929733865" lon="13.253229526226887"><ele>170.25</ele><time>2026-04-26T08:38:29Z</time></trkpt><trkpt lat="43.44550616807729" lon="13.25326922287675"><ele>168.5</ele><time>2026-04-26T08:38:30Z</time></trkpt><trkpt lat="43.445629197118166" lon="13.253282865565373"><ele>166.75</ele><time>2026-04-26T08:38:31Z</time></trkpt><trkpt lat="43.445752176079004" lon="13.253286741024692"><ele>165.0</ele><time>2026-04-26T08:38:32Z</time></trkpt><trkpt lat="43.44587230277695" lon="13.25324035558931"><ele>165.0</ele><time>2026-04-26T08:38:33Z</time></trkpt><trkpt lat="43.44598655577402" lon="13.253176059008561"><ele>165.0</ele><time>2026-04-26T08:38:34Z</time></trkpt><trkpt lat="43.44609248341615" lon="13.253091581031436"><ele>165.0</ele><time>2026-04-26T08:38:35Z</time></trkpt><trkpt lat="43.44619412911676" lon="13.253011581763523"><ele>165.0</ele><time>2026-04-26T08:38:36Z</time></trkpt><trkpt lat="43.44629205864121" lon="13.25293551669349"><ele>166.8</ele><time>2026-04-26T08:38:37Z</time></trkpt><trkpt lat="43.44637757047789" lon="13.252886294146563"><ele>168.6</ele><time>2026-04-26T08:38:38Z</time></trkpt><trkpt lat="43.446468612239435" lon="13.252859723615185"><ele>170.39999999999998</ele><time>2026-04-26T08:38:39Z</time></trkpt><trkpt lat="43.44657512203428" lon="13.252874578577915"><ele>172.2</ele><time>2026-04-26T08:38:40Z</time></trkpt><trkpt lat="43.44668464214027" lon="13.252931661609715"><ele>174.0</ele><time>2026-04-26T08:38:41Z</time></trkpt><trkpt lat="43.44677221160684" lon="13.253062870514801"><ele>173.0</ele><time>2026-04-26T08:38:42Z</time></trkpt><trkpt lat="43.446850349434825" lon="13.253225832759819"><ele>172.0</ele><time>2026-04-26T08:38:43Z</time></trkpt><trkpt lat="43.44693512249495" lon="13.253384377922632"><ele>171.0</ele><time>2026-04-26T08:38:44Z</time></trkpt><trkpt lat="43.44703379703389" lon="13.253548986044361"><ele>170.0</ele><time>2026-04-26T08:38:45Z</time></trkpt><trkpt lat="43.44713348203237" lon="13.253732141716574"><ele>172.66666666666666</ele><time>2026-04-26T08:38:46Z</time></trkpt><trkpt lat="43.44723768757076" lon="13.253922730555725"><ele>175.33333333333334</ele><time>2026-04-26T08:38:47Z</time></trkpt><trkpt lat="43.44735709229871" lon="13.254085648686262"><ele>178.0</ele><time>2026-04-26T08:38:47.999Z</time></trkpt><trkpt lat="43.44748894524502" lon="13.254208364406708"><ele>178.0</ele><time>2026-04-26T08:38:48.999Z</time></trkpt><trkpt lat="43.44764234424986" lon="13.254305496224289"><ele>178.0</ele><time>2026-04-26T08:38:49.999Z</time></trkpt><trkpt lat="43.44780598203942" lon="13.254396133934405"><ele>178.0</ele><time>2026-04-26T08:38:50.999Z</time></trkpt><trkpt lat="43.44797742287208" lon="13.25450813409875"><ele>179.33333333333334</ele><time>2026-04-26T08:38:51.999Z</time></trkpt><trkpt lat="43.44815499805141" lon="13.254627264257541"><ele>180.66666666666666</ele><time>2026-04-26T08:38:52.999Z</time></trkpt><trkpt lat="43.44833980954169" lon="13.254741015530387"><ele>182.0</ele><time>2026-04-26T08:38:53.999Z</time></trkpt><trkpt lat="43.44852878386511" lon="13.254860912045256"><ele>182.0</ele><time>2026-04-26T08:38:54.999Z</time></trkpt><trkpt lat="43.44871178526713" lon="13.254995417919677"><ele>182.0</ele><time>2026-04-26T08:38:55.999Z</time></trkpt><trkpt lat="43.44889875810386" lon="13.255115559128846"><ele>182.0</ele><time>2026-04-26T08:38:56.999Z</time></trkpt><trkpt lat="43.44908232876088" lon="13.255221256193487"><ele>184.66666666666666</ele><time>2026-04-26T08:38:57.999Z</time></trkpt><trkpt lat="43.449261505103394" lon="13.25533588511442"><ele>187.33333333333334</ele><time>2026-04-26T08:38:58.999Z</time></trkpt><trkpt lat="43.44944086243016" lon="13.255458355835541"><ele>190.0</ele><time>2026-04-26T08:38:59.999Z</time></trkpt><trkpt lat="43.449613095473815" lon="13.255571140505033"><ele>190.0</ele><time>2026-04-26T08:39:00.999Z</time></trkpt><trkpt lat="43.44978792550576" lon="13.255692634525374"><ele>190.0</ele><time>2026-04-26T08:39:01.999Z</time></trkpt><trkpt lat="43.4499630787916" lon="13.25580728314682"><ele>190.0</ele><time>2026-04-26T08:39:02.999Z</time></trkpt><trkpt lat="43.45014220948773" lon="13.25592012177752"><ele>190.0</ele><time>2026-04-26T08:39:03.999Z</time></trkpt><trkpt lat="43.45032429359163" lon="13.256042179878326"><ele>190.0</ele><time>2026-04-26T08:39:04.999Z</time></trkpt><trkpt lat="43.45051118477918" lon="13.256169577966538"><ele>190.0</ele><time>2026-04-26T08:39:05.999Z</time></trkpt><trkpt lat="43.4506903234975" lon="13.256287858722668"><ele>189.33333333333334</ele><time>2026-04-26T08:39:06.999Z</time></trkpt><trkpt lat="43.45086460034843" lon="13.2564084644998"><ele>188.66666666666666</ele><time>2026-04-26T08:39:07.999Z</time></trkpt><trkpt lat="43.451026776026076" lon="13.256509356053392"><ele>188.0</ele><time>2026-04-26T08:39:08.999Z</time></trkpt><trkpt lat="43.45118009375166" lon="13.256616310548484"><ele>191.0</ele><time>2026-04-26T08:39:09.999Z</time></trkpt><trkpt lat="43.45131348780282" lon="13.25672151170313"><ele>194.0</ele><time>2026-04-26T08:39:10.999Z</time></trkpt><trkpt lat="43.45143489892382" lon="13.256864438844412"><ele>197.0</ele><time>2026-04-26T08:39:11.999Z</time></trkpt><trkpt lat="43.451522287492914" lon="13.257025195621372"><ele>197.0</ele><time>2026-04-26T08:39:12.999Z</time></trkpt><trkpt lat="43.4516206487009" lon="13.257215400813278"><ele>197.0</ele><time>2026-04-26T08:39:13.999Z</time></trkpt><trkpt lat="43.451707071358044" lon="13.257427188278472"><ele>197.0</ele><time>2026-04-26T08:39:14.999Z</time></trkpt><trkpt lat="43.451781863035755" lon="13.25765278616462"><ele>194.0</ele><time>2026-04-26T08:39:15.999Z</time></trkpt><trkpt lat="43.45185294537363" lon="13.257886825541881"><ele>191.0</ele><time>2026-04-26T08:39:16.999Z</time></trkpt><trkpt lat="43.45193246248715" lon="13.258125672862832"><ele>188.0</ele><time>2026-04-26T08:39:17.999Z</time></trkpt><trkpt lat="43.4520065620702" lon="13.258368636751893"><ele>188.0</ele><time>2026-04-26T08:39:18.999Z</time></trkpt><trkpt lat="43.452077559203616" lon="13.258635881891228"><ele>188.0</ele><time>2026-04-26T08:39:19.999Z</time></trkpt><trkpt lat="43.45215980467304" lon="13.258893812063478"><ele>188.0</ele><time>2026-04-26T08:39:20.999Z</time></trkpt><trkpt lat="43.45225050243333" lon="13.259152265625845"><ele>186.33333333333331</ele><time>2026-04-26T08:39:21.999Z</time></trkpt><trkpt lat="43.452339602482894" lon="13.259415225233719"><ele>184.66666666666666</ele><time>2026-04-26T08:39:22.999Z</time></trkpt><trkpt lat="43.45242599079731" lon="13.259684496461603"><ele>183.0</ele><time>2026-04-26T08:39:23.999Z</time></trkpt><trkpt lat="43.45251923985982" lon="13.259949568152987"><ele>182.33333333333334</ele><time>2026-04-26T08:39:24.999Z</time></trkpt><trkpt lat="43.45260652030079" lon="13.260218191252894"><ele>181.66666666666669</ele><time>2026-04-26T08:39:25.999Z</time></trkpt><trkpt lat="43.45269459922033" lon="13.26048524599488"><ele>181.0</ele><time>2026-04-26T08:39:26.999Z</time></trkpt><trkpt lat="43.45279193239597" lon="13.260744412322898"><ele>180.33333333333334</ele><time>2026-04-26T08:39:27.999Z</time></trkpt><trkpt lat="43.45291806000921" lon="13.260994531961416"><ele>179.66666666666666</ele><time>2026-04-26T08:39:28.999Z</time></trkpt><trkpt lat="43.45306597129923" lon="13.261222941995115"><ele>179.0</ele><time>2026-04-26T08:39:29.999Z</time></trkpt><trkpt lat="43.45322003645986" lon="13.261449326789872"><ele>175.5</ele><time>2026-04-26T08:39:30.999Z</time></trkpt><trkpt lat="43.45337698483038" lon="13.261670961979197"><ele>172.0</ele><time>2026-04-26T08:39:31.999Z</time></trkpt><trkpt lat="43.45353746740633" lon="13.26190261622423"><ele>172.0</ele><time>2026-04-26T08:39:32.999Z</time></trkpt><trkpt lat="43.45369098711167" lon="13.262130771008364"><ele>172.0</ele><time>2026-04-26T08:39:33.999Z</time></trkpt><trkpt lat="43.45384387187435" lon="13.262360786435995"><ele>173.0</ele><time>2026-04-26T08:39:34.999Z</time></trkpt><trkpt lat="43.45399860826418" lon="13.262590919565332"><ele>174.0</ele><time>2026-04-26T08:39:35.999Z</time></trkpt><trkpt lat="43.45415190786874" lon="13.26281221441778"><ele>174.0</ele><time>2026-04-26T08:39:36.999Z</time></trkpt><trkpt lat="43.454303691441076" lon="13.263032744310761"><ele>174.0</ele><time>2026-04-26T08:39:37.999Z</time></trkpt><trkpt lat="43.45445396967556" lon="13.263261048345667"><ele>174.0</ele><time>2026-04-26T08:39:38.999Z</time></trkpt><trkpt lat="43.45460453171356" lon="13.263487611983782"><ele>174.0</ele><time>2026-04-26T08:39:39.999Z</time></trkpt><trkpt lat="43.45475849029012" lon="13.263713561447783"><ele>174.0</ele><time>2026-04-26T08:39:40.999Z</time></trkpt><trkpt lat="43.45491201553911" lon="13.263938700845944"><ele>174.0</ele><time>2026-04-26T08:39:41.999Z</time></trkpt><trkpt lat="43.45506042028469" lon="13.264170362271843"><ele>172.5</ele><time>2026-04-26T08:39:42.999Z</time></trkpt><trkpt lat="43.45521198252429" lon="13.26440105967499"><ele>171.0</ele><time>2026-04-26T08:39:43.999Z</time></trkpt><trkpt lat="43.45536921730006" lon="13.264625245377768"><ele>170.33333333333334</ele><time>2026-04-26T08:39:44.999Z</time></trkpt><trkpt lat="43.455533055457536" lon="13.264845478493756"><ele>169.66666666666669</ele><time>2026-04-26T08:39:45.999Z</time></trkpt><trkpt lat="43.45569711430634" lon="13.265048039434463"><ele>169.0</ele><time>2026-04-26T08:39:46.999Z</time></trkpt><trkpt lat="43.455861720194" lon="13.2652547648963"><ele>169.0</ele><time>2026-04-26T08:39:47.999Z</time></trkpt><trkpt lat="43.45602306503028" lon="13.265466347310912"><ele>169.0</ele><time>2026-04-26T08:39:48.999Z</time></trkpt><trkpt lat="43.456182867624975" lon="13.26567735109057"><ele>169.0</ele><time>2026-04-26T08:39:49.999Z</time></trkpt><trkpt lat="43.456336777559954" lon="13.26588882324083"><ele>169.33333333333334</ele><time>2026-04-26T08:39:50.999Z</time></trkpt><trkpt lat="43.45650261545058" lon="13.26609538487335"><ele>169.66666666666666</ele><time>2026-04-26T08:39:51.999Z</time></trkpt><trkpt lat="43.456662994187845" lon="13.266299766338893"><ele>170.0</ele><time>2026-04-26T08:39:52.999Z</time></trkpt><trkpt lat="43.456821828436816" lon="13.26650409492289"><ele>170.0</ele><time>2026-04-26T08:39:53.999Z</time></trkpt><trkpt lat="43.45698081941884" lon="13.26670851909271"><ele>170.0</ele><time>2026-04-26T08:39:54.999Z</time></trkpt><trkpt lat="43.457136893856806" lon="13.266912616298294"><ele>170.0</ele><time>2026-04-26T08:39:55.998Z</time></trkpt><trkpt lat="43.45729368416955" lon="13.267118467337617"><ele>169.33333333333331</ele><time>2026-04-26T08:39:56.998Z</time></trkpt><trkpt lat="43.4574497221613" lon="13.267317024178274"><ele>168.66666666666666</ele><time>2026-04-26T08:39:57.998Z</time></trkpt><trkpt lat="43.457599449346624" lon="13.267508925535555"><ele>168.0</ele><time>2026-04-26T08:39:58.998Z</time></trkpt><trkpt lat="43.45774351895533" lon="13.267686146366852"><ele>168.0</ele><time>2026-04-26T08:39:59.998Z</time></trkpt><trkpt lat="43.45788839789251" lon="13.26784738750434"><ele>168.0</ele><time>2026-04-26T08:40:00.998Z</time></trkpt><trkpt lat="43.45802627868268" lon="13.267999935680747"><ele>168.0</ele><time>2026-04-26T08:40:01.998Z</time></trkpt><trkpt lat="43.45816047088318" lon="13.268143315837413"><ele>167.66666666666666</ele><time>2026-04-26T08:40:02.998Z</time></trkpt><trkpt lat="43.458296873293015" lon="13.268268642881614"><ele>167.33333333333331</ele><time>2026-04-26T08:40:03.998Z</time></trkpt><trkpt lat="43.458428134246084" lon="13.268402932019974"><ele>167.0</ele><time>2026-04-26T08:40:04.998Z</time></trkpt><trkpt lat="43.45856106431749" lon="13.268551818753563"><ele>167.0</ele><time>2026-04-26T08:40:05.998Z</time></trkpt><trkpt lat="43.4586875264214" lon="13.26868511219927"><ele>167.0</ele><time>2026-04-26T08:40:06.998Z</time></trkpt><trkpt lat="43.45880933120041" lon="13.268813164601793"><ele>167.0</ele><time>2026-04-26T08:40:07.998Z</time></trkpt><trkpt lat="43.458926212156236" lon="13.268931397268295"><ele>167.25</ele><time>2026-04-26T08:40:08.998Z</time></trkpt><trkpt lat="43.4590308921605" lon="13.269053707841659"><ele>167.5</ele><time>2026-04-26T08:40:09.998Z</time></trkpt><trkpt lat="43.459147964290075" lon="13.269170705776707"><ele>167.75</ele><time>2026-04-26T08:40:10.998Z</time></trkpt><trkpt lat="43.45925468886559" lon="13.269306739939937"><ele>168.0</ele><time>2026-04-26T08:40:11.998Z</time></trkpt><trkpt lat="43.459355149518714" lon="13.269467133070227"><ele>168.0</ele><time>2026-04-26T08:40:12.998Z</time></trkpt><trkpt lat="43.45944627294059" lon="13.26963045624267"><ele>168.0</ele><time>2026-04-26T08:40:13.998Z</time></trkpt><trkpt lat="43.459483574549616" lon="13.26985132518299"><ele>168.0</ele><time>2026-04-26T08:40:14.998Z</time></trkpt><trkpt lat="43.459516683626795" lon="13.270082622159073"><ele>166.66666666666666</ele><time>2026-04-26T08:40:15.998Z</time></trkpt><trkpt lat="43.45954016150223" lon="13.270323680432007"><ele>165.33333333333331</ele><time>2026-04-26T08:40:16.998Z</time></trkpt><trkpt lat="43.45956226477468" lon="13.270572904301753"><ele>164.0</ele><time>2026-04-26T08:40:17.998Z</time></trkpt><trkpt lat="43.45957948204977" lon="13.270829369805162"><ele>163.33333333333331</ele><time>2026-04-26T08:40:18.998Z</time></trkpt><trkpt lat="43.45959048801444" lon="13.27109392609393"><ele>162.66666666666666</ele><time>2026-04-26T08:40:19.998Z</time></trkpt><trkpt lat="43.45959075322756" lon="13.271366729367584"><ele>162.0</ele><time>2026-04-26T08:40:20.998Z</time></trkpt><trkpt lat="43.45958057601096" lon="13.271649862030408"><ele>161.66666666666666</ele><time>2026-04-26T08:40:21.998Z</time></trkpt><trkpt lat="43.45955626940363" lon="13.271936192426907"><ele>161.33333333333331</ele><time>2026-04-26T08:40:22.998Z</time></trkpt><trkpt lat="43.45951817706216" lon="13.272222545457005"><ele>161.0</ele><time>2026-04-26T08:40:23.998Z</time></trkpt><trkpt lat="43.459472176200414" lon="13.272500358150358"><ele>161.33333333333331</ele><time>2026-04-26T08:40:24.999Z</time></trkpt><trkpt lat="43.45943418319075" lon="13.272781969712883"><ele>161.66666666666666</ele><time>2026-04-26T08:40:25.999Z</time></trkpt><trkpt lat="43.459374556374996" lon="13.273060403950055"><ele>162.0</ele><time>2026-04-26T08:40:26.999Z</time></trkpt><trkpt lat="43.459319722437506" lon="13.273331059133572"><ele>162.0</ele><time>2026-04-26T08:40:27.999Z</time></trkpt><trkpt lat="43.459263479389634" lon="13.273587418063002"><ele>162.0</ele><time>2026-04-26T08:40:28.999Z</time></trkpt><trkpt lat="43.459223335146284" lon="13.273841263984258"><ele>162.0</ele><time>2026-04-26T08:40:29.999Z</time></trkpt><trkpt lat="43.45919408293069" lon="13.274090978812112"><ele>160.66666666666666</ele><time>2026-04-26T08:40:30.999Z</time></trkpt><trkpt lat="43.45917799922406" lon="13.274340962503537"><ele>159.33333333333331</ele><time>2026-04-26T08:40:31.999Z</time></trkpt><trkpt lat="43.45916696835182" lon="13.274592073957754"><ele>158.0</ele><time>2026-04-26T08:40:32.999Z</time></trkpt><trkpt lat="43.45917141670095" lon="13.27484302505356"><ele>157.66666666666666</ele><time>2026-04-26T08:40:33.999Z</time></trkpt><trkpt lat="43.459203916224105" lon="13.27510055568004"><ele>157.33333333333334</ele><time>2026-04-26T08:40:34.999Z</time></trkpt><trkpt lat="43.45926415750753" lon="13.27535483785576"><ele>157.0</ele><time>2026-04-26T08:40:35.999Z</time></trkpt><trkpt lat="43.459370161139155" lon="13.275616046716337"><ele>156.33333333333334</ele><time>2026-04-26T08:40:36.999Z</time></trkpt><trkpt lat="43.45943887363648" lon="13.275863531025374"><ele>155.66666666666666</ele><time>2026-04-26T08:40:37.999Z</time></trkpt><trkpt lat="43.459516942369085" lon="13.276102678580013"><ele>155.0</ele><time>2026-04-26T08:40:38.999Z</time></trkpt><trkpt lat="43.459599517061" lon="13.276331460612424"><ele>155.33333333333331</ele><time>2026-04-26T08:40:39.999Z</time></trkpt><trkpt lat="43.459689293407095" lon="13.27654577985977"><ele>155.66666666666666</ele><time>2026-04-26T08:40:40.999Z</time></trkpt><trkpt lat="43.45978943109419" lon="13.276750138747698"><ele>156.0</ele><time>2026-04-26T08:40:41.999Z</time></trkpt><trkpt lat="43.4598906758576" lon="13.27695600459024"><ele>156.0</ele><time>2026-04-26T08:40:42.999Z</time></trkpt><trkpt lat="43.45999876136548" lon="13.277158535698442"><ele>156.0</ele><time>2026-04-26T08:40:43.999Z</time></trkpt><trkpt lat="43.46010419828186" lon="13.277367338637552"><ele>156.0</ele><time>2026-04-26T08:40:44.999Z</time></trkpt><trkpt lat="43.46021678598222" lon="13.277562845670204"><ele>155.0</ele><time>2026-04-26T08:40:45.999Z</time></trkpt><trkpt lat="43.46030072451974" lon="13.277779186696286"><ele>154.0</ele><time>2026-04-26T08:40:46.999Z</time></trkpt><trkpt lat="43.460389501974106" lon="13.277970723733922"><ele>153.0</ele><time>2026-04-26T08:40:47.999Z</time></trkpt><trkpt lat="43.460487591881105" lon="13.278152467130482"><ele>151.33333333333334</ele><time>2026-04-26T08:40:48.999Z</time></trkpt><trkpt lat="43.460582788718476" lon="13.278326133537146"><ele>149.66666666666669</ele><time>2026-04-26T08:40:49.999Z</time></trkpt><trkpt lat="43.46070209925742" lon="13.27846039845593"><ele>148.0</ele><time>2026-04-26T08:40:50.999Z</time></trkpt><trkpt lat="43.46083869663879" lon="13.278555233612169"><ele>148.0</ele><time>2026-04-26T08:40:51.999Z</time></trkpt><trkpt lat="43.46099320610058" lon="13.278620066034884"><ele>148.0</ele><time>2026-04-26T08:40:52.999Z</time></trkpt><trkpt lat="43.46115720951225" lon="13.278677240401136"><ele>148.0</ele><time>2026-04-26T08:40:53.999Z</time></trkpt><trkpt lat="43.46131125711875" lon="13.2787224814272"><ele>148.75</ele><time>2026-04-26T08:40:54.999Z</time></trkpt><trkpt lat="43.46145682652735" lon="13.278742203887347"><ele>149.5</ele><time>2026-04-26T08:40:55.999Z</time></trkpt><trkpt lat="43.46158921073929" lon="13.278712826577275"><ele>150.25</ele><time>2026-04-26T08:40:56.999Z</time></trkpt><trkpt lat="43.46171695880248" lon="13.278633914636007"><ele>151.0</ele><time>2026-04-26T08:40:57.999Z</time></trkpt><trkpt lat="43.461822246614354" lon="13.278467335187962"><ele>151.0</ele><time>2026-04-26T08:40:58.999Z</time></trkpt><trkpt lat="43.461936150927315" lon="13.2783334860924"><ele>151.0</ele><time>2026-04-26T08:40:59.999Z</time></trkpt><trkpt lat="43.46203562719915" lon="13.278187684764587"><ele>151.0</ele><time>2026-04-26T08:41:00.999Z</time></trkpt><trkpt lat="43.46212380109454" lon="13.278062656032747"><ele>151.0</ele><time>2026-04-26T08:41:01.999Z</time></trkpt><trkpt lat="43.46219327167046" lon="13.27798011021943"><ele>154.2</ele><time>2026-04-26T08:41:02.999Z</time></trkpt><trkpt lat="43.46230250054042" lon="13.278003924014456"><ele>157.39999999999998</ele><time>2026-04-26T08:41:04.999Z</time></trkpt><trkpt lat="43.46235916777369" lon="13.278099700330957"><ele>160.6</ele><time>2026-04-26T08:41:05.999Z</time></trkpt><trkpt lat="43.4624044136889" lon="13.278223786738534"><ele>163.79999999999998</ele><time>2026-04-26T08:41:06.999Z</time></trkpt><trkpt lat="43.462456933084" lon="13.278388226632611"><ele>167.0</ele><time>2026-04-26T08:41:07.999Z</time></trkpt><trkpt lat="43.46252556147455" lon="13.278571858188801"><ele>167.0</ele><time>2026-04-26T08:41:08.999Z</time></trkpt><trkpt lat="43.462589256737225" lon="13.278735810439807"><ele>167.0</ele><time>2026-04-26T08:41:09.999Z</time></trkpt><trkpt lat="43.462666568175024" lon="13.27894442143096"><ele>167.0</ele><time>2026-04-26T08:41:10.999Z</time></trkpt><trkpt lat="43.46275957569858" lon="13.279140387587404"><ele>169.33333333333331</ele><time>2026-04-26T08:41:11.999Z</time></trkpt><trkpt lat="43.46285686317091" lon="13.279345656330744"><ele>171.66666666666666</ele><time>2026-04-26T08:41:12.999Z</time></trkpt><trkpt lat="43.462960709465406" lon="13.279571305049384"><ele>174.0</ele><time>2026-04-26T08:41:13.999Z</time></trkpt><trkpt lat="43.463066862801405" lon="13.279755994350994"><ele>170.66666666666666</ele><time>2026-04-26T08:41:14.999Z</time></trkpt><trkpt lat="43.46316460632978" lon="13.27993199492277"><ele>167.33333333333331</ele><time>2026-04-26T08:41:15.999Z</time></trkpt><trkpt lat="43.46324073048405" lon="13.280111144964499"><ele>164.0</ele><time>2026-04-26T08:41:16.999Z</time></trkpt><trkpt lat="43.463294084976404" lon="13.280289412114076"><ele>164.0</ele><time>2026-04-26T08:41:17.999Z</time></trkpt><trkpt lat="43.46336366218378" lon="13.28047739524474"><ele>164.0</ele><time>2026-04-26T08:41:18.999Z</time></trkpt><trkpt lat="43.463408038069836" lon="13.280702457981874"><ele>164.0</ele><time>2026-04-26T08:41:19.999Z</time></trkpt><trkpt lat="43.46348092489071" lon="13.280937664158357"><ele>162.33333333333331</ele><time>2026-04-26T08:41:20.999Z</time></trkpt><trkpt lat="43.463540614283275" lon="13.281184317924193"><ele>160.66666666666666</ele><time>2026-04-26T08:41:21.999Z</time></trkpt><trkpt lat="43.46359792311454" lon="13.281420063988966"><ele>159.0</ele><time>2026-04-26T08:41:22.999Z</time></trkpt><trkpt lat="43.46362677842254" lon="13.281648839139178"><ele>157.0</ele><time>2026-04-26T08:41:23.999Z</time></trkpt><trkpt lat="43.463615318055886" lon="13.281889101130618"><ele>155.0</ele><time>2026-04-26T08:41:24.999Z</time></trkpt><trkpt lat="43.46357828228928" lon="13.282148128579447"><ele>153.0</ele><time>2026-04-26T08:41:25.999Z</time></trkpt><trkpt lat="43.46353001052077" lon="13.282416793031294"><ele>152.66666666666666</ele><time>2026-04-26T08:41:26.999Z</time></trkpt><trkpt lat="43.463492466824626" lon="13.28268950108304"><ele>152.33333333333331</ele><time>2026-04-26T08:41:27.999Z</time></trkpt><trkpt lat="43.4634457928028" lon="13.28297708378081"><ele>152.0</ele><time>2026-04-26T08:41:28.999Z</time></trkpt><trkpt lat="43.46339428405404" lon="13.283276702716"><ele>152.0</ele><time>2026-04-26T08:41:29.999Z</time></trkpt><trkpt lat="43.4633534639472" lon="13.283586257212932"><ele>152.0</ele><time>2026-04-26T08:41:30.999Z</time></trkpt><trkpt lat="43.46332313651157" lon="13.283888991884702"><ele>152.0</ele><time>2026-04-26T08:41:31.999Z</time></trkpt><trkpt lat="43.46331368412796" lon="13.284189530901449"><ele>152.0</ele><time>2026-04-26T08:41:32.999Z</time></trkpt><trkpt lat="43.463303898024996" lon="13.28448908440853"><ele>152.0</ele><time>2026-04-26T08:41:33.999Z</time></trkpt><trkpt lat="43.463287326072575" lon="13.284793187899025"><ele>152.66666666666666</ele><time>2026-04-26T08:41:34.999Z</time></trkpt><trkpt lat="43.46327047333741" lon="13.285092725964763"><ele>153.33333333333334</ele><time>2026-04-26T08:41:35.999Z</time></trkpt><trkpt lat="43.46325530954701" lon="13.285394947037613"><ele>154.0</ele><time>2026-04-26T08:41:36.999Z</time></trkpt><trkpt lat="43.46324037166091" lon="13.285691818037174"><ele>154.0</ele><time>2026-04-26T08:41:37.999Z</time></trkpt><trkpt lat="43.46323096260103" lon="13.285991912884697"><ele>154.0</ele><time>2026-04-26T08:41:38.999Z</time></trkpt><trkpt lat="43.46321388771011" lon="13.286285697659801"><ele>154.0</ele><time>2026-04-26T08:41:39.999Z</time></trkpt><trkpt lat="43.46321106098985" lon="13.286579444342951"><ele>154.0</ele><time>2026-04-26T08:41:40.999Z</time></trkpt><trkpt lat="43.46321753178159" lon="13.28687192669336"><ele>154.0</ele><time>2026-04-26T08:41:41.999Z</time></trkpt><trkpt lat="43.4632482371532" lon="13.287170035927625"><ele>154.0</ele><time>2026-04-26T08:41:42.999Z</time></trkpt><trkpt lat="43.463299236078626" lon="13.287454786666169"><ele>152.33333333333334</ele><time>2026-04-26T08:41:43.999Z</time></trkpt><trkpt lat="43.46336872082516" lon="13.287739183544593"><ele>150.66666666666666</ele><time>2026-04-26T08:41:44.999Z</time></trkpt><trkpt lat="43.463450784167186" lon="13.28801761159178"><ele>149.0</ele><time>2026-04-26T08:41:45.999Z</time></trkpt><trkpt lat="43.46354681878515" lon="13.288291581458871"><ele>148.33333333333331</ele><time>2026-04-26T08:41:46.999Z</time></trkpt><trkpt lat="43.46364473358546" lon="13.288562519879969"><ele>147.66666666666666</ele><time>2026-04-26T08:41:47.999Z</time></trkpt><trkpt lat="43.46372675798199" lon="13.288834572350533"><ele>147.0</ele><time>2026-04-26T08:41:48.999Z</time></trkpt><trkpt lat="43.46379580501015" lon="13.28911017998003"><ele>148.0</ele><time>2026-04-26T08:41:49.999Z</time></trkpt><trkpt lat="43.463859678427305" lon="13.289388480723053"><ele>149.0</ele><time>2026-04-26T08:41:50.999Z</time></trkpt><trkpt lat="43.463912057228846" lon="13.289659480380447"><ele>150.0</ele><time>2026-04-26T08:41:51.999Z</time></trkpt><trkpt lat="43.46396918938099" lon="13.289916396861038"><ele>150.0</ele><time>2026-04-26T08:41:52.999Z</time></trkpt><trkpt lat="43.4640332462187" lon="13.290163236123686"><ele>150.0</ele><time>2026-04-26T08:41:53.999Z</time></trkpt><trkpt lat="43.46410668189834" lon="13.290405436651033"><ele>150.0</ele><time>2026-04-26T08:41:54.999Z</time></trkpt><trkpt lat="43.46419696084482" lon="13.290639850753218"><ele>148.66666666666666</ele><time>2026-04-26T08:41:55.999Z</time></trkpt><trkpt lat="43.46429030324584" lon="13.290870454002006"><ele>147.33333333333331</ele><time>2026-04-26T08:41:56.999Z</time></trkpt><trkpt lat="43.46438538096145" lon="13.291105695630785"><ele>146.0</ele><time>2026-04-26T08:41:57.999Z</time></trkpt><trkpt lat="43.46448884213384" lon="13.291335018458966"><ele>144.66666666666666</ele><time>2026-04-26T08:41:58.999Z</time></trkpt><trkpt lat="43.46460765480626" lon="13.291556684723968"><ele>143.33333333333334</ele><time>2026-04-26T08:41:59.999Z</time></trkpt><trkpt lat="43.46473973892335" lon="13.291767945591122"><ele>142.0</ele><time>2026-04-26T08:42:00.998Z</time></trkpt><trkpt lat="43.464866989943054" lon="13.291975078045548"><ele>142.0</ele><time>2026-04-26T08:42:01.998Z</time></trkpt><trkpt lat="43.464989341402564" lon="13.29216942951265"><ele>142.0</ele><time>2026-04-26T08:42:02.998Z</time></trkpt><trkpt lat="43.465074592170794" lon="13.292351161762912"><ele>142.0</ele><time>2026-04-26T08:42:03.998Z</time></trkpt><trkpt lat="43.46513792577478" lon="13.292551984148277"><ele>142.0</ele><time>2026-04-26T08:42:04.998Z</time></trkpt><trkpt lat="43.4651609207097" lon="13.292775459112411"><ele>142.0</ele><time>2026-04-26T08:42:05.998Z</time></trkpt><trkpt lat="43.465174610350886" lon="13.29301290543408"><ele>142.0</ele><time>2026-04-26T08:42:06.998Z</time></trkpt><trkpt lat="43.46519350152825" lon="13.293261886596477"><ele>142.33333333333334</ele><time>2026-04-26T08:42:07.998Z</time></trkpt><trkpt lat="43.46522125029105" lon="13.29352021271141"><ele>142.66666666666666</ele><time>2026-04-26T08:42:08.998Z</time></trkpt><trkpt lat="43.46526042101457" lon="13.293788495508863"><ele>143.0</ele><time>2026-04-26T08:42:09.998Z</time></trkpt><trkpt lat="43.46529889918054" lon="13.294068662089668"><ele>143.0</ele><time>2026-04-26T08:42:10.998Z</time></trkpt><trkpt lat="43.465337288721514" lon="13.294356137635262"><ele>143.0</ele><time>2026-04-26T08:42:11.998Z</time></trkpt><trkpt lat="43.465365856122794" lon="13.294640471318592"><ele>143.0</ele><time>2026-04-26T08:42:12.998Z</time></trkpt><trkpt lat="43.46540419675045" lon="13.294898214480353"><ele>143.33333333333331</ele><time>2026-04-26T08:42:13.998Z</time></trkpt><trkpt lat="43.465440920087765" lon="13.295150498619588"><ele>143.66666666666666</ele><time>2026-04-26T08:42:14.998Z</time></trkpt><trkpt lat="43.46548882680755" lon="13.295383570885555"><ele>144.0</ele><time>2026-04-26T08:42:15.998Z</time></trkpt><trkpt lat="43.46554772703694" lon="13.295608564253767"><ele>144.33333333333334</ele><time>2026-04-26T08:42:16.998Z</time></trkpt><trkpt lat="43.46560456888197" lon="13.295814893052214"><ele>144.66666666666669</ele><time>2026-04-26T08:42:17.998Z</time></trkpt><trkpt lat="43.46566387868174" lon="13.296015661152708"><ele>145.0</ele><time>2026-04-26T08:42:18.998Z</time></trkpt><trkpt lat="43.46574032069327" lon="13.296225770151388"><ele>145.0</ele><time>2026-04-26T08:42:19.998Z</time></trkpt><trkpt lat="43.46582334452706" lon="13.296432485222242"><ele>145.0</ele><time>2026-04-26T08:42:20.998Z</time></trkpt><trkpt lat="43.46590661339615" lon="13.296648018090284"><ele>145.0</ele><time>2026-04-26T08:42:21.998Z</time></trkpt><trkpt lat="43.46599193657281" lon="13.29687127727528"><ele>145.0</ele><time>2026-04-26T08:42:22.998Z</time></trkpt><trkpt lat="43.46606862884896" lon="13.297102191013378"><ele>145.0</ele><time>2026-04-26T08:42:23.998Z</time></trkpt><trkpt lat="43.466148869317145" lon="13.297316469057591"><ele>145.0</ele><time>2026-04-26T08:42:24.998Z</time></trkpt><trkpt lat="43.466235508529074" lon="13.297541644829971"><ele>145.66666666666669</ele><time>2026-04-26T08:42:25.998Z</time></trkpt><trkpt lat="43.466318395587926" lon="13.297770451834403"><ele>146.33333333333334</ele><time>2026-04-26T08:42:26.998Z</time></trkpt><trkpt lat="43.46640146455456" lon="13.297998231434526"><ele>147.0</ele><time>2026-04-26T08:42:27.998Z</time></trkpt><trkpt lat="43.4664856936784" lon="13.29823148578535"><ele>147.0</ele><time>2026-04-26T08:42:28.998Z</time></trkpt><trkpt lat="43.466566560220805" lon="13.298466549552037"><ele>147.0</ele><time>2026-04-26T08:42:29.998Z</time></trkpt><trkpt lat="43.466635072336864" lon="13.298705734633868"><ele>147.0</ele><time>2026-04-26T08:42:30.999Z</time></trkpt><trkpt lat="43.46668800377558" lon="13.298955157650763"><ele>147.0</ele><time>2026-04-26T08:42:31.999Z</time></trkpt><trkpt lat="43.466742431870976" lon="13.299203568706483"><ele>147.0</ele><time>2026-04-26T08:42:32.999Z</time></trkpt><trkpt lat="43.46679521439872" lon="13.299449005268425"><ele>147.0</ele><time>2026-04-26T08:42:33.999Z</time></trkpt><trkpt lat="43.46685616985238" lon="13.299718882200969"><ele>148.0</ele><time>2026-04-26T08:42:34.999Z</time></trkpt><trkpt lat="43.4669062720042" lon="13.299913870978887"><ele>149.0</ele><time>2026-04-26T08:42:35.999Z</time></trkpt><trkpt lat="43.4669548492884" lon="13.300116003562216"><ele>150.0</ele><time>2026-04-26T08:42:36.999Z</time></trkpt><trkpt lat="43.46699945461268" lon="13.300308181288433"><ele>150.0</ele><time>2026-04-26T08:42:37.999Z</time></trkpt><trkpt lat="43.46703510914815" lon="13.300505981623909"><ele>150.0</ele><time>2026-04-26T08:42:38.999Z</time></trkpt><trkpt lat="43.46707190554353" lon="13.300692397334341"><ele>150.0</ele><time>2026-04-26T08:42:39.999Z</time></trkpt><trkpt lat="43.4670998543645" lon="13.300876596799542"><ele>150.0</ele><time>2026-04-26T08:42:40.999Z</time></trkpt><trkpt lat="43.46713490572941" lon="13.301045209447269"><ele>150.0</ele><time>2026-04-26T08:42:41.999Z</time></trkpt><trkpt lat="43.46716129736992" lon="13.30120076611841"><ele>150.0</ele><time>2026-04-26T08:42:42.999Z</time></trkpt><trkpt lat="43.46719587873097" lon="13.301351603939622"><ele>150.0</ele><time>2026-04-26T08:42:43.999Z</time></trkpt><trkpt lat="43.46720453728451" lon="13.301477425920481"><ele>150.0</ele><time>2026-04-26T08:42:44.999Z</time></trkpt><trkpt lat="43.46723562318499" lon="13.30162383917065"><ele>150.0</ele><time>2026-04-26T08:42:45.999Z</time></trkpt><trkpt lat="43.46724690707246" lon="13.301716342268117"><ele>149.8</ele><time>2026-04-26T08:42:46.999Z</time></trkpt><trkpt lat="43.46726004708175" lon="13.301865923504984"><ele>149.6</ele><time>2026-04-26T08:42:48.999Z</time></trkpt><trkpt lat="43.467287076423844" lon="13.301956323265651"><ele>149.4</ele><time>2026-04-26T08:42:49.999Z</time></trkpt><trkpt lat="43.467268744303084" lon="13.302133386462188"><ele>149.2</ele><time>2026-04-26T08:42:51.999Z</time></trkpt><trkpt lat="43.4672529349347" lon="13.302243270513149"><ele>149.0</ele><time>2026-04-26T08:42:52.999Z</time></trkpt><trkpt lat="43.467267138940024" lon="13.30235390358294"><ele>148.75</ele><time>2026-04-26T08:42:53.999Z</time></trkpt><trkpt lat="43.467314099013656" lon="13.302475706178889"><ele>148.5</ele><time>2026-04-26T08:42:54.999Z</time></trkpt><trkpt lat="43.46738109472033" lon="13.302589741457622"><ele>148.25</ele><time>2026-04-26T08:42:55.999Z</time></trkpt><trkpt lat="43.46744490830389" lon="13.302722062246056"><ele>148.0</ele><time>2026-04-26T08:42:56.999Z</time></trkpt><trkpt lat="43.46749912426889" lon="13.302882027081475"><ele>148.0</ele><time>2026-04-26T08:42:57.999Z</time></trkpt><trkpt lat="43.467559394645946" lon="13.303055709993979"><ele>148.0</ele><time>2026-04-26T08:42:58.999Z</time></trkpt><trkpt lat="43.46762653487388" lon="13.303225208591261"><ele>148.0</ele><time>2026-04-26T08:42:59.999Z</time></trkpt><trkpt lat="43.46769404214609" lon="13.303398997849804"><ele>148.0</ele><time>2026-04-26T08:43:00.999Z</time></trkpt><trkpt lat="43.46775106740856" lon="13.30358788258946"><ele>147.5</ele><time>2026-04-26T08:43:01.999Z</time></trkpt><trkpt lat="43.46779336484571" lon="13.303779976703513"><ele>147.0</ele><time>2026-04-26T08:43:02.999Z</time></trkpt><trkpt lat="43.46782176300867" lon="13.303981503515363"><ele>146.5</ele><time>2026-04-26T08:43:03.999Z</time></trkpt><trkpt lat="43.467816248980036" lon="13.304185446297755"><ele>146.0</ele><time>2026-04-26T08:43:04.999Z</time></trkpt><trkpt lat="43.467810838089896" lon="13.304398011887159"><ele>146.0</ele><time>2026-04-26T08:43:05.999Z</time></trkpt><trkpt lat="43.467798151542205" lon="13.304610008875054"><ele>146.0</ele><time>2026-04-26T08:43:06.999Z</time></trkpt><trkpt lat="43.467786274608144" lon="13.304817331570714"><ele>146.0</ele><time>2026-04-26T08:43:07.999Z</time></trkpt><trkpt lat="43.46778291775928" lon="13.305008935712511"><ele>146.0</ele><time>2026-04-26T08:43:08.999Z</time></trkpt><trkpt lat="43.46777490038642" lon="13.305178274505819"><ele>146.0</ele><time>2026-04-26T08:43:09.999Z</time></trkpt><trkpt lat="43.46778655450184" lon="13.305341877156133"><ele>146.0</ele><time>2026-04-26T08:43:10.999Z</time></trkpt><trkpt lat="43.46779994278555" lon="13.305509350276928"><ele>146.0</ele><time>2026-04-26T08:43:11.999Z</time></trkpt><trkpt lat="43.467811900358555" lon="13.305681174513042"><ele>146.0</ele><time>2026-04-26T08:43:12.999Z</time></trkpt><trkpt lat="43.46782841457864" lon="13.3058292769756"><ele>146.2</ele><time>2026-04-26T08:43:13.999Z</time></trkpt><trkpt lat="43.46784146180339" lon="13.305946147624853"><ele>146.39999999999998</ele><time>2026-04-26T08:43:14.999Z</time></trkpt><trkpt lat="43.467846533572924" lon="13.30604795189306"><ele>146.6</ele><time>2026-04-26T08:43:15.999Z</time></trkpt><trkpt lat="43.467857683709624" lon="13.306134588231487"><ele>146.79999999999998</ele><time>2026-04-26T08:43:16.999Z</time></trkpt><trkpt lat="43.468023757130744" lon="13.306188286033658"><ele>147.0</ele><time>2026-04-26T08:43:19.999Z</time></trkpt><trkpt lat="43.46809659753918" lon="13.30613868856727"><ele>147.6</ele><time>2026-04-26T08:43:20.999Z</time></trkpt><trkpt lat="43.46817189486163" lon="13.306069369525318"><ele>148.2</ele><time>2026-04-26T08:43:21.999Z</time></trkpt><trkpt lat="43.46826040004084" lon="13.305999225704234"><ele>148.8</ele><time>2026-04-26T08:43:22.999Z</time></trkpt><trkpt lat="43.468359515383305" lon="13.305929397361734"><ele>149.4</ele><time>2026-04-26T08:43:23.999Z</time></trkpt><trkpt lat="43.46847519816951" lon="13.305850144966676"><ele>150.0</ele><time>2026-04-26T08:43:24.999Z</time></trkpt><trkpt lat="43.46859915220273" lon="13.305761402467404"><ele>150.0</ele><time>2026-04-26T08:43:25.999Z</time></trkpt><trkpt lat="43.46872005905502" lon="13.305669208098513"><ele>150.0</ele><time>2026-04-26T08:43:26.999Z</time></trkpt><trkpt lat="43.4688523282651" lon="13.305574198701029"><ele>150.0</ele><time>2026-04-26T08:43:27.999Z</time></trkpt><trkpt lat="43.468999168050786" lon="13.30547885308402"><ele>149.33333333333334</ele><time>2026-04-26T08:43:28.999Z</time></trkpt><trkpt lat="43.46915760205017" lon="13.305378003305755"><ele>148.66666666666669</ele><time>2026-04-26T08:43:29.999Z</time></trkpt><trkpt lat="43.469322968215735" lon="13.305274873259426"><ele>148.0</ele><time>2026-04-26T08:43:30.999Z</time></trkpt><trkpt lat="43.46947429860949" lon="13.305165206088795"><ele>149.33333333333334</ele><time>2026-04-26T08:43:31.999Z</time></trkpt><trkpt lat="43.469641973576046" lon="13.30508479898286"><ele>150.66666666666666</ele><time>2026-04-26T08:43:32.999Z</time></trkpt><trkpt lat="43.469803998866226" lon="13.304978092657898"><ele>152.0</ele><time>2026-04-26T08:43:33.999Z</time></trkpt><trkpt lat="43.46996587649021" lon="13.304871483589512"><ele>152.0</ele><time>2026-04-26T08:43:34.999Z</time></trkpt><trkpt lat="43.47012101286268" lon="13.304770703684273"><ele>152.0</ele><time>2026-04-26T08:43:35.999Z</time></trkpt><trkpt lat="43.47025881138238" lon="13.304683303503696"><ele>152.0</ele><time>2026-04-26T08:43:36.999Z</time></trkpt><trkpt lat="43.470389712685844" lon="13.3046101042433"><ele>153.5</ele><time>2026-04-26T08:43:37.999Z</time></trkpt><trkpt lat="43.47051123020461" lon="13.304563097908279"><ele>155.0</ele><time>2026-04-26T08:43:38.999Z</time></trkpt><trkpt lat="43.47062545160213" lon="13.304546190087313"><ele>156.5</ele><time>2026-04-26T08:43:39.999Z</time></trkpt><trkpt lat="43.470744280399465" lon="13.304572414434352"><ele>158.0</ele><time>2026-04-26T08:43:40.999Z</time></trkpt><trkpt lat="43.4708774190671" lon="13.304625111323233"><ele>158.0</ele><time>2026-04-26T08:43:41.999Z</time></trkpt><trkpt lat="43.471022989356534" lon="13.304691913940847"><ele>158.0</ele><time>2026-04-26T08:43:42.999Z</time></trkpt><trkpt lat="43.47117793864189" lon="13.304736959881971"><ele>158.0</ele><time>2026-04-26T08:43:43.999Z</time></trkpt><trkpt lat="43.471333323883485" lon="13.30481373178827"><ele>162.33333333333331</ele><time>2026-04-26T08:43:44.999Z</time></trkpt><trkpt lat="43.471496742333116" lon="13.304888544195952"><ele>166.66666666666666</ele><time>2026-04-26T08:43:45.999Z</time></trkpt><trkpt lat="43.47167970091468" lon="13.304961362890811"><ele>171.0</ele><time>2026-04-26T08:43:46.999Z</time></trkpt><trkpt lat="43.47185786447576" lon="13.30501977418597"><ele>171.0</ele><time>2026-04-26T08:43:47.999Z</time></trkpt><trkpt lat="43.472016193702814" lon="13.30507153019253"><ele>171.0</ele><time>2026-04-26T08:43:48.999Z</time></trkpt><trkpt lat="43.47218442382078" lon="13.305119272788687"><ele>171.0</ele><time>2026-04-26T08:43:49.999Z</time></trkpt><trkpt lat="43.472362555264084" lon="13.30517373172455"><ele>172.66666666666666</ele><time>2026-04-26T08:43:50.999Z</time></trkpt><trkpt lat="43.472544198757994" lon="13.305254846733082"><ele>174.33333333333331</ele><time>2026-04-26T08:43:51.999Z</time></trkpt><trkpt lat="43.47270680427859" lon="13.30526456596968"><ele>176.0</ele><time>2026-04-26T08:43:52.999Z</time></trkpt><trkpt lat="43.4728773104553" lon="13.305271518605954"><ele>179.33333333333331</ele><time>2026-04-26T08:43:53.999Z</time></trkpt><trkpt lat="43.47304778941908" lon="13.305260912522838"><ele>182.66666666666666</ele><time>2026-04-26T08:43:54.999Z</time></trkpt><trkpt lat="43.473220214127274" lon="13.305239700743495"><ele>186.0</ele><time>2026-04-26T08:43:55.999Z</time></trkpt><trkpt lat="43.473398263515094" lon="13.305228825697128"><ele>186.0</ele><time>2026-04-26T08:43:56.999Z</time></trkpt><trkpt lat="43.47357467091627" lon="13.305208169882455"><ele>186.0</ele><time>2026-04-26T08:43:57.999Z</time></trkpt><trkpt lat="43.47375063417432" lon="13.305191723044803"><ele>186.0</ele><time>2026-04-26T08:43:58.999Z</time></trkpt><trkpt lat="43.47392045906439" lon="13.305207240744899"><ele>188.25</ele><time>2026-04-26T08:43:59.999Z</time></trkpt><trkpt lat="43.47408198270077" lon="13.305207852070142"><ele>190.5</ele><time>2026-04-26T08:44:00.999Z</time></trkpt><trkpt lat="43.47422883638882" lon="13.305212406075324"><ele>192.75</ele><time>2026-04-26T08:44:01.999Z</time></trkpt><trkpt lat="43.47435775508409" lon="13.305212261128013"><ele>195.0</ele><time>2026-04-26T08:44:02.999Z</time></trkpt><trkpt lat="43.4744912922618" lon="13.305266311251064"><ele>197.25</ele><time>2026-04-26T08:44:03.999Z</time></trkpt><trkpt lat="43.474616746728614" lon="13.30535548275864"><ele>199.5</ele><time>2026-04-26T08:44:04.999Z</time></trkpt><trkpt lat="43.474734215004766" lon="13.30547963302586"><ele>201.75</ele><time>2026-04-26T08:44:05.999Z</time></trkpt><trkpt lat="43.47484849852586" lon="13.305595361996716"><ele>204.0</ele><time>2026-04-26T08:44:06.999Z</time></trkpt><trkpt lat="43.47496840219872" lon="13.305725153751153"><ele>206.0</ele><time>2026-04-26T08:44:07.999Z</time></trkpt><trkpt lat="43.47509191112982" lon="13.305842267571448"><ele>208.0</ele><time>2026-04-26T08:44:08.999Z</time></trkpt><trkpt lat="43.47522547221445" lon="13.305959092468235"><ele>210.0</ele><time>2026-04-26T08:44:09.999Z</time></trkpt><trkpt lat="43.475365870953944" lon="13.306082972197201"><ele>210.33333333333331</ele><time>2026-04-26T08:44:10.999Z</time></trkpt><trkpt lat="43.475497094137516" lon="13.306227870500846"><ele>210.66666666666666</ele><time>2026-04-26T08:44:11.999Z</time></trkpt><trkpt lat="43.47562280464565" lon="13.306390265048398"><ele>211.0</ele><time>2026-04-26T08:44:12.999Z</time></trkpt><trkpt lat="43.475749449748236" lon="13.306567819362769"><ele>212.33333333333331</ele><time>2026-04-26T08:44:13.999Z</time></trkpt><trkpt lat="43.47586302564267" lon="13.306759342876775"><ele>213.66666666666669</ele><time>2026-04-26T08:44:14.999Z</time></trkpt><trkpt lat="43.47597077037449" lon="13.306963378152863"><ele>215.0</ele><time>2026-04-26T08:44:15.999Z</time></trkpt><trkpt lat="43.476088152323605" lon="13.307175729879239"><ele>215.33333333333334</ele><time>2026-04-26T08:44:16.999Z</time></trkpt><trkpt lat="43.476197568110834" lon="13.307382385079906"><ele>215.66666666666669</ele><time>2026-04-26T08:44:17.999Z</time></trkpt><trkpt lat="43.47630577543809" lon="13.307572945901306"><ele>216.0</ele><time>2026-04-26T08:44:18.999Z</time></trkpt><trkpt lat="43.47641154583772" lon="13.307743123978108"><ele>216.0</ele><time>2026-04-26T08:44:19.999Z</time></trkpt><trkpt lat="43.47650902993068" lon="13.307898635396741"><ele>216.0</ele><time>2026-04-26T08:44:20.999Z</time></trkpt><trkpt lat="43.476601888173526" lon="13.308035911195189"><ele>216.0</ele><time>2026-04-26T08:44:21.999Z</time></trkpt><trkpt lat="43.476689514828685" lon="13.308154483002932"><ele>216.0</ele><time>2026-04-26T08:44:22.999Z</time></trkpt><trkpt lat="43.47678799455235" lon="13.308246747555039"><ele>215.75</ele><time>2026-04-26T08:44:23.999Z</time></trkpt><trkpt lat="43.47689815198403" lon="13.30832072834224"><ele>215.5</ele><time>2026-04-26T08:44:24.999Z</time></trkpt><trkpt lat="43.47702411827869" lon="13.308369336562063"><ele>215.25</ele><time>2026-04-26T08:44:25.999Z</time></trkpt><trkpt lat="43.47716137283379" lon="13.308388176268462"><ele>215.0</ele><time>2026-04-26T08:44:26.998Z</time></trkpt><trkpt lat="43.477306296769804" lon="13.308369762032472"><ele>216.33333333333334</ele><time>2026-04-26T08:44:27.998Z</time></trkpt><trkpt lat="43.477454135775325" lon="13.308328724443689"><ele>217.66666666666669</ele><time>2026-04-26T08:44:28.998Z</time></trkpt><trkpt lat="43.477610731285324" lon="13.308298690793707"><ele>219.0</ele><time>2026-04-26T08:44:29.998Z</time></trkpt><trkpt lat="43.477768761128544" lon="13.308230910350202"><ele>219.0</ele><time>2026-04-26T08:44:30.998Z</time></trkpt><trkpt lat="43.477938958290736" lon="13.308133688267969"><ele>219.0</ele><time>2026-04-26T08:44:31.998Z</time></trkpt><trkpt lat="43.47812298330553" lon="13.308081345010757"><ele>219.0</ele><time>2026-04-26T08:44:32.998Z</time></trkpt><trkpt lat="43.47830455242314" lon="13.308018507091923"><ele>218.66666666666669</ele><time>2026-04-26T08:44:33.998Z</time></trkpt><trkpt lat="43.4784839863234" lon="13.307959658264904"><ele>218.33333333333334</ele><time>2026-04-26T08:44:34.998Z</time></trkpt><trkpt lat="43.478667972115765" lon="13.30790708276496"><ele>218.0</ele><time>2026-04-26T08:44:35.998Z</time></trkpt><trkpt lat="43.47885375979269" lon="13.30785439386317"><ele>218.0</ele><time>2026-04-26T08:44:37Z</time></trkpt><trkpt lat="43.47904131375799" lon="13.307777912200695"><ele>218.0</ele><time>2026-04-26T08:44:38Z</time></trkpt><trkpt lat="43.479242205551984" lon="13.307722102595262"><ele>218.0</ele><time>2026-04-26T08:44:39Z</time></trkpt><trkpt lat="43.479436675005296" lon="13.30768361047558"><ele>219.0</ele><time>2026-04-26T08:44:40Z</time></trkpt><trkpt lat="43.479629032337634" lon="13.307620821553348"><ele>220.0</ele><time>2026-04-26T08:44:41Z</time></trkpt><trkpt lat="43.47981433793237" lon="13.307559170872238"><ele>221.0</ele><time>2026-04-26T08:44:42Z</time></trkpt><trkpt lat="43.479994362575034" lon="13.307504323734534"><ele>221.0</ele><time>2026-04-26T08:44:43Z</time></trkpt><trkpt lat="43.480175963082914" lon="13.3074594718129"><ele>221.0</ele><time>2026-04-26T08:44:44Z</time></trkpt><trkpt lat="43.480349130848715" lon="13.307410681157876"><ele>221.0</ele><time>2026-04-26T08:44:45Z</time></trkpt><trkpt lat="43.48052969241227" lon="13.307406545254583"><ele>222.33333333333334</ele><time>2026-04-26T08:44:46Z</time></trkpt><trkpt lat="43.48070677376314" lon="13.307413584959152"><ele>223.66666666666669</ele><time>2026-04-26T08:44:47Z</time></trkpt><trkpt lat="43.48088314992088" lon="13.307409116346461"><ele>225.0</ele><time>2026-04-26T08:44:48Z</time></trkpt><trkpt lat="43.481055295689494" lon="13.307412628862997"><ele>225.0</ele><time>2026-04-26T08:44:49Z</time></trkpt><trkpt lat="43.48122765927006" lon="13.307413485702288"><ele>225.0</ele><time>2026-04-26T08:44:50Z</time></trkpt><trkpt lat="43.48140233642591" lon="13.307404453424846"><ele>225.0</ele><time>2026-04-26T08:44:51Z</time></trkpt><trkpt lat="43.481573031526445" lon="13.30739325284078"><ele>227.33333333333331</ele><time>2026-04-26T08:44:52Z</time></trkpt><trkpt lat="43.48173461028301" lon="13.307361249353946"><ele>229.66666666666666</ele><time>2026-04-26T08:44:53Z</time></trkpt><trkpt lat="43.48188132360618" lon="13.307339885307735"><ele>232.0</ele><time>2026-04-26T08:44:54Z</time></trkpt><trkpt lat="43.482019883904584" lon="13.307303485244026"><ele>233.75</ele><time>2026-04-26T08:44:55Z</time></trkpt><trkpt lat="43.48215915129287" lon="13.307240713277714"><ele>235.5</ele><time>2026-04-26T08:44:56Z</time></trkpt><trkpt lat="43.48229039508786" lon="13.307160480029564"><ele>237.25</ele><time>2026-04-26T08:44:57Z</time></trkpt><trkpt lat="43.48243051710201" lon="13.307080150013443"><ele>239.0</ele><time>2026-04-26T08:44:58Z</time></trkpt><trkpt lat="43.48256868655372" lon="13.306985405221774"><ele>239.0</ele><time>2026-04-26T08:44:59Z</time></trkpt><trkpt lat="43.48271914522174" lon="13.306882233662208"><ele>239.0</ele><time>2026-04-26T08:45:00Z</time></trkpt><trkpt lat="43.482864428322245" lon="13.306789390247063"><ele>239.0</ele><time>2026-04-26T08:45:01Z</time></trkpt><trkpt lat="43.483015432607196" lon="13.306704594277287"><ele>238.33333333333334</ele><time>2026-04-26T08:45:02Z</time></trkpt><trkpt lat="43.48316783849068" lon="13.306627427711733"><ele>237.66666666666669</ele><time>2026-04-26T08:45:03Z</time></trkpt><trkpt lat="43.48331492523811" lon="13.306537044280455"><ele>237.0</ele><time>2026-04-26T08:45:04Z</time></trkpt><trkpt lat="43.483477320233305" lon="13.30648409897545"><ele>237.0</ele><time>2026-04-26T08:45:05Z</time></trkpt><trkpt lat="43.48363141587708" lon="13.306405619800366"><ele>237.0</ele><time>2026-04-26T08:45:06Z</time></trkpt><trkpt lat="43.483785242453344" lon="13.30632613816045"><ele>237.0</ele><time>2026-04-26T08:45:07Z</time></trkpt><trkpt lat="43.48394111239008" lon="13.306229889212881"><ele>239.33333333333331</ele><time>2026-04-26T08:45:08Z</time></trkpt><trkpt lat="43.48408793975171" lon="13.306137102796926"><ele>241.66666666666666</ele><time>2026-04-26T08:45:09Z</time></trkpt><trkpt lat="43.484226127265686" lon="13.30600381462318"><ele>244.0</ele><time>2026-04-26T08:45:10Z</time></trkpt><trkpt lat="43.48436789632224" lon="13.3059091737067"><ele>244.0</ele><time>2026-04-26T08:45:11Z</time></trkpt><trkpt lat="43.48451283693987" lon="13.305839965551478"><ele>244.0</ele><time>2026-04-26T08:45:12Z</time></trkpt><trkpt lat="43.4846665583589" lon="13.305807840166219"><ele>244.0</ele><time>2026-04-26T08:45:13Z</time></trkpt><trkpt lat="43.48482149138391" lon="13.30578669570952"><ele>243.66666666666666</ele><time>2026-04-26T08:45:14Z</time></trkpt><trkpt lat="43.48497104098533" lon="13.305761330868354"><ele>243.33333333333331</ele><time>2026-04-26T08:45:15Z</time></trkpt><trkpt lat="43.48511743585118" lon="13.305707685616394"><ele>243.0</ele><time>2026-04-26T08:45:16Z</time></trkpt><trkpt lat="43.48525864217745" lon="13.305629076500187"><ele>245.66666666666669</ele><time>2026-04-26T08:45:17Z</time></trkpt><trkpt lat="43.485402928171574" lon="13.305565506029792"><ele>248.33333333333334</ele><time>2026-04-26T08:45:18Z</time></trkpt><trkpt lat="43.485549347772434" lon="13.30548227449406"><ele>251.0</ele><time>2026-04-26T08:45:18.999Z</time></trkpt><trkpt lat="43.48569640948986" lon="13.305381395303652"><ele>251.0</ele><time>2026-04-26T08:45:19.999Z</time></trkpt><trkpt lat="43.485827518532034" lon="13.305259101540901"><ele>251.0</ele><time>2026-04-26T08:45:20.999Z</time></trkpt><trkpt lat="43.48594586057334" lon="13.305121213701199"><ele>251.0</ele><time>2026-04-26T08:45:21.999Z</time></trkpt><trkpt lat="43.48606213496993" lon="13.304978958086576"><ele>251.0</ele><time>2026-04-26T08:45:22.999Z</time></trkpt><trkpt lat="43.48617482867032" lon="13.30483822860183"><ele>251.0</ele><time>2026-04-26T08:45:23.999Z</time></trkpt><trkpt lat="43.48628652653707" lon="13.304701907598494"><ele>251.0</ele><time>2026-04-26T08:45:24.999Z</time></trkpt><trkpt lat="43.48641083171013" lon="13.304580423836372"><ele>252.66666666666669</ele><time>2026-04-26T08:45:25.999Z</time></trkpt><trkpt lat="43.486547535706386" lon="13.304492336777853"><ele>254.33333333333331</ele><time>2026-04-26T08:45:26.999Z</time></trkpt><trkpt lat="43.48668780459279" lon="13.30440596742241"><ele>256.0</ele><time>2026-04-26T08:45:27.999Z</time></trkpt><trkpt lat="43.48682879293811" lon="13.304320163176884"><ele>256.0</ele><time>2026-04-26T08:45:28.999Z</time></trkpt><trkpt lat="43.48695689329135" lon="13.304232542746767"><ele>256.0</ele><time>2026-04-26T08:45:29.999Z</time></trkpt><trkpt lat="43.487067850170995" lon="13.30413392476311"><ele>256.0</ele><time>2026-04-26T08:45:30.999Z</time></trkpt><trkpt lat="43.48717506713444" lon="13.304027368441288"><ele>256.0</ele><time>2026-04-26T08:45:31.999Z</time></trkpt><trkpt lat="43.48728316284292" lon="13.303900784766686"><ele>257.0</ele><time>2026-04-26T08:45:32.999Z</time></trkpt><trkpt lat="43.487389981964604" lon="13.303773703289819"><ele>258.0</ele><time>2026-04-26T08:45:33.999Z</time></trkpt><trkpt lat="43.487501048548324" lon="13.30364353009192"><ele>259.0</ele><time>2026-04-26T08:45:34.999Z</time></trkpt><trkpt lat="43.48761142445692" lon="13.303513703879062"><ele>260.0</ele><time>2026-04-26T08:45:35.999Z</time></trkpt><trkpt lat="43.48772033327101" lon="13.303381475610918"><ele>260.0</ele><time>2026-04-26T08:45:36.999Z</time></trkpt><trkpt lat="43.48781312950755" lon="13.303268809131351"><ele>260.0</ele><time>2026-04-26T08:45:37.999Z</time></trkpt><trkpt lat="43.487903548533566" lon="13.303156471274221"><ele>260.0</ele><time>2026-04-26T08:45:38.999Z</time></trkpt><trkpt lat="43.48798777373657" lon="13.303068328041153"><ele>260.0</ele><time>2026-04-26T08:45:39.999Z</time></trkpt><trkpt lat="43.4880780298113" lon="13.302987128425984"><ele>261.25</ele><time>2026-04-26T08:45:40.999Z</time></trkpt><trkpt lat="43.488179197412094" lon="13.302952424765857"><ele>262.5</ele><time>2026-04-26T08:45:41.999Z</time></trkpt><trkpt lat="43.488281318848856" lon="13.302938194543719"><ele>263.75</ele><time>2026-04-26T08:45:42.999Z</time></trkpt><trkpt lat="43.48839952843682" lon="13.302934321461029"><ele>265.0</ele><time>2026-04-26T08:45:43.999Z</time></trkpt><trkpt lat="43.48853231258994" lon="13.302962737133006"><ele>265.0</ele><time>2026-04-26T08:45:44.999Z</time></trkpt><trkpt lat="43.48867569633345" lon="13.302966166422072"><ele>265.0</ele><time>2026-04-26T08:45:45.999Z</time></trkpt><trkpt lat="43.488813011232025" lon="13.30299492932063"><ele>265.0</ele><time>2026-04-26T08:45:46.999Z</time></trkpt><trkpt lat="43.48894660301863" lon="13.303011837333502"><ele>265.0</ele><time>2026-04-26T08:45:47.999Z</time></trkpt><trkpt lat="43.48906888803921" lon="13.303027866469513"><ele>265.6</ele><time>2026-04-26T08:45:48.999Z</time></trkpt><trkpt lat="43.48917410811727" lon="13.303060364871342"><ele>266.2</ele><time>2026-04-26T08:45:49.999Z</time></trkpt><trkpt lat="43.48927159254695" lon="13.30307133178302"><ele>266.8</ele><time>2026-04-26T08:45:50.999Z</time></trkpt><trkpt lat="43.48936845132529" lon="13.30306247395672"><ele>267.4</ele><time>2026-04-26T08:45:51.999Z</time></trkpt><trkpt lat="43.489463913259584" lon="13.303063839895744"><ele>268.0</ele><time>2026-04-26T08:45:52.999Z</time></trkpt><trkpt lat="43.48956230675471" lon="13.303058951506518"><ele>267.0</ele><time>2026-04-26T08:45:53.999Z</time></trkpt><trkpt lat="43.48965315906918" lon="13.303057129533027"><ele>266.0</ele><time>2026-04-26T08:45:54.999Z</time></trkpt><trkpt lat="43.489750204859384" lon="13.303070353006781"><ele>265.0</ele><time>2026-04-26T08:45:55.999Z</time></trkpt><trkpt lat="43.48986010280227" lon="13.303065209371395"><ele>264.0</ele><time>2026-04-26T08:45:56.999Z</time></trkpt><trkpt lat="43.48998823687991" lon="13.303064630147569"><ele>263.0</ele><time>2026-04-26T08:45:57.999Z</time></trkpt><trkpt lat="43.49012823487773" lon="13.30306186242538"><ele>263.0</ele><time>2026-04-26T08:45:58.999Z</time></trkpt><trkpt lat="43.49027620128143" lon="13.303053984742574"><ele>263.0</ele><time>2026-04-26T08:45:59.999Z</time></trkpt><trkpt lat="43.49041937651225" lon="13.303052937030502"><ele>263.0</ele><time>2026-04-26T08:46:00.999Z</time></trkpt><trkpt lat="43.490561188476995" lon="13.302991557553145"><ele>263.0</ele><time>2026-04-26T08:46:01.999Z</time></trkpt><trkpt lat="43.4906951086687" lon="13.302885933051805"><ele>263.25</ele><time>2026-04-26T08:46:02.999Z</time></trkpt><trkpt lat="43.49081096499389" lon="13.302752756078336"><ele>263.5</ele><time>2026-04-26T08:46:03.999Z</time></trkpt><trkpt lat="43.490914966865695" lon="13.302628861201553"><ele>263.75</ele><time>2026-04-26T08:46:04.999Z</time></trkpt><trkpt lat="43.49100736642902" lon="13.302512157266953"><ele>264.0</ele><time>2026-04-26T08:46:05.999Z</time></trkpt><trkpt lat="43.49109405386915" lon="13.302409880204543"><ele>264.0</ele><time>2026-04-26T08:46:06.999Z</time></trkpt><trkpt lat="43.491178986418916" lon="13.302316967808878"><ele>264.0</ele><time>2026-04-26T08:46:07.999Z</time></trkpt><trkpt lat="43.49126300349262" lon="13.30222577407552"><ele>264.0</ele><time>2026-04-26T08:46:08.999Z</time></trkpt><trkpt lat="43.491342284552125" lon="13.302144144916891"><ele>264.0</ele><time>2026-04-26T08:46:09.999Z</time></trkpt><trkpt lat="43.49140295221037" lon="13.302053067397322"><ele>264.0</ele><time>2026-04-26T08:46:10.999Z</time></trkpt><trkpt lat="43.491475654900775" lon="13.302011315851765"><ele>263.59999999999997</ele><time>2026-04-26T08:46:11.999Z</time></trkpt><trkpt lat="43.4915299813911" lon="13.301954320477645"><ele>263.2</ele><time>2026-04-26T08:46:12.999Z</time></trkpt><trkpt lat="43.49163152190911" lon="13.301939795533839"><ele>262.79999999999995</ele><time>2026-04-26T08:46:14.999Z</time></trkpt><trkpt lat="43.49169689274105" lon="13.30202911028951"><ele>262.4</ele><time>2026-04-26T08:46:16.999Z</time></trkpt><trkpt lat="43.49175685958526" lon="13.302203428627324"><ele>262.0</ele><time>2026-04-26T08:46:18.999Z</time></trkpt><trkpt lat="43.49179926407083" lon="13.302309965782344"><ele>262.0</ele><time>2026-04-26T08:46:19.999Z</time></trkpt><trkpt lat="43.4918626169334" lon="13.302431574607684"><ele>262.0</ele><time>2026-04-26T08:46:20.999Z</time></trkpt><trkpt lat="43.491935836194884" lon="13.30257720041297"><ele>262.0</ele><time>2026-04-26T08:46:21.999Z</time></trkpt><trkpt lat="43.49202452705873" lon="13.302723529858627"><ele>262.0</ele><time>2026-04-26T08:46:22.999Z</time></trkpt><trkpt lat="43.49211875485121" lon="13.302876903608"><ele>258.3333333333333</ele><time>2026-04-26T08:46:23.999Z</time></trkpt><trkpt lat="43.49222226472407" lon="13.303062474447332"><ele>254.66666666666669</ele><time>2026-04-26T08:46:24.999Z</time></trkpt><trkpt lat="43.49232449798106" lon="13.303257940124757"><ele>251.0</ele><time>2026-04-26T08:46:25.999Z</time></trkpt><trkpt lat="43.49242955768166" lon="13.303444726119832"><ele>251.0</ele><time>2026-04-26T08:46:26.999Z</time></trkpt><trkpt lat="43.492534034805225" lon="13.303632732139489"><ele>251.0</ele><time>2026-04-26T08:46:27.999Z</time></trkpt><trkpt lat="43.49262374248694" lon="13.303819424581933"><ele>251.0</ele><time>2026-04-26T08:46:28.999Z</time></trkpt><trkpt lat="43.49269825896067" lon="13.304013194480536"><ele>251.0</ele><time>2026-04-26T08:46:29.999Z</time></trkpt><trkpt lat="43.4927632807549" lon="13.304200739564523"><ele>251.0</ele><time>2026-04-26T08:46:30.999Z</time></trkpt><trkpt lat="43.492824723544054" lon="13.304368441564007"><ele>251.0</ele><time>2026-04-26T08:46:31.999Z</time></trkpt><trkpt lat="43.492879294942135" lon="13.304514649944593"><ele>251.0</ele><time>2026-04-26T08:46:32.999Z</time></trkpt><trkpt lat="43.492938175549114" lon="13.304640212645557"><ele>250.20000000000002</ele><time>2026-04-26T08:46:33.999Z</time></trkpt><trkpt lat="43.49300765201699" lon="13.304745007224456"><ele>249.40000000000003</ele><time>2026-04-26T08:46:34.999Z</time></trkpt><trkpt lat="43.4930794527837" lon="13.304851589218746"><ele>248.6</ele><time>2026-04-26T08:46:35.999Z</time></trkpt><trkpt lat="43.493151253970844" lon="13.304954913372004"><ele>247.8</ele><time>2026-04-26T08:46:36.999Z</time></trkpt><trkpt lat="43.49323180983279" lon="13.305061930972432"><ele>247.0</ele><time>2026-04-26T08:46:37.999Z</time></trkpt><trkpt lat="43.493314119581356" lon="13.305170067814137"><ele>247.0</ele><time>2026-04-26T08:46:38.999Z</time></trkpt><trkpt lat="43.493397145593285" lon="13.305265790302558"><ele>247.0</ele><time>2026-04-26T08:46:39.999Z</time></trkpt><trkpt lat="43.493474442441446" lon="13.305369504686604"><ele>247.0</ele><time>2026-04-26T08:46:40.999Z</time></trkpt><trkpt lat="43.49355188768406" lon="13.305464626534567"><ele>247.0</ele><time>2026-04-26T08:46:41.999Z</time></trkpt><trkpt lat="43.493626496409874" lon="13.30556188403845"><ele>247.0</ele><time>2026-04-26T08:46:43Z</time></trkpt><trkpt lat="43.493707871437394" lon="13.305646495113676"><ele>246.0</ele><time>2026-04-26T08:46:44Z</time></trkpt><trkpt lat="43.493778794540525" lon="13.305736056231611"><ele>245.0</ele><time>2026-04-26T08:46:45Z</time></trkpt><trkpt lat="43.49385056716966" lon="13.305822985506696"><ele>244.0</ele><time>2026-04-26T08:46:46Z</time></trkpt><trkpt lat="43.493920489987715" lon="13.305916668254289"><ele>243.0</ele><time>2026-04-26T08:46:47Z</time></trkpt><trkpt lat="43.49399224603507" lon="13.305997974483768"><ele>242.0</ele><time>2026-04-26T08:46:48Z</time></trkpt><trkpt lat="43.494062818844995" lon="13.306073089524002"><ele>242.00000000000003</ele><time>2026-04-26T08:46:49Z</time></trkpt><trkpt lat="43.49413283916474" lon="13.30615655617562"><ele>242.0</ele><time>2026-04-26T08:46:50Z</time></trkpt><trkpt lat="43.49421042823668" lon="13.306222280081178"><ele>242.0</ele><time>2026-04-26T08:46:51Z</time></trkpt><trkpt lat="43.4942597822386" lon="13.306308321755273"><ele>242.0</ele><time>2026-04-26T08:46:52Z</time></trkpt><trkpt lat="43.4943195249894" lon="13.30639325840923"><ele>242.00000000000003</ele><time>2026-04-26T08:46:53Z</time></trkpt><trkpt lat="43.49437290291851" lon="13.30646541921095"><ele>242.0</ele><time>2026-04-26T08:46:54Z</time></trkpt><trkpt lat="43.4944250703735" lon="13.306548307134468"><ele>241.8</ele><time>2026-04-26T08:46:55Z</time></trkpt><trkpt lat="43.4944992089364" lon="13.306618510902958"><ele>241.6</ele><time>2026-04-26T08:46:56Z</time></trkpt><trkpt lat="43.49456680048258" lon="13.30671592609519"><ele>241.40000000000003</ele><time>2026-04-26T08:46:57Z</time></trkpt><trkpt lat="43.49464193588615" lon="13.306840662327776"><ele>241.20000000000002</ele><time>2026-04-26T08:46:58Z</time></trkpt><trkpt lat="43.494718138208654" lon="13.306961585660085"><ele>241.0</ele><time>2026-04-26T08:46:59Z</time></trkpt><trkpt lat="43.49479175432135" lon="13.307079694694622"><ele>240.60000000000002</ele><time>2026-04-26T08:47:00Z</time></trkpt><trkpt lat="43.49485764550091" lon="13.307199508451987"><ele>240.20000000000002</ele><time>2026-04-26T08:47:01Z</time></trkpt><trkpt lat="43.494920999433035" lon="13.307311321007745"><ele>239.79999999999998</ele><time>2026-04-26T08:47:02Z</time></trkpt><trkpt lat="43.494981555762834" lon="13.307422756689604"><ele>239.39999999999998</ele><time>2026-04-26T08:47:03Z</time></trkpt><trkpt lat="43.495036449895046" lon="13.307530359787942"><ele>239.0</ele><time>2026-04-26T08:47:04Z</time></trkpt><trkpt lat="43.4950923846789" lon="13.307626255485513"><ele>239.00000000000003</ele><time>2026-04-26T08:47:05Z</time></trkpt><trkpt lat="43.49514712496083" lon="13.307715606978393"><ele>239.0</ele><time>2026-04-26T08:47:06Z</time></trkpt><trkpt lat="43.49521194393284" lon="13.307825770891915"><ele>239.0</ele><time>2026-04-26T08:47:08Z</time></trkpt><trkpt lat="43.49525097497765" lon="13.307947857450072"><ele>239.0</ele><time>2026-04-26T08:47:10Z</time></trkpt><trkpt lat="43.49528141977488" lon="13.3080425158805"><ele>239.00000000000003</ele><time>2026-04-26T08:47:12Z</time></trkpt><trkpt lat="43.495313606231356" lon="13.308126722919274"><ele>239.0</ele><time>2026-04-26T08:47:14Z</time></trkpt><trkpt lat="43.49533542293956" lon="13.308254371651618"><ele>239.2</ele><time>2026-04-26T08:47:17Z</time></trkpt><trkpt lat="43.49535256293554" lon="13.308343559377645"><ele>239.39999999999998</ele><time>2026-04-26T08:47:19Z</time></trkpt><trkpt lat="43.49537018311028" lon="13.30844448562645"><ele>239.6</ele><time>2026-04-26T08:47:21Z</time></trkpt><trkpt lat="43.49540247821009" lon="13.30857939219616"><ele>239.8</ele><time>2026-04-26T08:47:24Z</time></trkpt><trkpt lat="43.495428928164394" lon="13.308718646532936"><ele>240.0</ele><time>2026-04-26T08:47:26Z</time></trkpt><trkpt lat="43.49546025779007" lon="13.308873504463927"><ele>241.28571428571428</ele><time>2026-04-26T08:47:28Z</time></trkpt><trkpt lat="43.49546223921604" lon="13.308968556399282"><ele>242.57142857142856</ele><time>2026-04-26T08:47:29Z</time></trkpt><trkpt lat="43.49549850003723" lon="13.309062528318913"><ele>243.85714285714283</ele><time>2026-04-26T08:47:30Z</time></trkpt><trkpt lat="43.49551084169659" lon="13.309154259624572"><ele>245.14285714285714</ele><time>2026-04-26T08:47:31Z</time></trkpt><trkpt lat="43.49552869114819" lon="13.309251037188764"><ele>246.4285714285714</ele><time>2026-04-26T08:47:32Z</time></trkpt><trkpt lat="43.49554881897875" lon="13.309348040334749"><ele>247.7142857142857</ele><time>2026-04-26T08:47:33Z</time></trkpt><trkpt lat="43.49557320074529" lon="13.309437874078082"><ele>249.0</ele><time>2026-04-26T08:47:34Z</time></trkpt><trkpt lat="43.49559998529755" lon="13.309534841823757"><ele>249.0</ele><time>2026-04-26T08:47:35Z</time></trkpt><trkpt lat="43.495623616790475" lon="13.309627718504716"><ele>249.0</ele><time>2026-04-26T08:47:36Z</time></trkpt><trkpt lat="43.4956390493913" lon="13.30971366901718"><ele>249.0</ele><time>2026-04-26T08:47:37Z</time></trkpt><trkpt lat="43.495667117849266" lon="13.30980591974608"><ele>249.0</ele><time>2026-04-26T08:47:38Z</time></trkpt><trkpt lat="43.49570339585727" lon="13.309894487813102"><ele>249.0</ele><time>2026-04-26T08:47:39Z</time></trkpt><trkpt lat="43.49572883013745" lon="13.309994040509592"><ele>249.0</ele><time>2026-04-26T08:47:40Z</time></trkpt><trkpt lat="43.49576765553203" lon="13.310193838094577"><ele>249.16666666666666</ele><time>2026-04-26T08:47:41.999Z</time></trkpt><trkpt lat="43.49578629232557" lon="13.310295358293416"><ele>249.33333333333331</ele><time>2026-04-26T08:47:42.999Z</time></trkpt><trkpt lat="43.49580343487767" lon="13.310391531396363"><ele>249.5</ele><time>2026-04-26T08:47:43.999Z</time></trkpt><trkpt lat="43.4958201558493" lon="13.310488094976215"><ele>249.66666666666666</ele><time>2026-04-26T08:47:44.999Z</time></trkpt><trkpt lat="43.49583634528408" lon="13.310584696698054"><ele>249.83333333333331</ele><time>2026-04-26T08:47:45.999Z</time></trkpt><trkpt lat="43.49585499560652" lon="13.310703009010897"><ele>250.0</ele><time>2026-04-26T08:47:47.999Z</time></trkpt><trkpt lat="43.49572951396608" lon="13.310797427794032"><ele>249.99999999999997</ele><time>2026-04-26T08:47:50.999Z</time></trkpt><trkpt lat="43.49560803523511" lon="13.310831974979726"><ele>250.0</ele><time>2026-04-26T08:47:52.999Z</time></trkpt><trkpt lat="43.49553918200701" lon="13.310863809940546"><ele>250.0</ele><time>2026-04-26T08:47:53.999Z</time></trkpt><trkpt lat="43.495491197095255" lon="13.31093242583518"><ele>250.0</ele><time>2026-04-26T08:47:54.999Z</time></trkpt><trkpt lat="43.495458899854114" lon="13.311035018223798"><ele>249.99999999999997</ele><time>2026-04-26T08:47:55.999Z</time></trkpt><trkpt lat="43.49545762335104" lon="13.311156847387592"><ele>250.0</ele><time>2026-04-26T08:47:56.999Z</time></trkpt><trkpt lat="43.49547014120037" lon="13.31126513485923"><ele>249.99999999999997</ele><time>2026-04-26T08:47:57.999Z</time></trkpt><trkpt lat="43.49549560042243" lon="13.311373642237964"><ele>250.0</ele><time>2026-04-26T08:47:58.999Z</time></trkpt><trkpt lat="43.49553533706265" lon="13.311480542949472"><ele>250.0</ele><time>2026-04-26T08:47:59.999Z</time></trkpt><trkpt lat="43.49561651650567" lon="13.311543644425672"><ele>250.0</ele><time>2026-04-26T08:48:00.999Z</time></trkpt><trkpt lat="43.49570526686277" lon="13.311560328003251"><ele>249.99999999999997</ele><time>2026-04-26T08:48:01.999Z</time></trkpt><trkpt lat="43.49578901251837" lon="13.311558434548878"><ele>250.0</ele><time>2026-04-26T08:48:02.999Z</time></trkpt><trkpt lat="43.49586453221328" lon="13.311558461082239"><ele>248.83333333333331</ele><time>2026-04-26T08:48:03.999Z</time></trkpt><trkpt lat="43.49594146793532" lon="13.311562315983675"><ele>247.66666666666666</ele><time>2026-04-26T08:48:04.999Z</time></trkpt><trkpt lat="43.49601814657067" lon="13.311566034053195"><ele>246.5</ele><time>2026-04-26T08:48:05.999Z</time></trkpt><trkpt lat="43.49610172924447" lon="13.311573487931138"><ele>245.33333333333331</ele><time>2026-04-26T08:48:06.999Z</time></trkpt><trkpt lat="43.49618793763596" lon="13.31157306444275"><ele>244.16666666666666</ele><time>2026-04-26T08:48:07.999Z</time></trkpt><trkpt lat="43.496261848415855" lon="13.311575155067073"><ele>243.0</ele><time>2026-04-26T08:48:08.999Z</time></trkpt><trkpt lat="43.49636957827059" lon="13.311604462220389"><ele>243.0</ele><time>2026-04-26T08:48:10.999Z</time></trkpt><trkpt lat="43.49644438790952" lon="13.311683015216959"><ele>243.0</ele><time>2026-04-26T08:48:12.999Z</time></trkpt><trkpt lat="43.496296249316764" lon="13.311862984207899"><ele>243.0</ele><time>2026-04-26T08:48:13.999Z</time></trkpt><trkpt lat="43.49631949660352" lon="13.311945010599672"><ele>243.0</ele><time>2026-04-26T08:48:14.999Z</time></trkpt><trkpt lat="43.4962163780884" lon="13.311928526128629"><ele>243.0</ele><time>2026-04-26T08:48:15.999Z</time></trkpt><trkpt lat="43.49610615127774" lon="13.311939693926993"><ele>243.0</ele><time>2026-04-26T08:48:16.999Z</time></trkpt><trkpt lat="43.495968782661315" lon="13.31194515326814"><ele>243.0</ele><time>2026-04-26T08:48:17.999Z</time></trkpt><trkpt lat="43.495816152479115" lon="13.311959117285351"><ele>243.0</ele><time>2026-04-26T08:48:18.999Z</time></trkpt><trkpt lat="43.49567980082061" lon="13.311944529515634"><ele>243.0</ele><time>2026-04-26T08:48:19.999Z</time></trkpt><trkpt lat="43.495555049994564" lon="13.311950911957004"><ele>243.0</ele><time>2026-04-26T08:48:20.999Z</time></trkpt><trkpt lat="43.495443863327374" lon="13.311962585319215"><ele>243.0</ele><time>2026-04-26T08:48:21.999Z</time></trkpt><trkpt lat="43.49533953557785" lon="13.311994750950246"><ele>243.0</ele><time>2026-04-26T08:48:22.999Z</time></trkpt><trkpt lat="43.49525580694912" lon="13.31205247454259"><ele>243.0</ele><time>2026-04-26T08:48:23.999Z</time></trkpt><trkpt lat="43.49519775734894" lon="13.312133410351137"><ele>242.16666666666666</ele><time>2026-04-26T08:48:24.999Z</time></trkpt><trkpt lat="43.495155758964565" lon="13.31220301628113"><ele>241.33333333333331</ele><time>2026-04-26T08:48:25.999Z</time></trkpt><trkpt lat="43.49511890856018" lon="13.312277021106913"><ele>240.5</ele><time>2026-04-26T08:48:29.999Z</time></trkpt><trkpt lat="43.49510967693769" lon="13.312402202432427"><ele>239.66666666666666</ele><time>2026-04-26T08:48:31.999Z</time></trkpt><trkpt lat="43.495140822856015" lon="13.31249896240296"><ele>238.83333333333331</ele><time>2026-04-26T08:48:32.999Z</time></trkpt><trkpt lat="43.49519100721727" lon="13.312592710289424"><ele>238.0</ele><time>2026-04-26T08:48:33.999Z</time></trkpt><trkpt lat="43.49524539668315" lon="13.312729276695949"><ele>235.75</ele><time>2026-04-26T08:48:34.999Z</time></trkpt><trkpt lat="43.49529396005098" lon="13.31289547655248"><ele>233.5</ele><time>2026-04-26T08:48:35.999Z</time></trkpt><trkpt lat="43.49534589208691" lon="13.313065811719028"><ele>231.25</ele><time>2026-04-26T08:48:36.999Z</time></trkpt><trkpt lat="43.49542668342328" lon="13.313230688554812"><ele>229.0</ele><time>2026-04-26T08:48:37.999Z</time></trkpt><trkpt lat="43.495499288267126" lon="13.313403638138064"><ele>228.75</ele><time>2026-04-26T08:48:38.999Z</time></trkpt><trkpt lat="43.49557012353366" lon="13.313578477804473"><ele>228.5</ele><time>2026-04-26T08:48:39.999Z</time></trkpt><trkpt lat="43.49563385001582" lon="13.313749866056567"><ele>228.25</ele><time>2026-04-26T08:48:40.999Z</time></trkpt><trkpt lat="43.49565888730787" lon="13.313931097969583"><ele>228.0</ele><time>2026-04-26T08:48:41.999Z</time></trkpt><trkpt lat="43.49565405273987" lon="13.314112292372657"><ele>226.0</ele><time>2026-04-26T08:48:42.999Z</time></trkpt><trkpt lat="43.4956288207906" lon="13.314265538203653"><ele>224.0</ele><time>2026-04-26T08:48:43.999Z</time></trkpt><trkpt lat="43.49560173627596" lon="13.314374229725763"><ele>222.0</ele><time>2026-04-26T08:48:44.999Z</time></trkpt><trkpt lat="43.49556673562129" lon="13.314533261909506"><ele>220.0</ele><time>2026-04-26T08:48:45.999Z</time></trkpt><trkpt lat="43.4954911874854" lon="13.31468960801611"><ele>219.75</ele><time>2026-04-26T08:48:46.999Z</time></trkpt><trkpt lat="43.49540860522348" lon="13.314842056638344"><ele>219.5</ele><time>2026-04-26T08:48:47.999Z</time></trkpt><trkpt lat="43.49532550833051" lon="13.314996924123225"><ele>219.25</ele><time>2026-04-26T08:48:49Z</time></trkpt><trkpt lat="43.49524436392206" lon="13.31516720413071"><ele>219.0</ele><time>2026-04-26T08:48:50Z</time></trkpt><trkpt lat="43.49515740497965" lon="13.31534692564778"><ele>219.0</ele><time>2026-04-26T08:48:51Z</time></trkpt><trkpt lat="43.49507101419333" lon="13.315518043008828"><ele>219.0</ele><time>2026-04-26T08:48:52Z</time></trkpt><trkpt lat="43.49498998099013" lon="13.315692023031252"><ele>219.0</ele><time>2026-04-26T08:48:53Z</time></trkpt><trkpt lat="43.494901282518065" lon="13.315854410137005"><ele>219.0</ele><time>2026-04-26T08:48:54Z</time></trkpt><trkpt lat="43.494804026501676" lon="13.316013650257592"><ele>218.33333333333331</ele><time>2026-04-26T08:48:55Z</time></trkpt><trkpt lat="43.49470618387285" lon="13.316176560164921"><ele>217.66666666666666</ele><time>2026-04-26T08:48:56Z</time></trkpt><trkpt lat="43.49463317454244" lon="13.316359485933747"><ele>217.0</ele><time>2026-04-26T08:48:57Z</time></trkpt><trkpt lat="43.49454609799999" lon="13.316531828510268"><ele>216.75</ele><time>2026-04-26T08:48:58Z</time></trkpt><trkpt lat="43.49445155455907" lon="13.316716985180127"><ele>216.5</ele><time>2026-04-26T08:48:59Z</time></trkpt><trkpt lat="43.4943427114544" lon="13.316927733490353"><ele>216.25</ele><time>2026-04-26T08:49:00Z</time></trkpt><trkpt lat="43.49433787975756" lon="13.317033025947818"><ele>216.0</ele><time>2026-04-26T08:49:01Z</time></trkpt><trkpt lat="43.494252790671624" lon="13.31719761579313"><ele>215.5</ele><time>2026-04-26T08:49:02Z</time></trkpt><trkpt lat="43.49416883139492" lon="13.317358494744857"><ele>215.0</ele><time>2026-04-26T08:49:03Z</time></trkpt><trkpt lat="43.49408182533932" lon="13.317503153029653"><ele>214.5</ele><time>2026-04-26T08:49:04Z</time></trkpt><trkpt lat="43.49399959120452" lon="13.317654070250178"><ele>214.0</ele><time>2026-04-26T08:49:05Z</time></trkpt><trkpt lat="43.493919043712296" lon="13.31780101980468"><ele>214.0</ele><time>2026-04-26T08:49:06Z</time></trkpt><trkpt lat="43.49382187759982" lon="13.317921107358474"><ele>214.0</ele><time>2026-04-26T08:49:07Z</time></trkpt><trkpt lat="43.49371963182377" lon="13.318023990985681"><ele>214.0</ele><time>2026-04-26T08:49:08Z</time></trkpt><trkpt lat="43.49360675367289" lon="13.318100559608425"><ele>214.0</ele><time>2026-04-26T08:49:09Z</time></trkpt><trkpt lat="43.493494592159074" lon="13.318155087307234"><ele>214.75</ele><time>2026-04-26T08:49:10Z</time></trkpt><trkpt lat="43.493374320234864" lon="13.3181361750706"><ele>215.5</ele><time>2026-04-26T08:49:11Z</time></trkpt><trkpt lat="43.49324665162921" lon="13.318127610710377"><ele>216.25</ele><time>2026-04-26T08:49:12Z</time></trkpt><trkpt lat="43.4931270784534" lon="13.31809653693711"><ele>217.0</ele><time>2026-04-26T08:49:13Z</time></trkpt><trkpt lat="43.493010148589555" lon="13.318039702707518"><ele>219.25</ele><time>2026-04-26T08:49:14Z</time></trkpt><trkpt lat="43.49291813147613" lon="13.317934380059123"><ele>221.5</ele><time>2026-04-26T08:49:15Z</time></trkpt><trkpt lat="43.49282083083604" lon="13.317829025546272"><ele>223.75</ele><time>2026-04-26T08:49:16Z</time></trkpt><trkpt lat="43.49271915863098" lon="13.31772110069466"><ele>226.0</ele><time>2026-04-26T08:49:17Z</time></trkpt><trkpt lat="43.49261120771601" lon="13.317607411073087"><ele>226.0</ele><time>2026-04-26T08:49:18Z</time></trkpt><trkpt lat="43.492521462306826" lon="13.317512894296364"><ele>226.00000000000003</ele><time>2026-04-26T08:49:19Z</time></trkpt><trkpt lat="43.49243735596464" lon="13.317424316656226"><ele>226.00000000000003</ele><time>2026-04-26T08:49:20Z</time></trkpt><trkpt lat="43.49235500976307" lon="13.317337594344146"><ele>226.0</ele><time>2026-04-26T08:49:21Z</time></trkpt><trkpt lat="43.4922522876607" lon="13.317262871175572"><ele>226.0</ele><time>2026-04-26T08:49:22Z</time></trkpt><trkpt lat="43.49216433271862" lon="13.317161500768206"><ele>226.75</ele><time>2026-04-26T08:49:23Z</time></trkpt><trkpt lat="43.49207672047408" lon="13.31704413441832"><ele>227.5</ele><time>2026-04-26T08:49:24Z</time></trkpt><trkpt lat="43.49197479975291" lon="13.316946039850075"><ele>228.25</ele><time>2026-04-26T08:49:25Z</time></trkpt><trkpt lat="43.49187808883611" lon="13.316853432967921"><ele>229.0</ele><time>2026-04-26T08:49:26Z</time></trkpt><trkpt lat="43.49178541037637" lon="13.316765008521129"><ele>229.0</ele><time>2026-04-26T08:49:27Z</time></trkpt><trkpt lat="43.4916986628107" lon="13.31668243450248"><ele>228.99999999999997</ele><time>2026-04-26T08:49:28Z</time></trkpt><trkpt lat="43.49159757922038" lon="13.316617867414895"><ele>228.99999999999997</ele><time>2026-04-26T08:49:29Z</time></trkpt><trkpt lat="43.49148940329228" lon="13.316600509277096"><ele>229.0</ele><time>2026-04-26T08:49:30Z</time></trkpt><trkpt lat="43.491396719301285" lon="13.31662042743078"><ele>229.0</ele><time>2026-04-26T08:49:31Z</time></trkpt><trkpt lat="43.49131590815853" lon="13.316684215374735"><ele>228.6</ele><time>2026-04-26T08:49:32Z</time></trkpt><trkpt lat="43.491250209767855" lon="13.316784675796407"><ele>228.2</ele><time>2026-04-26T08:49:33Z</time></trkpt><trkpt lat="43.49120878143022" lon="13.316911111818856"><ele>227.79999999999998</ele><time>2026-04-26T08:49:34Z</time></trkpt><trkpt lat="43.49119889475515" lon="13.317052275529456"><ele>227.39999999999998</ele><time>2026-04-26T08:49:35Z</time></trkpt><trkpt lat="43.491201153053396" lon="13.317189357252127"><ele>227.0</ele><time>2026-04-26T08:49:36Z</time></trkpt><trkpt lat="43.49120740372271" lon="13.317322681998723"><ele>227.0</ele><time>2026-04-26T08:49:37Z</time></trkpt><trkpt lat="43.49121577205962" lon="13.317451351603594"><ele>227.0</ele><time>2026-04-26T08:49:38Z</time></trkpt><trkpt lat="43.491222406026324" lon="13.317575750328993"><ele>227.0</ele><time>2026-04-26T08:49:39Z</time></trkpt><trkpt lat="43.491227475210714" lon="13.317706240465693"><ele>227.0</ele><time>2026-04-26T08:49:40Z</time></trkpt><trkpt lat="43.49123197215162" lon="13.317839036851911"><ele>227.0</ele><time>2026-04-26T08:49:41Z</time></trkpt><trkpt lat="43.49124446477133" lon="13.317974582296499"><ele>230.0</ele><time>2026-04-26T08:49:42Z</time></trkpt><trkpt lat="43.49125872551912" lon="13.318118883186584"><ele>233.0</ele><time>2026-04-26T08:49:42.999Z</time></trkpt><trkpt lat="43.491273842902125" lon="13.31826599353259"><ele>236.0</ele><time>2026-04-26T08:49:43.999Z</time></trkpt><trkpt lat="43.491304431779085" lon="13.318417462811583"><ele>239.0</ele><time>2026-04-26T08:49:44.999Z</time></trkpt><trkpt lat="43.491340306180106" lon="13.318571814547424"><ele>242.0</ele><time>2026-04-26T08:49:45.999Z</time></trkpt><trkpt lat="43.49137628662315" lon="13.318723616166187"><ele>242.0</ele><time>2026-04-26T08:49:46.999Z</time></trkpt><trkpt lat="43.49141042919303" lon="13.31886774804619"><ele>242.0</ele><time>2026-04-26T08:49:47.999Z</time></trkpt><trkpt lat="43.4914403775192" lon="13.318996477217123"><ele>242.0</ele><time>2026-04-26T08:49:48.999Z</time></trkpt><trkpt lat="43.49146868543182" lon="13.319125061349109"><ele>242.0</ele><time>2026-04-26T08:49:49.999Z</time></trkpt><trkpt lat="43.491494858213855" lon="13.319241678700367"><ele>242.0</ele><time>2026-04-26T08:49:50.999Z</time></trkpt><trkpt lat="43.49152002413799" lon="13.319363582696813"><ele>242.0</ele><time>2026-04-26T08:49:51.999Z</time></trkpt><trkpt lat="43.491545564190474" lon="13.319489208032127"><ele>242.0</ele><time>2026-04-26T08:49:52.999Z</time></trkpt><trkpt lat="43.49157206784933" lon="13.319620128663404"><ele>242.0</ele><time>2026-04-26T08:49:53.999Z</time></trkpt><trkpt lat="43.491601023636896" lon="13.319748060040016"><ele>242.0</ele><time>2026-04-26T08:49:54.999Z</time></trkpt><trkpt lat="43.491628670250506" lon="13.319878858417232"><ele>242.0</ele><time>2026-04-26T08:49:55.999Z</time></trkpt><trkpt lat="43.49165033548015" lon="13.31999415716974"><ele>242.00000000000003</ele><time>2026-04-26T08:49:56.999Z</time></trkpt><trkpt lat="43.4916646487006" lon="13.320094396675604"><ele>242.0</ele><time>2026-04-26T08:49:57.999Z</time></trkpt><trkpt lat="43.49166931028993" lon="13.320195916309556"><ele>242.0</ele><time>2026-04-26T08:49:58.999Z</time></trkpt><trkpt lat="43.4916698620055" lon="13.320290903763064"><ele>242.0</ele><time>2026-04-26T08:49:59.999Z</time></trkpt><trkpt lat="43.49164535792535" lon="13.3204431744515"><ele>242.00000000000003</ele><time>2026-04-26T08:50:01.999Z</time></trkpt><trkpt lat="43.49175177341692" lon="13.320503013360582"><ele>242.0</ele><time>2026-04-26T08:50:05.999Z</time></trkpt><trkpt lat="43.49183792659608" lon="13.320428654809293"><ele>242.0</ele><time>2026-04-26T08:50:07.999Z</time></trkpt><trkpt lat="43.491933488942955" lon="13.32032344232546"><ele>242.0</ele><time>2026-04-26T08:50:09.999Z</time></trkpt><trkpt lat="43.4920350242213" lon="13.320219908388008"><ele>242.0</ele><time>2026-04-26T08:50:11.999Z</time></trkpt><trkpt lat="43.49208933910112" lon="13.32015598987117"><ele>242.0</ele><time>2026-04-26T08:50:12.999Z</time></trkpt><trkpt lat="43.49214309805255" lon="13.320105745142408"><ele>242.0</ele><time>2026-04-26T08:50:13.999Z</time></trkpt><trkpt lat="43.4921978595885" lon="13.320029498381968"><ele>241.83333333333334</ele><time>2026-04-26T08:50:14.999Z</time></trkpt><trkpt lat="43.49225601206769" lon="13.319966834712924"><ele>241.66666666666669</ele><time>2026-04-26T08:50:15.999Z</time></trkpt><trkpt lat="43.492317309125106" lon="13.319912019425358"><ele>241.5</ele><time>2026-04-26T08:50:16.999Z</time></trkpt><trkpt lat="43.492367948498384" lon="13.319850874915511"><ele>241.33333333333331</ele><time>2026-04-26T08:50:17.999Z</time></trkpt><trkpt lat="43.49240050164552" lon="13.319730710943878"><ele>241.16666666666666</ele><time>2026-04-26T08:50:19.999Z</time></trkpt><trkpt lat="43.49243726131149" lon="13.319615222717275"><ele>241.0</ele><time>2026-04-26T08:50:21.999Z</time></trkpt><trkpt lat="43.49252665422297" lon="13.319543176204519"><ele>241.0</ele><time>2026-04-26T08:50:23.999Z</time></trkpt><trkpt lat="43.49261098920255" lon="13.319444310805228"><ele>241.00000000000003</ele><time>2026-04-26T08:50:25.999Z</time></trkpt><trkpt lat="43.49253048686475" lon="13.319200240551396"><ele>241.00000000000003</ele><time>2026-04-26T08:50:27.999Z</time></trkpt><trkpt lat="43.49248657201061" lon="13.319126703080165"><ele>241.0</ele><time>2026-04-26T08:50:28.999Z</time></trkpt><trkpt lat="43.492463006599294" lon="13.319042186825376"><ele>241.0</ele><time>2026-04-26T08:50:29.999Z</time></trkpt><trkpt lat="43.492397925516045" lon="13.318901539292415"><ele>241.0</ele><time>2026-04-26T08:50:31.999Z</time></trkpt><trkpt lat="43.492331911520814" lon="13.318791444707776"><ele>236.0</ele><time>2026-04-26T08:50:33.999Z</time></trkpt><trkpt lat="43.49229450063044" lon="13.318681446942739"><ele>236.0</ele><time>2026-04-26T08:50:35.999Z</time></trkpt><trkpt lat="43.492263304073646" lon="13.318604169277735"><ele>236.0</ele><time>2026-04-26T08:50:51.999Z</time></trkpt><trkpt lat="43.492343226353064" lon="13.318529013442499"><ele>236.0</ele><time>2026-04-26T08:50:55Z</time></trkpt></trkseg></trk></gpx>